<?xml version="1.0" encoding="UTF-8" standalone="no" ?>
<gpx xmlns="http://www.topografix.com/GPX/1/1" xmlns:xsi="http://www.w3.org/2001/XMLSchema-instance" xsi:schemaLocation="http://www.topografix.com/GPX/1/1 http://www.topografix.com/GPX/1/1/gpx.xsd" version="1.1" creator="VisuGPX - https://www.visugpx.com">
  <metadata>
    <name>Tour des Pérics (modifié)</name>
    <desc><![CDATA[Tour des Pérics avec ascension du Péric et du Carlit
Départ et Arrivée d'Orlu]]></desc>
  </metadata>
  <trk>
    <name><![CDATA[2017-08-11 18:25]]></name>
    <desc><![CDATA[<p>Heure de départ: 08/11/2017 18:26<br/>Heure d'arrivée: 08/14/2017 16:53<br/>Distance: 56,9 km (70:27)<br/>Temps déplacement: 59:42<br/>Vitesse moyenne: 0,81 km/h<br/>Vitesse moyenne mouv.: 0,95 km/h<br/>Vitesse Max.: 15,04 km/h<br/>Altitude minimale: 1124 m<br/>Altitude maximale: 2923 m<br/>Vitesse de montée: 134,1 m/h<br/>Vitesse de descente: -102,2 m/h<br/>Gain d'altitude: 4017 m<br/>Perte d'altitude: -4009 m<br/>Temps de montée: 29:57<br/>Temps de descente: 39:14<br/></p><hr align="center" width="480" style="height: 2px; width: 517px"/>]]></desc>
    <trkseg>
      <trkpt lat="42.6785" lon="1.95008">
        <ele>1155.59</ele>
        <time>2017-08-11T16:26:01Z</time>
      </trkpt>
      <trkpt lat="42.67866" lon="1.94996">
        <ele>1133.02</ele>
        <time>2017-08-11T16:26:13Z</time>
      </trkpt>
      <trkpt lat="42.67893" lon="1.95001">
        <ele>1138.32</ele>
        <time>2017-08-11T16:26:14Z</time>
      </trkpt>
      <trkpt lat="42.67875" lon="1.94993">
        <ele>1126.91</ele>
        <time>2017-08-11T16:26:23Z</time>
      </trkpt>
      <trkpt lat="42.67857" lon="1.94999">
        <ele>1136.63</ele>
        <time>2017-08-11T16:27:17Z</time>
      </trkpt>
      <trkpt lat="42.6784" lon="1.9501">
        <ele>1139.19</ele>
        <time>2017-08-11T16:27:29Z</time>
      </trkpt>
      <trkpt lat="42.67822" lon="1.95016">
        <ele>1138.43</ele>
        <time>2017-08-11T16:27:44Z</time>
      </trkpt>
      <trkpt lat="42.67804" lon="1.95028">
        <ele>1146.77</ele>
        <time>2017-08-11T16:28:02Z</time>
      </trkpt>
      <trkpt lat="42.67794" lon="1.95049">
        <ele>1152.79</ele>
        <time>2017-08-11T16:28:20Z</time>
      </trkpt>
      <trkpt lat="42.67782" lon="1.95068">
        <ele>1155.49</ele>
        <time>2017-08-11T16:28:34Z</time>
      </trkpt>
      <trkpt lat="42.67767" lon="1.95088">
        <ele>1157.91</ele>
        <time>2017-08-11T16:28:58Z</time>
      </trkpt>
      <trkpt lat="42.6775" lon="1.95102">
        <ele>1159.89</ele>
        <time>2017-08-11T16:29:08Z</time>
      </trkpt>
      <trkpt lat="42.67738" lon="1.95125">
        <ele>1159.98</ele>
        <time>2017-08-11T16:29:24Z</time>
      </trkpt>
      <trkpt lat="42.67725" lon="1.95145">
        <ele>1161.51</ele>
        <time>2017-08-11T16:29:52Z</time>
      </trkpt>
      <trkpt lat="42.67711" lon="1.95164">
        <ele>1164.35</ele>
        <time>2017-08-11T16:30:06Z</time>
      </trkpt>
      <trkpt lat="42.67695" lon="1.95184">
        <ele>1162.97</ele>
        <time>2017-08-11T16:30:28Z</time>
      </trkpt>
      <trkpt lat="42.67678" lon="1.95191">
        <ele>1158.65</ele>
        <time>2017-08-11T16:30:39Z</time>
      </trkpt>
      <trkpt lat="42.6766" lon="1.95195">
        <ele>1157.02</ele>
        <time>2017-08-11T16:30:55Z</time>
      </trkpt>
      <trkpt lat="42.67643" lon="1.9521">
        <ele>1161.75</ele>
        <time>2017-08-11T16:31:07Z</time>
      </trkpt>
      <trkpt lat="42.67627" lon="1.95222">
        <ele>1165.24</ele>
        <time>2017-08-11T16:31:34Z</time>
      </trkpt>
      <trkpt lat="42.6761" lon="1.95232">
        <ele>1163.5</ele>
        <time>2017-08-11T16:32:07Z</time>
      </trkpt>
      <trkpt lat="42.67598" lon="1.95251">
        <ele>1164.38</ele>
        <time>2017-08-11T16:32:15Z</time>
      </trkpt>
      <trkpt lat="42.67591" lon="1.95279">
        <ele>1169.1</ele>
        <time>2017-08-11T16:32:31Z</time>
      </trkpt>
      <trkpt lat="42.67606" lon="1.95296">
        <ele>1164.66</ele>
        <time>2017-08-11T16:32:49Z</time>
      </trkpt>
      <trkpt lat="42.67593" lon="1.95318">
        <ele>1169.15</ele>
        <time>2017-08-11T16:32:56Z</time>
      </trkpt>
      <trkpt lat="42.67583" lon="1.95339">
        <ele>1171.24</ele>
        <time>2017-08-11T16:33:09Z</time>
      </trkpt>
      <trkpt lat="42.67565" lon="1.95351">
        <ele>1175.97</ele>
        <time>2017-08-11T16:33:16Z</time>
      </trkpt>
      <trkpt lat="42.67548" lon="1.95361">
        <ele>1176.03</ele>
        <time>2017-08-11T16:33:29Z</time>
      </trkpt>
      <trkpt lat="42.6753" lon="1.9537">
        <ele>1182.17</ele>
        <time>2017-08-11T16:33:55Z</time>
      </trkpt>
      <trkpt lat="42.67514" lon="1.95385">
        <ele>1186.59</ele>
        <time>2017-08-11T16:34:06Z</time>
      </trkpt>
      <trkpt lat="42.67496" lon="1.95389">
        <ele>1186.53</ele>
        <time>2017-08-11T16:34:22Z</time>
      </trkpt>
      <trkpt lat="42.67478" lon="1.95399">
        <ele>1184.68</ele>
        <time>2017-08-11T16:34:47Z</time>
      </trkpt>
      <trkpt lat="42.67472" lon="1.95422">
        <ele>1192.58</ele>
        <time>2017-08-11T16:35:04Z</time>
      </trkpt>
      <trkpt lat="42.67457" lon="1.95439">
        <ele>1183.3</ele>
        <time>2017-08-11T16:35:26Z</time>
      </trkpt>
      <trkpt lat="42.67445" lon="1.95458">
        <ele>1183.89</ele>
        <time>2017-08-11T16:35:47Z</time>
      </trkpt>
      <trkpt lat="42.67428" lon="1.95472">
        <ele>1184.57</ele>
        <time>2017-08-11T16:35:54Z</time>
      </trkpt>
      <trkpt lat="42.67411" lon="1.95481">
        <ele>1181.45</ele>
        <time>2017-08-11T16:36:07Z</time>
      </trkpt>
      <trkpt lat="42.67398" lon="1.95499">
        <ele>1180.57</ele>
        <time>2017-08-11T16:36:22Z</time>
      </trkpt>
      <trkpt lat="42.67387" lon="1.95518">
        <ele>1191.2</ele>
        <time>2017-08-11T16:36:40Z</time>
      </trkpt>
      <trkpt lat="42.67371" lon="1.95532">
        <ele>1196.96</ele>
        <time>2017-08-11T16:37:03Z</time>
      </trkpt>
      <trkpt lat="42.67351" lon="1.95535">
        <ele>1192.57</ele>
        <time>2017-08-11T16:37:13Z</time>
      </trkpt>
      <trkpt lat="42.67338" lon="1.95553">
        <ele>1194.99</ele>
        <time>2017-08-11T16:37:39Z</time>
      </trkpt>
      <trkpt lat="42.67333" lon="1.95529">
        <ele>1201.22</ele>
        <time>2017-08-11T16:38:01Z</time>
      </trkpt>
      <trkpt lat="42.67314" lon="1.95535">
        <ele>1201.91</ele>
        <time>2017-08-11T16:38:30Z</time>
      </trkpt>
      <trkpt lat="42.67307" lon="1.95558">
        <ele>1199.6</ele>
        <time>2017-08-11T16:38:52Z</time>
      </trkpt>
      <trkpt lat="42.67302" lon="1.95582">
        <ele>1193.4</ele>
        <time>2017-08-11T16:39:11Z</time>
      </trkpt>
      <trkpt lat="42.67289" lon="1.956">
        <ele>1196.14</ele>
        <time>2017-08-11T16:39:24Z</time>
      </trkpt>
      <trkpt lat="42.67279" lon="1.9562">
        <ele>1192.68</ele>
        <time>2017-08-11T16:39:43Z</time>
      </trkpt>
      <trkpt lat="42.67262" lon="1.95629">
        <ele>1196.69</ele>
        <time>2017-08-11T16:40:01Z</time>
      </trkpt>
      <trkpt lat="42.67244" lon="1.95632">
        <ele>1201.11</ele>
        <time>2017-08-11T16:40:18Z</time>
      </trkpt>
      <trkpt lat="42.6723" lon="1.95648">
        <ele>1200.77</ele>
        <time>2017-08-11T16:40:32Z</time>
      </trkpt>
      <trkpt lat="42.67218" lon="1.95667">
        <ele>1196.49</ele>
        <time>2017-08-11T16:40:44Z</time>
      </trkpt>
      <trkpt lat="42.67202" lon="1.9568">
        <ele>1197.78</ele>
        <time>2017-08-11T16:41:06Z</time>
      </trkpt>
      <trkpt lat="42.67186" lon="1.95695">
        <ele>1196.2</ele>
        <time>2017-08-11T16:41:17Z</time>
      </trkpt>
      <trkpt lat="42.67171" lon="1.9571">
        <ele>1195</ele>
        <time>2017-08-11T16:41:30Z</time>
      </trkpt>
      <trkpt lat="42.67156" lon="1.95726">
        <ele>1201.41</ele>
        <time>2017-08-11T16:41:45Z</time>
      </trkpt>
      <trkpt lat="42.67139" lon="1.95737">
        <ele>1204.16</ele>
        <time>2017-08-11T16:42:00Z</time>
      </trkpt>
      <trkpt lat="42.67121" lon="1.95742">
        <ele>1199.82</ele>
        <time>2017-08-11T16:42:16Z</time>
      </trkpt>
      <trkpt lat="42.67103" lon="1.95751">
        <ele>1208.2</ele>
        <time>2017-08-11T16:42:30Z</time>
      </trkpt>
      <trkpt lat="42.67085" lon="1.9576">
        <ele>1208.33</ele>
        <time>2017-08-11T16:42:44Z</time>
      </trkpt>
      <trkpt lat="42.67066" lon="1.95759">
        <ele>1211.87</ele>
        <time>2017-08-11T16:43:03Z</time>
      </trkpt>
      <trkpt lat="42.6705" lon="1.95769">
        <ele>1219.34</ele>
        <time>2017-08-11T16:43:38Z</time>
      </trkpt>
      <trkpt lat="42.67048" lon="1.95794">
        <ele>1220.27</ele>
        <time>2017-08-11T16:44:16Z</time>
      </trkpt>
      <trkpt lat="42.67049" lon="1.9582">
        <ele>1224.93</ele>
        <time>2017-08-11T16:44:40Z</time>
      </trkpt>
      <trkpt lat="42.67045" lon="1.95846">
        <ele>1225.91</ele>
        <time>2017-08-11T16:45:05Z</time>
      </trkpt>
      <trkpt lat="42.67041" lon="1.9587">
        <ele>1216.94</ele>
        <time>2017-08-11T16:45:15Z</time>
      </trkpt>
      <trkpt lat="42.67036" lon="1.95894">
        <ele>1219.32</ele>
        <time>2017-08-11T16:45:26Z</time>
      </trkpt>
      <trkpt lat="42.67035" lon="1.95921">
        <ele>1215.84</ele>
        <time>2017-08-11T16:45:56Z</time>
      </trkpt>
      <trkpt lat="42.67029" lon="1.95947">
        <ele>1213.74</ele>
        <time>2017-08-11T16:46:12Z</time>
      </trkpt>
      <trkpt lat="42.67022" lon="1.9597">
        <ele>1222.04</ele>
        <time>2017-08-11T16:46:37Z</time>
      </trkpt>
      <trkpt lat="42.67016" lon="1.95995">
        <ele>1219.3</ele>
        <time>2017-08-11T16:46:57Z</time>
      </trkpt>
      <trkpt lat="42.67006" lon="1.96017">
        <ele>1219.12</ele>
        <time>2017-08-11T16:47:13Z</time>
      </trkpt>
      <trkpt lat="42.66995" lon="1.96037">
        <ele>1220.59</ele>
        <time>2017-08-11T16:47:26Z</time>
      </trkpt>
      <trkpt lat="42.6698" lon="1.96055">
        <ele>1223.97</ele>
        <time>2017-08-11T16:47:47Z</time>
      </trkpt>
      <trkpt lat="42.66966" lon="1.96071">
        <ele>1229.5</ele>
        <time>2017-08-11T16:48:01Z</time>
      </trkpt>
      <trkpt lat="42.66953" lon="1.9609">
        <ele>1234.6</ele>
        <time>2017-08-11T16:48:22Z</time>
      </trkpt>
      <trkpt lat="42.66943" lon="1.9611">
        <ele>1229.38</ele>
        <time>2017-08-11T16:48:41Z</time>
      </trkpt>
      <trkpt lat="42.66926" lon="1.96122">
        <ele>1221.89</ele>
        <time>2017-08-11T16:48:56Z</time>
      </trkpt>
      <trkpt lat="42.66917" lon="1.96145">
        <ele>1228.8</ele>
        <time>2017-08-11T16:49:17Z</time>
      </trkpt>
      <trkpt lat="42.66904" lon="1.96166">
        <ele>1240.91</ele>
        <time>2017-08-11T16:49:32Z</time>
      </trkpt>
      <trkpt lat="42.6689" lon="1.96183">
        <ele>1239.51</ele>
        <time>2017-08-11T16:49:49Z</time>
      </trkpt>
      <trkpt lat="42.66873" lon="1.96194">
        <ele>1242.59</ele>
        <time>2017-08-11T16:50:03Z</time>
      </trkpt>
      <trkpt lat="42.66857" lon="1.96207">
        <ele>1242.7</ele>
        <time>2017-08-11T16:50:19Z</time>
      </trkpt>
      <trkpt lat="42.6684" lon="1.96216">
        <ele>1239.27</ele>
        <time>2017-08-11T16:50:37Z</time>
      </trkpt>
      <trkpt lat="42.66824" lon="1.96231">
        <ele>1238.42</ele>
        <time>2017-08-11T16:50:52Z</time>
      </trkpt>
      <trkpt lat="42.66815" lon="1.96253">
        <ele>1240.31</ele>
        <time>2017-08-11T16:51:11Z</time>
      </trkpt>
      <trkpt lat="42.66803" lon="1.96272">
        <ele>1230.68</ele>
        <time>2017-08-11T16:51:30Z</time>
      </trkpt>
      <trkpt lat="42.66786" lon="1.96281">
        <ele>1231.3</ele>
        <time>2017-08-11T16:51:45Z</time>
      </trkpt>
      <trkpt lat="42.6677" lon="1.96294">
        <ele>1241.8</ele>
        <time>2017-08-11T16:51:59Z</time>
      </trkpt>
      <trkpt lat="42.66756" lon="1.96309">
        <ele>1256.87</ele>
        <time>2017-08-11T16:52:19Z</time>
      </trkpt>
      <trkpt lat="42.66744" lon="1.96329">
        <ele>1264.48</ele>
        <time>2017-08-11T16:52:41Z</time>
      </trkpt>
      <trkpt lat="42.66738" lon="1.96353">
        <ele>1267.86</ele>
        <time>2017-08-11T16:52:52Z</time>
      </trkpt>
      <trkpt lat="42.66728" lon="1.96374">
        <ele>1269.09</ele>
        <time>2017-08-11T16:53:12Z</time>
      </trkpt>
      <trkpt lat="42.66712" lon="1.96386">
        <ele>1262.04</ele>
        <time>2017-08-11T16:53:20Z</time>
      </trkpt>
      <trkpt lat="42.667" lon="1.96405">
        <ele>1263.61</ele>
        <time>2017-08-11T16:53:35Z</time>
      </trkpt>
      <trkpt lat="42.66694" lon="1.96429">
        <ele>1278.26</ele>
        <time>2017-08-11T16:53:49Z</time>
      </trkpt>
      <trkpt lat="42.66685" lon="1.96451">
        <ele>1278.22</ele>
        <time>2017-08-11T16:54:12Z</time>
      </trkpt>
      <trkpt lat="42.66669" lon="1.96465">
        <ele>1267.68</ele>
        <time>2017-08-11T16:54:27Z</time>
      </trkpt>
      <trkpt lat="42.66657" lon="1.96486">
        <ele>1268.27</ele>
        <time>2017-08-11T16:54:36Z</time>
      </trkpt>
      <trkpt lat="42.66644" lon="1.96504">
        <ele>1272.27</ele>
        <time>2017-08-11T16:54:49Z</time>
      </trkpt>
      <trkpt lat="42.66641" lon="1.96529">
        <ele>1273.11</ele>
        <time>2017-08-11T16:55:13Z</time>
      </trkpt>
      <trkpt lat="42.66645" lon="1.96553">
        <ele>1273.51</ele>
        <time>2017-08-11T16:55:27Z</time>
      </trkpt>
      <trkpt lat="42.66649" lon="1.96579">
        <ele>1280.55</ele>
        <time>2017-08-11T16:55:46Z</time>
      </trkpt>
      <trkpt lat="42.66643" lon="1.96602">
        <ele>1287.96</ele>
        <time>2017-08-11T16:56:09Z</time>
      </trkpt>
      <trkpt lat="42.66631" lon="1.96621">
        <ele>1294.12</ele>
        <time>2017-08-11T16:56:25Z</time>
      </trkpt>
      <trkpt lat="42.66616" lon="1.96636">
        <ele>1296.5</ele>
        <time>2017-08-11T16:56:41Z</time>
      </trkpt>
      <trkpt lat="42.66598" lon="1.9664">
        <ele>1287.62</ele>
        <time>2017-08-11T16:56:58Z</time>
      </trkpt>
      <trkpt lat="42.66579" lon="1.96639">
        <ele>1291.29</ele>
        <time>2017-08-11T16:57:10Z</time>
      </trkpt>
      <trkpt lat="42.66561" lon="1.96637">
        <ele>1291.32</ele>
        <time>2017-08-11T16:57:25Z</time>
      </trkpt>
      <trkpt lat="42.66544" lon="1.96645">
        <ele>1291.71</ele>
        <time>2017-08-11T16:57:37Z</time>
      </trkpt>
      <trkpt lat="42.66525" lon="1.96647">
        <ele>1287.87</ele>
        <time>2017-08-11T16:57:51Z</time>
      </trkpt>
      <trkpt lat="42.66507" lon="1.9665">
        <ele>1284.89</ele>
        <time>2017-08-11T16:58:05Z</time>
      </trkpt>
      <trkpt lat="42.6649" lon="1.96639">
        <ele>1287.32</ele>
        <time>2017-08-11T16:58:19Z</time>
      </trkpt>
      <trkpt lat="42.66472" lon="1.96639">
        <ele>1288.8</ele>
        <time>2017-08-11T16:58:35Z</time>
      </trkpt>
      <trkpt lat="42.66454" lon="1.96647">
        <ele>1288.27</ele>
        <time>2017-08-11T16:58:49Z</time>
      </trkpt>
      <trkpt lat="42.66436" lon="1.96647">
        <ele>1286.83</ele>
        <time>2017-08-11T16:59:04Z</time>
      </trkpt>
      <trkpt lat="42.66418" lon="1.96648">
        <ele>1288.87</ele>
        <time>2017-08-11T16:59:17Z</time>
      </trkpt>
      <trkpt lat="42.66402" lon="1.96663">
        <ele>1289.27</ele>
        <time>2017-08-11T16:59:33Z</time>
      </trkpt>
      <trkpt lat="42.66385" lon="1.96673">
        <ele>1280.6</ele>
        <time>2017-08-11T16:59:54Z</time>
      </trkpt>
      <trkpt lat="42.66369" lon="1.96688">
        <ele>1285.29</ele>
        <time>2017-08-11T17:00:10Z</time>
      </trkpt>
      <trkpt lat="42.6635" lon="1.96693">
        <ele>1289.53</ele>
        <time>2017-08-11T17:00:26Z</time>
      </trkpt>
      <trkpt lat="42.66332" lon="1.96692">
        <ele>1297.5</ele>
        <time>2017-08-11T17:00:42Z</time>
      </trkpt>
      <trkpt lat="42.66337" lon="1.96667">
        <ele>1302.81</ele>
        <time>2017-08-11T17:01:04Z</time>
      </trkpt>
      <trkpt lat="42.66353" lon="1.96651">
        <ele>1300.31</ele>
        <time>2017-08-11T17:01:20Z</time>
      </trkpt>
      <trkpt lat="42.66335" lon="1.96643">
        <ele>1320.63</ele>
        <time>2017-08-11T17:02:19Z</time>
      </trkpt>
      <trkpt lat="42.66317" lon="1.96643">
        <ele>1316.8</ele>
        <time>2017-08-11T17:02:37Z</time>
      </trkpt>
      <trkpt lat="42.66299" lon="1.96649">
        <ele>1324.97</ele>
        <time>2017-08-11T17:02:56Z</time>
      </trkpt>
      <trkpt lat="42.66283" lon="1.96635">
        <ele>1327.87</ele>
        <time>2017-08-11T17:03:17Z</time>
      </trkpt>
      <trkpt lat="42.66269" lon="1.9662">
        <ele>1331.51</ele>
        <time>2017-08-11T17:03:40Z</time>
      </trkpt>
      <trkpt lat="42.6625" lon="1.96614">
        <ele>1338.25</ele>
        <time>2017-08-11T17:03:57Z</time>
      </trkpt>
      <trkpt lat="42.66232" lon="1.96611">
        <ele>1337.72</ele>
        <time>2017-08-11T17:04:19Z</time>
      </trkpt>
      <trkpt lat="42.66214" lon="1.96616">
        <ele>1340.5</ele>
        <time>2017-08-11T17:04:34Z</time>
      </trkpt>
      <trkpt lat="42.66195" lon="1.96617">
        <ele>1340.8</ele>
        <time>2017-08-11T17:04:55Z</time>
      </trkpt>
      <trkpt lat="42.66177" lon="1.96618">
        <ele>1340.01</ele>
        <time>2017-08-11T17:05:11Z</time>
      </trkpt>
      <trkpt lat="42.6616" lon="1.96625">
        <ele>1342.2</ele>
        <time>2017-08-11T17:05:27Z</time>
      </trkpt>
      <trkpt lat="42.6614" lon="1.96627">
        <ele>1341.3</ele>
        <time>2017-08-11T17:05:43Z</time>
      </trkpt>
      <trkpt lat="42.66123" lon="1.96621">
        <ele>1344.57</ele>
        <time>2017-08-11T17:05:59Z</time>
      </trkpt>
      <trkpt lat="42.66106" lon="1.96612">
        <ele>1345.32</ele>
        <time>2017-08-11T17:06:16Z</time>
      </trkpt>
      <trkpt lat="42.66088" lon="1.96604">
        <ele>1344.89</ele>
        <time>2017-08-11T17:06:32Z</time>
      </trkpt>
      <trkpt lat="42.66071" lon="1.96596">
        <ele>1344.87</ele>
        <time>2017-08-11T17:06:48Z</time>
      </trkpt>
      <trkpt lat="42.66055" lon="1.96583">
        <ele>1344.6</ele>
        <time>2017-08-11T17:07:03Z</time>
      </trkpt>
      <trkpt lat="42.66038" lon="1.96573">
        <ele>1348.29</ele>
        <time>2017-08-11T17:07:19Z</time>
      </trkpt>
      <trkpt lat="42.6602" lon="1.9657">
        <ele>1349.54</ele>
        <time>2017-08-11T17:07:36Z</time>
      </trkpt>
      <trkpt lat="42.66001" lon="1.96563">
        <ele>1350.6</ele>
        <time>2017-08-11T17:07:54Z</time>
      </trkpt>
      <trkpt lat="42.65983" lon="1.96557">
        <ele>1352.56</ele>
        <time>2017-08-11T17:08:10Z</time>
      </trkpt>
      <trkpt lat="42.65965" lon="1.96552">
        <ele>1359.58</ele>
        <time>2017-08-11T17:08:30Z</time>
      </trkpt>
      <trkpt lat="42.65949" lon="1.96535">
        <ele>1360.57</ele>
        <time>2017-08-11T17:08:53Z</time>
      </trkpt>
      <trkpt lat="42.65942" lon="1.96512">
        <ele>1361.3</ele>
        <time>2017-08-11T17:09:31Z</time>
      </trkpt>
      <trkpt lat="42.65933" lon="1.9649">
        <ele>1363.01</ele>
        <time>2017-08-11T17:10:00Z</time>
      </trkpt>
      <trkpt lat="42.65917" lon="1.96477">
        <ele>1367.69</ele>
        <time>2017-08-11T17:10:26Z</time>
      </trkpt>
      <trkpt lat="42.65904" lon="1.9646">
        <ele>1372.29</ele>
        <time>2017-08-11T17:10:52Z</time>
      </trkpt>
      <trkpt lat="42.65887" lon="1.96452">
        <ele>1372.59</ele>
        <time>2017-08-11T17:11:14Z</time>
      </trkpt>
      <trkpt lat="42.65869" lon="1.96465">
        <ele>1382.27</ele>
        <time>2017-08-11T17:11:33Z</time>
      </trkpt>
      <trkpt lat="42.65851" lon="1.96474">
        <ele>1383.5</ele>
        <time>2017-08-11T17:11:51Z</time>
      </trkpt>
      <trkpt lat="42.65833" lon="1.96479">
        <ele>1377.86</ele>
        <time>2017-08-11T17:12:10Z</time>
      </trkpt>
      <trkpt lat="42.65816" lon="1.96486">
        <ele>1382.51</ele>
        <time>2017-08-11T17:12:28Z</time>
      </trkpt>
      <trkpt lat="42.65797" lon="1.96488">
        <ele>1382.35</ele>
        <time>2017-08-11T17:14:33Z</time>
      </trkpt>
      <trkpt lat="42.65779" lon="1.96491">
        <ele>1388.11</ele>
        <time>2017-08-11T17:14:48Z</time>
      </trkpt>
      <trkpt lat="42.65761" lon="1.96492">
        <ele>1386.67</ele>
        <time>2017-08-11T17:15:03Z</time>
      </trkpt>
      <trkpt lat="42.65743" lon="1.96498">
        <ele>1387.99</ele>
        <time>2017-08-11T17:15:17Z</time>
      </trkpt>
      <trkpt lat="42.65725" lon="1.96498">
        <ele>1385.64</ele>
        <time>2017-08-11T17:15:30Z</time>
      </trkpt>
      <trkpt lat="42.65706" lon="1.96495">
        <ele>1384.5</ele>
        <time>2017-08-11T17:15:45Z</time>
      </trkpt>
      <trkpt lat="42.65688" lon="1.96489">
        <ele>1382.03</ele>
        <time>2017-08-11T17:15:59Z</time>
      </trkpt>
      <trkpt lat="42.65669" lon="1.96489">
        <ele>1389.29</ele>
        <time>2017-08-11T17:16:15Z</time>
      </trkpt>
      <trkpt lat="42.65656" lon="1.96468">
        <ele>1389.38</ele>
        <time>2017-08-11T17:16:28Z</time>
      </trkpt>
      <trkpt lat="42.65643" lon="1.96452">
        <ele>1392.13</ele>
        <time>2017-08-11T17:16:44Z</time>
      </trkpt>
      <trkpt lat="42.65623" lon="1.96447">
        <ele>1392.18</ele>
        <time>2017-08-11T17:16:57Z</time>
      </trkpt>
      <trkpt lat="42.65605" lon="1.96441">
        <ele>1389.29</ele>
        <time>2017-08-11T17:17:12Z</time>
      </trkpt>
      <trkpt lat="42.65587" lon="1.96436">
        <ele>1387.62</ele>
        <time>2017-08-11T17:19:14Z</time>
      </trkpt>
      <trkpt lat="42.65568" lon="1.96434">
        <ele>1391.53</ele>
        <time>2017-08-11T17:19:27Z</time>
      </trkpt>
      <trkpt lat="42.65551" lon="1.96425">
        <ele>1395.5</ele>
        <time>2017-08-11T17:19:40Z</time>
      </trkpt>
      <trkpt lat="42.65532" lon="1.96417">
        <ele>1387.82</ele>
        <time>2017-08-11T17:19:53Z</time>
      </trkpt>
      <trkpt lat="42.65515" lon="1.96408">
        <ele>1387.52</ele>
        <time>2017-08-11T17:20:07Z</time>
      </trkpt>
      <trkpt lat="42.65497" lon="1.96399">
        <ele>1388.57</ele>
        <time>2017-08-11T17:20:20Z</time>
      </trkpt>
      <trkpt lat="42.65479" lon="1.9639">
        <ele>1389.92</ele>
        <time>2017-08-11T17:20:35Z</time>
      </trkpt>
      <trkpt lat="42.65463" lon="1.96377">
        <ele>1388.48</ele>
        <time>2017-08-11T17:20:49Z</time>
      </trkpt>
      <trkpt lat="42.65449" lon="1.96361">
        <ele>1394.16</ele>
        <time>2017-08-11T17:21:05Z</time>
      </trkpt>
      <trkpt lat="42.6543" lon="1.96353">
        <ele>1391.31</ele>
        <time>2017-08-11T17:21:22Z</time>
      </trkpt>
      <trkpt lat="42.65411" lon="1.96348">
        <ele>1401.45</ele>
        <time>2017-08-11T17:21:38Z</time>
      </trkpt>
      <trkpt lat="42.65394" lon="1.9634">
        <ele>1402.28</ele>
        <time>2017-08-11T17:21:50Z</time>
      </trkpt>
      <trkpt lat="42.65379" lon="1.96326">
        <ele>1402.31</ele>
        <time>2017-08-11T17:22:04Z</time>
      </trkpt>
      <trkpt lat="42.65362" lon="1.96315">
        <ele>1398.01</ele>
        <time>2017-08-11T17:22:18Z</time>
      </trkpt>
      <trkpt lat="42.65345" lon="1.96304">
        <ele>1404.17</ele>
        <time>2017-08-11T17:22:33Z</time>
      </trkpt>
      <trkpt lat="42.65329" lon="1.9629">
        <ele>1400.68</ele>
        <time>2017-08-11T17:22:50Z</time>
      </trkpt>
      <trkpt lat="42.65312" lon="1.96282">
        <ele>1398.28</ele>
        <time>2017-08-11T17:23:04Z</time>
      </trkpt>
      <trkpt lat="42.65293" lon="1.96282">
        <ele>1399.89</ele>
        <time>2017-08-11T17:23:19Z</time>
      </trkpt>
      <trkpt lat="42.65275" lon="1.96279">
        <ele>1400.42</ele>
        <time>2017-08-11T17:23:37Z</time>
      </trkpt>
      <trkpt lat="42.65258" lon="1.9627">
        <ele>1404.54</ele>
        <time>2017-08-11T17:23:58Z</time>
      </trkpt>
      <trkpt lat="42.65243" lon="1.96256">
        <ele>1405.73</ele>
        <time>2017-08-11T17:24:21Z</time>
      </trkpt>
      <trkpt lat="42.65233" lon="1.96236">
        <ele>1410.61</ele>
        <time>2017-08-11T17:24:35Z</time>
      </trkpt>
      <trkpt lat="42.65217" lon="1.96225">
        <ele>1420.57</ele>
        <time>2017-08-11T17:24:53Z</time>
      </trkpt>
      <trkpt lat="42.65198" lon="1.96222">
        <ele>1420.87</ele>
        <time>2017-08-11T17:25:10Z</time>
      </trkpt>
      <trkpt lat="42.65181" lon="1.96215">
        <ele>1416.24</ele>
        <time>2017-08-11T17:25:25Z</time>
      </trkpt>
      <trkpt lat="42.65162" lon="1.96213">
        <ele>1421.94</ele>
        <time>2017-08-11T17:25:43Z</time>
      </trkpt>
      <trkpt lat="42.65144" lon="1.96211">
        <ele>1424.78</ele>
        <time>2017-08-11T17:25:56Z</time>
      </trkpt>
      <trkpt lat="42.65125" lon="1.96211">
        <ele>1425.59</ele>
        <time>2017-08-11T17:26:09Z</time>
      </trkpt>
      <trkpt lat="42.65107" lon="1.96211">
        <ele>1423.89</ele>
        <time>2017-08-11T17:26:24Z</time>
      </trkpt>
      <trkpt lat="42.65089" lon="1.96219">
        <ele>1424.59</ele>
        <time>2017-08-11T17:26:40Z</time>
      </trkpt>
      <trkpt lat="42.65071" lon="1.9622">
        <ele>1427.78</ele>
        <time>2017-08-11T17:26:57Z</time>
      </trkpt>
      <trkpt lat="42.65052" lon="1.96222">
        <ele>1431.32</ele>
        <time>2017-08-11T17:27:12Z</time>
      </trkpt>
      <trkpt lat="42.65033" lon="1.96226">
        <ele>1432.58</ele>
        <time>2017-08-11T17:27:25Z</time>
      </trkpt>
      <trkpt lat="42.65017" lon="1.96212">
        <ele>1429.56</ele>
        <time>2017-08-11T17:27:40Z</time>
      </trkpt>
      <trkpt lat="42.64998" lon="1.96206">
        <ele>1427.21</ele>
        <time>2017-08-11T17:27:58Z</time>
      </trkpt>
      <trkpt lat="42.6498" lon="1.96202">
        <ele>1427.92</ele>
        <time>2017-08-11T17:28:13Z</time>
      </trkpt>
      <trkpt lat="42.64962" lon="1.96192">
        <ele>1424.11</ele>
        <time>2017-08-11T17:28:26Z</time>
      </trkpt>
      <trkpt lat="42.64944" lon="1.96186">
        <ele>1428.03</ele>
        <time>2017-08-11T17:28:40Z</time>
      </trkpt>
      <trkpt lat="42.64926" lon="1.96179">
        <ele>1429.6</ele>
        <time>2017-08-11T17:28:54Z</time>
      </trkpt>
      <trkpt lat="42.64908" lon="1.96172">
        <ele>1429.29</ele>
        <time>2017-08-11T17:29:07Z</time>
      </trkpt>
      <trkpt lat="42.64891" lon="1.96159">
        <ele>1423.54</ele>
        <time>2017-08-11T17:29:19Z</time>
      </trkpt>
      <trkpt lat="42.64874" lon="1.96152">
        <ele>1423.96</ele>
        <time>2017-08-11T17:29:33Z</time>
      </trkpt>
      <trkpt lat="42.64856" lon="1.96144">
        <ele>1426.59</ele>
        <time>2017-08-11T17:29:46Z</time>
      </trkpt>
      <trkpt lat="42.64837" lon="1.96139">
        <ele>1426.38</ele>
        <time>2017-08-11T17:30:01Z</time>
      </trkpt>
      <trkpt lat="42.6482" lon="1.9613">
        <ele>1425.28</ele>
        <time>2017-08-11T17:30:16Z</time>
      </trkpt>
      <trkpt lat="42.64803" lon="1.9612">
        <ele>1425.61</ele>
        <time>2017-08-11T17:30:30Z</time>
      </trkpt>
      <trkpt lat="42.64785" lon="1.96114">
        <ele>1424.42</ele>
        <time>2017-08-11T17:30:46Z</time>
      </trkpt>
      <trkpt lat="42.64766" lon="1.9612">
        <ele>1423.69</ele>
        <time>2017-08-11T17:31:00Z</time>
      </trkpt>
      <trkpt lat="42.64746" lon="1.96124">
        <ele>1422.68</ele>
        <time>2017-08-11T17:31:16Z</time>
      </trkpt>
      <trkpt lat="42.64726" lon="1.96125">
        <ele>1423.95</ele>
        <time>2017-08-11T17:31:31Z</time>
      </trkpt>
      <trkpt lat="42.64707" lon="1.96118">
        <ele>1417.84</ele>
        <time>2017-08-11T17:31:44Z</time>
      </trkpt>
      <trkpt lat="42.64689" lon="1.96115">
        <ele>1430.41</ele>
        <time>2017-08-11T17:33:44Z</time>
      </trkpt>
      <trkpt lat="42.64672" lon="1.96105">
        <ele>1430.62</ele>
        <time>2017-08-11T17:33:59Z</time>
      </trkpt>
      <trkpt lat="42.64658" lon="1.96088">
        <ele>1428.32</ele>
        <time>2017-08-11T17:34:13Z</time>
      </trkpt>
      <trkpt lat="42.64643" lon="1.96074">
        <ele>1429.69</ele>
        <time>2017-08-11T17:34:27Z</time>
      </trkpt>
      <trkpt lat="42.64626" lon="1.96064">
        <ele>1428.5</ele>
        <time>2017-08-11T17:34:40Z</time>
      </trkpt>
      <trkpt lat="42.6461" lon="1.96053">
        <ele>1432.51</ele>
        <time>2017-08-11T17:34:54Z</time>
      </trkpt>
      <trkpt lat="42.64594" lon="1.96041">
        <ele>1432.71</ele>
        <time>2017-08-11T17:35:09Z</time>
      </trkpt>
      <trkpt lat="42.6458" lon="1.96024">
        <ele>1438.49</ele>
        <time>2017-08-11T17:35:24Z</time>
      </trkpt>
      <trkpt lat="42.64563" lon="1.96015">
        <ele>1438.64</ele>
        <time>2017-08-11T17:35:37Z</time>
      </trkpt>
      <trkpt lat="42.64547" lon="1.96006">
        <ele>1440.29</ele>
        <time>2017-08-11T17:35:50Z</time>
      </trkpt>
      <trkpt lat="42.6453" lon="1.95995">
        <ele>1432.6</ele>
        <time>2017-08-11T17:36:04Z</time>
      </trkpt>
      <trkpt lat="42.64513" lon="1.95986">
        <ele>1440.48</ele>
        <time>2017-08-11T17:36:20Z</time>
      </trkpt>
      <trkpt lat="42.64496" lon="1.95976">
        <ele>1442.68</ele>
        <time>2017-08-11T17:36:32Z</time>
      </trkpt>
      <trkpt lat="42.64478" lon="1.95966">
        <ele>1438.3</ele>
        <time>2017-08-11T17:36:49Z</time>
      </trkpt>
      <trkpt lat="42.64461" lon="1.95956">
        <ele>1437.91</ele>
        <time>2017-08-11T17:37:02Z</time>
      </trkpt>
      <trkpt lat="42.64445" lon="1.95943">
        <ele>1438.78</ele>
        <time>2017-08-11T17:37:15Z</time>
      </trkpt>
      <trkpt lat="42.64429" lon="1.95931">
        <ele>1441.27</ele>
        <time>2017-08-11T17:37:32Z</time>
      </trkpt>
      <trkpt lat="42.64412" lon="1.95941">
        <ele>1442.36</ele>
        <time>2017-08-11T17:38:10Z</time>
      </trkpt>
      <trkpt lat="42.64397" lon="1.95955">
        <ele>1442.05</ele>
        <time>2017-08-11T17:38:22Z</time>
      </trkpt>
      <trkpt lat="42.64384" lon="1.95972">
        <ele>1443.39</ele>
        <time>2017-08-11T17:39:53Z</time>
      </trkpt>
      <trkpt lat="42.64371" lon="1.95955">
        <ele>1447.61</ele>
        <time>2017-08-11T17:48:38Z</time>
      </trkpt>
      <trkpt lat="42.64355" lon="1.95943">
        <ele>1449.57</ele>
        <time>2017-08-11T17:48:55Z</time>
      </trkpt>
      <trkpt lat="42.64336" lon="1.95937">
        <ele>1450.62</ele>
        <time>2017-08-11T17:49:23Z</time>
      </trkpt>
      <trkpt lat="42.64319" lon="1.95924">
        <ele>1457.22</ele>
        <time>2017-08-11T17:49:35Z</time>
      </trkpt>
      <trkpt lat="42.64301" lon="1.95915">
        <ele>1456.32</ele>
        <time>2017-08-11T17:49:52Z</time>
      </trkpt>
      <trkpt lat="42.64283" lon="1.95907">
        <ele>1465.55</ele>
        <time>2017-08-11T17:50:05Z</time>
      </trkpt>
      <trkpt lat="42.64267" lon="1.95896">
        <ele>1468.59</ele>
        <time>2017-08-11T17:51:03Z</time>
      </trkpt>
      <trkpt lat="42.64257" lon="1.95876">
        <ele>1476.46</ele>
        <time>2017-08-11T17:51:19Z</time>
      </trkpt>
      <trkpt lat="42.64243" lon="1.95856">
        <ele>1469.67</ele>
        <time>2017-08-11T17:51:37Z</time>
      </trkpt>
      <trkpt lat="42.64236" lon="1.95834">
        <ele>1466.27</ele>
        <time>2017-08-11T17:51:55Z</time>
      </trkpt>
      <trkpt lat="42.64228" lon="1.95811">
        <ele>1471.19</ele>
        <time>2017-08-11T17:52:09Z</time>
      </trkpt>
      <trkpt lat="42.64223" lon="1.95787">
        <ele>1467.69</ele>
        <time>2017-08-11T17:52:27Z</time>
      </trkpt>
      <trkpt lat="42.64216" lon="1.95763">
        <ele>1458.98</ele>
        <time>2017-08-11T17:52:45Z</time>
      </trkpt>
      <trkpt lat="42.64207" lon="1.95741">
        <ele>1462.84</ele>
        <time>2017-08-11T17:52:59Z</time>
      </trkpt>
      <trkpt lat="42.64199" lon="1.95718">
        <ele>1468.91</ele>
        <time>2017-08-11T17:53:15Z</time>
      </trkpt>
      <trkpt lat="42.64196" lon="1.95693">
        <ele>1467.39</ele>
        <time>2017-08-11T17:53:35Z</time>
      </trkpt>
      <trkpt lat="42.64189" lon="1.95667">
        <ele>1468.89</ele>
        <time>2017-08-11T17:53:53Z</time>
      </trkpt>
      <trkpt lat="42.64179" lon="1.95646">
        <ele>1470.66</ele>
        <time>2017-08-11T17:54:16Z</time>
      </trkpt>
      <trkpt lat="42.64165" lon="1.95628">
        <ele>1469.23</ele>
        <time>2017-08-11T17:54:51Z</time>
      </trkpt>
      <trkpt lat="42.64154" lon="1.95607">
        <ele>1475.25</ele>
        <time>2017-08-11T17:55:08Z</time>
      </trkpt>
      <trkpt lat="42.64136" lon="1.95599">
        <ele>1485.31</ele>
        <time>2017-08-11T17:55:39Z</time>
      </trkpt>
      <trkpt lat="42.64119" lon="1.95611">
        <ele>1492.11</ele>
        <time>2017-08-11T17:56:13Z</time>
      </trkpt>
      <trkpt lat="42.64102" lon="1.95621">
        <ele>1498.88</ele>
        <time>2017-08-11T17:57:05Z</time>
      </trkpt>
      <trkpt lat="42.64084" lon="1.95618">
        <ele>1516.65</ele>
        <time>2017-08-11T17:57:42Z</time>
      </trkpt>
      <trkpt lat="42.64077" lon="1.95594">
        <ele>1526.5</ele>
        <time>2017-08-11T17:58:04Z</time>
      </trkpt>
      <trkpt lat="42.64076" lon="1.95569">
        <ele>1532.3</ele>
        <time>2017-08-11T17:59:02Z</time>
      </trkpt>
      <trkpt lat="42.64073" lon="1.95544">
        <ele>1534.57</ele>
        <time>2017-08-11T17:59:17Z</time>
      </trkpt>
      <trkpt lat="42.64075" lon="1.95517">
        <ele>1531.22</ele>
        <time>2017-08-11T17:59:47Z</time>
      </trkpt>
      <trkpt lat="42.64067" lon="1.95495">
        <ele>1535.27</ele>
        <time>2017-08-11T18:00:07Z</time>
      </trkpt>
      <trkpt lat="42.64055" lon="1.95475">
        <ele>1534.51</ele>
        <time>2017-08-11T18:00:31Z</time>
      </trkpt>
      <trkpt lat="42.64053" lon="1.95451">
        <ele>1537.3</ele>
        <time>2017-08-11T18:00:53Z</time>
      </trkpt>
      <trkpt lat="42.64046" lon="1.95428">
        <ele>1537.63</ele>
        <time>2017-08-11T18:01:11Z</time>
      </trkpt>
      <trkpt lat="42.64043" lon="1.95402">
        <ele>1540.4</ele>
        <time>2017-08-11T18:01:31Z</time>
      </trkpt>
      <trkpt lat="42.6405" lon="1.95379">
        <ele>1539.72</ele>
        <time>2017-08-11T18:01:51Z</time>
      </trkpt>
      <trkpt lat="42.64048" lon="1.95354">
        <ele>1541.53</ele>
        <time>2017-08-11T18:02:37Z</time>
      </trkpt>
      <trkpt lat="42.64041" lon="1.95331">
        <ele>1548.27</ele>
        <time>2017-08-11T18:03:01Z</time>
      </trkpt>
      <trkpt lat="42.6403" lon="1.95311">
        <ele>1555.18</ele>
        <time>2017-08-11T18:03:28Z</time>
      </trkpt>
      <trkpt lat="42.64021" lon="1.95289">
        <ele>1560.8</ele>
        <time>2017-08-11T18:03:57Z</time>
      </trkpt>
      <trkpt lat="42.64018" lon="1.95264">
        <ele>1561.38</ele>
        <time>2017-08-11T18:04:23Z</time>
      </trkpt>
      <trkpt lat="42.64005" lon="1.95246">
        <ele>1559.53</ele>
        <time>2017-08-11T18:04:49Z</time>
      </trkpt>
      <trkpt lat="42.63993" lon="1.95227">
        <ele>1565.56</ele>
        <time>2017-08-11T18:05:24Z</time>
      </trkpt>
      <trkpt lat="42.63982" lon="1.95249">
        <ele>1565.2</ele>
        <time>2017-08-11T18:06:01Z</time>
      </trkpt>
      <trkpt lat="42.63986" lon="1.95273">
        <ele>1570.41</ele>
        <time>2017-08-11T18:06:26Z</time>
      </trkpt>
      <trkpt lat="42.6398" lon="1.95296">
        <ele>1582.33</ele>
        <time>2017-08-11T18:07:07Z</time>
      </trkpt>
      <trkpt lat="42.63965" lon="1.95281">
        <ele>1587.28</ele>
        <time>2017-08-11T18:07:56Z</time>
      </trkpt>
      <trkpt lat="42.63957" lon="1.95259">
        <ele>1592.11</ele>
        <time>2017-08-11T18:08:40Z</time>
      </trkpt>
      <trkpt lat="42.63948" lon="1.95236">
        <ele>1600.87</ele>
        <time>2017-08-11T18:09:15Z</time>
      </trkpt>
      <trkpt lat="42.63937" lon="1.95217">
        <ele>1604.46</ele>
        <time>2017-08-11T18:09:53Z</time>
      </trkpt>
      <trkpt lat="42.63924" lon="1.95199">
        <ele>1608.29</ele>
        <time>2017-08-11T18:10:24Z</time>
      </trkpt>
      <trkpt lat="42.63908" lon="1.95189">
        <ele>1611.79</ele>
        <time>2017-08-11T18:10:53Z</time>
      </trkpt>
      <trkpt lat="42.63896" lon="1.95171">
        <ele>1618.8</ele>
        <time>2017-08-11T18:11:27Z</time>
      </trkpt>
      <trkpt lat="42.63881" lon="1.95156">
        <ele>1617.92</ele>
        <time>2017-08-11T18:11:50Z</time>
      </trkpt>
      <trkpt lat="42.63869" lon="1.95138">
        <ele>1621.77</ele>
        <time>2017-08-11T18:12:07Z</time>
      </trkpt>
      <trkpt lat="42.63854" lon="1.95121">
        <ele>1619.81</ele>
        <time>2017-08-11T18:12:27Z</time>
      </trkpt>
      <trkpt lat="42.63835" lon="1.95119">
        <ele>1622.38</ele>
        <time>2017-08-11T18:12:48Z</time>
      </trkpt>
      <trkpt lat="42.63818" lon="1.95129">
        <ele>1623.71</ele>
        <time>2017-08-11T18:13:09Z</time>
      </trkpt>
      <trkpt lat="42.638" lon="1.95134">
        <ele>1625.41</ele>
        <time>2017-08-11T18:13:39Z</time>
      </trkpt>
      <trkpt lat="42.63782" lon="1.95132">
        <ele>1631.38</ele>
        <time>2017-08-11T18:14:24Z</time>
      </trkpt>
      <trkpt lat="42.63766" lon="1.95119">
        <ele>1635.66</ele>
        <time>2017-08-11T18:15:03Z</time>
      </trkpt>
      <trkpt lat="42.63748" lon="1.95118">
        <ele>1646.77</ele>
        <time>2017-08-11T18:15:40Z</time>
      </trkpt>
      <trkpt lat="42.63731" lon="1.9511">
        <ele>1653.77</ele>
        <time>2017-08-11T18:16:27Z</time>
      </trkpt>
      <trkpt lat="42.63739" lon="1.95133">
        <ele>1656.24</ele>
        <time>2017-08-11T18:16:59Z</time>
      </trkpt>
      <trkpt lat="42.63722" lon="1.95143">
        <ele>1667.56</ele>
        <time>2017-08-11T18:18:03Z</time>
      </trkpt>
      <trkpt lat="42.63703" lon="1.95138">
        <ele>1675.52</ele>
        <time>2017-08-11T18:19:01Z</time>
      </trkpt>
      <trkpt lat="42.63686" lon="1.95132">
        <ele>1690.22</ele>
        <time>2017-08-11T18:19:42Z</time>
      </trkpt>
      <trkpt lat="42.63667" lon="1.95125">
        <ele>1691.3</ele>
        <time>2017-08-11T18:20:25Z</time>
      </trkpt>
      <trkpt lat="42.63651" lon="1.95134">
        <ele>1703.48</ele>
        <time>2017-08-11T18:21:28Z</time>
      </trkpt>
      <trkpt lat="42.63635" lon="1.95121">
        <ele>1705.55</ele>
        <time>2017-08-11T18:22:11Z</time>
      </trkpt>
      <trkpt lat="42.6362" lon="1.95106">
        <ele>1709.26</ele>
        <time>2017-08-11T18:22:44Z</time>
      </trkpt>
      <trkpt lat="42.63602" lon="1.95099">
        <ele>1712.38</ele>
        <time>2017-08-11T18:23:19Z</time>
      </trkpt>
      <trkpt lat="42.63588" lon="1.95082">
        <ele>1712.51</ele>
        <time>2017-08-11T18:23:39Z</time>
      </trkpt>
      <trkpt lat="42.63571" lon="1.95075">
        <ele>1715.29</ele>
        <time>2017-08-11T18:23:59Z</time>
      </trkpt>
      <trkpt lat="42.63552" lon="1.95073">
        <ele>1720.59</ele>
        <time>2017-08-11T18:24:31Z</time>
      </trkpt>
      <trkpt lat="42.63537" lon="1.95088">
        <ele>1722.2</ele>
        <time>2017-08-11T18:24:54Z</time>
      </trkpt>
      <trkpt lat="42.63519" lon="1.95093">
        <ele>1719.62</ele>
        <time>2017-08-11T18:25:29Z</time>
      </trkpt>
      <trkpt lat="42.63503" lon="1.95079">
        <ele>1726.49</ele>
        <time>2017-08-11T18:26:00Z</time>
      </trkpt>
      <trkpt lat="42.63488" lon="1.95066">
        <ele>1732.71</ele>
        <time>2017-08-11T18:26:34Z</time>
      </trkpt>
      <trkpt lat="42.63469" lon="1.95066">
        <ele>1730.59</ele>
        <time>2017-08-11T18:26:58Z</time>
      </trkpt>
      <trkpt lat="42.6345" lon="1.95062">
        <ele>1740.57</ele>
        <time>2017-08-11T18:27:24Z</time>
      </trkpt>
      <trkpt lat="42.63433" lon="1.95065">
        <ele>1741.42</ele>
        <time>2017-08-11T18:27:55Z</time>
      </trkpt>
      <trkpt lat="42.63413" lon="1.95065">
        <ele>1746.57</ele>
        <time>2017-08-11T18:28:22Z</time>
      </trkpt>
      <trkpt lat="42.63396" lon="1.95073">
        <ele>1757.38</ele>
        <time>2017-08-11T18:29:06Z</time>
      </trkpt>
      <trkpt lat="42.63378" lon="1.95073">
        <ele>1758.21</ele>
        <time>2017-08-11T18:29:45Z</time>
      </trkpt>
      <trkpt lat="42.63359" lon="1.95074">
        <ele>1766.28</ele>
        <time>2017-08-11T18:30:20Z</time>
      </trkpt>
      <trkpt lat="42.63342" lon="1.95083">
        <ele>1780.89</ele>
        <time>2017-08-11T18:33:07Z</time>
      </trkpt>
      <trkpt lat="42.63337" lon="1.95107">
        <ele>1783.26</ele>
        <time>2017-08-11T18:34:15Z</time>
      </trkpt>
      <trkpt lat="42.63337" lon="1.95132">
        <ele>1805.61</ele>
        <time>2017-08-11T18:35:58Z</time>
      </trkpt>
      <trkpt lat="42.6332" lon="1.95137">
        <ele>1814.61</ele>
        <time>2017-08-11T18:36:56Z</time>
      </trkpt>
      <trkpt lat="42.63321" lon="1.95162">
        <ele>1822.62</ele>
        <time>2017-08-11T18:37:38Z</time>
      </trkpt>
      <trkpt lat="42.63333" lon="1.95182">
        <ele>1824.5</ele>
        <time>2017-08-11T18:38:07Z</time>
      </trkpt>
      <trkpt lat="42.63317" lon="1.95194">
        <ele>1831.86</ele>
        <time>2017-08-11T18:39:10Z</time>
      </trkpt>
      <trkpt lat="42.63299" lon="1.95186">
        <ele>1838.5</ele>
        <time>2017-08-11T18:39:41Z</time>
      </trkpt>
      <trkpt lat="42.63281" lon="1.95186">
        <ele>1841.59</ele>
        <time>2017-08-11T18:40:08Z</time>
      </trkpt>
      <trkpt lat="42.63263" lon="1.95188">
        <ele>1845.6</ele>
        <time>2017-08-11T18:40:41Z</time>
      </trkpt>
      <trkpt lat="42.63245" lon="1.95191">
        <ele>1846.98</ele>
        <time>2017-08-11T18:41:23Z</time>
      </trkpt>
      <trkpt lat="42.63225" lon="1.9519">
        <ele>1845.97</ele>
        <time>2017-08-11T18:41:48Z</time>
      </trkpt>
      <trkpt lat="42.6321" lon="1.95178">
        <ele>1855.68</ele>
        <time>2017-08-11T18:42:19Z</time>
      </trkpt>
      <trkpt lat="42.63192" lon="1.95171">
        <ele>1865.59</ele>
        <time>2017-08-11T18:43:34Z</time>
      </trkpt>
      <trkpt lat="42.63174" lon="1.95172">
        <ele>1866.41</ele>
        <time>2017-08-11T18:44:04Z</time>
      </trkpt>
      <trkpt lat="42.63156" lon="1.95161">
        <ele>1878.56</ele>
        <time>2017-08-11T18:44:45Z</time>
      </trkpt>
      <trkpt lat="42.63138" lon="1.95154">
        <ele>1886.62</ele>
        <time>2017-08-11T18:45:21Z</time>
      </trkpt>
      <trkpt lat="42.6312" lon="1.95146">
        <ele>1889.18</ele>
        <time>2017-08-11T18:45:58Z</time>
      </trkpt>
      <trkpt lat="42.63103" lon="1.95139">
        <ele>1897.11</ele>
        <time>2017-08-11T18:46:29Z</time>
      </trkpt>
      <trkpt lat="42.63084" lon="1.95136">
        <ele>1904.51</ele>
        <time>2017-08-11T18:46:55Z</time>
      </trkpt>
      <trkpt lat="42.63067" lon="1.95127">
        <ele>1908.59</ele>
        <time>2017-08-11T18:48:02Z</time>
      </trkpt>
      <trkpt lat="42.63049" lon="1.95119">
        <ele>1912.44</ele>
        <time>2017-08-11T18:48:33Z</time>
      </trkpt>
      <trkpt lat="42.63031" lon="1.95107">
        <ele>1913.59</ele>
        <time>2017-08-11T18:49:02Z</time>
      </trkpt>
      <trkpt lat="42.63018" lon="1.95089">
        <ele>1918.72</ele>
        <time>2017-08-11T18:49:28Z</time>
      </trkpt>
      <trkpt lat="42.63002" lon="1.95075">
        <ele>1919.57</ele>
        <time>2017-08-11T18:49:57Z</time>
      </trkpt>
      <trkpt lat="42.62983" lon="1.95071">
        <ele>1930.62</ele>
        <time>2017-08-11T18:50:36Z</time>
      </trkpt>
      <trkpt lat="42.62965" lon="1.95076">
        <ele>1928.41</ele>
        <time>2017-08-11T18:51:31Z</time>
      </trkpt>
      <trkpt lat="42.62947" lon="1.95071">
        <ele>1935.55</ele>
        <time>2017-08-11T18:51:53Z</time>
      </trkpt>
      <trkpt lat="42.62929" lon="1.95063">
        <ele>1941.7</ele>
        <time>2017-08-11T18:52:15Z</time>
      </trkpt>
      <trkpt lat="42.62911" lon="1.95067">
        <ele>1943.92</ele>
        <time>2017-08-11T18:52:42Z</time>
      </trkpt>
      <trkpt lat="42.62893" lon="1.95063">
        <ele>1941.89</ele>
        <time>2017-08-11T18:53:03Z</time>
      </trkpt>
      <trkpt lat="42.62875" lon="1.95065">
        <ele>1943.48</ele>
        <time>2017-08-11T18:53:17Z</time>
      </trkpt>
      <trkpt lat="42.62859" lon="1.95052">
        <ele>1943.92</ele>
        <time>2017-08-11T18:53:42Z</time>
      </trkpt>
      <trkpt lat="42.62844" lon="1.95036">
        <ele>1940.05</ele>
        <time>2017-08-11T18:54:11Z</time>
      </trkpt>
      <trkpt lat="42.62835" lon="1.95013">
        <ele>1955.59</ele>
        <time>2017-08-11T18:54:47Z</time>
      </trkpt>
      <trkpt lat="42.62818" lon="1.95008">
        <ele>1963.66</ele>
        <time>2017-08-11T18:55:51Z</time>
      </trkpt>
      <trkpt lat="42.62806" lon="1.94988">
        <ele>1964.72</ele>
        <time>2017-08-11T18:56:16Z</time>
      </trkpt>
      <trkpt lat="42.62801" lon="1.94964">
        <ele>1964.3</ele>
        <time>2017-08-11T18:56:32Z</time>
      </trkpt>
      <trkpt lat="42.6279" lon="1.94945">
        <ele>1969.26</ele>
        <time>2017-08-11T18:56:54Z</time>
      </trkpt>
      <trkpt lat="42.62785" lon="1.9492">
        <ele>1970.55</ele>
        <time>2017-08-11T18:57:10Z</time>
      </trkpt>
      <trkpt lat="42.62781" lon="1.94895">
        <ele>1968.6</ele>
        <time>2017-08-11T18:57:32Z</time>
      </trkpt>
      <trkpt lat="42.62776" lon="1.9487">
        <ele>1970.38</ele>
        <time>2017-08-11T18:57:54Z</time>
      </trkpt>
      <trkpt lat="42.62766" lon="1.94849">
        <ele>1969.17</ele>
        <time>2017-08-11T18:58:13Z</time>
      </trkpt>
      <trkpt lat="42.62754" lon="1.94828">
        <ele>1968.11</ele>
        <time>2017-08-11T18:58:33Z</time>
      </trkpt>
      <trkpt lat="42.6276" lon="1.94805">
        <ele>1966.39</ele>
        <time>2017-08-11T18:58:52Z</time>
      </trkpt>
      <trkpt lat="42.62758" lon="1.9478">
        <ele>1968.6</ele>
        <time>2017-08-11T18:59:12Z</time>
      </trkpt>
      <trkpt lat="42.62743" lon="1.94765">
        <ele>1970.8</ele>
        <time>2017-08-11T18:59:39Z</time>
      </trkpt>
      <trkpt lat="42.62734" lon="1.94744">
        <ele>1956.54</ele>
        <time>2017-08-11T19:00:07Z</time>
      </trkpt>
      <trkpt lat="42.62721" lon="1.94723">
        <ele>1958.41</ele>
        <time>2017-08-11T19:00:25Z</time>
      </trkpt>
      <trkpt lat="42.62715" lon="1.94699">
        <ele>1960</ele>
        <time>2017-08-11T19:00:40Z</time>
      </trkpt>
      <trkpt lat="42.62707" lon="1.94676">
        <ele>1956.07</ele>
        <time>2017-08-11T19:01:02Z</time>
      </trkpt>
      <trkpt lat="42.62702" lon="1.94652">
        <ele>1958.41</ele>
        <time>2017-08-11T19:01:25Z</time>
      </trkpt>
      <trkpt lat="42.62688" lon="1.94635">
        <ele>1958.98</ele>
        <time>2017-08-11T19:01:44Z</time>
      </trkpt>
      <trkpt lat="42.62684" lon="1.94611">
        <ele>1959.39</ele>
        <time>2017-08-11T19:02:06Z</time>
      </trkpt>
      <trkpt lat="42.62686" lon="1.94585">
        <ele>1958.53</ele>
        <time>2017-08-11T19:02:23Z</time>
      </trkpt>
      <trkpt lat="42.62686" lon="1.94559">
        <ele>1962.62</ele>
        <time>2017-08-11T19:02:40Z</time>
      </trkpt>
      <trkpt lat="42.627" lon="1.94543">
        <ele>1953.33</ele>
        <time>2017-08-11T19:03:05Z</time>
      </trkpt>
      <trkpt lat="42.62691" lon="1.94521">
        <ele>1956.42</ele>
        <time>2017-08-11T19:03:23Z</time>
      </trkpt>
      <trkpt lat="42.62672" lon="1.94516">
        <ele>1960.52</ele>
        <time>2017-08-11T19:03:42Z</time>
      </trkpt>
      <trkpt lat="42.62667" lon="1.9449">
        <ele>1957.64</ele>
        <time>2017-08-11T19:03:59Z</time>
      </trkpt>
      <trkpt lat="42.62669" lon="1.94465">
        <ele>1962.37</ele>
        <time>2017-08-11T19:04:19Z</time>
      </trkpt>
      <trkpt lat="42.62673" lon="1.9444">
        <ele>1966.53</ele>
        <time>2017-08-11T19:04:36Z</time>
      </trkpt>
      <trkpt lat="42.62665" lon="1.94418">
        <ele>1969.59</ele>
        <time>2017-08-11T19:04:53Z</time>
      </trkpt>
      <trkpt lat="42.62654" lon="1.94398">
        <ele>1971.01</ele>
        <time>2017-08-11T19:07:03Z</time>
      </trkpt>
      <trkpt lat="42.62635" lon="1.94394">
        <ele>1970.97</ele>
        <time>2017-08-11T19:07:27Z</time>
      </trkpt>
      <trkpt lat="42.62632" lon="1.94419">
        <ele>1961.73</ele>
        <time>2017-08-11T19:07:52Z</time>
      </trkpt>
      <trkpt lat="42.62644" lon="1.944">
        <ele>1963.88</ele>
        <time>2017-08-11T19:08:31Z</time>
      </trkpt>
      <trkpt lat="42.62662" lon="1.94411">
        <ele>1970.41</ele>
        <time>2017-08-11T19:10:33Z</time>
      </trkpt>
      <trkpt lat="42.62647" lon="1.94394">
        <ele>1973.39</ele>
        <time>2017-08-11T19:12:35Z</time>
      </trkpt>
      <trkpt lat="42.62633" lon="1.94412">
        <ele>1964.9</ele>
        <time>2017-08-11T19:12:53Z</time>
      </trkpt>
      <trkpt lat="42.62633" lon="1.94412">
        <ele>1970.59</ele>
        <time>2017-08-12T06:59:20Z</time>
      </trkpt>
      <trkpt lat="42.62624" lon="1.94436">
        <ele>1967.17</ele>
        <time>2017-08-12T06:59:23Z</time>
      </trkpt>
      <trkpt lat="42.62632" lon="1.94409">
        <ele>1959.46</ele>
        <time>2017-08-12T06:59:31Z</time>
      </trkpt>
      <trkpt lat="42.62617" lon="1.94428">
        <ele>1959.55</ele>
        <time>2017-08-12T06:59:32Z</time>
      </trkpt>
      <trkpt lat="42.62632" lon="1.94414">
        <ele>1958.15</ele>
        <time>2017-08-12T07:02:38Z</time>
      </trkpt>
      <trkpt lat="42.62642" lon="1.94394">
        <ele>1959.59</ele>
        <time>2017-08-12T07:03:00Z</time>
      </trkpt>
      <trkpt lat="42.62654" lon="1.94412">
        <ele>1963.27</ele>
        <time>2017-08-12T07:03:20Z</time>
      </trkpt>
      <trkpt lat="42.62669" lon="1.94428">
        <ele>1963.6</ele>
        <time>2017-08-12T07:03:37Z</time>
      </trkpt>
      <trkpt lat="42.62672" lon="1.94453">
        <ele>1963.62</ele>
        <time>2017-08-12T07:03:51Z</time>
      </trkpt>
      <trkpt lat="42.62662" lon="1.94474">
        <ele>1962.3</ele>
        <time>2017-08-12T07:04:07Z</time>
      </trkpt>
      <trkpt lat="42.62665" lon="1.94499">
        <ele>1962.68</ele>
        <time>2017-08-12T07:04:26Z</time>
      </trkpt>
      <trkpt lat="42.62674" lon="1.9452">
        <ele>1961.68</ele>
        <time>2017-08-12T07:04:46Z</time>
      </trkpt>
      <trkpt lat="42.62693" lon="1.94527">
        <ele>1960.88</ele>
        <time>2017-08-12T07:05:00Z</time>
      </trkpt>
      <trkpt lat="42.62685" lon="1.94551">
        <ele>1958.89</ele>
        <time>2017-08-12T07:05:17Z</time>
      </trkpt>
      <trkpt lat="42.62677" lon="1.94573">
        <ele>1960.75</ele>
        <time>2017-08-12T07:05:50Z</time>
      </trkpt>
      <trkpt lat="42.62674" lon="1.94598">
        <ele>1959.6</ele>
        <time>2017-08-12T07:06:06Z</time>
      </trkpt>
      <trkpt lat="42.62679" lon="1.94622">
        <ele>1957.72</ele>
        <time>2017-08-12T07:06:25Z</time>
      </trkpt>
      <trkpt lat="42.62692" lon="1.94641">
        <ele>1956.83</ele>
        <time>2017-08-12T07:06:43Z</time>
      </trkpt>
      <trkpt lat="42.62698" lon="1.94665">
        <ele>1952.32</ele>
        <time>2017-08-12T07:07:03Z</time>
      </trkpt>
      <trkpt lat="42.62704" lon="1.94688">
        <ele>1954.62</ele>
        <time>2017-08-12T07:07:22Z</time>
      </trkpt>
      <trkpt lat="42.62704" lon="1.94714">
        <ele>1947.65</ele>
        <time>2017-08-12T07:07:47Z</time>
      </trkpt>
      <trkpt lat="42.62713" lon="1.94736">
        <ele>1946.62</ele>
        <time>2017-08-12T07:08:03Z</time>
      </trkpt>
      <trkpt lat="42.62724" lon="1.94757">
        <ele>1951.87</ele>
        <time>2017-08-12T07:08:32Z</time>
      </trkpt>
      <trkpt lat="42.62741" lon="1.94768">
        <ele>1957.66</ele>
        <time>2017-08-12T07:09:04Z</time>
      </trkpt>
      <trkpt lat="42.62752" lon="1.94788">
        <ele>1956.89</ele>
        <time>2017-08-12T07:09:29Z</time>
      </trkpt>
      <trkpt lat="42.6275" lon="1.94813">
        <ele>1962.89</ele>
        <time>2017-08-12T07:09:54Z</time>
      </trkpt>
      <trkpt lat="42.62759" lon="1.94836">
        <ele>1963.68</ele>
        <time>2017-08-12T07:10:15Z</time>
      </trkpt>
      <trkpt lat="42.62769" lon="1.94858">
        <ele>1964.69</ele>
        <time>2017-08-12T07:10:33Z</time>
      </trkpt>
      <trkpt lat="42.62777" lon="1.9488">
        <ele>1964.51</ele>
        <time>2017-08-12T07:10:59Z</time>
      </trkpt>
      <trkpt lat="42.62779" lon="1.94905">
        <ele>1965.01</ele>
        <time>2017-08-12T07:11:19Z</time>
      </trkpt>
      <trkpt lat="42.62784" lon="1.94929">
        <ele>1961.94</ele>
        <time>2017-08-12T07:11:36Z</time>
      </trkpt>
      <trkpt lat="42.62792" lon="1.94952">
        <ele>1966.31</ele>
        <time>2017-08-12T07:11:54Z</time>
      </trkpt>
      <trkpt lat="42.62796" lon="1.94976">
        <ele>1965.88</ele>
        <time>2017-08-12T07:12:15Z</time>
      </trkpt>
      <trkpt lat="42.62806" lon="1.94997">
        <ele>1965.28</ele>
        <time>2017-08-12T07:17:38Z</time>
      </trkpt>
      <trkpt lat="42.62816" lon="1.95018">
        <ele>1962.59</ele>
        <time>2017-08-12T07:18:03Z</time>
      </trkpt>
      <trkpt lat="42.62835" lon="1.95019">
        <ele>1955.69</ele>
        <time>2017-08-12T07:18:45Z</time>
      </trkpt>
      <trkpt lat="42.62851" lon="1.95033">
        <ele>1951.2</ele>
        <time>2017-08-12T07:19:09Z</time>
      </trkpt>
      <trkpt lat="42.62863" lon="1.9505">
        <ele>1949.69</ele>
        <time>2017-08-12T07:19:27Z</time>
      </trkpt>
      <trkpt lat="42.62878" lon="1.95065">
        <ele>1946.45</ele>
        <time>2017-08-12T07:19:47Z</time>
      </trkpt>
      <trkpt lat="42.62898" lon="1.95065">
        <ele>1945.51</ele>
        <time>2017-08-12T07:20:05Z</time>
      </trkpt>
      <trkpt lat="42.62918" lon="1.95065">
        <ele>1939.3</ele>
        <time>2017-08-12T07:20:24Z</time>
      </trkpt>
      <trkpt lat="42.62936" lon="1.95074">
        <ele>1936.69</ele>
        <time>2017-08-12T07:20:45Z</time>
      </trkpt>
      <trkpt lat="42.62954" lon="1.95072">
        <ele>1934.81</ele>
        <time>2017-08-12T07:20:58Z</time>
      </trkpt>
      <trkpt lat="42.62974" lon="1.95075">
        <ele>1941.16</ele>
        <time>2017-08-12T07:21:21Z</time>
      </trkpt>
      <trkpt lat="42.62993" lon="1.95074">
        <ele>1925.47</ele>
        <time>2017-08-12T07:21:48Z</time>
      </trkpt>
      <trkpt lat="42.63011" lon="1.9508">
        <ele>1917.59</ele>
        <time>2017-08-12T07:22:17Z</time>
      </trkpt>
      <trkpt lat="42.63021" lon="1.95101">
        <ele>1916.56</ele>
        <time>2017-08-12T07:22:36Z</time>
      </trkpt>
      <trkpt lat="42.63039" lon="1.9511">
        <ele>1915.87</ele>
        <time>2017-08-12T07:22:57Z</time>
      </trkpt>
      <trkpt lat="42.63057" lon="1.95115">
        <ele>1911.39</ele>
        <time>2017-08-12T07:23:18Z</time>
      </trkpt>
      <trkpt lat="42.63071" lon="1.95133">
        <ele>1907.98</ele>
        <time>2017-08-12T07:23:40Z</time>
      </trkpt>
      <trkpt lat="42.63081" lon="1.95154">
        <ele>1903.21</ele>
        <time>2017-08-12T07:23:58Z</time>
      </trkpt>
      <trkpt lat="42.63095" lon="1.95171">
        <ele>1903.48</ele>
        <time>2017-08-12T07:24:19Z</time>
      </trkpt>
      <trkpt lat="42.63111" lon="1.95186">
        <ele>1907.3</ele>
        <time>2017-08-12T07:24:37Z</time>
      </trkpt>
      <trkpt lat="42.63128" lon="1.95196">
        <ele>1906.61</ele>
        <time>2017-08-12T07:26:15Z</time>
      </trkpt>
      <trkpt lat="42.63145" lon="1.95204">
        <ele>1906.77</ele>
        <time>2017-08-12T07:26:30Z</time>
      </trkpt>
      <trkpt lat="42.63161" lon="1.95217">
        <ele>1906.6</ele>
        <time>2017-08-12T07:26:47Z</time>
      </trkpt>
      <trkpt lat="42.63178" lon="1.9523">
        <ele>1900.61</ele>
        <time>2017-08-12T07:27:03Z</time>
      </trkpt>
      <trkpt lat="42.63193" lon="1.95244">
        <ele>1899.62</ele>
        <time>2017-08-12T07:27:18Z</time>
      </trkpt>
      <trkpt lat="42.6321" lon="1.95253">
        <ele>1897.33</ele>
        <time>2017-08-12T07:27:35Z</time>
      </trkpt>
      <trkpt lat="42.63227" lon="1.95265">
        <ele>1893.8</ele>
        <time>2017-08-12T07:27:54Z</time>
      </trkpt>
      <trkpt lat="42.63245" lon="1.95266">
        <ele>1894.33</ele>
        <time>2017-08-12T07:28:13Z</time>
      </trkpt>
      <trkpt lat="42.63263" lon="1.95268">
        <ele>1888.91</ele>
        <time>2017-08-12T07:28:33Z</time>
      </trkpt>
      <trkpt lat="42.63282" lon="1.95267">
        <ele>1886.63</ele>
        <time>2017-08-12T07:28:51Z</time>
      </trkpt>
      <trkpt lat="42.63299" lon="1.95274">
        <ele>1884.6</ele>
        <time>2017-08-12T07:29:11Z</time>
      </trkpt>
      <trkpt lat="42.63317" lon="1.95279">
        <ele>1883.3</ele>
        <time>2017-08-12T07:29:29Z</time>
      </trkpt>
      <trkpt lat="42.63333" lon="1.95292">
        <ele>1886.57</ele>
        <time>2017-08-12T07:30:02Z</time>
      </trkpt>
      <trkpt lat="42.63349" lon="1.95302">
        <ele>1889.8</ele>
        <time>2017-08-12T07:30:29Z</time>
      </trkpt>
      <trkpt lat="42.63365" lon="1.95316">
        <ele>1890.28</ele>
        <time>2017-08-12T07:30:59Z</time>
      </trkpt>
      <trkpt lat="42.63381" lon="1.95328">
        <ele>1896.52</ele>
        <time>2017-08-12T07:31:26Z</time>
      </trkpt>
      <trkpt lat="42.63393" lon="1.95347">
        <ele>1892.63</ele>
        <time>2017-08-12T07:31:56Z</time>
      </trkpt>
      <trkpt lat="42.6341" lon="1.95357">
        <ele>1892.97</ele>
        <time>2017-08-12T07:32:22Z</time>
      </trkpt>
      <trkpt lat="42.63425" lon="1.95371">
        <ele>1891.9</ele>
        <time>2017-08-12T07:32:41Z</time>
      </trkpt>
      <trkpt lat="42.63441" lon="1.95382">
        <ele>1891.87</ele>
        <time>2017-08-12T07:33:03Z</time>
      </trkpt>
      <trkpt lat="42.63459" lon="1.95393">
        <ele>1886.59</ele>
        <time>2017-08-12T07:33:24Z</time>
      </trkpt>
      <trkpt lat="42.63475" lon="1.95406">
        <ele>1886.87</ele>
        <time>2017-08-12T07:33:59Z</time>
      </trkpt>
      <trkpt lat="42.63489" lon="1.95423">
        <ele>1891.65</ele>
        <time>2017-08-12T07:34:16Z</time>
      </trkpt>
      <trkpt lat="42.63499" lon="1.95444">
        <ele>1892.3</ele>
        <time>2017-08-12T07:34:51Z</time>
      </trkpt>
      <trkpt lat="42.63511" lon="1.95463">
        <ele>1888.6</ele>
        <time>2017-08-12T07:35:15Z</time>
      </trkpt>
      <trkpt lat="42.63525" lon="1.95478">
        <ele>1897.21</ele>
        <time>2017-08-12T07:35:43Z</time>
      </trkpt>
      <trkpt lat="42.63536" lon="1.95498">
        <ele>1900.59</ele>
        <time>2017-08-12T07:36:14Z</time>
      </trkpt>
      <trkpt lat="42.63551" lon="1.95513">
        <ele>1901.5</ele>
        <time>2017-08-12T07:36:39Z</time>
      </trkpt>
      <trkpt lat="42.63562" lon="1.95533">
        <ele>1906.41</ele>
        <time>2017-08-12T07:37:17Z</time>
      </trkpt>
      <trkpt lat="42.63576" lon="1.95549">
        <ele>1905.36</ele>
        <time>2017-08-12T07:37:38Z</time>
      </trkpt>
      <trkpt lat="42.63591" lon="1.95565">
        <ele>1902.32</ele>
        <time>2017-08-12T07:37:57Z</time>
      </trkpt>
      <trkpt lat="42.63602" lon="1.95585">
        <ele>1902.29</ele>
        <time>2017-08-12T07:38:17Z</time>
      </trkpt>
      <trkpt lat="42.63616" lon="1.95601">
        <ele>1904.59</ele>
        <time>2017-08-12T07:38:32Z</time>
      </trkpt>
      <trkpt lat="42.63626" lon="1.95622">
        <ele>1902.5</ele>
        <time>2017-08-12T07:38:54Z</time>
      </trkpt>
      <trkpt lat="42.63636" lon="1.95644">
        <ele>1907.89</ele>
        <time>2017-08-12T07:39:13Z</time>
      </trkpt>
      <trkpt lat="42.63636" lon="1.95668">
        <ele>1905.29</ele>
        <time>2017-08-12T07:39:32Z</time>
      </trkpt>
      <trkpt lat="42.63644" lon="1.95691">
        <ele>1912.5</ele>
        <time>2017-08-12T07:39:54Z</time>
      </trkpt>
      <trkpt lat="42.63654" lon="1.95711">
        <ele>1912.51</ele>
        <time>2017-08-12T07:40:30Z</time>
      </trkpt>
      <trkpt lat="42.63662" lon="1.95735">
        <ele>1918.39</ele>
        <time>2017-08-12T07:41:07Z</time>
      </trkpt>
      <trkpt lat="42.63667" lon="1.9576">
        <ele>1927.87</ele>
        <time>2017-08-12T07:41:53Z</time>
      </trkpt>
      <trkpt lat="42.63683" lon="1.95774">
        <ele>1926.59</ele>
        <time>2017-08-12T07:42:19Z</time>
      </trkpt>
      <trkpt lat="42.63694" lon="1.95793">
        <ele>1925.9</ele>
        <time>2017-08-12T07:42:38Z</time>
      </trkpt>
      <trkpt lat="42.6369" lon="1.95817">
        <ele>1917.22</ele>
        <time>2017-08-12T07:46:08Z</time>
      </trkpt>
      <trkpt lat="42.63691" lon="1.95842">
        <ele>1918.84</ele>
        <time>2017-08-12T07:46:25Z</time>
      </trkpt>
      <trkpt lat="42.63697" lon="1.95866">
        <ele>1919.59</ele>
        <time>2017-08-12T07:46:53Z</time>
      </trkpt>
      <trkpt lat="42.63706" lon="1.95887">
        <ele>1925.65</ele>
        <time>2017-08-12T07:47:49Z</time>
      </trkpt>
      <trkpt lat="42.63715" lon="1.95909">
        <ele>1930.87</ele>
        <time>2017-08-12T07:48:22Z</time>
      </trkpt>
      <trkpt lat="42.63716" lon="1.95935">
        <ele>1924.68</ele>
        <time>2017-08-12T07:48:48Z</time>
      </trkpt>
      <trkpt lat="42.63711" lon="1.95959">
        <ele>1923.5</ele>
        <time>2017-08-12T07:49:08Z</time>
      </trkpt>
      <trkpt lat="42.63706" lon="1.95982">
        <ele>1923.7</ele>
        <time>2017-08-12T07:49:27Z</time>
      </trkpt>
      <trkpt lat="42.63696" lon="1.96002">
        <ele>1922.93</ele>
        <time>2017-08-12T07:49:47Z</time>
      </trkpt>
      <trkpt lat="42.63688" lon="1.96026">
        <ele>1925.58</ele>
        <time>2017-08-12T07:50:10Z</time>
      </trkpt>
      <trkpt lat="42.6369" lon="1.9605">
        <ele>1917.79</ele>
        <time>2017-08-12T07:50:36Z</time>
      </trkpt>
      <trkpt lat="42.63684" lon="1.96073">
        <ele>1924.86</ele>
        <time>2017-08-12T07:50:59Z</time>
      </trkpt>
      <trkpt lat="42.63679" lon="1.96096">
        <ele>1932.29</ele>
        <time>2017-08-12T07:51:47Z</time>
      </trkpt>
      <trkpt lat="42.63684" lon="1.96121">
        <ele>1939.88</ele>
        <time>2017-08-12T07:52:20Z</time>
      </trkpt>
      <trkpt lat="42.63681" lon="1.96146">
        <ele>1945.38</ele>
        <time>2017-08-12T07:52:56Z</time>
      </trkpt>
      <trkpt lat="42.63668" lon="1.96163">
        <ele>1949.29</ele>
        <time>2017-08-12T07:53:25Z</time>
      </trkpt>
      <trkpt lat="42.63654" lon="1.9618">
        <ele>1952.63</ele>
        <time>2017-08-12T07:53:56Z</time>
      </trkpt>
      <trkpt lat="42.63645" lon="1.96201">
        <ele>1959.59</ele>
        <time>2017-08-12T07:54:43Z</time>
      </trkpt>
      <trkpt lat="42.63642" lon="1.96225">
        <ele>1968.52</ele>
        <time>2017-08-12T07:56:01Z</time>
      </trkpt>
      <trkpt lat="42.63639" lon="1.9625">
        <ele>1975.57</ele>
        <time>2017-08-12T07:57:00Z</time>
      </trkpt>
      <trkpt lat="42.63627" lon="1.96269">
        <ele>1972.6</ele>
        <time>2017-08-12T07:57:23Z</time>
      </trkpt>
      <trkpt lat="42.63617" lon="1.9629">
        <ele>1973.3</ele>
        <time>2017-08-12T07:57:41Z</time>
      </trkpt>
      <trkpt lat="42.63609" lon="1.96314">
        <ele>1976.37</ele>
        <time>2017-08-12T07:58:04Z</time>
      </trkpt>
      <trkpt lat="42.63612" lon="1.96338">
        <ele>1975.51</ele>
        <time>2017-08-12T07:58:23Z</time>
      </trkpt>
      <trkpt lat="42.63604" lon="1.9636">
        <ele>1971.32</ele>
        <time>2017-08-12T07:58:43Z</time>
      </trkpt>
      <trkpt lat="42.63594" lon="1.96381">
        <ele>1974.53</ele>
        <time>2017-08-12T07:59:04Z</time>
      </trkpt>
      <trkpt lat="42.63587" lon="1.96404">
        <ele>1972.97</ele>
        <time>2017-08-12T07:59:23Z</time>
      </trkpt>
      <trkpt lat="42.63574" lon="1.96422">
        <ele>1971.9</ele>
        <time>2017-08-12T07:59:39Z</time>
      </trkpt>
      <trkpt lat="42.63568" lon="1.96447">
        <ele>1975.7</ele>
        <time>2017-08-12T08:00:00Z</time>
      </trkpt>
      <trkpt lat="42.63568" lon="1.96471">
        <ele>1972.48</ele>
        <time>2017-08-12T08:00:23Z</time>
      </trkpt>
      <trkpt lat="42.63567" lon="1.96497">
        <ele>1970.39</ele>
        <time>2017-08-12T08:00:40Z</time>
      </trkpt>
      <trkpt lat="42.63566" lon="1.96522">
        <ele>1967.6</ele>
        <time>2017-08-12T08:00:59Z</time>
      </trkpt>
      <trkpt lat="42.63559" lon="1.96546">
        <ele>1964.59</ele>
        <time>2017-08-12T08:01:14Z</time>
      </trkpt>
      <trkpt lat="42.63559" lon="1.96571">
        <ele>1964.62</ele>
        <time>2017-08-12T08:01:30Z</time>
      </trkpt>
      <trkpt lat="42.63569" lon="1.96591">
        <ele>1963.87</ele>
        <time>2017-08-12T08:01:45Z</time>
      </trkpt>
      <trkpt lat="42.63577" lon="1.96614">
        <ele>1960.39</ele>
        <time>2017-08-12T08:02:01Z</time>
      </trkpt>
      <trkpt lat="42.63572" lon="1.9664">
        <ele>1956.6</ele>
        <time>2017-08-12T08:02:20Z</time>
      </trkpt>
      <trkpt lat="42.63559" lon="1.96657">
        <ele>1961.53</ele>
        <time>2017-08-12T08:02:41Z</time>
      </trkpt>
      <trkpt lat="42.63545" lon="1.96673">
        <ele>1957.1</ele>
        <time>2017-08-12T08:03:12Z</time>
      </trkpt>
      <trkpt lat="42.63544" lon="1.96698">
        <ele>1955.59</ele>
        <time>2017-08-12T08:03:34Z</time>
      </trkpt>
      <trkpt lat="42.63559" lon="1.96714">
        <ele>1955.49</ele>
        <time>2017-08-12T08:04:06Z</time>
      </trkpt>
      <trkpt lat="42.63578" lon="1.96718">
        <ele>1957.57</ele>
        <time>2017-08-12T08:05:34Z</time>
      </trkpt>
      <trkpt lat="42.63596" lon="1.96718">
        <ele>1960.31</ele>
        <time>2017-08-12T08:05:50Z</time>
      </trkpt>
      <trkpt lat="42.63616" lon="1.96718">
        <ele>1962.56</ele>
        <time>2017-08-12T08:06:19Z</time>
      </trkpt>
      <trkpt lat="42.63634" lon="1.96723">
        <ele>1961.3</ele>
        <time>2017-08-12T08:06:36Z</time>
      </trkpt>
      <trkpt lat="42.63653" lon="1.96728">
        <ele>1965.27</ele>
        <time>2017-08-12T08:06:52Z</time>
      </trkpt>
      <trkpt lat="42.63666" lon="1.96747">
        <ele>1963.6</ele>
        <time>2017-08-12T08:07:09Z</time>
      </trkpt>
      <trkpt lat="42.63673" lon="1.9677">
        <ele>1961.42</ele>
        <time>2017-08-12T08:07:26Z</time>
      </trkpt>
      <trkpt lat="42.6368" lon="1.96793">
        <ele>1961.49</ele>
        <time>2017-08-12T08:07:41Z</time>
      </trkpt>
      <trkpt lat="42.63687" lon="1.96816">
        <ele>1961.86</ele>
        <time>2017-08-12T08:07:58Z</time>
      </trkpt>
      <trkpt lat="42.63691" lon="1.9684">
        <ele>1961.62</ele>
        <time>2017-08-12T08:08:21Z</time>
      </trkpt>
      <trkpt lat="42.63708" lon="1.96849">
        <ele>1963.6</ele>
        <time>2017-08-12T08:09:31Z</time>
      </trkpt>
      <trkpt lat="42.63695" lon="1.96873">
        <ele>1966</ele>
        <time>2017-08-12T08:09:45Z</time>
      </trkpt>
      <trkpt lat="42.63704" lon="1.96847">
        <ele>1967.12</ele>
        <time>2017-08-12T08:09:46Z</time>
      </trkpt>
      <trkpt lat="42.63706" lon="1.96872">
        <ele>1963.62</ele>
        <time>2017-08-12T08:15:17Z</time>
      </trkpt>
      <trkpt lat="42.6371" lon="1.96896">
        <ele>1963.53</ele>
        <time>2017-08-12T08:15:36Z</time>
      </trkpt>
      <trkpt lat="42.63716" lon="1.9692">
        <ele>1959.6</ele>
        <time>2017-08-12T08:15:54Z</time>
      </trkpt>
      <trkpt lat="42.63725" lon="1.96942">
        <ele>1957.67</ele>
        <time>2017-08-12T08:16:10Z</time>
      </trkpt>
      <trkpt lat="42.63741" lon="1.96953">
        <ele>1958.49</ele>
        <time>2017-08-12T08:16:25Z</time>
      </trkpt>
      <trkpt lat="42.63757" lon="1.96966">
        <ele>1956.92</ele>
        <time>2017-08-12T08:16:42Z</time>
      </trkpt>
      <trkpt lat="42.63771" lon="1.96983">
        <ele>1959.51</ele>
        <time>2017-08-12T08:16:59Z</time>
      </trkpt>
      <trkpt lat="42.63789" lon="1.96987">
        <ele>1961.59</ele>
        <time>2017-08-12T08:17:18Z</time>
      </trkpt>
      <trkpt lat="42.63805" lon="1.97">
        <ele>1963.57</ele>
        <time>2017-08-12T08:17:40Z</time>
      </trkpt>
      <trkpt lat="42.63823" lon="1.97">
        <ele>1960.72</ele>
        <time>2017-08-12T08:18:01Z</time>
      </trkpt>
      <trkpt lat="42.63842" lon="1.97001">
        <ele>1962.57</ele>
        <time>2017-08-12T08:18:20Z</time>
      </trkpt>
      <trkpt lat="42.63859" lon="1.9701">
        <ele>1964.62</ele>
        <time>2017-08-12T08:18:37Z</time>
      </trkpt>
      <trkpt lat="42.63877" lon="1.97018">
        <ele>1966.58</ele>
        <time>2017-08-12T08:18:55Z</time>
      </trkpt>
      <trkpt lat="42.63891" lon="1.97035">
        <ele>1967.32</ele>
        <time>2017-08-12T08:19:19Z</time>
      </trkpt>
      <trkpt lat="42.63909" lon="1.97046">
        <ele>1970.57</ele>
        <time>2017-08-12T08:19:37Z</time>
      </trkpt>
      <trkpt lat="42.63927" lon="1.97044">
        <ele>1973.51</ele>
        <time>2017-08-12T08:20:00Z</time>
      </trkpt>
      <trkpt lat="42.63945" lon="1.97048">
        <ele>1981.5</ele>
        <time>2017-08-12T08:20:47Z</time>
      </trkpt>
      <trkpt lat="42.63963" lon="1.97055">
        <ele>1986.59</ele>
        <time>2017-08-12T08:21:17Z</time>
      </trkpt>
      <trkpt lat="42.63978" lon="1.97068">
        <ele>1989.59</ele>
        <time>2017-08-12T08:21:51Z</time>
      </trkpt>
      <trkpt lat="42.63995" lon="1.9708">
        <ele>1987.6</ele>
        <time>2017-08-12T08:22:12Z</time>
      </trkpt>
      <trkpt lat="42.6401" lon="1.97096">
        <ele>1990.57</ele>
        <time>2017-08-12T08:22:32Z</time>
      </trkpt>
      <trkpt lat="42.64026" lon="1.97106">
        <ele>1996.29</ele>
        <time>2017-08-12T08:23:04Z</time>
      </trkpt>
      <trkpt lat="42.64033" lon="1.9713">
        <ele>1991.62</ele>
        <time>2017-08-12T08:23:28Z</time>
      </trkpt>
      <trkpt lat="42.64041" lon="1.97154">
        <ele>1987.61</ele>
        <time>2017-08-12T08:23:51Z</time>
      </trkpt>
      <trkpt lat="42.64056" lon="1.97169">
        <ele>1991.5</ele>
        <time>2017-08-12T08:24:08Z</time>
      </trkpt>
      <trkpt lat="42.6406" lon="1.97193">
        <ele>1986.92</ele>
        <time>2017-08-12T08:24:34Z</time>
      </trkpt>
      <trkpt lat="42.64064" lon="1.97217">
        <ele>1981.6</ele>
        <time>2017-08-12T08:24:53Z</time>
      </trkpt>
      <trkpt lat="42.64079" lon="1.97232">
        <ele>1985.59</ele>
        <time>2017-08-12T08:25:16Z</time>
      </trkpt>
      <trkpt lat="42.64097" lon="1.97243">
        <ele>1988.89</ele>
        <time>2017-08-12T08:25:35Z</time>
      </trkpt>
      <trkpt lat="42.64114" lon="1.97252">
        <ele>1989.59</ele>
        <time>2017-08-12T08:25:49Z</time>
      </trkpt>
      <trkpt lat="42.6413" lon="1.97267">
        <ele>1990.27</ele>
        <time>2017-08-12T08:26:07Z</time>
      </trkpt>
      <trkpt lat="42.64146" lon="1.97279">
        <ele>1990.87</ele>
        <time>2017-08-12T08:26:20Z</time>
      </trkpt>
      <trkpt lat="42.64159" lon="1.97297">
        <ele>1985.28</ele>
        <time>2017-08-12T08:26:44Z</time>
      </trkpt>
      <trkpt lat="42.64177" lon="1.97297">
        <ele>1986.62</ele>
        <time>2017-08-12T08:27:03Z</time>
      </trkpt>
      <trkpt lat="42.64195" lon="1.973">
        <ele>1986.59</ele>
        <time>2017-08-12T08:27:24Z</time>
      </trkpt>
      <trkpt lat="42.64213" lon="1.97299">
        <ele>1987.6</ele>
        <time>2017-08-12T08:27:48Z</time>
      </trkpt>
      <trkpt lat="42.64232" lon="1.97301">
        <ele>1993.49</ele>
        <time>2017-08-12T08:28:19Z</time>
      </trkpt>
      <trkpt lat="42.6425" lon="1.97297">
        <ele>1994.68</ele>
        <time>2017-08-12T08:28:38Z</time>
      </trkpt>
      <trkpt lat="42.64269" lon="1.973">
        <ele>1995.5</ele>
        <time>2017-08-12T08:28:56Z</time>
      </trkpt>
      <trkpt lat="42.64287" lon="1.97301">
        <ele>1998.02</ele>
        <time>2017-08-12T08:29:15Z</time>
      </trkpt>
      <trkpt lat="42.64305" lon="1.97301">
        <ele>2000.27</ele>
        <time>2017-08-12T08:29:37Z</time>
      </trkpt>
      <trkpt lat="42.64323" lon="1.97306">
        <ele>1997.87</ele>
        <time>2017-08-12T08:29:58Z</time>
      </trkpt>
      <trkpt lat="42.64342" lon="1.97314">
        <ele>2006.59</ele>
        <time>2017-08-12T08:30:19Z</time>
      </trkpt>
      <trkpt lat="42.64359" lon="1.97322">
        <ele>2005.51</ele>
        <time>2017-08-12T08:30:39Z</time>
      </trkpt>
      <trkpt lat="42.64377" lon="1.97324">
        <ele>2008.21</ele>
        <time>2017-08-12T08:30:58Z</time>
      </trkpt>
      <trkpt lat="42.64398" lon="1.97328">
        <ele>2011.2</ele>
        <time>2017-08-12T08:31:44Z</time>
      </trkpt>
      <trkpt lat="42.64416" lon="1.97322">
        <ele>2008.92</ele>
        <time>2017-08-12T08:32:02Z</time>
      </trkpt>
      <trkpt lat="42.64432" lon="1.97309">
        <ele>2005.75</ele>
        <time>2017-08-12T08:32:22Z</time>
      </trkpt>
      <trkpt lat="42.64441" lon="1.97331">
        <ele>2002.53</ele>
        <time>2017-08-12T08:32:41Z</time>
      </trkpt>
      <trkpt lat="42.64435" lon="1.97355">
        <ele>2002.59</ele>
        <time>2017-08-12T08:32:58Z</time>
      </trkpt>
      <trkpt lat="42.64429" lon="1.97378">
        <ele>2001.5</ele>
        <time>2017-08-12T08:33:14Z</time>
      </trkpt>
      <trkpt lat="42.64425" lon="1.97402">
        <ele>1998.62</ele>
        <time>2017-08-12T08:33:32Z</time>
      </trkpt>
      <trkpt lat="42.64424" lon="1.97428">
        <ele>1994.67</ele>
        <time>2017-08-12T08:33:49Z</time>
      </trkpt>
      <trkpt lat="42.64434" lon="1.97449">
        <ele>1997.33</ele>
        <time>2017-08-12T08:34:11Z</time>
      </trkpt>
      <trkpt lat="42.6445" lon="1.97464">
        <ele>1998.98</ele>
        <time>2017-08-12T08:34:32Z</time>
      </trkpt>
      <trkpt lat="42.6446" lon="1.97485">
        <ele>1999.57</ele>
        <time>2017-08-12T08:34:49Z</time>
      </trkpt>
      <trkpt lat="42.64459" lon="1.97509">
        <ele>1995.69</ele>
        <time>2017-08-12T08:35:09Z</time>
      </trkpt>
      <trkpt lat="42.64469" lon="1.9753">
        <ele>1999.06</ele>
        <time>2017-08-12T08:35:41Z</time>
      </trkpt>
      <trkpt lat="42.64479" lon="1.97552">
        <ele>2000.6</ele>
        <time>2017-08-12T08:36:05Z</time>
      </trkpt>
      <trkpt lat="42.64486" lon="1.97574">
        <ele>1999.6</ele>
        <time>2017-08-12T08:36:23Z</time>
      </trkpt>
      <trkpt lat="42.64479" lon="1.97597">
        <ele>2001.9</ele>
        <time>2017-08-12T08:37:20Z</time>
      </trkpt>
      <trkpt lat="42.64461" lon="1.97607">
        <ele>2002.2</ele>
        <time>2017-08-12T08:37:45Z</time>
      </trkpt>
      <trkpt lat="42.64445" lon="1.97617">
        <ele>2009.59</ele>
        <time>2017-08-12T08:38:02Z</time>
      </trkpt>
      <trkpt lat="42.64427" lon="1.97626">
        <ele>2014.58</ele>
        <time>2017-08-12T08:38:24Z</time>
      </trkpt>
      <trkpt lat="42.64412" lon="1.97639">
        <ele>2011.93</ele>
        <time>2017-08-12T08:38:52Z</time>
      </trkpt>
      <trkpt lat="42.64408" lon="1.97664">
        <ele>2015.56</ele>
        <time>2017-08-12T08:39:27Z</time>
      </trkpt>
      <trkpt lat="42.64416" lon="1.97688">
        <ele>2013.55</ele>
        <time>2017-08-12T08:39:45Z</time>
      </trkpt>
      <trkpt lat="42.64422" lon="1.97711">
        <ele>2019.5</ele>
        <time>2017-08-12T08:40:07Z</time>
      </trkpt>
      <trkpt lat="42.64424" lon="1.97736">
        <ele>2024.6</ele>
        <time>2017-08-12T08:40:45Z</time>
      </trkpt>
      <trkpt lat="42.64421" lon="1.97761">
        <ele>2037.47</ele>
        <time>2017-08-12T08:41:30Z</time>
      </trkpt>
      <trkpt lat="42.64425" lon="1.97785">
        <ele>2037.68</ele>
        <time>2017-08-12T08:42:08Z</time>
      </trkpt>
      <trkpt lat="42.64431" lon="1.97808">
        <ele>2042.5</ele>
        <time>2017-08-12T08:42:52Z</time>
      </trkpt>
      <trkpt lat="42.64441" lon="1.97829">
        <ele>2049.29</ele>
        <time>2017-08-12T08:43:28Z</time>
      </trkpt>
      <trkpt lat="42.64449" lon="1.97852">
        <ele>2052.59</ele>
        <time>2017-08-12T08:44:12Z</time>
      </trkpt>
      <trkpt lat="42.64457" lon="1.97874">
        <ele>2058.59</ele>
        <time>2017-08-12T08:44:50Z</time>
      </trkpt>
      <trkpt lat="42.64464" lon="1.97898">
        <ele>2061.32</ele>
        <time>2017-08-12T08:45:18Z</time>
      </trkpt>
      <trkpt lat="42.64473" lon="1.97918">
        <ele>2067.51</ele>
        <time>2017-08-12T08:45:41Z</time>
      </trkpt>
      <trkpt lat="42.6449" lon="1.97927">
        <ele>2065.6</ele>
        <time>2017-08-12T08:46:05Z</time>
      </trkpt>
      <trkpt lat="42.64509" lon="1.97928">
        <ele>2071.52</ele>
        <time>2017-08-12T08:46:34Z</time>
      </trkpt>
      <trkpt lat="42.64526" lon="1.97935">
        <ele>2075.26</ele>
        <time>2017-08-12T08:47:02Z</time>
      </trkpt>
      <trkpt lat="42.64544" lon="1.97937">
        <ele>2081.39</ele>
        <time>2017-08-12T08:47:34Z</time>
      </trkpt>
      <trkpt lat="42.64562" lon="1.97935">
        <ele>2084.27</ele>
        <time>2017-08-12T08:48:00Z</time>
      </trkpt>
      <trkpt lat="42.6458" lon="1.97938">
        <ele>2088.59</ele>
        <time>2017-08-12T08:49:42Z</time>
      </trkpt>
      <trkpt lat="42.64597" lon="1.97952">
        <ele>2100.29</ele>
        <time>2017-08-12T08:50:48Z</time>
      </trkpt>
      <trkpt lat="42.64607" lon="1.97973">
        <ele>2108.66</ele>
        <time>2017-08-12T08:51:15Z</time>
      </trkpt>
      <trkpt lat="42.64612" lon="1.97998">
        <ele>2108.6</ele>
        <time>2017-08-12T08:51:37Z</time>
      </trkpt>
      <trkpt lat="42.64615" lon="1.98023">
        <ele>2107.89</ele>
        <time>2017-08-12T08:51:59Z</time>
      </trkpt>
      <trkpt lat="42.64621" lon="1.98046">
        <ele>2114.59</ele>
        <time>2017-08-12T08:52:24Z</time>
      </trkpt>
      <trkpt lat="42.64625" lon="1.98071">
        <ele>2116.6</ele>
        <time>2017-08-12T08:52:50Z</time>
      </trkpt>
      <trkpt lat="42.64634" lon="1.98092">
        <ele>2113.67</ele>
        <time>2017-08-12T08:53:09Z</time>
      </trkpt>
      <trkpt lat="42.64638" lon="1.98118">
        <ele>2111.57</ele>
        <time>2017-08-12T08:53:28Z</time>
      </trkpt>
      <trkpt lat="42.64644" lon="1.98141">
        <ele>2113.89</ele>
        <time>2017-08-12T08:53:54Z</time>
      </trkpt>
      <trkpt lat="42.6466" lon="1.98154">
        <ele>2119.62</ele>
        <time>2017-08-12T08:54:27Z</time>
      </trkpt>
      <trkpt lat="42.64677" lon="1.98164">
        <ele>2123.88</ele>
        <time>2017-08-12T08:55:00Z</time>
      </trkpt>
      <trkpt lat="42.64693" lon="1.98177">
        <ele>2133.29</ele>
        <time>2017-08-12T08:55:35Z</time>
      </trkpt>
      <trkpt lat="42.64709" lon="1.9819">
        <ele>2136.68</ele>
        <time>2017-08-12T08:56:00Z</time>
      </trkpt>
      <trkpt lat="42.64722" lon="1.98208">
        <ele>2140.3</ele>
        <time>2017-08-12T08:56:32Z</time>
      </trkpt>
      <trkpt lat="42.6473" lon="1.9823">
        <ele>2137.61</ele>
        <time>2017-08-12T08:59:58Z</time>
      </trkpt>
      <trkpt lat="42.64732" lon="1.98255">
        <ele>2136.41</ele>
        <time>2017-08-12T09:00:20Z</time>
      </trkpt>
      <trkpt lat="42.64742" lon="1.98276">
        <ele>2142.53</ele>
        <time>2017-08-12T09:00:44Z</time>
      </trkpt>
      <trkpt lat="42.64754" lon="1.98296">
        <ele>2143.5</ele>
        <time>2017-08-12T09:01:10Z</time>
      </trkpt>
      <trkpt lat="42.6477" lon="1.98311">
        <ele>2147.37</ele>
        <time>2017-08-12T09:01:33Z</time>
      </trkpt>
      <trkpt lat="42.64786" lon="1.98323">
        <ele>2146.6</ele>
        <time>2017-08-12T09:01:59Z</time>
      </trkpt>
      <trkpt lat="42.64803" lon="1.98335">
        <ele>2146.19</ele>
        <time>2017-08-12T09:02:20Z</time>
      </trkpt>
      <trkpt lat="42.64818" lon="1.98348">
        <ele>2146.37</ele>
        <time>2017-08-12T09:02:43Z</time>
      </trkpt>
      <trkpt lat="42.64832" lon="1.98364">
        <ele>2150.61</ele>
        <time>2017-08-12T09:03:07Z</time>
      </trkpt>
      <trkpt lat="42.64844" lon="1.98385">
        <ele>2153.44</ele>
        <time>2017-08-12T09:03:24Z</time>
      </trkpt>
      <trkpt lat="42.64851" lon="1.98408">
        <ele>2155.51</ele>
        <time>2017-08-12T09:03:45Z</time>
      </trkpt>
      <trkpt lat="42.64857" lon="1.98432">
        <ele>2160.87</ele>
        <time>2017-08-12T09:04:20Z</time>
      </trkpt>
      <trkpt lat="42.64868" lon="1.98454">
        <ele>2168.31</ele>
        <time>2017-08-12T09:04:50Z</time>
      </trkpt>
      <trkpt lat="42.64869" lon="1.98478">
        <ele>2166.71</ele>
        <time>2017-08-12T09:05:24Z</time>
      </trkpt>
      <trkpt lat="42.64881" lon="1.98497">
        <ele>2173.89</ele>
        <time>2017-08-12T09:06:11Z</time>
      </trkpt>
      <trkpt lat="42.64891" lon="1.98518">
        <ele>2177.27</ele>
        <time>2017-08-12T09:06:57Z</time>
      </trkpt>
      <trkpt lat="42.64901" lon="1.9854">
        <ele>2177.63</ele>
        <time>2017-08-12T09:07:52Z</time>
      </trkpt>
      <trkpt lat="42.6489" lon="1.9856">
        <ele>2195.86</ele>
        <time>2017-08-12T09:09:19Z</time>
      </trkpt>
      <trkpt lat="42.64873" lon="1.98568">
        <ele>2200.3</ele>
        <time>2017-08-12T09:10:49Z</time>
      </trkpt>
      <trkpt lat="42.64854" lon="1.98563">
        <ele>2210.61</ele>
        <time>2017-08-12T09:11:29Z</time>
      </trkpt>
      <trkpt lat="42.64857" lon="1.98588">
        <ele>2228.83</ele>
        <time>2017-08-12T09:12:48Z</time>
      </trkpt>
      <trkpt lat="42.64862" lon="1.98612">
        <ele>2231.38</ele>
        <time>2017-08-12T09:13:36Z</time>
      </trkpt>
      <trkpt lat="42.64873" lon="1.98632">
        <ele>2246.58</ele>
        <time>2017-08-12T09:14:13Z</time>
      </trkpt>
      <trkpt lat="42.64879" lon="1.98655">
        <ele>2251.62</ele>
        <time>2017-08-12T09:14:52Z</time>
      </trkpt>
      <trkpt lat="42.64891" lon="1.98673">
        <ele>2259.8</ele>
        <time>2017-08-12T09:15:26Z</time>
      </trkpt>
      <trkpt lat="42.64904" lon="1.98691">
        <ele>2265.47</ele>
        <time>2017-08-12T09:16:54Z</time>
      </trkpt>
      <trkpt lat="42.64903" lon="1.98716">
        <ele>2265.59</ele>
        <time>2017-08-12T09:18:25Z</time>
      </trkpt>
      <trkpt lat="42.64919" lon="1.98728">
        <ele>2269.57</ele>
        <time>2017-08-12T09:18:47Z</time>
      </trkpt>
      <trkpt lat="42.64935" lon="1.98745">
        <ele>2279.51</ele>
        <time>2017-08-12T09:19:25Z</time>
      </trkpt>
      <trkpt lat="42.64939" lon="1.98769">
        <ele>2276.69</ele>
        <time>2017-08-12T09:19:58Z</time>
      </trkpt>
      <trkpt lat="42.64947" lon="1.98792">
        <ele>2278.89</ele>
        <time>2017-08-12T09:20:33Z</time>
      </trkpt>
      <trkpt lat="42.64947" lon="1.98818">
        <ele>2294.9</ele>
        <time>2017-08-12T09:22:05Z</time>
      </trkpt>
      <trkpt lat="42.64943" lon="1.98842">
        <ele>2317.38</ele>
        <time>2017-08-12T09:24:13Z</time>
      </trkpt>
      <trkpt lat="42.64926" lon="1.98835">
        <ele>2317.98</ele>
        <time>2017-08-12T09:24:47Z</time>
      </trkpt>
      <trkpt lat="42.64922" lon="1.98859">
        <ele>2329.61</ele>
        <time>2017-08-12T09:25:59Z</time>
      </trkpt>
      <trkpt lat="42.64928" lon="1.98882">
        <ele>2332.59</ele>
        <time>2017-08-12T09:26:43Z</time>
      </trkpt>
      <trkpt lat="42.64939" lon="1.98902">
        <ele>2345.71</ele>
        <time>2017-08-12T09:27:39Z</time>
      </trkpt>
      <trkpt lat="42.64945" lon="1.98926">
        <ele>2351.21</ele>
        <time>2017-08-12T09:28:34Z</time>
      </trkpt>
      <trkpt lat="42.6495" lon="1.9895">
        <ele>2353.9</ele>
        <time>2017-08-12T09:29:03Z</time>
      </trkpt>
      <trkpt lat="42.64959" lon="1.98972">
        <ele>2362.9</ele>
        <time>2017-08-12T09:29:36Z</time>
      </trkpt>
      <trkpt lat="42.64967" lon="1.98995">
        <ele>2366.3</ele>
        <time>2017-08-12T09:30:12Z</time>
      </trkpt>
      <trkpt lat="42.64975" lon="1.99016">
        <ele>2371.47</ele>
        <time>2017-08-12T09:30:42Z</time>
      </trkpt>
      <trkpt lat="42.64976" lon="1.99042">
        <ele>2375.6</ele>
        <time>2017-08-12T09:31:29Z</time>
      </trkpt>
      <trkpt lat="42.64983" lon="1.99064">
        <ele>2381.51</ele>
        <time>2017-08-12T09:32:06Z</time>
      </trkpt>
      <trkpt lat="42.6499" lon="1.99088">
        <ele>2390.5</ele>
        <time>2017-08-12T09:32:46Z</time>
      </trkpt>
      <trkpt lat="42.64994" lon="1.99112">
        <ele>2393.57</ele>
        <time>2017-08-12T09:33:31Z</time>
      </trkpt>
      <trkpt lat="42.6499" lon="1.99136">
        <ele>2402.42</ele>
        <time>2017-08-12T09:34:07Z</time>
      </trkpt>
      <trkpt lat="42.64994" lon="1.99161">
        <ele>2406.32</ele>
        <time>2017-08-12T09:35:08Z</time>
      </trkpt>
      <trkpt lat="42.64992" lon="1.99186">
        <ele>2406.89</ele>
        <time>2017-08-12T09:35:57Z</time>
      </trkpt>
      <trkpt lat="42.64987" lon="1.99211">
        <ele>2408.6</ele>
        <time>2017-08-12T09:36:16Z</time>
      </trkpt>
      <trkpt lat="42.64983" lon="1.99235">
        <ele>2412.62</ele>
        <time>2017-08-12T09:36:34Z</time>
      </trkpt>
      <trkpt lat="42.64972" lon="1.99256">
        <ele>2418.31</ele>
        <time>2017-08-12T09:36:54Z</time>
      </trkpt>
      <trkpt lat="42.64969" lon="1.9928">
        <ele>2417.68</ele>
        <time>2017-08-12T09:37:13Z</time>
      </trkpt>
      <trkpt lat="42.64971" lon="1.99306">
        <ele>2406.39</ele>
        <time>2017-08-12T09:37:38Z</time>
      </trkpt>
      <trkpt lat="42.64979" lon="1.9933">
        <ele>2402.35</ele>
        <time>2017-08-12T09:37:53Z</time>
      </trkpt>
      <trkpt lat="42.64984" lon="1.99355">
        <ele>2399.43</ele>
        <time>2017-08-12T09:38:13Z</time>
      </trkpt>
      <trkpt lat="42.64975" lon="1.99378">
        <ele>2395.48</ele>
        <time>2017-08-12T09:38:30Z</time>
      </trkpt>
      <trkpt lat="42.64963" lon="1.99398">
        <ele>2382.71</ele>
        <time>2017-08-12T09:38:54Z</time>
      </trkpt>
      <trkpt lat="42.64948" lon="1.99412">
        <ele>2380.75</ele>
        <time>2017-08-12T09:39:10Z</time>
      </trkpt>
      <trkpt lat="42.64939" lon="1.99434">
        <ele>2381.57</ele>
        <time>2017-08-12T09:39:26Z</time>
      </trkpt>
      <trkpt lat="42.64933" lon="1.99457">
        <ele>2377.63</ele>
        <time>2017-08-12T09:39:46Z</time>
      </trkpt>
      <trkpt lat="42.64928" lon="1.99481">
        <ele>2379.53</ele>
        <time>2017-08-12T09:40:01Z</time>
      </trkpt>
      <trkpt lat="42.64928" lon="1.99506">
        <ele>2372.6</ele>
        <time>2017-08-12T09:40:17Z</time>
      </trkpt>
      <trkpt lat="42.64927" lon="1.99531">
        <ele>2367.53</ele>
        <time>2017-08-12T09:40:33Z</time>
      </trkpt>
      <trkpt lat="42.64921" lon="1.99555">
        <ele>2364.59</ele>
        <time>2017-08-12T09:40:52Z</time>
      </trkpt>
      <trkpt lat="42.64915" lon="1.99581">
        <ele>2365.68</ele>
        <time>2017-08-12T09:41:08Z</time>
      </trkpt>
      <trkpt lat="42.6491" lon="1.99605">
        <ele>2362.66</ele>
        <time>2017-08-12T09:41:38Z</time>
      </trkpt>
      <trkpt lat="42.64906" lon="1.9963">
        <ele>2363.9</ele>
        <time>2017-08-12T09:41:53Z</time>
      </trkpt>
      <trkpt lat="42.64893" lon="1.99648">
        <ele>2365.46</ele>
        <time>2017-08-12T09:43:23Z</time>
      </trkpt>
      <trkpt lat="42.64874" lon="1.99651">
        <ele>2364.21</ele>
        <time>2017-08-12T09:43:39Z</time>
      </trkpt>
      <trkpt lat="42.64856" lon="1.99649">
        <ele>2366.5</ele>
        <time>2017-08-12T09:43:57Z</time>
      </trkpt>
      <trkpt lat="42.64839" lon="1.99642">
        <ele>2362.8</ele>
        <time>2017-08-12T09:44:40Z</time>
      </trkpt>
      <trkpt lat="42.64833" lon="1.99618">
        <ele>2370.61</ele>
        <time>2017-08-12T09:45:19Z</time>
      </trkpt>
      <trkpt lat="42.64826" lon="1.99594">
        <ele>2377.59</ele>
        <time>2017-08-12T09:46:37Z</time>
      </trkpt>
      <trkpt lat="42.64813" lon="1.99578">
        <ele>2386.95</ele>
        <time>2017-08-12T09:47:06Z</time>
      </trkpt>
      <trkpt lat="42.64812" lon="1.99552">
        <ele>2390.75</ele>
        <time>2017-08-12T09:47:55Z</time>
      </trkpt>
      <trkpt lat="42.64812" lon="1.99528">
        <ele>2398.59</ele>
        <time>2017-08-12T09:48:41Z</time>
      </trkpt>
      <trkpt lat="42.64817" lon="1.99503">
        <ele>2402.18</ele>
        <time>2017-08-12T09:49:13Z</time>
      </trkpt>
      <trkpt lat="42.64801" lon="1.9949">
        <ele>2411.07</ele>
        <time>2017-08-12T09:50:23Z</time>
      </trkpt>
      <trkpt lat="42.64791" lon="1.99469">
        <ele>2424.29</ele>
        <time>2017-08-12T09:51:21Z</time>
      </trkpt>
      <trkpt lat="42.64783" lon="1.99447">
        <ele>2433.29</ele>
        <time>2017-08-12T09:52:32Z</time>
      </trkpt>
      <trkpt lat="42.64784" lon="1.99422">
        <ele>2436.3</ele>
        <time>2017-08-12T09:53:34Z</time>
      </trkpt>
      <trkpt lat="42.64775" lon="1.99401">
        <ele>2447.58</ele>
        <time>2017-08-12T09:55:03Z</time>
      </trkpt>
      <trkpt lat="42.64758" lon="1.99408">
        <ele>2461.5</ele>
        <time>2017-08-12T09:56:15Z</time>
      </trkpt>
      <trkpt lat="42.64746" lon="1.99389">
        <ele>2461.68</ele>
        <time>2017-08-12T09:57:30Z</time>
      </trkpt>
      <trkpt lat="42.64751" lon="1.99366">
        <ele>2465.2</ele>
        <time>2017-08-12T10:10:30Z</time>
      </trkpt>
      <trkpt lat="42.64753" lon="1.99341">
        <ele>2470.22</ele>
        <time>2017-08-12T10:11:15Z</time>
      </trkpt>
      <trkpt lat="42.64754" lon="1.99317">
        <ele>2476.68</ele>
        <time>2017-08-12T10:11:45Z</time>
      </trkpt>
      <trkpt lat="42.64737" lon="1.99325">
        <ele>2490.2</ele>
        <time>2017-08-12T10:14:02Z</time>
      </trkpt>
      <trkpt lat="42.6472" lon="1.99338">
        <ele>2495.29</ele>
        <time>2017-08-12T10:14:36Z</time>
      </trkpt>
      <trkpt lat="42.64705" lon="1.99352">
        <ele>2496.68</ele>
        <time>2017-08-12T10:15:20Z</time>
      </trkpt>
      <trkpt lat="42.64687" lon="1.99363">
        <ele>2504.58</ele>
        <time>2017-08-12T10:16:02Z</time>
      </trkpt>
      <trkpt lat="42.64688" lon="1.99338">
        <ele>2508.68</ele>
        <time>2017-08-12T10:17:19Z</time>
      </trkpt>
      <trkpt lat="42.64687" lon="1.99314">
        <ele>2511.52</ele>
        <time>2017-08-12T10:17:51Z</time>
      </trkpt>
      <trkpt lat="42.64685" lon="1.99289">
        <ele>2516.9</ele>
        <time>2017-08-12T10:18:36Z</time>
      </trkpt>
      <trkpt lat="42.64673" lon="1.99271">
        <ele>2524.59</ele>
        <time>2017-08-12T10:19:39Z</time>
      </trkpt>
      <trkpt lat="42.64664" lon="1.99249">
        <ele>2531.83</ele>
        <time>2017-08-12T10:20:21Z</time>
      </trkpt>
      <trkpt lat="42.64653" lon="1.99229">
        <ele>2533.14</ele>
        <time>2017-08-12T10:20:54Z</time>
      </trkpt>
      <trkpt lat="42.64644" lon="1.99206">
        <ele>2542.68</ele>
        <time>2017-08-12T10:30:39Z</time>
      </trkpt>
      <trkpt lat="42.64636" lon="1.99182">
        <ele>2536.02</ele>
        <time>2017-08-12T10:30:53Z</time>
      </trkpt>
      <trkpt lat="42.64627" lon="1.99161">
        <ele>2532.9</ele>
        <time>2017-08-12T10:31:07Z</time>
      </trkpt>
      <trkpt lat="42.64616" lon="1.99138">
        <ele>2528.78</ele>
        <time>2017-08-12T10:31:22Z</time>
      </trkpt>
      <trkpt lat="42.64609" lon="1.99114">
        <ele>2528.33</ele>
        <time>2017-08-12T10:31:36Z</time>
      </trkpt>
      <trkpt lat="42.64599" lon="1.99092">
        <ele>2522.89</ele>
        <time>2017-08-12T10:31:50Z</time>
      </trkpt>
      <trkpt lat="42.64588" lon="1.99072">
        <ele>2519.62</ele>
        <time>2017-08-12T10:32:04Z</time>
      </trkpt>
      <trkpt lat="42.64579" lon="1.9905">
        <ele>2523.89</ele>
        <time>2017-08-12T10:32:17Z</time>
      </trkpt>
      <trkpt lat="42.64568" lon="1.99029">
        <ele>2521.68</ele>
        <time>2017-08-12T10:32:29Z</time>
      </trkpt>
      <trkpt lat="42.64561" lon="1.99006">
        <ele>2519.59</ele>
        <time>2017-08-12T10:32:42Z</time>
      </trkpt>
      <trkpt lat="42.64554" lon="1.98982">
        <ele>2520.59</ele>
        <time>2017-08-12T10:32:55Z</time>
      </trkpt>
      <trkpt lat="42.64552" lon="1.98956">
        <ele>2512.49</ele>
        <time>2017-08-12T10:33:10Z</time>
      </trkpt>
      <trkpt lat="42.64546" lon="1.98933">
        <ele>2509.58</ele>
        <time>2017-08-12T10:33:23Z</time>
      </trkpt>
      <trkpt lat="42.64533" lon="1.98914">
        <ele>2511.6</ele>
        <time>2017-08-12T10:33:34Z</time>
      </trkpt>
      <trkpt lat="42.64518" lon="1.98896">
        <ele>2504.6</ele>
        <time>2017-08-12T10:33:51Z</time>
      </trkpt>
      <trkpt lat="42.64504" lon="1.9888">
        <ele>2505.97</ele>
        <time>2017-08-12T10:34:04Z</time>
      </trkpt>
      <trkpt lat="42.64488" lon="1.98864">
        <ele>2503.66</ele>
        <time>2017-08-12T10:34:21Z</time>
      </trkpt>
      <trkpt lat="42.64474" lon="1.98848">
        <ele>2497.6</ele>
        <time>2017-08-12T10:34:34Z</time>
      </trkpt>
      <trkpt lat="42.64462" lon="1.9883">
        <ele>2498.65</ele>
        <time>2017-08-12T10:34:51Z</time>
      </trkpt>
      <trkpt lat="42.64448" lon="1.98814">
        <ele>2503.62</ele>
        <time>2017-08-12T10:35:14Z</time>
      </trkpt>
      <trkpt lat="42.64434" lon="1.98799">
        <ele>2504.61</ele>
        <time>2017-08-12T10:35:35Z</time>
      </trkpt>
      <trkpt lat="42.64414" lon="1.98797">
        <ele>2507.58</ele>
        <time>2017-08-12T10:35:53Z</time>
      </trkpt>
      <trkpt lat="42.64397" lon="1.98788">
        <ele>2504.61</ele>
        <time>2017-08-12T10:36:15Z</time>
      </trkpt>
      <trkpt lat="42.64382" lon="1.98771">
        <ele>2497.54</ele>
        <time>2017-08-12T10:36:33Z</time>
      </trkpt>
      <trkpt lat="42.64366" lon="1.98759">
        <ele>2497.72</ele>
        <time>2017-08-12T10:36:47Z</time>
      </trkpt>
      <trkpt lat="42.64348" lon="1.9875">
        <ele>2504.37</ele>
        <time>2017-08-12T10:37:01Z</time>
      </trkpt>
      <trkpt lat="42.64331" lon="1.98742">
        <ele>2505.54</ele>
        <time>2017-08-12T10:37:18Z</time>
      </trkpt>
      <trkpt lat="42.64312" lon="1.98743">
        <ele>2510.3</ele>
        <time>2017-08-12T10:37:31Z</time>
      </trkpt>
      <trkpt lat="42.64296" lon="1.98731">
        <ele>2508.33</ele>
        <time>2017-08-12T10:37:47Z</time>
      </trkpt>
      <trkpt lat="42.6428" lon="1.98719">
        <ele>2505.6</ele>
        <time>2017-08-12T10:38:03Z</time>
      </trkpt>
      <trkpt lat="42.64265" lon="1.98703">
        <ele>2507.27</ele>
        <time>2017-08-12T10:38:16Z</time>
      </trkpt>
      <trkpt lat="42.64251" lon="1.98686">
        <ele>2503.61</ele>
        <time>2017-08-12T10:38:36Z</time>
      </trkpt>
      <trkpt lat="42.64233" lon="1.98679">
        <ele>2504.32</ele>
        <time>2017-08-12T10:38:51Z</time>
      </trkpt>
      <trkpt lat="42.64215" lon="1.98677">
        <ele>2506.3</ele>
        <time>2017-08-12T10:39:08Z</time>
      </trkpt>
      <trkpt lat="42.64197" lon="1.98669">
        <ele>2510.03</ele>
        <time>2017-08-12T10:39:21Z</time>
      </trkpt>
      <trkpt lat="42.64179" lon="1.98671">
        <ele>2509.53</ele>
        <time>2017-08-12T10:39:38Z</time>
      </trkpt>
      <trkpt lat="42.6416" lon="1.98676">
        <ele>2509.83</ele>
        <time>2017-08-12T10:40:04Z</time>
      </trkpt>
      <trkpt lat="42.64141" lon="1.98675">
        <ele>2515.52</ele>
        <time>2017-08-12T10:40:20Z</time>
      </trkpt>
      <trkpt lat="42.64123" lon="1.98667">
        <ele>2512.53</ele>
        <time>2017-08-12T10:40:38Z</time>
      </trkpt>
      <trkpt lat="42.64105" lon="1.98666">
        <ele>2513.27</ele>
        <time>2017-08-12T10:40:56Z</time>
      </trkpt>
      <trkpt lat="42.64086" lon="1.98664">
        <ele>2511.87</ele>
        <time>2017-08-12T10:41:10Z</time>
      </trkpt>
      <trkpt lat="42.64066" lon="1.98662">
        <ele>2514.56</ele>
        <time>2017-08-12T10:41:26Z</time>
      </trkpt>
      <trkpt lat="42.64047" lon="1.98663">
        <ele>2520.43</ele>
        <time>2017-08-12T10:41:42Z</time>
      </trkpt>
      <trkpt lat="42.64032" lon="1.98649">
        <ele>2520.31</ele>
        <time>2017-08-12T10:43:03Z</time>
      </trkpt>
      <trkpt lat="42.64016" lon="1.98637">
        <ele>2521.48</ele>
        <time>2017-08-12T10:43:18Z</time>
      </trkpt>
      <trkpt lat="42.64001" lon="1.98623">
        <ele>2521.89</ele>
        <time>2017-08-12T10:43:38Z</time>
      </trkpt>
      <trkpt lat="42.63983" lon="1.98615">
        <ele>2525.19</ele>
        <time>2017-08-12T10:44:03Z</time>
      </trkpt>
      <trkpt lat="42.63966" lon="1.98606">
        <ele>2526.61</ele>
        <time>2017-08-12T10:44:33Z</time>
      </trkpt>
      <trkpt lat="42.63948" lon="1.98599">
        <ele>2532.71</ele>
        <time>2017-08-12T10:45:05Z</time>
      </trkpt>
      <trkpt lat="42.63929" lon="1.986">
        <ele>2538.67</ele>
        <time>2017-08-12T10:45:39Z</time>
      </trkpt>
      <trkpt lat="42.63915" lon="1.98585">
        <ele>2546.59</ele>
        <time>2017-08-12T10:46:31Z</time>
      </trkpt>
      <trkpt lat="42.63897" lon="1.98585">
        <ele>2551.59</ele>
        <time>2017-08-12T10:47:52Z</time>
      </trkpt>
      <trkpt lat="42.63879" lon="1.98593">
        <ele>2559.3</ele>
        <time>2017-08-12T10:48:52Z</time>
      </trkpt>
      <trkpt lat="42.63861" lon="1.98598">
        <ele>2563.6</ele>
        <time>2017-08-12T10:49:30Z</time>
      </trkpt>
      <trkpt lat="42.63843" lon="1.98592">
        <ele>2570.2</ele>
        <time>2017-08-12T10:49:57Z</time>
      </trkpt>
      <trkpt lat="42.63825" lon="1.98588">
        <ele>2574.01</ele>
        <time>2017-08-12T10:50:23Z</time>
      </trkpt>
      <trkpt lat="42.63806" lon="1.98587">
        <ele>2572.62</ele>
        <time>2017-08-12T10:50:44Z</time>
      </trkpt>
      <trkpt lat="42.63789" lon="1.98595">
        <ele>2576.27</ele>
        <time>2017-08-12T10:51:08Z</time>
      </trkpt>
      <trkpt lat="42.63775" lon="1.98612">
        <ele>2577.69</ele>
        <time>2017-08-12T10:51:31Z</time>
      </trkpt>
      <trkpt lat="42.63761" lon="1.98627">
        <ele>2580.61</ele>
        <time>2017-08-12T10:52:03Z</time>
      </trkpt>
      <trkpt lat="42.63753" lon="1.98605">
        <ele>2592.57</ele>
        <time>2017-08-12T10:53:47Z</time>
      </trkpt>
      <trkpt lat="42.63749" lon="1.98581">
        <ele>2597.27</ele>
        <time>2017-08-12T10:54:21Z</time>
      </trkpt>
      <trkpt lat="42.63738" lon="1.98557">
        <ele>2604.2</ele>
        <time>2017-08-12T10:55:13Z</time>
      </trkpt>
      <trkpt lat="42.63735" lon="1.98531">
        <ele>2614.86</ele>
        <time>2017-08-12T11:00:40Z</time>
      </trkpt>
      <trkpt lat="42.63727" lon="1.98509">
        <ele>2613.56</ele>
        <time>2017-08-12T11:00:54Z</time>
      </trkpt>
      <trkpt lat="42.63724" lon="1.98484">
        <ele>2607.39</ele>
        <time>2017-08-12T11:01:11Z</time>
      </trkpt>
      <trkpt lat="42.63712" lon="1.98466">
        <ele>2601.57</ele>
        <time>2017-08-12T11:02:32Z</time>
      </trkpt>
      <trkpt lat="42.63697" lon="1.9845">
        <ele>2599.62</ele>
        <time>2017-08-12T11:02:44Z</time>
      </trkpt>
      <trkpt lat="42.63681" lon="1.98434">
        <ele>2593.93</ele>
        <time>2017-08-12T11:03:03Z</time>
      </trkpt>
      <trkpt lat="42.63668" lon="1.98418">
        <ele>2585.97</ele>
        <time>2017-08-12T11:03:25Z</time>
      </trkpt>
      <trkpt lat="42.63657" lon="1.98397">
        <ele>2578.32</ele>
        <time>2017-08-12T11:03:45Z</time>
      </trkpt>
      <trkpt lat="42.63638" lon="1.98395">
        <ele>2575.7</ele>
        <time>2017-08-12T11:03:59Z</time>
      </trkpt>
      <trkpt lat="42.6362" lon="1.98387">
        <ele>2568.96</ele>
        <time>2017-08-12T11:04:16Z</time>
      </trkpt>
      <trkpt lat="42.63603" lon="1.98398">
        <ele>2569.47</ele>
        <time>2017-08-12T11:04:31Z</time>
      </trkpt>
      <trkpt lat="42.63591" lon="1.98417">
        <ele>2570.59</ele>
        <time>2017-08-12T11:04:47Z</time>
      </trkpt>
      <trkpt lat="42.63575" lon="1.9843">
        <ele>2566.6</ele>
        <time>2017-08-12T11:05:03Z</time>
      </trkpt>
      <trkpt lat="42.63556" lon="1.98433">
        <ele>2562.83</ele>
        <time>2017-08-12T11:08:27Z</time>
      </trkpt>
      <trkpt lat="42.63541" lon="1.98418">
        <ele>2560.69</ele>
        <time>2017-08-12T11:08:39Z</time>
      </trkpt>
      <trkpt lat="42.63527" lon="1.98401">
        <ele>2561.5</ele>
        <time>2017-08-12T11:08:55Z</time>
      </trkpt>
      <trkpt lat="42.63516" lon="1.98381">
        <ele>2560</ele>
        <time>2017-08-12T11:09:12Z</time>
      </trkpt>
      <trkpt lat="42.63506" lon="1.9836">
        <ele>2563.5</ele>
        <time>2017-08-12T11:09:28Z</time>
      </trkpt>
      <trkpt lat="42.63491" lon="1.98344">
        <ele>2563.57</ele>
        <time>2017-08-12T11:09:46Z</time>
      </trkpt>
      <trkpt lat="42.6348" lon="1.98322">
        <ele>2564.85</ele>
        <time>2017-08-12T11:10:03Z</time>
      </trkpt>
      <trkpt lat="42.63469" lon="1.98302">
        <ele>2564.9</ele>
        <time>2017-08-12T11:10:18Z</time>
      </trkpt>
      <trkpt lat="42.63455" lon="1.98284">
        <ele>2565.6</ele>
        <time>2017-08-12T11:10:40Z</time>
      </trkpt>
      <trkpt lat="42.63437" lon="1.98274">
        <ele>2568.5</ele>
        <time>2017-08-12T11:10:56Z</time>
      </trkpt>
      <trkpt lat="42.63425" lon="1.98254">
        <ele>2567.87</ele>
        <time>2017-08-12T11:11:11Z</time>
      </trkpt>
      <trkpt lat="42.6341" lon="1.9824">
        <ele>2566.59</ele>
        <time>2017-08-12T11:11:29Z</time>
      </trkpt>
      <trkpt lat="42.63394" lon="1.98227">
        <ele>2568.82</ele>
        <time>2017-08-12T11:11:47Z</time>
      </trkpt>
      <trkpt lat="42.63378" lon="1.98217">
        <ele>2574.59</ele>
        <time>2017-08-12T11:12:15Z</time>
      </trkpt>
      <trkpt lat="42.63364" lon="1.982">
        <ele>2578.6</ele>
        <time>2017-08-12T11:12:43Z</time>
      </trkpt>
      <trkpt lat="42.63345" lon="1.98199">
        <ele>2582.57</ele>
        <time>2017-08-12T11:13:11Z</time>
      </trkpt>
      <trkpt lat="42.63327" lon="1.98197">
        <ele>2588.27</ele>
        <time>2017-08-12T11:14:15Z</time>
      </trkpt>
      <trkpt lat="42.63312" lon="1.98184">
        <ele>2591.29</ele>
        <time>2017-08-12T11:14:40Z</time>
      </trkpt>
      <trkpt lat="42.63301" lon="1.98164">
        <ele>2592.61</ele>
        <time>2017-08-12T11:15:00Z</time>
      </trkpt>
      <trkpt lat="42.63289" lon="1.98145">
        <ele>2593.8</ele>
        <time>2017-08-12T11:15:21Z</time>
      </trkpt>
      <trkpt lat="42.63276" lon="1.98125">
        <ele>2594.9</ele>
        <time>2017-08-12T11:15:41Z</time>
      </trkpt>
      <trkpt lat="42.6327" lon="1.981">
        <ele>2596</ele>
        <time>2017-08-12T11:15:58Z</time>
      </trkpt>
      <trkpt lat="42.63259" lon="1.98078">
        <ele>2597.59</ele>
        <time>2017-08-12T11:16:13Z</time>
      </trkpt>
      <trkpt lat="42.63247" lon="1.98061">
        <ele>2595.59</ele>
        <time>2017-08-12T11:16:34Z</time>
      </trkpt>
      <trkpt lat="42.63239" lon="1.98038">
        <ele>2595.9</ele>
        <time>2017-08-12T11:17:06Z</time>
      </trkpt>
      <trkpt lat="42.63229" lon="1.98016">
        <ele>2595.52</ele>
        <time>2017-08-12T11:17:25Z</time>
      </trkpt>
      <trkpt lat="42.63216" lon="1.97998">
        <ele>2597.51</ele>
        <time>2017-08-12T11:17:49Z</time>
      </trkpt>
      <trkpt lat="42.63206" lon="1.97975">
        <ele>2600.3</ele>
        <time>2017-08-12T11:18:08Z</time>
      </trkpt>
      <trkpt lat="42.63196" lon="1.97953">
        <ele>2602.62</ele>
        <time>2017-08-12T11:18:28Z</time>
      </trkpt>
      <trkpt lat="42.63184" lon="1.97971">
        <ele>2601.59</ele>
        <time>2017-08-12T11:21:28Z</time>
      </trkpt>
      <trkpt lat="42.63166" lon="1.97969">
        <ele>2597.6</ele>
        <time>2017-08-12T11:21:43Z</time>
      </trkpt>
      <trkpt lat="42.63149" lon="1.97979">
        <ele>2598.59</ele>
        <time>2017-08-12T11:21:57Z</time>
      </trkpt>
      <trkpt lat="42.63132" lon="1.97988">
        <ele>2596.69</ele>
        <time>2017-08-12T11:22:11Z</time>
      </trkpt>
      <trkpt lat="42.63114" lon="1.9799">
        <ele>2594.6</ele>
        <time>2017-08-12T11:22:26Z</time>
      </trkpt>
      <trkpt lat="42.63096" lon="1.97991">
        <ele>2594.57</ele>
        <time>2017-08-12T11:22:39Z</time>
      </trkpt>
      <trkpt lat="42.63078" lon="1.97997">
        <ele>2599.48</ele>
        <time>2017-08-12T11:23:14Z</time>
      </trkpt>
      <trkpt lat="42.6306" lon="1.97994">
        <ele>2603.8</ele>
        <time>2017-08-12T11:23:31Z</time>
      </trkpt>
      <trkpt lat="42.63052" lon="1.97971">
        <ele>2600.68</ele>
        <time>2017-08-12T11:23:51Z</time>
      </trkpt>
      <trkpt lat="42.63035" lon="1.97962">
        <ele>2603.28</ele>
        <time>2017-08-12T11:27:29Z</time>
      </trkpt>
      <trkpt lat="42.63018" lon="1.97974">
        <ele>2595.41</ele>
        <time>2017-08-12T11:28:00Z</time>
      </trkpt>
      <trkpt lat="42.63003" lon="1.9799">
        <ele>2583.42</ele>
        <time>2017-08-12T11:28:20Z</time>
      </trkpt>
      <trkpt lat="42.62988" lon="1.98006">
        <ele>2582.5</ele>
        <time>2017-08-12T11:30:24Z</time>
      </trkpt>
      <trkpt lat="42.62974" lon="1.98022">
        <ele>2584.59</ele>
        <time>2017-08-12T11:30:40Z</time>
      </trkpt>
      <trkpt lat="42.62963" lon="1.98042">
        <ele>2582.6</ele>
        <time>2017-08-12T11:30:57Z</time>
      </trkpt>
      <trkpt lat="42.62949" lon="1.98058">
        <ele>2579.69</ele>
        <time>2017-08-12T11:31:14Z</time>
      </trkpt>
      <trkpt lat="42.62936" lon="1.98076">
        <ele>2577.59</ele>
        <time>2017-08-12T11:31:32Z</time>
      </trkpt>
      <trkpt lat="42.62922" lon="1.98093">
        <ele>2576.92</ele>
        <time>2017-08-12T11:31:52Z</time>
      </trkpt>
      <trkpt lat="42.62904" lon="1.98097">
        <ele>2574.98</ele>
        <time>2017-08-12T11:32:29Z</time>
      </trkpt>
      <trkpt lat="42.62884" lon="1.981">
        <ele>2572.6</ele>
        <time>2017-08-12T11:32:57Z</time>
      </trkpt>
      <trkpt lat="42.62866" lon="1.98104">
        <ele>2572.5</ele>
        <time>2017-08-12T11:33:13Z</time>
      </trkpt>
      <trkpt lat="42.62849" lon="1.98112">
        <ele>2575.36</ele>
        <time>2017-08-12T11:33:36Z</time>
      </trkpt>
      <trkpt lat="42.62831" lon="1.98117">
        <ele>2578.26</ele>
        <time>2017-08-12T11:33:56Z</time>
      </trkpt>
      <trkpt lat="42.62813" lon="1.98124">
        <ele>2577.8</ele>
        <time>2017-08-12T11:34:15Z</time>
      </trkpt>
      <trkpt lat="42.62795" lon="1.98126">
        <ele>2584.17</ele>
        <time>2017-08-12T11:34:39Z</time>
      </trkpt>
      <trkpt lat="42.62776" lon="1.98123">
        <ele>2581.59</ele>
        <time>2017-08-12T11:34:59Z</time>
      </trkpt>
      <trkpt lat="42.62758" lon="1.98127">
        <ele>2577.39</ele>
        <time>2017-08-12T11:35:15Z</time>
      </trkpt>
      <trkpt lat="42.62741" lon="1.98137">
        <ele>2582.15</ele>
        <time>2017-08-12T11:35:32Z</time>
      </trkpt>
      <trkpt lat="42.62723" lon="1.98145">
        <ele>2585.59</ele>
        <time>2017-08-12T11:35:55Z</time>
      </trkpt>
      <trkpt lat="42.62705" lon="1.98154">
        <ele>2587.5</ele>
        <time>2017-08-12T11:36:22Z</time>
      </trkpt>
      <trkpt lat="42.62687" lon="1.98158">
        <ele>2587.61</ele>
        <time>2017-08-12T11:36:47Z</time>
      </trkpt>
      <trkpt lat="42.62669" lon="1.98156">
        <ele>2588.3</ele>
        <time>2017-08-12T11:37:14Z</time>
      </trkpt>
      <trkpt lat="42.6265" lon="1.98155">
        <ele>2590.59</ele>
        <time>2017-08-12T11:37:51Z</time>
      </trkpt>
      <trkpt lat="42.62632" lon="1.98155">
        <ele>2596.68</ele>
        <time>2017-08-12T11:38:16Z</time>
      </trkpt>
      <trkpt lat="42.62614" lon="1.98158">
        <ele>2599.51</ele>
        <time>2017-08-12T11:38:43Z</time>
      </trkpt>
      <trkpt lat="42.62597" lon="1.98165">
        <ele>2611.52</ele>
        <time>2017-08-12T11:39:17Z</time>
      </trkpt>
      <trkpt lat="42.62579" lon="1.9817">
        <ele>2611.71</ele>
        <time>2017-08-12T11:39:53Z</time>
      </trkpt>
      <trkpt lat="42.62561" lon="1.98176">
        <ele>2621.27</ele>
        <time>2017-08-12T11:40:31Z</time>
      </trkpt>
      <trkpt lat="42.62543" lon="1.9818">
        <ele>2625.39</ele>
        <time>2017-08-12T11:41:33Z</time>
      </trkpt>
      <trkpt lat="42.62527" lon="1.98191">
        <ele>2636.29</ele>
        <time>2017-08-12T11:42:45Z</time>
      </trkpt>
      <trkpt lat="42.62509" lon="1.98197">
        <ele>2641.29</ele>
        <time>2017-08-12T11:43:42Z</time>
      </trkpt>
      <trkpt lat="42.62491" lon="1.98206">
        <ele>2649.83</ele>
        <time>2017-08-12T11:45:00Z</time>
      </trkpt>
      <trkpt lat="42.62477" lon="1.98221">
        <ele>2664.94</ele>
        <time>2017-08-12T11:46:50Z</time>
      </trkpt>
      <trkpt lat="42.62487" lon="1.98244">
        <ele>2659.7</ele>
        <time>2017-08-12T11:47:13Z</time>
      </trkpt>
      <trkpt lat="42.62496" lon="1.98266">
        <ele>2660.57</ele>
        <time>2017-08-12T11:47:41Z</time>
      </trkpt>
      <trkpt lat="42.62504" lon="1.98288">
        <ele>2658.89</ele>
        <time>2017-08-12T11:48:06Z</time>
      </trkpt>
      <trkpt lat="42.62513" lon="1.9831">
        <ele>2658.59</ele>
        <time>2017-08-12T11:48:43Z</time>
      </trkpt>
      <trkpt lat="42.6252" lon="1.98335">
        <ele>2663.59</ele>
        <time>2017-08-12T11:49:31Z</time>
      </trkpt>
      <trkpt lat="42.62523" lon="1.98361">
        <ele>2666.62</ele>
        <time>2017-08-12T11:50:13Z</time>
      </trkpt>
      <trkpt lat="42.62528" lon="1.98386">
        <ele>2668.81</ele>
        <time>2017-08-12T11:50:42Z</time>
      </trkpt>
      <trkpt lat="42.62531" lon="1.98411">
        <ele>2661.59</ele>
        <time>2017-08-12T11:52:24Z</time>
      </trkpt>
      <trkpt lat="42.62538" lon="1.98434">
        <ele>2663.6</ele>
        <time>2017-08-12T11:56:02Z</time>
      </trkpt>
      <trkpt lat="42.62532" lon="1.9846">
        <ele>2669.59</ele>
        <time>2017-08-12T12:53:32Z</time>
      </trkpt>
      <trkpt lat="42.62531" lon="1.98421">
        <ele>2671.67</ele>
        <time>2017-08-12T12:53:38Z</time>
      </trkpt>
      <trkpt lat="42.62537" lon="1.98444">
        <ele>2663.51</ele>
        <time>2017-08-12T12:53:45Z</time>
      </trkpt>
      <trkpt lat="42.62536" lon="1.9842">
        <ele>2667.59</ele>
        <time>2017-08-12T13:04:01Z</time>
      </trkpt>
      <trkpt lat="42.62532" lon="1.98395">
        <ele>2667.6</ele>
        <time>2017-08-12T13:04:42Z</time>
      </trkpt>
      <trkpt lat="42.62527" lon="1.9837">
        <ele>2661.57</ele>
        <time>2017-08-12T13:05:22Z</time>
      </trkpt>
      <trkpt lat="42.62519" lon="1.98348">
        <ele>2662.92</ele>
        <time>2017-08-12T13:05:49Z</time>
      </trkpt>
      <trkpt lat="42.62519" lon="1.98323">
        <ele>2662.3</ele>
        <time>2017-08-12T13:06:25Z</time>
      </trkpt>
      <trkpt lat="42.62514" lon="1.98299">
        <ele>2660.57</ele>
        <time>2017-08-12T13:07:13Z</time>
      </trkpt>
      <trkpt lat="42.62502" lon="1.9828">
        <ele>2657.57</ele>
        <time>2017-08-12T13:07:39Z</time>
      </trkpt>
      <trkpt lat="42.62496" lon="1.98257">
        <ele>2665.61</ele>
        <time>2017-08-12T13:08:08Z</time>
      </trkpt>
      <trkpt lat="42.62486" lon="1.98236">
        <ele>2663.59</ele>
        <time>2017-08-12T13:08:40Z</time>
      </trkpt>
      <trkpt lat="42.62473" lon="1.98219">
        <ele>2665.59</ele>
        <time>2017-08-12T13:09:04Z</time>
      </trkpt>
      <trkpt lat="42.62458" lon="1.98204">
        <ele>2665.3</ele>
        <time>2017-08-12T13:09:26Z</time>
      </trkpt>
      <trkpt lat="42.62449" lon="1.98183">
        <ele>2670.08</ele>
        <time>2017-08-12T13:10:21Z</time>
      </trkpt>
      <trkpt lat="42.6244" lon="1.98161">
        <ele>2671.29</ele>
        <time>2017-08-12T13:10:45Z</time>
      </trkpt>
      <trkpt lat="42.62428" lon="1.98143">
        <ele>2675.9</ele>
        <time>2017-08-12T13:11:28Z</time>
      </trkpt>
      <trkpt lat="42.62419" lon="1.98121">
        <ele>2662.6</ele>
        <time>2017-08-12T13:12:25Z</time>
      </trkpt>
      <trkpt lat="42.62407" lon="1.98101">
        <ele>2655.59</ele>
        <time>2017-08-12T13:12:53Z</time>
      </trkpt>
      <trkpt lat="42.62393" lon="1.98086">
        <ele>2651.95</ele>
        <time>2017-08-12T13:13:33Z</time>
      </trkpt>
      <trkpt lat="42.62377" lon="1.98073">
        <ele>2652.38</ele>
        <time>2017-08-12T13:14:05Z</time>
      </trkpt>
      <trkpt lat="42.62366" lon="1.98052">
        <ele>2651.62</ele>
        <time>2017-08-12T13:14:19Z</time>
      </trkpt>
      <trkpt lat="42.62351" lon="1.98039">
        <ele>2655.5</ele>
        <time>2017-08-12T13:14:42Z</time>
      </trkpt>
      <trkpt lat="42.62337" lon="1.98024">
        <ele>2662.7</ele>
        <time>2017-08-12T13:15:03Z</time>
      </trkpt>
      <trkpt lat="42.62328" lon="1.98002">
        <ele>2663.71</ele>
        <time>2017-08-12T13:15:21Z</time>
      </trkpt>
      <trkpt lat="42.62317" lon="1.97982">
        <ele>2659.32</ele>
        <time>2017-08-12T13:16:34Z</time>
      </trkpt>
      <trkpt lat="42.62304" lon="1.97965">
        <ele>2663.87</ele>
        <time>2017-08-12T13:17:00Z</time>
      </trkpt>
      <trkpt lat="42.62296" lon="1.97942">
        <ele>2661.2</ele>
        <time>2017-08-12T13:17:30Z</time>
      </trkpt>
      <trkpt lat="42.62293" lon="1.97917">
        <ele>2671.59</ele>
        <time>2017-08-12T13:20:18Z</time>
      </trkpt>
      <trkpt lat="42.62291" lon="1.97892">
        <ele>2685.19</ele>
        <time>2017-08-12T13:21:58Z</time>
      </trkpt>
      <trkpt lat="42.62282" lon="1.97868">
        <ele>2688.59</ele>
        <time>2017-08-12T13:23:42Z</time>
      </trkpt>
      <trkpt lat="42.62271" lon="1.97848">
        <ele>2694.59</ele>
        <time>2017-08-12T13:24:23Z</time>
      </trkpt>
      <trkpt lat="42.62259" lon="1.9783">
        <ele>2691.59</ele>
        <time>2017-08-12T13:25:39Z</time>
      </trkpt>
      <trkpt lat="42.62254" lon="1.97805">
        <ele>2694.39</ele>
        <time>2017-08-12T13:26:44Z</time>
      </trkpt>
      <trkpt lat="42.6224" lon="1.97789">
        <ele>2703.29</ele>
        <time>2017-08-12T13:27:49Z</time>
      </trkpt>
      <trkpt lat="42.62231" lon="1.97767">
        <ele>2701.77</ele>
        <time>2017-08-12T13:28:55Z</time>
      </trkpt>
      <trkpt lat="42.6223" lon="1.97742">
        <ele>2717.53</ele>
        <time>2017-08-12T13:34:01Z</time>
      </trkpt>
      <trkpt lat="42.62223" lon="1.97719">
        <ele>2729.2</ele>
        <time>2017-08-12T13:36:31Z</time>
      </trkpt>
      <trkpt lat="42.62213" lon="1.97698">
        <ele>2728.62</ele>
        <time>2017-08-12T13:37:16Z</time>
      </trkpt>
      <trkpt lat="42.62201" lon="1.97679">
        <ele>2731.6</ele>
        <time>2017-08-12T13:38:04Z</time>
      </trkpt>
      <trkpt lat="42.62189" lon="1.9766">
        <ele>2737.8</ele>
        <time>2017-08-12T13:38:45Z</time>
      </trkpt>
      <trkpt lat="42.62171" lon="1.9765">
        <ele>2741.31</ele>
        <time>2017-08-12T13:40:23Z</time>
      </trkpt>
      <trkpt lat="42.62152" lon="1.97653">
        <ele>2735.9</ele>
        <time>2017-08-12T13:43:26Z</time>
      </trkpt>
      <trkpt lat="42.62134" lon="1.97646">
        <ele>2723.15</ele>
        <time>2017-08-12T13:44:22Z</time>
      </trkpt>
      <trkpt lat="42.6212" lon="1.9763">
        <ele>2699.9</ele>
        <time>2017-08-12T13:45:54Z</time>
      </trkpt>
      <trkpt lat="42.62102" lon="1.97632">
        <ele>2703.39</ele>
        <time>2017-08-12T13:48:05Z</time>
      </trkpt>
      <trkpt lat="42.62084" lon="1.97629">
        <ele>2692.92</ele>
        <time>2017-08-12T13:49:11Z</time>
      </trkpt>
      <trkpt lat="42.62067" lon="1.97635">
        <ele>2682.58</ele>
        <time>2017-08-12T13:49:44Z</time>
      </trkpt>
      <trkpt lat="42.62048" lon="1.97636">
        <ele>2671.89</ele>
        <time>2017-08-12T13:50:16Z</time>
      </trkpt>
      <trkpt lat="42.62039" lon="1.97615">
        <ele>2665.71</ele>
        <time>2017-08-12T13:51:20Z</time>
      </trkpt>
      <trkpt lat="42.62021" lon="1.97614">
        <ele>2651.91</ele>
        <time>2017-08-12T13:51:50Z</time>
      </trkpt>
      <trkpt lat="42.62005" lon="1.97628">
        <ele>2642.51</ele>
        <time>2017-08-12T13:52:19Z</time>
      </trkpt>
      <trkpt lat="42.61989" lon="1.97639">
        <ele>2635.4</ele>
        <time>2017-08-12T13:52:43Z</time>
      </trkpt>
      <trkpt lat="42.61973" lon="1.97626">
        <ele>2627.99</ele>
        <time>2017-08-12T13:53:05Z</time>
      </trkpt>
      <trkpt lat="42.61956" lon="1.97616">
        <ele>2632.27</ele>
        <time>2017-08-12T13:53:22Z</time>
      </trkpt>
      <trkpt lat="42.61938" lon="1.97607">
        <ele>2628.6</ele>
        <time>2017-08-12T13:55:31Z</time>
      </trkpt>
      <trkpt lat="42.61922" lon="1.97593">
        <ele>2626.69</ele>
        <time>2017-08-12T13:55:49Z</time>
      </trkpt>
      <trkpt lat="42.61904" lon="1.97594">
        <ele>2623.89</ele>
        <time>2017-08-12T13:56:05Z</time>
      </trkpt>
      <trkpt lat="42.6189" lon="1.97579">
        <ele>2616.93</ele>
        <time>2017-08-12T13:56:32Z</time>
      </trkpt>
      <trkpt lat="42.61879" lon="1.97557">
        <ele>2610.31</ele>
        <time>2017-08-12T13:57:01Z</time>
      </trkpt>
      <trkpt lat="42.61863" lon="1.97548">
        <ele>2611.57</ele>
        <time>2017-08-12T13:57:16Z</time>
      </trkpt>
      <trkpt lat="42.61844" lon="1.9755">
        <ele>2600.62</ele>
        <time>2017-08-12T13:57:54Z</time>
      </trkpt>
      <trkpt lat="42.61827" lon="1.9754">
        <ele>2572.57</ele>
        <time>2017-08-12T13:58:47Z</time>
      </trkpt>
      <trkpt lat="42.61812" lon="1.97527">
        <ele>2558.82</ele>
        <time>2017-08-12T13:59:41Z</time>
      </trkpt>
      <trkpt lat="42.61793" lon="1.9752">
        <ele>2554.36</ele>
        <time>2017-08-12T14:00:43Z</time>
      </trkpt>
      <trkpt lat="42.61777" lon="1.97509">
        <ele>2544.87</ele>
        <time>2017-08-12T14:01:21Z</time>
      </trkpt>
      <trkpt lat="42.61763" lon="1.97494">
        <ele>2539.91</ele>
        <time>2017-08-12T14:01:46Z</time>
      </trkpt>
      <trkpt lat="42.61751" lon="1.97474">
        <ele>2541.28</ele>
        <time>2017-08-12T14:02:04Z</time>
      </trkpt>
      <trkpt lat="42.6174" lon="1.97453">
        <ele>2541.2</ele>
        <time>2017-08-12T14:02:25Z</time>
      </trkpt>
      <trkpt lat="42.61724" lon="1.97441">
        <ele>2534.57</ele>
        <time>2017-08-12T14:02:54Z</time>
      </trkpt>
      <trkpt lat="42.61707" lon="1.97431">
        <ele>2536.89</ele>
        <time>2017-08-12T14:03:14Z</time>
      </trkpt>
      <trkpt lat="42.61689" lon="1.97426">
        <ele>2531.57</ele>
        <time>2017-08-12T14:03:42Z</time>
      </trkpt>
      <trkpt lat="42.61671" lon="1.97426">
        <ele>2531.67</ele>
        <time>2017-08-12T14:04:03Z</time>
      </trkpt>
      <trkpt lat="42.61654" lon="1.97437">
        <ele>2525.89</ele>
        <time>2017-08-12T14:22:30Z</time>
      </trkpt>
      <trkpt lat="42.6164" lon="1.97452">
        <ele>2524.68</ele>
        <time>2017-08-12T14:22:58Z</time>
      </trkpt>
      <trkpt lat="42.61626" lon="1.97468">
        <ele>2525.27</ele>
        <time>2017-08-12T14:23:38Z</time>
      </trkpt>
      <trkpt lat="42.61616" lon="1.9749">
        <ele>2531.59</ele>
        <time>2017-08-12T14:24:13Z</time>
      </trkpt>
      <trkpt lat="42.61606" lon="1.97511">
        <ele>2535.88</ele>
        <time>2017-08-12T14:25:08Z</time>
      </trkpt>
      <trkpt lat="42.61598" lon="1.97533">
        <ele>2541.94</ele>
        <time>2017-08-12T14:25:36Z</time>
      </trkpt>
      <trkpt lat="42.61593" lon="1.97557">
        <ele>2539.34</ele>
        <time>2017-08-12T14:26:09Z</time>
      </trkpt>
      <trkpt lat="42.61583" lon="1.97579">
        <ele>2544.6</ele>
        <time>2017-08-12T14:26:34Z</time>
      </trkpt>
      <trkpt lat="42.61585" lon="1.97604">
        <ele>2549.59</ele>
        <time>2017-08-12T14:27:19Z</time>
      </trkpt>
      <trkpt lat="42.61583" lon="1.97628">
        <ele>2554.53</ele>
        <time>2017-08-12T14:27:56Z</time>
      </trkpt>
      <trkpt lat="42.61572" lon="1.97648">
        <ele>2558.59</ele>
        <time>2017-08-12T14:28:38Z</time>
      </trkpt>
      <trkpt lat="42.61565" lon="1.97671">
        <ele>2567.56</ele>
        <time>2017-08-12T14:29:17Z</time>
      </trkpt>
      <trkpt lat="42.61572" lon="1.97695">
        <ele>2565.59</ele>
        <time>2017-08-12T14:29:42Z</time>
      </trkpt>
      <trkpt lat="42.61585" lon="1.97713">
        <ele>2564.68</ele>
        <time>2017-08-12T14:30:12Z</time>
      </trkpt>
      <trkpt lat="42.6159" lon="1.97738">
        <ele>2569.57</ele>
        <time>2017-08-12T14:30:54Z</time>
      </trkpt>
      <trkpt lat="42.61582" lon="1.9776">
        <ele>2582.28</ele>
        <time>2017-08-12T14:31:20Z</time>
      </trkpt>
      <trkpt lat="42.61581" lon="1.97785">
        <ele>2585.38</ele>
        <time>2017-08-12T14:31:54Z</time>
      </trkpt>
      <trkpt lat="42.61575" lon="1.97809">
        <ele>2584.29</ele>
        <time>2017-08-12T14:32:18Z</time>
      </trkpt>
      <trkpt lat="42.61575" lon="1.97834">
        <ele>2586.59</ele>
        <time>2017-08-12T14:34:00Z</time>
      </trkpt>
      <trkpt lat="42.61567" lon="1.97858">
        <ele>2587.29</ele>
        <time>2017-08-12T14:34:41Z</time>
      </trkpt>
      <trkpt lat="42.61555" lon="1.97877">
        <ele>2597.62</ele>
        <time>2017-08-12T14:35:20Z</time>
      </trkpt>
      <trkpt lat="42.61537" lon="1.97881">
        <ele>2597.59</ele>
        <time>2017-08-12T14:36:06Z</time>
      </trkpt>
      <trkpt lat="42.61528" lon="1.97903">
        <ele>2600.65</ele>
        <time>2017-08-12T14:36:52Z</time>
      </trkpt>
      <trkpt lat="42.61526" lon="1.97927">
        <ele>2604.63</ele>
        <time>2017-08-12T14:40:06Z</time>
      </trkpt>
      <trkpt lat="42.61522" lon="1.97952">
        <ele>2614.2</ele>
        <time>2017-08-12T14:40:50Z</time>
      </trkpt>
      <trkpt lat="42.61527" lon="1.97976">
        <ele>2621.63</ele>
        <time>2017-08-12T14:41:52Z</time>
      </trkpt>
      <trkpt lat="42.61519" lon="1.97999">
        <ele>2635.59</ele>
        <time>2017-08-12T14:43:23Z</time>
      </trkpt>
      <trkpt lat="42.61519" lon="1.98024">
        <ele>2655.21</ele>
        <time>2017-08-12T14:44:43Z</time>
      </trkpt>
      <trkpt lat="42.61516" lon="1.98048">
        <ele>2660.48</ele>
        <time>2017-08-12T14:46:56Z</time>
      </trkpt>
      <trkpt lat="42.61512" lon="1.98072">
        <ele>2678.5</ele>
        <time>2017-08-12T14:48:37Z</time>
      </trkpt>
      <trkpt lat="42.6151" lon="1.98097">
        <ele>2686.6</ele>
        <time>2017-08-12T14:50:23Z</time>
      </trkpt>
      <trkpt lat="42.61509" lon="1.98121">
        <ele>2708.51</ele>
        <time>2017-08-12T14:52:42Z</time>
      </trkpt>
      <trkpt lat="42.61512" lon="1.98146">
        <ele>2719.59</ele>
        <time>2017-08-12T14:56:15Z</time>
      </trkpt>
      <trkpt lat="42.61507" lon="1.9817">
        <ele>2733.9</ele>
        <time>2017-08-12T14:58:18Z</time>
      </trkpt>
      <trkpt lat="42.61506" lon="1.98194">
        <ele>2749.59</ele>
        <time>2017-08-12T15:00:28Z</time>
      </trkpt>
      <trkpt lat="42.61503" lon="1.98219">
        <ele>2757.59</ele>
        <time>2017-08-12T15:02:46Z</time>
      </trkpt>
      <trkpt lat="42.615" lon="1.98244">
        <ele>2775.49</ele>
        <time>2017-08-12T15:04:40Z</time>
      </trkpt>
      <trkpt lat="42.61483" lon="1.98253">
        <ele>2784.53</ele>
        <time>2017-08-12T15:05:38Z</time>
      </trkpt>
      <trkpt lat="42.61466" lon="1.98264">
        <ele>2796.26</ele>
        <time>2017-08-12T15:06:31Z</time>
      </trkpt>
      <trkpt lat="42.6145" lon="1.98277">
        <ele>2802.54</ele>
        <time>2017-08-12T15:07:01Z</time>
      </trkpt>
      <trkpt lat="42.61437" lon="1.98293">
        <ele>2802.59</ele>
        <time>2017-08-12T15:07:30Z</time>
      </trkpt>
      <trkpt lat="42.61425" lon="1.98312">
        <ele>2797.57</ele>
        <time>2017-08-12T15:07:53Z</time>
      </trkpt>
      <trkpt lat="42.61417" lon="1.98336">
        <ele>2803.35</ele>
        <time>2017-08-12T15:08:21Z</time>
      </trkpt>
      <trkpt lat="42.6141" lon="1.98359">
        <ele>2806.59</ele>
        <time>2017-08-12T15:08:53Z</time>
      </trkpt>
      <trkpt lat="42.61404" lon="1.98383">
        <ele>2803.22</ele>
        <time>2017-08-12T15:09:21Z</time>
      </trkpt>
      <trkpt lat="42.61394" lon="1.98403">
        <ele>2801.29</ele>
        <time>2017-08-12T15:09:38Z</time>
      </trkpt>
      <trkpt lat="42.6138" lon="1.9842">
        <ele>2797.2</ele>
        <time>2017-08-12T15:09:55Z</time>
      </trkpt>
      <trkpt lat="42.61364" lon="1.98432">
        <ele>2802.58</ele>
        <time>2017-08-12T15:10:29Z</time>
      </trkpt>
      <trkpt lat="42.61383" lon="1.9844">
        <ele>2806.59</ele>
        <time>2017-08-12T15:28:37Z</time>
      </trkpt>
      <trkpt lat="42.61397" lon="1.98425">
        <ele>2805.39</ele>
        <time>2017-08-12T15:30:11Z</time>
      </trkpt>
      <trkpt lat="42.61389" lon="1.98403">
        <ele>2800.78</ele>
        <time>2017-08-12T15:31:03Z</time>
      </trkpt>
      <trkpt lat="42.61377" lon="1.98423">
        <ele>2804.95</ele>
        <time>2017-08-12T15:32:32Z</time>
      </trkpt>
      <trkpt lat="42.61364" lon="1.98439">
        <ele>2807.27</ele>
        <time>2017-08-12T15:33:06Z</time>
      </trkpt>
      <trkpt lat="42.61346" lon="1.9844">
        <ele>2806.92</ele>
        <time>2017-08-12T15:45:27Z</time>
      </trkpt>
      <trkpt lat="42.61327" lon="1.9844">
        <ele>2798.62</ele>
        <time>2017-08-12T15:46:34Z</time>
      </trkpt>
      <trkpt lat="42.6131" lon="1.9845">
        <ele>2793.99</ele>
        <time>2017-08-12T15:47:41Z</time>
      </trkpt>
      <trkpt lat="42.61293" lon="1.98444">
        <ele>2774.89</ele>
        <time>2017-08-12T15:49:30Z</time>
      </trkpt>
      <trkpt lat="42.61275" lon="1.9845">
        <ele>2759.75</ele>
        <time>2017-08-12T15:51:28Z</time>
      </trkpt>
      <trkpt lat="42.61257" lon="1.98444">
        <ele>2747.6</ele>
        <time>2017-08-12T15:53:09Z</time>
      </trkpt>
      <trkpt lat="42.61248" lon="1.98465">
        <ele>2742.3</ele>
        <time>2017-08-12T15:53:56Z</time>
      </trkpt>
      <trkpt lat="42.61244" lon="1.98489">
        <ele>2739.58</ele>
        <time>2017-08-12T15:54:24Z</time>
      </trkpt>
      <trkpt lat="42.61229" lon="1.98505">
        <ele>2723.97</ele>
        <time>2017-08-12T15:54:54Z</time>
      </trkpt>
      <trkpt lat="42.61211" lon="1.98508">
        <ele>2719.6</ele>
        <time>2017-08-12T15:55:15Z</time>
      </trkpt>
      <trkpt lat="42.61193" lon="1.98514">
        <ele>2709.69</ele>
        <time>2017-08-12T15:55:39Z</time>
      </trkpt>
      <trkpt lat="42.61175" lon="1.98522">
        <ele>2706.57</ele>
        <time>2017-08-12T15:55:53Z</time>
      </trkpt>
      <trkpt lat="42.6116" lon="1.98535">
        <ele>2703.5</ele>
        <time>2017-08-12T15:59:35Z</time>
      </trkpt>
      <trkpt lat="42.61142" lon="1.98545">
        <ele>2704.57</ele>
        <time>2017-08-12T16:00:02Z</time>
      </trkpt>
      <trkpt lat="42.61125" lon="1.98553">
        <ele>2692.23</ele>
        <time>2017-08-12T16:00:36Z</time>
      </trkpt>
      <trkpt lat="42.6111" lon="1.98568">
        <ele>2681.92</ele>
        <time>2017-08-12T16:01:52Z</time>
      </trkpt>
      <trkpt lat="42.61096" lon="1.98584">
        <ele>2661.19</ele>
        <time>2017-08-12T16:03:20Z</time>
      </trkpt>
      <trkpt lat="42.61086" lon="1.98605">
        <ele>2655.69</ele>
        <time>2017-08-12T16:03:44Z</time>
      </trkpt>
      <trkpt lat="42.61073" lon="1.98623">
        <ele>2655.59</ele>
        <time>2017-08-12T16:05:02Z</time>
      </trkpt>
      <trkpt lat="42.61066" lon="1.98646">
        <ele>2653.29</ele>
        <time>2017-08-12T16:05:46Z</time>
      </trkpt>
      <trkpt lat="42.61052" lon="1.98662">
        <ele>2659.29</ele>
        <time>2017-08-12T16:09:25Z</time>
      </trkpt>
      <trkpt lat="42.61044" lon="1.98685">
        <ele>2655.51</ele>
        <time>2017-08-12T16:10:10Z</time>
      </trkpt>
      <trkpt lat="42.61027" lon="1.98696">
        <ele>2644.53</ele>
        <time>2017-08-12T16:11:17Z</time>
      </trkpt>
      <trkpt lat="42.6101" lon="1.98704">
        <ele>2636.69</ele>
        <time>2017-08-12T16:13:06Z</time>
      </trkpt>
      <trkpt lat="42.60992" lon="1.9871">
        <ele>2613.46</ele>
        <time>2017-08-12T16:15:04Z</time>
      </trkpt>
      <trkpt lat="42.60984" lon="1.98732">
        <ele>2609.5</ele>
        <time>2017-08-12T16:15:47Z</time>
      </trkpt>
      <trkpt lat="42.60975" lon="1.98755">
        <ele>2609.97</ele>
        <time>2017-08-12T16:16:35Z</time>
      </trkpt>
      <trkpt lat="42.60966" lon="1.98777">
        <ele>2603.31</ele>
        <time>2017-08-12T16:17:05Z</time>
      </trkpt>
      <trkpt lat="42.6096" lon="1.988">
        <ele>2602.5</ele>
        <time>2017-08-12T16:17:23Z</time>
      </trkpt>
      <trkpt lat="42.60954" lon="1.98824">
        <ele>2600.77</ele>
        <time>2017-08-12T16:17:53Z</time>
      </trkpt>
      <trkpt lat="42.60939" lon="1.98837">
        <ele>2595.89</ele>
        <time>2017-08-12T16:19:39Z</time>
      </trkpt>
      <trkpt lat="42.60921" lon="1.98841">
        <ele>2600.88</ele>
        <time>2017-08-12T16:20:23Z</time>
      </trkpt>
      <trkpt lat="42.60905" lon="1.98854">
        <ele>2606.77</ele>
        <time>2017-08-12T16:22:53Z</time>
      </trkpt>
      <trkpt lat="42.60889" lon="1.98865">
        <ele>2598.39</ele>
        <time>2017-08-12T16:24:08Z</time>
      </trkpt>
      <trkpt lat="42.60871" lon="1.98876">
        <ele>2578.8</ele>
        <time>2017-08-12T16:25:23Z</time>
      </trkpt>
      <trkpt lat="42.60854" lon="1.98952">
        <ele>2632.09</ele>
        <time>2017-08-12T16:26:07Z</time>
      </trkpt>
      <trkpt lat="42.60865" lon="1.98898">
        <ele>2592.54</ele>
        <time>2017-08-12T16:26:08Z</time>
      </trkpt>
      <trkpt lat="42.60846" lon="1.989">
        <ele>2567.62</ele>
        <time>2017-08-12T16:26:37Z</time>
      </trkpt>
      <trkpt lat="42.60833" lon="1.98917">
        <ele>2556.74</ele>
        <time>2017-08-12T16:27:09Z</time>
      </trkpt>
      <trkpt lat="42.60818" lon="1.98931">
        <ele>2549.68</ele>
        <time>2017-08-12T16:28:26Z</time>
      </trkpt>
      <trkpt lat="42.608" lon="1.98935">
        <ele>2538.63</ele>
        <time>2017-08-12T16:28:52Z</time>
      </trkpt>
      <trkpt lat="42.60784" lon="1.98947">
        <ele>2528.71</ele>
        <time>2017-08-12T16:29:31Z</time>
      </trkpt>
      <trkpt lat="42.60766" lon="1.98955">
        <ele>2517.9</ele>
        <time>2017-08-12T16:30:07Z</time>
      </trkpt>
      <trkpt lat="42.60756" lon="1.98975">
        <ele>2511.71</ele>
        <time>2017-08-12T16:30:35Z</time>
      </trkpt>
      <trkpt lat="42.60743" lon="1.98993">
        <ele>2504.6</ele>
        <time>2017-08-12T16:30:55Z</time>
      </trkpt>
      <trkpt lat="42.6073" lon="1.9901">
        <ele>2493.71</ele>
        <time>2017-08-12T16:34:48Z</time>
      </trkpt>
      <trkpt lat="42.60712" lon="1.99022">
        <ele>2489.37</ele>
        <time>2017-08-12T16:35:13Z</time>
      </trkpt>
      <trkpt lat="42.60695" lon="1.99034">
        <ele>2485.51</ele>
        <time>2017-08-12T16:35:30Z</time>
      </trkpt>
      <trkpt lat="42.60681" lon="1.9905">
        <ele>2481.8</ele>
        <time>2017-08-12T16:35:47Z</time>
      </trkpt>
      <trkpt lat="42.60663" lon="1.9906">
        <ele>2475.7</ele>
        <time>2017-08-12T16:36:05Z</time>
      </trkpt>
      <trkpt lat="42.60647" lon="1.99072">
        <ele>2469.52</ele>
        <time>2017-08-12T16:36:20Z</time>
      </trkpt>
      <trkpt lat="42.60632" lon="1.99088">
        <ele>2469.37</ele>
        <time>2017-08-12T16:36:33Z</time>
      </trkpt>
      <trkpt lat="42.60616" lon="1.99099">
        <ele>2466.96</ele>
        <time>2017-08-12T16:37:34Z</time>
      </trkpt>
      <trkpt lat="42.60598" lon="1.99104">
        <ele>2477.23</ele>
        <time>2017-08-12T16:38:37Z</time>
      </trkpt>
      <trkpt lat="42.60579" lon="1.991">
        <ele>2474.56</ele>
        <time>2017-08-12T16:39:50Z</time>
      </trkpt>
      <trkpt lat="42.60561" lon="1.99094">
        <ele>2469</ele>
        <time>2017-08-12T16:40:14Z</time>
      </trkpt>
      <trkpt lat="42.60542" lon="1.99092">
        <ele>2467.51</ele>
        <time>2017-08-12T16:40:32Z</time>
      </trkpt>
      <trkpt lat="42.60525" lon="1.99101">
        <ele>2461.32</ele>
        <time>2017-08-12T16:41:13Z</time>
      </trkpt>
      <trkpt lat="42.60509" lon="1.99087">
        <ele>2455.92</ele>
        <time>2017-08-12T16:42:52Z</time>
      </trkpt>
      <trkpt lat="42.6049" lon="1.99086">
        <ele>2439.99</ele>
        <time>2017-08-12T16:44:19Z</time>
      </trkpt>
      <trkpt lat="42.60488" lon="1.99111">
        <ele>2435.83</ele>
        <time>2017-08-12T16:45:41Z</time>
      </trkpt>
      <trkpt lat="42.60471" lon="1.99099">
        <ele>2416.59</ele>
        <time>2017-08-12T16:46:25Z</time>
      </trkpt>
      <trkpt lat="42.60453" lon="1.99107">
        <ele>2410.39</ele>
        <time>2017-08-12T16:47:18Z</time>
      </trkpt>
      <trkpt lat="42.60435" lon="1.9911">
        <ele>2396.89</ele>
        <time>2017-08-12T16:48:13Z</time>
      </trkpt>
      <trkpt lat="42.60423" lon="1.99129">
        <ele>2389.48</ele>
        <time>2017-08-12T16:48:46Z</time>
      </trkpt>
      <trkpt lat="42.60404" lon="1.99126">
        <ele>2373.91</ele>
        <time>2017-08-12T16:51:26Z</time>
      </trkpt>
      <trkpt lat="42.6039" lon="1.99142">
        <ele>2364.51</ele>
        <time>2017-08-12T16:52:16Z</time>
      </trkpt>
      <trkpt lat="42.60379" lon="1.99162">
        <ele>2360.48</ele>
        <time>2017-08-12T16:52:41Z</time>
      </trkpt>
      <trkpt lat="42.60361" lon="1.99157">
        <ele>2357.39</ele>
        <time>2017-08-12T16:53:16Z</time>
      </trkpt>
      <trkpt lat="42.60343" lon="1.9915">
        <ele>2351.69</ele>
        <time>2017-08-12T16:53:40Z</time>
      </trkpt>
      <trkpt lat="42.60331" lon="1.9913">
        <ele>2342.65</ele>
        <time>2017-08-12T16:54:08Z</time>
      </trkpt>
      <trkpt lat="42.60317" lon="1.99115">
        <ele>2337.39</ele>
        <time>2017-08-12T16:54:24Z</time>
      </trkpt>
      <trkpt lat="42.603" lon="1.99106">
        <ele>2335.6</ele>
        <time>2017-08-12T16:54:39Z</time>
      </trkpt>
      <trkpt lat="42.60281" lon="1.99104">
        <ele>2336.87</ele>
        <time>2017-08-12T16:54:53Z</time>
      </trkpt>
      <trkpt lat="42.60271" lon="1.99084">
        <ele>2331.33</ele>
        <time>2017-08-12T16:55:22Z</time>
      </trkpt>
      <trkpt lat="42.60258" lon="1.99067">
        <ele>2330.8</ele>
        <time>2017-08-12T16:55:40Z</time>
      </trkpt>
      <trkpt lat="42.60246" lon="1.99048">
        <ele>2323.88</ele>
        <time>2017-08-12T16:55:54Z</time>
      </trkpt>
      <trkpt lat="42.60233" lon="1.9903">
        <ele>2323.27</ele>
        <time>2017-08-12T16:56:09Z</time>
      </trkpt>
      <trkpt lat="42.60222" lon="1.99009">
        <ele>2315.63</ele>
        <time>2017-08-12T16:56:25Z</time>
      </trkpt>
      <trkpt lat="42.60211" lon="1.9903">
        <ele>2316.71</ele>
        <time>2017-08-12T16:58:02Z</time>
      </trkpt>
      <trkpt lat="42.60204" lon="1.99053">
        <ele>2316.59</ele>
        <time>2017-08-12T16:58:22Z</time>
      </trkpt>
      <trkpt lat="42.60201" lon="1.99077">
        <ele>2313.39</ele>
        <time>2017-08-12T17:00:32Z</time>
      </trkpt>
      <trkpt lat="42.60196" lon="1.99101">
        <ele>2309.6</ele>
        <time>2017-08-12T17:00:48Z</time>
      </trkpt>
      <trkpt lat="42.60192" lon="1.99125">
        <ele>2308.69</ele>
        <time>2017-08-12T17:01:08Z</time>
      </trkpt>
      <trkpt lat="42.602" lon="1.99149">
        <ele>2311.15</ele>
        <time>2017-08-12T17:01:24Z</time>
      </trkpt>
      <trkpt lat="42.60198" lon="1.99174">
        <ele>2303.85</ele>
        <time>2017-08-12T17:01:39Z</time>
      </trkpt>
      <trkpt lat="42.60203" lon="1.99197">
        <ele>2300.69</ele>
        <time>2017-08-12T17:01:56Z</time>
      </trkpt>
      <trkpt lat="42.60211" lon="1.99219">
        <ele>2299.54</ele>
        <time>2017-08-12T17:02:11Z</time>
      </trkpt>
      <trkpt lat="42.6022" lon="1.99241">
        <ele>2303.69</ele>
        <time>2017-08-12T17:02:25Z</time>
      </trkpt>
      <trkpt lat="42.60231" lon="1.99262">
        <ele>2304.6</ele>
        <time>2017-08-12T17:02:43Z</time>
      </trkpt>
      <trkpt lat="42.60241" lon="1.99284">
        <ele>2302.3</ele>
        <time>2017-08-12T17:02:59Z</time>
      </trkpt>
      <trkpt lat="42.60249" lon="1.99306">
        <ele>2299.98</ele>
        <time>2017-08-12T17:03:16Z</time>
      </trkpt>
      <trkpt lat="42.60263" lon="1.99323">
        <ele>2298.62</ele>
        <time>2017-08-12T17:03:33Z</time>
      </trkpt>
      <trkpt lat="42.60276" lon="1.99342">
        <ele>2295.3</ele>
        <time>2017-08-12T17:03:53Z</time>
      </trkpt>
      <trkpt lat="42.60263" lon="1.9936">
        <ele>2297.32</ele>
        <time>2017-08-12T17:04:32Z</time>
      </trkpt>
      <trkpt lat="42.60244" lon="1.99358">
        <ele>2297.62</ele>
        <time>2017-08-12T17:04:50Z</time>
      </trkpt>
      <trkpt lat="42.60225" lon="1.99361">
        <ele>2295.51</ele>
        <time>2017-08-12T17:05:07Z</time>
      </trkpt>
      <trkpt lat="42.60213" lon="1.9938">
        <ele>2298.95</ele>
        <time>2017-08-12T17:05:20Z</time>
      </trkpt>
      <trkpt lat="42.60195" lon="1.99389">
        <ele>2294.54</ele>
        <time>2017-08-12T17:05:34Z</time>
      </trkpt>
      <trkpt lat="42.60181" lon="1.99404">
        <ele>2292.04</ele>
        <time>2017-08-12T17:05:50Z</time>
      </trkpt>
      <trkpt lat="42.60172" lon="1.99426">
        <ele>2287.8</ele>
        <time>2017-08-12T17:06:10Z</time>
      </trkpt>
      <trkpt lat="42.60156" lon="1.99438">
        <ele>2284.69</ele>
        <time>2017-08-12T17:06:34Z</time>
      </trkpt>
      <trkpt lat="42.60144" lon="1.99457">
        <ele>2285.59</ele>
        <time>2017-08-12T17:06:51Z</time>
      </trkpt>
      <trkpt lat="42.60129" lon="1.99471">
        <ele>2281.54</ele>
        <time>2017-08-12T17:07:09Z</time>
      </trkpt>
      <trkpt lat="42.60112" lon="1.9948">
        <ele>2280.3</ele>
        <time>2017-08-12T17:07:24Z</time>
      </trkpt>
      <trkpt lat="42.60094" lon="1.99484">
        <ele>2275.91</ele>
        <time>2017-08-12T17:07:58Z</time>
      </trkpt>
      <trkpt lat="42.60079" lon="1.99497">
        <ele>2268.23</ele>
        <time>2017-08-12T17:08:23Z</time>
      </trkpt>
      <trkpt lat="42.60069" lon="1.99519">
        <ele>2264.68</ele>
        <time>2017-08-12T17:08:48Z</time>
      </trkpt>
      <trkpt lat="42.60058" lon="1.9954">
        <ele>2257.78</ele>
        <time>2017-08-12T17:09:02Z</time>
      </trkpt>
      <trkpt lat="42.60042" lon="1.9955">
        <ele>2259.56</ele>
        <time>2017-08-12T17:09:36Z</time>
      </trkpt>
      <trkpt lat="42.60036" lon="1.99574">
        <ele>2250.71</ele>
        <time>2017-08-12T17:10:14Z</time>
      </trkpt>
      <trkpt lat="42.60029" lon="1.99597">
        <ele>2252.21</ele>
        <time>2017-08-12T17:10:28Z</time>
      </trkpt>
      <trkpt lat="42.60023" lon="1.99621">
        <ele>2247.8</ele>
        <time>2017-08-12T17:10:44Z</time>
      </trkpt>
      <trkpt lat="42.60012" lon="1.99642">
        <ele>2247.66</ele>
        <time>2017-08-12T17:11:05Z</time>
      </trkpt>
      <trkpt lat="42.60001" lon="1.99664">
        <ele>2247.87</ele>
        <time>2017-08-12T17:11:18Z</time>
      </trkpt>
      <trkpt lat="42.59984" lon="1.99677">
        <ele>2239.09</ele>
        <time>2017-08-12T17:11:38Z</time>
      </trkpt>
      <trkpt lat="42.59966" lon="1.99672">
        <ele>2242.51</ele>
        <time>2017-08-12T17:11:55Z</time>
      </trkpt>
      <trkpt lat="42.59948" lon="1.99672">
        <ele>2240.57</ele>
        <time>2017-08-12T17:12:18Z</time>
      </trkpt>
      <trkpt lat="42.59937" lon="1.99652">
        <ele>2242.3</ele>
        <time>2017-08-12T17:12:46Z</time>
      </trkpt>
      <trkpt lat="42.59925" lon="1.99633">
        <ele>2236.9</ele>
        <time>2017-08-12T17:13:06Z</time>
      </trkpt>
      <trkpt lat="42.59908" lon="1.9962">
        <ele>2239.59</ele>
        <time>2017-08-12T17:14:01Z</time>
      </trkpt>
      <trkpt lat="42.59891" lon="1.99612">
        <ele>2244.8</ele>
        <time>2017-08-12T17:15:12Z</time>
      </trkpt>
      <trkpt lat="42.59876" lon="1.99598">
        <ele>2241.52</ele>
        <time>2017-08-12T17:15:29Z</time>
      </trkpt>
      <trkpt lat="42.59858" lon="1.99593">
        <ele>2243.01</ele>
        <time>2017-08-12T17:15:45Z</time>
      </trkpt>
      <trkpt lat="42.59842" lon="1.99581">
        <ele>2242.6</ele>
        <time>2017-08-12T17:16:03Z</time>
      </trkpt>
      <trkpt lat="42.59824" lon="1.99587">
        <ele>2242.28</ele>
        <time>2017-08-12T17:18:00Z</time>
      </trkpt>
      <trkpt lat="42.5982" lon="1.99612">
        <ele>2237.7</ele>
        <time>2017-08-12T17:18:28Z</time>
      </trkpt>
      <trkpt lat="42.59812" lon="1.99634">
        <ele>2240.59</ele>
        <time>2017-08-12T17:19:35Z</time>
      </trkpt>
      <trkpt lat="42.59808" lon="1.99626">
        <ele>2229.59</ele>
        <time>2017-08-13T08:15:56Z</time>
      </trkpt>
      <trkpt lat="42.59814" lon="1.99651">
        <ele>2244.6</ele>
        <time>2017-08-13T08:20:18Z</time>
      </trkpt>
      <trkpt lat="42.59815" lon="1.99676">
        <ele>2245.24</ele>
        <time>2017-08-13T08:21:22Z</time>
      </trkpt>
      <trkpt lat="42.59809" lon="1.99699">
        <ele>2241.89</ele>
        <time>2017-08-13T08:21:45Z</time>
      </trkpt>
      <trkpt lat="42.59806" lon="1.99725">
        <ele>2240.57</ele>
        <time>2017-08-13T08:22:04Z</time>
      </trkpt>
      <trkpt lat="42.59811" lon="1.99748">
        <ele>2241.61</ele>
        <time>2017-08-13T08:22:28Z</time>
      </trkpt>
      <trkpt lat="42.59799" lon="1.99766">
        <ele>2241.52</ele>
        <time>2017-08-13T08:22:50Z</time>
      </trkpt>
      <trkpt lat="42.5978" lon="1.99771">
        <ele>2239.66</ele>
        <time>2017-08-13T08:23:11Z</time>
      </trkpt>
      <trkpt lat="42.59766" lon="1.99788">
        <ele>2240.59</ele>
        <time>2017-08-13T08:23:26Z</time>
      </trkpt>
      <trkpt lat="42.59758" lon="1.9981">
        <ele>2243.59</ele>
        <time>2017-08-13T08:23:42Z</time>
      </trkpt>
      <trkpt lat="42.59747" lon="1.99831">
        <ele>2246.27</ele>
        <time>2017-08-13T08:23:58Z</time>
      </trkpt>
      <trkpt lat="42.59729" lon="1.99832">
        <ele>2240.92</ele>
        <time>2017-08-13T08:24:18Z</time>
      </trkpt>
      <trkpt lat="42.59711" lon="1.99835">
        <ele>2230.38</ele>
        <time>2017-08-13T08:24:48Z</time>
      </trkpt>
      <trkpt lat="42.59701" lon="1.99813">
        <ele>2219.92</ele>
        <time>2017-08-13T08:26:06Z</time>
      </trkpt>
      <trkpt lat="42.59689" lon="1.99832">
        <ele>2226.18</ele>
        <time>2017-08-13T08:30:24Z</time>
      </trkpt>
      <trkpt lat="42.59672" lon="1.99843">
        <ele>2224.6</ele>
        <time>2017-08-13T08:30:42Z</time>
      </trkpt>
      <trkpt lat="42.5966" lon="1.99862">
        <ele>2224.81</ele>
        <time>2017-08-13T08:30:58Z</time>
      </trkpt>
      <trkpt lat="42.59652" lon="1.99884">
        <ele>2225.52</ele>
        <time>2017-08-13T08:31:13Z</time>
      </trkpt>
      <trkpt lat="42.59643" lon="1.99906">
        <ele>2221.95</ele>
        <time>2017-08-13T08:31:28Z</time>
      </trkpt>
      <trkpt lat="42.59634" lon="1.99928">
        <ele>2220.82</ele>
        <time>2017-08-13T08:31:44Z</time>
      </trkpt>
      <trkpt lat="42.59619" lon="1.99943">
        <ele>2218.68</ele>
        <time>2017-08-13T08:31:59Z</time>
      </trkpt>
      <trkpt lat="42.59607" lon="1.99962">
        <ele>2222.89</ele>
        <time>2017-08-13T08:32:12Z</time>
      </trkpt>
      <trkpt lat="42.59594" lon="1.99981">
        <ele>2219.92</ele>
        <time>2017-08-13T08:32:30Z</time>
      </trkpt>
      <trkpt lat="42.59585" lon="2.00003">
        <ele>2219.51</ele>
        <time>2017-08-13T08:32:44Z</time>
      </trkpt>
      <trkpt lat="42.59581" lon="2.00028">
        <ele>2220.37</ele>
        <time>2017-08-13T08:32:57Z</time>
      </trkpt>
      <trkpt lat="42.59574" lon="2.0005">
        <ele>2215.92</ele>
        <time>2017-08-13T08:33:14Z</time>
      </trkpt>
      <trkpt lat="42.59573" lon="2.00075">
        <ele>2216.7</ele>
        <time>2017-08-13T08:33:28Z</time>
      </trkpt>
      <trkpt lat="42.59574" lon="2.001">
        <ele>2214.27</ele>
        <time>2017-08-13T08:33:42Z</time>
      </trkpt>
      <trkpt lat="42.59572" lon="2.00125">
        <ele>2214.55</ele>
        <time>2017-08-13T08:33:57Z</time>
      </trkpt>
      <trkpt lat="42.59564" lon="2.00148">
        <ele>2210.99</ele>
        <time>2017-08-13T08:34:13Z</time>
      </trkpt>
      <trkpt lat="42.59557" lon="2.00173">
        <ele>2206.61</ele>
        <time>2017-08-13T08:34:30Z</time>
      </trkpt>
      <trkpt lat="42.59553" lon="2.00197">
        <ele>2203.57</ele>
        <time>2017-08-13T08:34:46Z</time>
      </trkpt>
      <trkpt lat="42.59552" lon="2.00222">
        <ele>2204.57</ele>
        <time>2017-08-13T08:35:01Z</time>
      </trkpt>
      <trkpt lat="42.59541" lon="2.00242">
        <ele>2204.59</ele>
        <time>2017-08-13T08:35:13Z</time>
      </trkpt>
      <trkpt lat="42.59535" lon="2.00266">
        <ele>2201.6</ele>
        <time>2017-08-13T08:35:28Z</time>
      </trkpt>
      <trkpt lat="42.59532" lon="2.00292">
        <ele>2200.59</ele>
        <time>2017-08-13T08:35:44Z</time>
      </trkpt>
      <trkpt lat="42.59524" lon="2.00315">
        <ele>2199.8</ele>
        <time>2017-08-13T08:35:58Z</time>
      </trkpt>
      <trkpt lat="42.59515" lon="2.00337">
        <ele>2194.62</ele>
        <time>2017-08-13T08:36:16Z</time>
      </trkpt>
      <trkpt lat="42.59508" lon="2.00362">
        <ele>2196.98</ele>
        <time>2017-08-13T08:36:32Z</time>
      </trkpt>
      <trkpt lat="42.5951" lon="2.00388">
        <ele>2196.6</ele>
        <time>2017-08-13T08:36:45Z</time>
      </trkpt>
      <trkpt lat="42.59502" lon="2.00412">
        <ele>2196.89</ele>
        <time>2017-08-13T08:37:00Z</time>
      </trkpt>
      <trkpt lat="42.595" lon="2.00436">
        <ele>2198.65</ele>
        <time>2017-08-13T08:37:12Z</time>
      </trkpt>
      <trkpt lat="42.59498" lon="2.00461">
        <ele>2195.62</ele>
        <time>2017-08-13T08:37:27Z</time>
      </trkpt>
      <trkpt lat="42.59497" lon="2.00486">
        <ele>2194.77</ele>
        <time>2017-08-13T08:37:42Z</time>
      </trkpt>
      <trkpt lat="42.59495" lon="2.00511">
        <ele>2191.69</ele>
        <time>2017-08-13T08:37:58Z</time>
      </trkpt>
      <trkpt lat="42.59492" lon="2.00536">
        <ele>2189.92</ele>
        <time>2017-08-13T08:38:13Z</time>
      </trkpt>
      <trkpt lat="42.59489" lon="2.00562">
        <ele>2188.51</ele>
        <time>2017-08-13T08:38:27Z</time>
      </trkpt>
      <trkpt lat="42.59483" lon="2.00585">
        <ele>2184.66</ele>
        <time>2017-08-13T08:38:44Z</time>
      </trkpt>
      <trkpt lat="42.5948" lon="2.0061">
        <ele>2181.69</ele>
        <time>2017-08-13T08:38:59Z</time>
      </trkpt>
      <trkpt lat="42.59473" lon="2.00634">
        <ele>2183.59</ele>
        <time>2017-08-13T08:39:15Z</time>
      </trkpt>
      <trkpt lat="42.5946" lon="2.00652">
        <ele>2176.98</ele>
        <time>2017-08-13T08:39:33Z</time>
      </trkpt>
      <trkpt lat="42.59446" lon="2.00668">
        <ele>2177.59</ele>
        <time>2017-08-13T08:39:49Z</time>
      </trkpt>
      <trkpt lat="42.59428" lon="2.00677">
        <ele>2175.59</ele>
        <time>2017-08-13T08:40:05Z</time>
      </trkpt>
      <trkpt lat="42.5941" lon="2.00681">
        <ele>2170.62</ele>
        <time>2017-08-13T08:40:21Z</time>
      </trkpt>
      <trkpt lat="42.59393" lon="2.0069">
        <ele>2165.66</ele>
        <time>2017-08-13T08:41:11Z</time>
      </trkpt>
      <trkpt lat="42.59377" lon="2.00703">
        <ele>2164</ele>
        <time>2017-08-13T08:41:36Z</time>
      </trkpt>
      <trkpt lat="42.59361" lon="2.00713">
        <ele>2154.83</ele>
        <time>2017-08-13T08:41:59Z</time>
      </trkpt>
      <trkpt lat="42.59351" lon="2.00734">
        <ele>2153.7</ele>
        <time>2017-08-13T08:42:26Z</time>
      </trkpt>
      <trkpt lat="42.59347" lon="2.00759">
        <ele>2146.98</ele>
        <time>2017-08-13T08:42:49Z</time>
      </trkpt>
      <trkpt lat="42.59333" lon="2.00778">
        <ele>2139.16</ele>
        <time>2017-08-13T08:43:08Z</time>
      </trkpt>
      <trkpt lat="42.5932" lon="2.00797">
        <ele>2138.29</ele>
        <time>2017-08-13T08:43:23Z</time>
      </trkpt>
      <trkpt lat="42.59311" lon="2.00819">
        <ele>2133.98</ele>
        <time>2017-08-13T08:43:41Z</time>
      </trkpt>
      <trkpt lat="42.59303" lon="2.00841">
        <ele>2132.59</ele>
        <time>2017-08-13T08:43:56Z</time>
      </trkpt>
      <trkpt lat="42.59292" lon="2.0086">
        <ele>2132.39</ele>
        <time>2017-08-13T08:44:14Z</time>
      </trkpt>
      <trkpt lat="42.59281" lon="2.00881">
        <ele>2129.69</ele>
        <time>2017-08-13T08:44:29Z</time>
      </trkpt>
      <trkpt lat="42.59271" lon="2.00903">
        <ele>2130.68</ele>
        <time>2017-08-13T08:44:43Z</time>
      </trkpt>
      <trkpt lat="42.59256" lon="2.00919">
        <ele>2127.99</ele>
        <time>2017-08-13T08:44:58Z</time>
      </trkpt>
      <trkpt lat="42.59247" lon="2.0094">
        <ele>2128.87</ele>
        <time>2017-08-13T08:45:11Z</time>
      </trkpt>
      <trkpt lat="42.59241" lon="2.00964">
        <ele>2125.26</ele>
        <time>2017-08-13T08:45:26Z</time>
      </trkpt>
      <trkpt lat="42.5923" lon="2.00985">
        <ele>2121.08</ele>
        <time>2017-08-13T08:45:42Z</time>
      </trkpt>
      <trkpt lat="42.59219" lon="2.01006">
        <ele>2113.6</ele>
        <time>2017-08-13T08:46:00Z</time>
      </trkpt>
      <trkpt lat="42.59211" lon="2.01029">
        <ele>2117.29</ele>
        <time>2017-08-13T08:46:14Z</time>
      </trkpt>
      <trkpt lat="42.59198" lon="2.01048">
        <ele>2119.57</ele>
        <time>2017-08-13T08:46:30Z</time>
      </trkpt>
      <trkpt lat="42.59187" lon="2.01068">
        <ele>2118.9</ele>
        <time>2017-08-13T08:46:44Z</time>
      </trkpt>
      <trkpt lat="42.59169" lon="2.01078">
        <ele>2115.29</ele>
        <time>2017-08-13T08:47:00Z</time>
      </trkpt>
      <trkpt lat="42.59154" lon="2.0109">
        <ele>2117.81</ele>
        <time>2017-08-13T08:47:14Z</time>
      </trkpt>
      <trkpt lat="42.59137" lon="2.01103">
        <ele>2116.77</ele>
        <time>2017-08-13T08:47:30Z</time>
      </trkpt>
      <trkpt lat="42.59119" lon="2.01114">
        <ele>2118.58</ele>
        <time>2017-08-13T08:47:45Z</time>
      </trkpt>
      <trkpt lat="42.59101" lon="2.0111">
        <ele>2119.6</ele>
        <time>2017-08-13T08:48:04Z</time>
      </trkpt>
      <trkpt lat="42.59085" lon="2.01124">
        <ele>2119.39</ele>
        <time>2017-08-13T08:48:24Z</time>
      </trkpt>
      <trkpt lat="42.59071" lon="2.01141">
        <ele>2120.3</ele>
        <time>2017-08-13T08:48:38Z</time>
      </trkpt>
      <trkpt lat="42.59056" lon="2.01126">
        <ele>2119.33</ele>
        <time>2017-08-13T08:48:56Z</time>
      </trkpt>
      <trkpt lat="42.59038" lon="2.0112">
        <ele>2116.83</ele>
        <time>2017-08-13T08:49:13Z</time>
      </trkpt>
      <trkpt lat="42.59022" lon="2.01134">
        <ele>2115.5</ele>
        <time>2017-08-13T08:49:29Z</time>
      </trkpt>
      <trkpt lat="42.59006" lon="2.01145">
        <ele>2113.9</ele>
        <time>2017-08-13T08:49:44Z</time>
      </trkpt>
      <trkpt lat="42.58991" lon="2.0116">
        <ele>2117.89</ele>
        <time>2017-08-13T08:49:58Z</time>
      </trkpt>
      <trkpt lat="42.58979" lon="2.01141">
        <ele>2116.67</ele>
        <time>2017-08-13T08:51:19Z</time>
      </trkpt>
      <trkpt lat="42.58963" lon="2.01126">
        <ele>2114.6</ele>
        <time>2017-08-13T08:51:34Z</time>
      </trkpt>
      <trkpt lat="42.58948" lon="2.01111">
        <ele>2115.31</ele>
        <time>2017-08-13T08:51:50Z</time>
      </trkpt>
      <trkpt lat="42.58936" lon="2.01091">
        <ele>2114.6</ele>
        <time>2017-08-13T08:52:05Z</time>
      </trkpt>
      <trkpt lat="42.58929" lon="2.01067">
        <ele>2113.59</ele>
        <time>2017-08-13T08:52:20Z</time>
      </trkpt>
      <trkpt lat="42.58931" lon="2.01042">
        <ele>2111.27</ele>
        <time>2017-08-13T08:52:39Z</time>
      </trkpt>
      <trkpt lat="42.58932" lon="2.01016">
        <ele>2110.77</ele>
        <time>2017-08-13T08:52:57Z</time>
      </trkpt>
      <trkpt lat="42.58927" lon="2.00992">
        <ele>2106.61</ele>
        <time>2017-08-13T08:53:10Z</time>
      </trkpt>
      <trkpt lat="42.58919" lon="2.0097">
        <ele>2110.51</ele>
        <time>2017-08-13T08:53:26Z</time>
      </trkpt>
      <trkpt lat="42.58907" lon="2.00947">
        <ele>2116.17</ele>
        <time>2017-08-13T08:53:44Z</time>
      </trkpt>
      <trkpt lat="42.5889" lon="2.00935">
        <ele>2115.51</ele>
        <time>2017-08-13T08:54:01Z</time>
      </trkpt>
      <trkpt lat="42.58875" lon="2.00921">
        <ele>2109.7</ele>
        <time>2017-08-13T08:54:17Z</time>
      </trkpt>
      <trkpt lat="42.58858" lon="2.0091">
        <ele>2107.97</ele>
        <time>2017-08-13T08:54:31Z</time>
      </trkpt>
      <trkpt lat="42.58846" lon="2.00891">
        <ele>2104.19</ele>
        <time>2017-08-13T08:54:43Z</time>
      </trkpt>
      <trkpt lat="42.58839" lon="2.00867">
        <ele>2106.97</ele>
        <time>2017-08-13T08:54:58Z</time>
      </trkpt>
      <trkpt lat="42.58826" lon="2.00849">
        <ele>2104.51</ele>
        <time>2017-08-13T08:55:17Z</time>
      </trkpt>
      <trkpt lat="42.58808" lon="2.00842">
        <ele>2106.1</ele>
        <time>2017-08-13T08:55:30Z</time>
      </trkpt>
      <trkpt lat="42.58792" lon="2.00831">
        <ele>2105.56</ele>
        <time>2017-08-13T08:55:45Z</time>
      </trkpt>
      <trkpt lat="42.58773" lon="2.00825">
        <ele>2111</ele>
        <time>2017-08-13T08:56:04Z</time>
      </trkpt>
      <trkpt lat="42.58758" lon="2.00811">
        <ele>2110.22</ele>
        <time>2017-08-13T08:56:16Z</time>
      </trkpt>
      <trkpt lat="42.58744" lon="2.00793">
        <ele>2109.34</ele>
        <time>2017-08-13T08:56:31Z</time>
      </trkpt>
      <trkpt lat="42.5873" lon="2.00778">
        <ele>2105.6</ele>
        <time>2017-08-13T08:56:48Z</time>
      </trkpt>
      <trkpt lat="42.58718" lon="2.00759">
        <ele>2106.21</ele>
        <time>2017-08-13T08:58:07Z</time>
      </trkpt>
      <trkpt lat="42.58705" lon="2.00743">
        <ele>2110.43</ele>
        <time>2017-08-13T08:58:24Z</time>
      </trkpt>
      <trkpt lat="42.58697" lon="2.0072">
        <ele>2116.51</ele>
        <time>2017-08-13T08:58:47Z</time>
      </trkpt>
      <trkpt lat="42.58689" lon="2.00697">
        <ele>2119.57</ele>
        <time>2017-08-13T08:59:05Z</time>
      </trkpt>
      <trkpt lat="42.58678" lon="2.00676">
        <ele>2117.59</ele>
        <time>2017-08-13T08:59:21Z</time>
      </trkpt>
      <trkpt lat="42.58666" lon="2.00656">
        <ele>2110</ele>
        <time>2017-08-13T08:59:36Z</time>
      </trkpt>
      <trkpt lat="42.58671" lon="2.00632">
        <ele>2101.29</ele>
        <time>2017-08-13T09:00:11Z</time>
      </trkpt>
      <trkpt lat="42.58684" lon="2.00613">
        <ele>2099.52</ele>
        <time>2017-08-13T09:00:26Z</time>
      </trkpt>
      <trkpt lat="42.58672" lon="2.00592">
        <ele>2103.53</ele>
        <time>2017-08-13T09:00:57Z</time>
      </trkpt>
      <trkpt lat="42.58653" lon="2.00593">
        <ele>2096.59</ele>
        <time>2017-08-13T09:01:18Z</time>
      </trkpt>
      <trkpt lat="42.58634" lon="2.00595">
        <ele>2099.87</ele>
        <time>2017-08-13T09:01:37Z</time>
      </trkpt>
      <trkpt lat="42.58616" lon="2.00591">
        <ele>2106.41</ele>
        <time>2017-08-13T09:01:55Z</time>
      </trkpt>
      <trkpt lat="42.58597" lon="2.00586">
        <ele>2104.32</ele>
        <time>2017-08-13T09:02:13Z</time>
      </trkpt>
      <trkpt lat="42.58581" lon="2.00575">
        <ele>2101.22</ele>
        <time>2017-08-13T09:02:34Z</time>
      </trkpt>
      <trkpt lat="42.58566" lon="2.0056">
        <ele>2095.94</ele>
        <time>2017-08-13T09:02:50Z</time>
      </trkpt>
      <trkpt lat="42.58549" lon="2.00553">
        <ele>2092.31</ele>
        <time>2017-08-13T09:03:04Z</time>
      </trkpt>
      <trkpt lat="42.5853" lon="2.00553">
        <ele>2089.04</ele>
        <time>2017-08-13T09:03:23Z</time>
      </trkpt>
      <trkpt lat="42.58522" lon="2.0053">
        <ele>2079.92</ele>
        <time>2017-08-13T09:04:01Z</time>
      </trkpt>
      <trkpt lat="42.58508" lon="2.00515">
        <ele>2074.93</ele>
        <time>2017-08-13T09:04:24Z</time>
      </trkpt>
      <trkpt lat="42.58515" lon="2.00493">
        <ele>2071.57</ele>
        <time>2017-08-13T09:05:13Z</time>
      </trkpt>
      <trkpt lat="42.58515" lon="2.00468">
        <ele>2068.9</ele>
        <time>2017-08-13T09:05:47Z</time>
      </trkpt>
      <trkpt lat="42.58522" lon="2.00444">
        <ele>2062.6</ele>
        <time>2017-08-13T09:06:07Z</time>
      </trkpt>
      <trkpt lat="42.58522" lon="2.00418">
        <ele>2066.21</ele>
        <time>2017-08-13T09:06:23Z</time>
      </trkpt>
      <trkpt lat="42.58523" lon="2.00393">
        <ele>2068.58</ele>
        <time>2017-08-13T09:06:39Z</time>
      </trkpt>
      <trkpt lat="42.58522" lon="2.00368">
        <ele>2067.13</ele>
        <time>2017-08-13T09:06:52Z</time>
      </trkpt>
      <trkpt lat="42.58524" lon="2.00343">
        <ele>2065.45</ele>
        <time>2017-08-13T09:07:11Z</time>
      </trkpt>
      <trkpt lat="42.58521" lon="2.00318">
        <ele>2065.9</ele>
        <time>2017-08-13T09:07:30Z</time>
      </trkpt>
      <trkpt lat="42.58519" lon="2.00293">
        <ele>2066.6</ele>
        <time>2017-08-13T09:07:44Z</time>
      </trkpt>
      <trkpt lat="42.58521" lon="2.00268">
        <ele>2068.29</ele>
        <time>2017-08-13T09:08:01Z</time>
      </trkpt>
      <trkpt lat="42.5852" lon="2.00243">
        <ele>2066.32</ele>
        <time>2017-08-13T09:08:15Z</time>
      </trkpt>
      <trkpt lat="42.58518" lon="2.00217">
        <ele>2066.27</ele>
        <time>2017-08-13T09:08:28Z</time>
      </trkpt>
      <trkpt lat="42.58513" lon="2.00192">
        <ele>2066.29</ele>
        <time>2017-08-13T09:08:46Z</time>
      </trkpt>
      <trkpt lat="42.58502" lon="2.00172">
        <ele>2060.62</ele>
        <time>2017-08-13T09:09:00Z</time>
      </trkpt>
      <trkpt lat="42.58489" lon="2.00154">
        <ele>2063.87</ele>
        <time>2017-08-13T09:09:15Z</time>
      </trkpt>
      <trkpt lat="42.58475" lon="2.00137">
        <ele>2064.58</ele>
        <time>2017-08-13T09:09:29Z</time>
      </trkpt>
      <trkpt lat="42.58462" lon="2.00118">
        <ele>2063.74</ele>
        <time>2017-08-13T09:10:19Z</time>
      </trkpt>
      <trkpt lat="42.5845" lon="2.00099">
        <ele>2065.5</ele>
        <time>2017-08-13T09:10:35Z</time>
      </trkpt>
      <trkpt lat="42.58437" lon="2.00081">
        <ele>2065.96</ele>
        <time>2017-08-13T09:10:49Z</time>
      </trkpt>
      <trkpt lat="42.58429" lon="2.00058">
        <ele>2065.63</ele>
        <time>2017-08-13T09:11:04Z</time>
      </trkpt>
      <trkpt lat="42.58424" lon="2.00033">
        <ele>2065.63</ele>
        <time>2017-08-13T09:11:18Z</time>
      </trkpt>
      <trkpt lat="42.58419" lon="2.00008">
        <ele>2061.7</ele>
        <time>2017-08-13T09:11:33Z</time>
      </trkpt>
      <trkpt lat="42.58408" lon="1.99987">
        <ele>2062.91</ele>
        <time>2017-08-13T09:11:49Z</time>
      </trkpt>
      <trkpt lat="42.58395" lon="1.99969">
        <ele>2057.02</ele>
        <time>2017-08-13T09:12:03Z</time>
      </trkpt>
      <trkpt lat="42.58383" lon="1.99951">
        <ele>2056.86</ele>
        <time>2017-08-13T09:12:17Z</time>
      </trkpt>
      <trkpt lat="42.58367" lon="1.99938">
        <ele>2056.59</ele>
        <time>2017-08-13T09:12:29Z</time>
      </trkpt>
      <trkpt lat="42.58351" lon="1.99927">
        <ele>2054.69</ele>
        <time>2017-08-13T09:13:05Z</time>
      </trkpt>
      <trkpt lat="42.58332" lon="1.99925">
        <ele>2052.67</ele>
        <time>2017-08-13T09:13:25Z</time>
      </trkpt>
      <trkpt lat="42.58313" lon="1.99923">
        <ele>2053.81</ele>
        <time>2017-08-13T09:13:40Z</time>
      </trkpt>
      <trkpt lat="42.58294" lon="1.99926">
        <ele>2053.59</ele>
        <time>2017-08-13T09:13:56Z</time>
      </trkpt>
      <trkpt lat="42.58276" lon="1.99923">
        <ele>2048.5</ele>
        <time>2017-08-13T09:14:10Z</time>
      </trkpt>
      <trkpt lat="42.58257" lon="1.99922">
        <ele>2041.08</ele>
        <time>2017-08-13T09:14:22Z</time>
      </trkpt>
      <trkpt lat="42.58239" lon="1.99921">
        <ele>2040.6</ele>
        <time>2017-08-13T09:14:37Z</time>
      </trkpt>
      <trkpt lat="42.5822" lon="1.99923">
        <ele>2037.66</ele>
        <time>2017-08-13T09:14:55Z</time>
      </trkpt>
      <trkpt lat="42.58202" lon="1.99922">
        <ele>2036.8</ele>
        <time>2017-08-13T09:15:10Z</time>
      </trkpt>
      <trkpt lat="42.58195" lon="1.99899">
        <ele>2035.54</ele>
        <time>2017-08-13T09:15:40Z</time>
      </trkpt>
      <trkpt lat="42.58201" lon="1.99875">
        <ele>2033.53</ele>
        <time>2017-08-13T09:16:01Z</time>
      </trkpt>
      <trkpt lat="42.58212" lon="1.99854">
        <ele>2037.57</ele>
        <time>2017-08-13T09:16:18Z</time>
      </trkpt>
      <trkpt lat="42.58217" lon="1.99829">
        <ele>2038.51</ele>
        <time>2017-08-13T09:18:28Z</time>
      </trkpt>
      <trkpt lat="42.58218" lon="1.99803">
        <ele>2041.49</ele>
        <time>2017-08-13T09:18:52Z</time>
      </trkpt>
      <trkpt lat="42.58213" lon="1.99778">
        <ele>2042.91</ele>
        <time>2017-08-13T09:19:23Z</time>
      </trkpt>
      <trkpt lat="42.58214" lon="1.99752">
        <ele>2039.48</ele>
        <time>2017-08-13T09:19:37Z</time>
      </trkpt>
      <trkpt lat="42.58221" lon="1.99729">
        <ele>2041.18</ele>
        <time>2017-08-13T09:19:56Z</time>
      </trkpt>
      <trkpt lat="42.5822" lon="1.99702">
        <ele>2046.54</ele>
        <time>2017-08-13T09:20:17Z</time>
      </trkpt>
      <trkpt lat="42.58219" lon="1.99677">
        <ele>2054.2</ele>
        <time>2017-08-13T09:20:39Z</time>
      </trkpt>
      <trkpt lat="42.58213" lon="1.99655">
        <ele>2052.5</ele>
        <time>2017-08-13T09:20:58Z</time>
      </trkpt>
      <trkpt lat="42.58204" lon="1.99632">
        <ele>2046.66</ele>
        <time>2017-08-13T09:21:13Z</time>
      </trkpt>
      <trkpt lat="42.582" lon="1.99608">
        <ele>2050.56</ele>
        <time>2017-08-13T09:21:29Z</time>
      </trkpt>
      <trkpt lat="42.58189" lon="1.99585">
        <ele>2049.79</ele>
        <time>2017-08-13T09:21:47Z</time>
      </trkpt>
      <trkpt lat="42.58178" lon="1.99565">
        <ele>2049.5</ele>
        <time>2017-08-13T09:22:03Z</time>
      </trkpt>
      <trkpt lat="42.5817" lon="1.99543">
        <ele>2052.37</ele>
        <time>2017-08-13T09:22:21Z</time>
      </trkpt>
      <trkpt lat="42.58154" lon="1.99532">
        <ele>2051.5</ele>
        <time>2017-08-13T09:23:25Z</time>
      </trkpt>
      <trkpt lat="42.58137" lon="1.99524">
        <ele>2052.69</ele>
        <time>2017-08-13T09:23:43Z</time>
      </trkpt>
      <trkpt lat="42.58118" lon="1.99521">
        <ele>2050.68</ele>
        <time>2017-08-13T09:24:05Z</time>
      </trkpt>
      <trkpt lat="42.581" lon="1.99523">
        <ele>2047.69</ele>
        <time>2017-08-13T09:25:40Z</time>
      </trkpt>
      <trkpt lat="42.5809" lon="1.99545">
        <ele>2047.99</ele>
        <time>2017-08-13T09:26:03Z</time>
      </trkpt>
      <trkpt lat="42.58072" lon="1.99555">
        <ele>2038.62</ele>
        <time>2017-08-13T09:26:23Z</time>
      </trkpt>
      <trkpt lat="42.58053" lon="1.99554">
        <ele>2041.81</ele>
        <time>2017-08-13T09:26:48Z</time>
      </trkpt>
      <trkpt lat="42.58034" lon="1.99559">
        <ele>2046.58</ele>
        <time>2017-08-13T09:27:08Z</time>
      </trkpt>
      <trkpt lat="42.58015" lon="1.99555">
        <ele>2050.41</ele>
        <time>2017-08-13T09:27:30Z</time>
      </trkpt>
      <trkpt lat="42.57998" lon="1.99542">
        <ele>2049.62</ele>
        <time>2017-08-13T09:27:52Z</time>
      </trkpt>
      <trkpt lat="42.57981" lon="1.99536">
        <ele>2048.7</ele>
        <time>2017-08-13T09:28:05Z</time>
      </trkpt>
      <trkpt lat="42.57964" lon="1.99525">
        <ele>2047.5</ele>
        <time>2017-08-13T09:28:20Z</time>
      </trkpt>
      <trkpt lat="42.57947" lon="1.99515">
        <ele>2051.43</ele>
        <time>2017-08-13T09:28:38Z</time>
      </trkpt>
      <trkpt lat="42.57931" lon="1.99504">
        <ele>2052.6</ele>
        <time>2017-08-13T09:29:00Z</time>
      </trkpt>
      <trkpt lat="42.57922" lon="1.99481">
        <ele>2044.2</ele>
        <time>2017-08-13T09:29:22Z</time>
      </trkpt>
      <trkpt lat="42.57909" lon="1.99462">
        <ele>2037.14</ele>
        <time>2017-08-13T09:29:40Z</time>
      </trkpt>
      <trkpt lat="42.57891" lon="1.99454">
        <ele>2034.9</ele>
        <time>2017-08-13T09:29:53Z</time>
      </trkpt>
      <trkpt lat="42.57874" lon="1.99445">
        <ele>2034.8</ele>
        <time>2017-08-13T09:30:08Z</time>
      </trkpt>
      <trkpt lat="42.57863" lon="1.99424">
        <ele>2033.82</ele>
        <time>2017-08-13T09:30:25Z</time>
      </trkpt>
      <trkpt lat="42.57851" lon="1.99404">
        <ele>2035.21</ele>
        <time>2017-08-13T09:30:39Z</time>
      </trkpt>
      <trkpt lat="42.57833" lon="1.99408">
        <ele>2037.6</ele>
        <time>2017-08-13T09:30:57Z</time>
      </trkpt>
      <trkpt lat="42.57816" lon="1.99399">
        <ele>2036.63</ele>
        <time>2017-08-13T09:31:11Z</time>
      </trkpt>
      <trkpt lat="42.57798" lon="1.99394">
        <ele>2034.78</ele>
        <time>2017-08-13T09:31:25Z</time>
      </trkpt>
      <trkpt lat="42.5778" lon="1.99388">
        <ele>2032.85</ele>
        <time>2017-08-13T09:31:41Z</time>
      </trkpt>
      <trkpt lat="42.57762" lon="1.99383">
        <ele>2028.54</ele>
        <time>2017-08-13T09:32:47Z</time>
      </trkpt>
      <trkpt lat="42.57742" lon="1.99383">
        <ele>2023.62</ele>
        <time>2017-08-13T09:33:02Z</time>
      </trkpt>
      <trkpt lat="42.57724" lon="1.99383">
        <ele>2017.57</ele>
        <time>2017-08-13T09:33:16Z</time>
      </trkpt>
      <trkpt lat="42.57705" lon="1.99389">
        <ele>2022.42</ele>
        <time>2017-08-13T09:33:30Z</time>
      </trkpt>
      <trkpt lat="42.57687" lon="1.99385">
        <ele>2021.23</ele>
        <time>2017-08-13T09:33:47Z</time>
      </trkpt>
      <trkpt lat="42.5767" lon="1.99399">
        <ele>2023.56</ele>
        <time>2017-08-13T09:34:04Z</time>
      </trkpt>
      <trkpt lat="42.57653" lon="1.99408">
        <ele>2022.11</ele>
        <time>2017-08-13T09:34:21Z</time>
      </trkpt>
      <trkpt lat="42.57636" lon="1.99399">
        <ele>2018.66</ele>
        <time>2017-08-13T09:34:40Z</time>
      </trkpt>
      <trkpt lat="42.57617" lon="1.99399">
        <ele>2021.58</ele>
        <time>2017-08-13T09:34:56Z</time>
      </trkpt>
      <trkpt lat="42.57599" lon="1.99402">
        <ele>2025.89</ele>
        <time>2017-08-13T09:35:13Z</time>
      </trkpt>
      <trkpt lat="42.57581" lon="1.99401">
        <ele>2028.86</ele>
        <time>2017-08-13T09:35:29Z</time>
      </trkpt>
      <trkpt lat="42.57563" lon="1.99395">
        <ele>2030.24</ele>
        <time>2017-08-13T09:35:49Z</time>
      </trkpt>
      <trkpt lat="42.57546" lon="1.99382">
        <ele>2029.48</ele>
        <time>2017-08-13T09:36:06Z</time>
      </trkpt>
      <trkpt lat="42.57528" lon="1.99375">
        <ele>2027.23</ele>
        <time>2017-08-13T09:36:22Z</time>
      </trkpt>
      <trkpt lat="42.57512" lon="1.99364">
        <ele>2025.71</ele>
        <time>2017-08-13T09:36:38Z</time>
      </trkpt>
      <trkpt lat="42.57494" lon="1.99358">
        <ele>2023.59</ele>
        <time>2017-08-13T09:36:51Z</time>
      </trkpt>
      <trkpt lat="42.57475" lon="1.99354">
        <ele>2029.54</ele>
        <time>2017-08-13T09:37:08Z</time>
      </trkpt>
      <trkpt lat="42.57461" lon="1.99339">
        <ele>2027.99</ele>
        <time>2017-08-13T09:37:23Z</time>
      </trkpt>
      <trkpt lat="42.57446" lon="1.99321">
        <ele>2027.6</ele>
        <time>2017-08-13T09:37:41Z</time>
      </trkpt>
      <trkpt lat="42.57429" lon="1.99312">
        <ele>2027.57</ele>
        <time>2017-08-13T09:38:01Z</time>
      </trkpt>
      <trkpt lat="42.57415" lon="1.99296">
        <ele>2035.59</ele>
        <time>2017-08-13T09:38:27Z</time>
      </trkpt>
      <trkpt lat="42.57397" lon="1.99287">
        <ele>2034.62</ele>
        <time>2017-08-13T09:38:46Z</time>
      </trkpt>
      <trkpt lat="42.57378" lon="1.99285">
        <ele>2032.83</ele>
        <time>2017-08-13T09:39:01Z</time>
      </trkpt>
      <trkpt lat="42.5736" lon="1.99282">
        <ele>2031.89</ele>
        <time>2017-08-13T09:39:20Z</time>
      </trkpt>
      <trkpt lat="42.57343" lon="1.99274">
        <ele>2035.6</ele>
        <time>2017-08-13T09:39:38Z</time>
      </trkpt>
      <trkpt lat="42.57327" lon="1.99263">
        <ele>2033.68</ele>
        <time>2017-08-13T09:39:57Z</time>
      </trkpt>
      <trkpt lat="42.57309" lon="1.99262">
        <ele>2034.98</ele>
        <time>2017-08-13T09:40:14Z</time>
      </trkpt>
      <trkpt lat="42.57291" lon="1.9927">
        <ele>2037.12</ele>
        <time>2017-08-13T09:40:27Z</time>
      </trkpt>
      <trkpt lat="42.57274" lon="1.99262">
        <ele>2044.57</ele>
        <time>2017-08-13T09:41:08Z</time>
      </trkpt>
      <trkpt lat="42.57261" lon="1.99244">
        <ele>2047.68</ele>
        <time>2017-08-13T09:41:38Z</time>
      </trkpt>
      <trkpt lat="42.57242" lon="1.99236">
        <ele>2047.49</ele>
        <time>2017-08-13T09:42:08Z</time>
      </trkpt>
      <trkpt lat="42.5723" lon="1.99216">
        <ele>2048.39</ele>
        <time>2017-08-13T09:42:27Z</time>
      </trkpt>
      <trkpt lat="42.57214" lon="1.99205">
        <ele>2053.57</ele>
        <time>2017-08-13T09:42:57Z</time>
      </trkpt>
      <trkpt lat="42.57196" lon="1.99197">
        <ele>2054.61</ele>
        <time>2017-08-13T09:43:19Z</time>
      </trkpt>
      <trkpt lat="42.57179" lon="1.99187">
        <ele>2060.77</ele>
        <time>2017-08-13T09:43:38Z</time>
      </trkpt>
      <trkpt lat="42.57162" lon="1.99176">
        <ele>2057.71</ele>
        <time>2017-08-13T09:43:54Z</time>
      </trkpt>
      <trkpt lat="42.57164" lon="1.99151">
        <ele>2059.3</ele>
        <time>2017-08-13T09:44:52Z</time>
      </trkpt>
      <trkpt lat="42.57172" lon="1.99129">
        <ele>2058.61</ele>
        <time>2017-08-13T09:45:27Z</time>
      </trkpt>
      <trkpt lat="42.57179" lon="1.99105">
        <ele>2064.21</ele>
        <time>2017-08-13T09:46:18Z</time>
      </trkpt>
      <trkpt lat="42.57191" lon="1.99086">
        <ele>2075.59</ele>
        <time>2017-08-13T09:47:09Z</time>
      </trkpt>
      <trkpt lat="42.57203" lon="1.99067">
        <ele>2085.57</ele>
        <time>2017-08-13T09:48:21Z</time>
      </trkpt>
      <trkpt lat="42.57214" lon="1.99047">
        <ele>2090.02</ele>
        <time>2017-08-13T09:50:11Z</time>
      </trkpt>
      <trkpt lat="42.57217" lon="1.99022">
        <ele>2097.82</ele>
        <time>2017-08-13T09:51:17Z</time>
      </trkpt>
      <trkpt lat="42.57206" lon="1.99002">
        <ele>2103.65</ele>
        <time>2017-08-13T09:51:56Z</time>
      </trkpt>
      <trkpt lat="42.57212" lon="1.98978">
        <ele>2104.48</ele>
        <time>2017-08-13T09:52:16Z</time>
      </trkpt>
      <trkpt lat="42.57202" lon="1.98956">
        <ele>2106.48</ele>
        <time>2017-08-13T09:52:44Z</time>
      </trkpt>
      <trkpt lat="42.57202" lon="1.98929">
        <ele>2108.38</ele>
        <time>2017-08-13T09:53:04Z</time>
      </trkpt>
      <trkpt lat="42.57203" lon="1.98904">
        <ele>2110.59</ele>
        <time>2017-08-13T09:53:43Z</time>
      </trkpt>
      <trkpt lat="42.57193" lon="1.98882">
        <ele>2113.57</ele>
        <time>2017-08-13T09:54:07Z</time>
      </trkpt>
      <trkpt lat="42.5718" lon="1.98864">
        <ele>2113.59</ele>
        <time>2017-08-13T09:54:48Z</time>
      </trkpt>
      <trkpt lat="42.57183" lon="1.98839">
        <ele>2125.06</ele>
        <time>2017-08-13T09:55:53Z</time>
      </trkpt>
      <trkpt lat="42.5718" lon="1.98815">
        <ele>2131.59</ele>
        <time>2017-08-13T09:57:00Z</time>
      </trkpt>
      <trkpt lat="42.5718" lon="1.9879">
        <ele>2132.14</ele>
        <time>2017-08-13T09:57:39Z</time>
      </trkpt>
      <trkpt lat="42.57186" lon="1.98765">
        <ele>2134.59</ele>
        <time>2017-08-13T09:57:58Z</time>
      </trkpt>
      <trkpt lat="42.57192" lon="1.98741">
        <ele>2135.21</ele>
        <time>2017-08-13T09:58:48Z</time>
      </trkpt>
      <trkpt lat="42.57206" lon="1.98724">
        <ele>2136.59</ele>
        <time>2017-08-13T09:59:36Z</time>
      </trkpt>
      <trkpt lat="42.57217" lon="1.98704">
        <ele>2137.63</ele>
        <time>2017-08-13T09:59:52Z</time>
      </trkpt>
      <trkpt lat="42.5722" lon="1.9868">
        <ele>2141.81</ele>
        <time>2017-08-13T10:00:39Z</time>
      </trkpt>
      <trkpt lat="42.57232" lon="1.98661">
        <ele>2149.9</ele>
        <time>2017-08-13T10:01:15Z</time>
      </trkpt>
      <trkpt lat="42.57243" lon="1.98639">
        <ele>2151.59</ele>
        <time>2017-08-13T10:01:44Z</time>
      </trkpt>
      <trkpt lat="42.5725" lon="1.98617">
        <ele>2154.32</ele>
        <time>2017-08-13T10:02:05Z</time>
      </trkpt>
      <trkpt lat="42.57262" lon="1.98597">
        <ele>2156.68</ele>
        <time>2017-08-13T10:02:28Z</time>
      </trkpt>
      <trkpt lat="42.57269" lon="1.98574">
        <ele>2154.66</ele>
        <time>2017-08-13T10:02:54Z</time>
      </trkpt>
      <trkpt lat="42.57274" lon="1.98548">
        <ele>2163.61</ele>
        <time>2017-08-13T10:04:10Z</time>
      </trkpt>
      <trkpt lat="42.57288" lon="1.98533">
        <ele>2157.99</ele>
        <time>2017-08-13T10:04:35Z</time>
      </trkpt>
      <trkpt lat="42.57296" lon="1.98524">
        <ele>2161.59</ele>
        <time>2017-08-13T10:06:06Z</time>
      </trkpt>
      <trkpt lat="42.57291" lon="1.985">
        <ele>2168.57</ele>
        <time>2017-08-13T10:09:21Z</time>
      </trkpt>
      <trkpt lat="42.57302" lon="1.9848">
        <ele>2172.72</ele>
        <time>2017-08-13T10:09:50Z</time>
      </trkpt>
      <trkpt lat="42.57317" lon="1.98467">
        <ele>2170.65</ele>
        <time>2017-08-13T10:10:46Z</time>
      </trkpt>
      <trkpt lat="42.57326" lon="1.98445">
        <ele>2180.26</ele>
        <time>2017-08-13T10:11:26Z</time>
      </trkpt>
      <trkpt lat="42.57331" lon="1.98421">
        <ele>2179.69</ele>
        <time>2017-08-13T10:12:34Z</time>
      </trkpt>
      <trkpt lat="42.57326" lon="1.98397">
        <ele>2190.5</ele>
        <time>2017-08-13T10:13:25Z</time>
      </trkpt>
      <trkpt lat="42.57332" lon="1.98374">
        <ele>2192.59</ele>
        <time>2017-08-13T10:14:36Z</time>
      </trkpt>
      <trkpt lat="42.57326" lon="1.98351">
        <ele>2194.7</ele>
        <time>2017-08-13T10:15:29Z</time>
      </trkpt>
      <trkpt lat="42.57314" lon="1.98332">
        <ele>2198.62</ele>
        <time>2017-08-13T10:15:48Z</time>
      </trkpt>
      <trkpt lat="42.57316" lon="1.98307">
        <ele>2199.91</ele>
        <time>2017-08-13T10:16:12Z</time>
      </trkpt>
      <trkpt lat="42.57331" lon="1.98292">
        <ele>2196.5</ele>
        <time>2017-08-13T10:17:33Z</time>
      </trkpt>
      <trkpt lat="42.57344" lon="1.98275">
        <ele>2197.86</ele>
        <time>2017-08-13T10:17:50Z</time>
      </trkpt>
      <trkpt lat="42.57351" lon="1.98252">
        <ele>2200.31</ele>
        <time>2017-08-13T10:18:23Z</time>
      </trkpt>
      <trkpt lat="42.57351" lon="1.98227">
        <ele>2205.59</ele>
        <time>2017-08-13T10:21:16Z</time>
      </trkpt>
      <trkpt lat="42.57363" lon="1.98209">
        <ele>2209.61</ele>
        <time>2017-08-13T10:23:01Z</time>
      </trkpt>
      <trkpt lat="42.57372" lon="1.98187">
        <ele>2211.39</ele>
        <time>2017-08-13T10:23:45Z</time>
      </trkpt>
      <trkpt lat="42.5737" lon="1.98162">
        <ele>2216.68</ele>
        <time>2017-08-13T10:24:55Z</time>
      </trkpt>
      <trkpt lat="42.57369" lon="1.98138">
        <ele>2223.59</ele>
        <time>2017-08-13T10:26:27Z</time>
      </trkpt>
      <trkpt lat="42.57388" lon="1.98134">
        <ele>2238.8</ele>
        <time>2017-08-13T10:28:24Z</time>
      </trkpt>
      <trkpt lat="42.57404" lon="1.98124">
        <ele>2238.2</ele>
        <time>2017-08-13T10:29:26Z</time>
      </trkpt>
      <trkpt lat="42.57406" lon="1.981">
        <ele>2244.59</ele>
        <time>2017-08-13T10:30:32Z</time>
      </trkpt>
      <trkpt lat="42.57419" lon="1.98082">
        <ele>2255.26</ele>
        <time>2017-08-13T10:31:38Z</time>
      </trkpt>
      <trkpt lat="42.57424" lon="1.98058">
        <ele>2260.53</ele>
        <time>2017-08-13T10:39:28Z</time>
      </trkpt>
      <trkpt lat="42.57429" lon="1.98033">
        <ele>2264.62</ele>
        <time>2017-08-13T10:39:56Z</time>
      </trkpt>
      <trkpt lat="42.57438" lon="1.98011">
        <ele>2267.81</ele>
        <time>2017-08-13T10:40:18Z</time>
      </trkpt>
      <trkpt lat="42.57442" lon="1.97987">
        <ele>2268.95</ele>
        <time>2017-08-13T10:40:36Z</time>
      </trkpt>
      <trkpt lat="42.57447" lon="1.97962">
        <ele>2269.58</ele>
        <time>2017-08-13T10:40:55Z</time>
      </trkpt>
      <trkpt lat="42.57455" lon="1.97939">
        <ele>2266.59</ele>
        <time>2017-08-13T10:41:39Z</time>
      </trkpt>
      <trkpt lat="42.57461" lon="1.97915">
        <ele>2266.72</ele>
        <time>2017-08-13T10:42:00Z</time>
      </trkpt>
      <trkpt lat="42.57467" lon="1.9789">
        <ele>2268.7</ele>
        <time>2017-08-13T10:42:22Z</time>
      </trkpt>
      <trkpt lat="42.57472" lon="1.97866">
        <ele>2270.89</ele>
        <time>2017-08-13T10:42:41Z</time>
      </trkpt>
      <trkpt lat="42.57481" lon="1.97845">
        <ele>2269.62</ele>
        <time>2017-08-13T10:42:58Z</time>
      </trkpt>
      <trkpt lat="42.57478" lon="1.9782">
        <ele>2267.57</ele>
        <time>2017-08-13T10:43:22Z</time>
      </trkpt>
      <trkpt lat="42.57475" lon="1.97795">
        <ele>2270.59</ele>
        <time>2017-08-13T10:43:46Z</time>
      </trkpt>
      <trkpt lat="42.57475" lon="1.97771">
        <ele>2271.59</ele>
        <time>2017-08-13T10:44:05Z</time>
      </trkpt>
      <trkpt lat="42.57479" lon="1.97746">
        <ele>2272.29</ele>
        <time>2017-08-13T10:45:12Z</time>
      </trkpt>
      <trkpt lat="42.57479" lon="1.97722">
        <ele>2270.6</ele>
        <time>2017-08-13T10:45:33Z</time>
      </trkpt>
      <trkpt lat="42.57475" lon="1.97697">
        <ele>2264.6</ele>
        <time>2017-08-13T10:45:52Z</time>
      </trkpt>
      <trkpt lat="42.57465" lon="1.97674">
        <ele>2263.27</ele>
        <time>2017-08-13T10:46:17Z</time>
      </trkpt>
      <trkpt lat="42.5746" lon="1.9765">
        <ele>2260.89</ele>
        <time>2017-08-13T10:46:38Z</time>
      </trkpt>
      <trkpt lat="42.57453" lon="1.97625">
        <ele>2258.59</ele>
        <time>2017-08-13T10:46:54Z</time>
      </trkpt>
      <trkpt lat="42.57447" lon="1.97602">
        <ele>2259.56</ele>
        <time>2017-08-13T10:47:18Z</time>
      </trkpt>
      <trkpt lat="42.57432" lon="1.97587">
        <ele>2253.51</ele>
        <time>2017-08-13T10:47:42Z</time>
      </trkpt>
      <trkpt lat="42.57416" lon="1.97575">
        <ele>2251.51</ele>
        <time>2017-08-13T10:48:05Z</time>
      </trkpt>
      <trkpt lat="42.57413" lon="1.9755">
        <ele>2249.27</ele>
        <time>2017-08-13T10:48:56Z</time>
      </trkpt>
      <trkpt lat="42.57399" lon="1.97534">
        <ele>2249.9</ele>
        <time>2017-08-13T10:49:11Z</time>
      </trkpt>
      <trkpt lat="42.57389" lon="1.97513">
        <ele>2241.33</ele>
        <time>2017-08-13T10:49:31Z</time>
      </trkpt>
      <trkpt lat="42.57378" lon="1.97494">
        <ele>2239.68</ele>
        <time>2017-08-13T10:49:48Z</time>
      </trkpt>
      <trkpt lat="42.5737" lon="1.9747">
        <ele>2240.62</ele>
        <time>2017-08-13T10:50:03Z</time>
      </trkpt>
      <trkpt lat="42.57367" lon="1.97445">
        <ele>2239.08</ele>
        <time>2017-08-13T10:50:20Z</time>
      </trkpt>
      <trkpt lat="42.57372" lon="1.9742">
        <ele>2244.29</ele>
        <time>2017-08-13T10:50:35Z</time>
      </trkpt>
      <trkpt lat="42.57375" lon="1.97394">
        <ele>2243.68</ele>
        <time>2017-08-13T10:50:52Z</time>
      </trkpt>
      <trkpt lat="42.57383" lon="1.97372">
        <ele>2248.36</ele>
        <time>2017-08-13T10:51:11Z</time>
      </trkpt>
      <trkpt lat="42.57388" lon="1.97346">
        <ele>2246.63</ele>
        <time>2017-08-13T10:51:28Z</time>
      </trkpt>
      <trkpt lat="42.5739" lon="1.97321">
        <ele>2239.9</ele>
        <time>2017-08-13T10:51:42Z</time>
      </trkpt>
      <trkpt lat="42.57392" lon="1.97296">
        <ele>2242.56</ele>
        <time>2017-08-13T10:51:57Z</time>
      </trkpt>
      <trkpt lat="42.57404" lon="1.97277">
        <ele>2236.15</ele>
        <time>2017-08-13T10:52:15Z</time>
      </trkpt>
      <trkpt lat="42.57411" lon="1.97253">
        <ele>2230.88</ele>
        <time>2017-08-13T10:52:35Z</time>
      </trkpt>
      <trkpt lat="42.57395" lon="1.97241">
        <ele>2235.61</ele>
        <time>2017-08-13T10:52:51Z</time>
      </trkpt>
      <trkpt lat="42.57378" lon="1.97233">
        <ele>2235.13</ele>
        <time>2017-08-13T10:53:07Z</time>
      </trkpt>
      <trkpt lat="42.57364" lon="1.97215">
        <ele>2238.57</ele>
        <time>2017-08-13T10:53:26Z</time>
      </trkpt>
      <trkpt lat="42.57354" lon="1.97194">
        <ele>2234.29</ele>
        <time>2017-08-13T10:53:44Z</time>
      </trkpt>
      <trkpt lat="42.5735" lon="1.97168">
        <ele>2228.51</ele>
        <time>2017-08-13T10:54:04Z</time>
      </trkpt>
      <trkpt lat="42.57341" lon="1.97147">
        <ele>2228.28</ele>
        <time>2017-08-13T10:54:19Z</time>
      </trkpt>
      <trkpt lat="42.57329" lon="1.97128">
        <ele>2222.78</ele>
        <time>2017-08-13T10:54:37Z</time>
      </trkpt>
      <trkpt lat="42.57315" lon="1.97112">
        <ele>2220.7</ele>
        <time>2017-08-13T10:54:55Z</time>
      </trkpt>
      <trkpt lat="42.57311" lon="1.97087">
        <ele>2227.56</ele>
        <time>2017-08-13T10:55:17Z</time>
      </trkpt>
      <trkpt lat="42.57301" lon="1.97065">
        <ele>2228.6</ele>
        <time>2017-08-13T10:55:38Z</time>
      </trkpt>
      <trkpt lat="42.57293" lon="1.97043">
        <ele>2226.59</ele>
        <time>2017-08-13T10:55:57Z</time>
      </trkpt>
      <trkpt lat="42.57285" lon="1.9702">
        <ele>2225.58</ele>
        <time>2017-08-13T10:56:15Z</time>
      </trkpt>
      <trkpt lat="42.57285" lon="1.96995">
        <ele>2225.3</ele>
        <time>2017-08-13T10:56:30Z</time>
      </trkpt>
      <trkpt lat="42.57293" lon="1.96973">
        <ele>2222.48</ele>
        <time>2017-08-13T10:56:45Z</time>
      </trkpt>
      <trkpt lat="42.573" lon="1.9695">
        <ele>2222.69</ele>
        <time>2017-08-13T10:57:00Z</time>
      </trkpt>
      <trkpt lat="42.57301" lon="1.96925">
        <ele>2225.57</ele>
        <time>2017-08-13T10:57:15Z</time>
      </trkpt>
      <trkpt lat="42.57303" lon="1.96899">
        <ele>2220.57</ele>
        <time>2017-08-13T10:57:32Z</time>
      </trkpt>
      <trkpt lat="42.57302" lon="1.96874">
        <ele>2222.59</ele>
        <time>2017-08-13T10:57:47Z</time>
      </trkpt>
      <trkpt lat="42.57309" lon="1.96851">
        <ele>2219.68</ele>
        <time>2017-08-13T10:58:09Z</time>
      </trkpt>
      <trkpt lat="42.57307" lon="1.96826">
        <ele>2224.23</ele>
        <time>2017-08-13T10:58:25Z</time>
      </trkpt>
      <trkpt lat="42.57308" lon="1.96801">
        <ele>2222.32</ele>
        <time>2017-08-13T10:58:41Z</time>
      </trkpt>
      <trkpt lat="42.5731" lon="1.96775">
        <ele>2221.56</ele>
        <time>2017-08-13T10:58:58Z</time>
      </trkpt>
      <trkpt lat="42.57321" lon="1.96756">
        <ele>2215.2</ele>
        <time>2017-08-13T10:59:14Z</time>
      </trkpt>
      <trkpt lat="42.57318" lon="1.96731">
        <ele>2221.18</ele>
        <time>2017-08-13T10:59:27Z</time>
      </trkpt>
      <trkpt lat="42.57316" lon="1.96706">
        <ele>2228.54</ele>
        <time>2017-08-13T10:59:42Z</time>
      </trkpt>
      <trkpt lat="42.57311" lon="1.96683">
        <ele>2232.36</ele>
        <time>2017-08-13T10:59:57Z</time>
      </trkpt>
      <trkpt lat="42.57305" lon="1.96659">
        <ele>2231.49</ele>
        <time>2017-08-13T11:00:17Z</time>
      </trkpt>
      <trkpt lat="42.5729" lon="1.96645">
        <ele>2236.94</ele>
        <time>2017-08-13T11:00:36Z</time>
      </trkpt>
      <trkpt lat="42.57275" lon="1.96631">
        <ele>2241.85</ele>
        <time>2017-08-13T11:01:11Z</time>
      </trkpt>
      <trkpt lat="42.57272" lon="1.96607">
        <ele>2244.5</ele>
        <time>2017-08-13T11:01:49Z</time>
      </trkpt>
      <trkpt lat="42.5728" lon="1.96585">
        <ele>2248.21</ele>
        <time>2017-08-13T11:02:23Z</time>
      </trkpt>
      <trkpt lat="42.57276" lon="1.9656">
        <ele>2247.58</ele>
        <time>2017-08-13T11:02:49Z</time>
      </trkpt>
      <trkpt lat="42.57264" lon="1.96538">
        <ele>2254.02</ele>
        <time>2017-08-13T11:03:12Z</time>
      </trkpt>
      <trkpt lat="42.57252" lon="1.9652">
        <ele>2258.64</ele>
        <time>2017-08-13T11:03:35Z</time>
      </trkpt>
      <trkpt lat="42.57254" lon="1.96495">
        <ele>2260.58</ele>
        <time>2017-08-13T11:03:58Z</time>
      </trkpt>
      <trkpt lat="42.5725" lon="1.96471">
        <ele>2267.69</ele>
        <time>2017-08-13T11:04:49Z</time>
      </trkpt>
      <trkpt lat="42.57249" lon="1.96447">
        <ele>2270.77</ele>
        <time>2017-08-13T11:06:22Z</time>
      </trkpt>
      <trkpt lat="42.57246" lon="1.96422">
        <ele>2274.38</ele>
        <time>2017-08-13T11:06:50Z</time>
      </trkpt>
      <trkpt lat="42.5724" lon="1.96398">
        <ele>2276.89</ele>
        <time>2017-08-13T11:07:17Z</time>
      </trkpt>
      <trkpt lat="42.57234" lon="1.96374">
        <ele>2279.59</ele>
        <time>2017-08-13T11:07:39Z</time>
      </trkpt>
      <trkpt lat="42.57233" lon="1.96348">
        <ele>2275.58</ele>
        <time>2017-08-13T11:07:56Z</time>
      </trkpt>
      <trkpt lat="42.57231" lon="1.96323">
        <ele>2276.86</ele>
        <time>2017-08-13T11:08:12Z</time>
      </trkpt>
      <trkpt lat="42.57223" lon="1.96301">
        <ele>2273.3</ele>
        <time>2017-08-13T11:08:30Z</time>
      </trkpt>
      <trkpt lat="42.57216" lon="1.96278">
        <ele>2276.27</ele>
        <time>2017-08-13T11:08:47Z</time>
      </trkpt>
      <trkpt lat="42.57219" lon="1.96253">
        <ele>2278.62</ele>
        <time>2017-08-13T11:09:06Z</time>
      </trkpt>
      <trkpt lat="42.57211" lon="1.96231">
        <ele>2281.58</ele>
        <time>2017-08-13T11:09:25Z</time>
      </trkpt>
      <trkpt lat="42.57207" lon="1.96207">
        <ele>2286.78</ele>
        <time>2017-08-13T11:09:56Z</time>
      </trkpt>
      <trkpt lat="42.57206" lon="1.96181">
        <ele>2289.02</ele>
        <time>2017-08-13T11:10:20Z</time>
      </trkpt>
      <trkpt lat="42.57208" lon="1.96155">
        <ele>2294.7</ele>
        <time>2017-08-13T11:10:45Z</time>
      </trkpt>
      <trkpt lat="42.57212" lon="1.96131">
        <ele>2300.29</ele>
        <time>2017-08-13T11:11:15Z</time>
      </trkpt>
      <trkpt lat="42.57215" lon="1.96107">
        <ele>2302.69</ele>
        <time>2017-08-13T11:11:46Z</time>
      </trkpt>
      <trkpt lat="42.57221" lon="1.96083">
        <ele>2308.6</ele>
        <time>2017-08-13T11:12:38Z</time>
      </trkpt>
      <trkpt lat="42.57218" lon="1.96058">
        <ele>2309.69</ele>
        <time>2017-08-13T11:13:02Z</time>
      </trkpt>
      <trkpt lat="42.5722" lon="1.96033">
        <ele>2319.3</ele>
        <time>2017-08-13T11:13:40Z</time>
      </trkpt>
      <trkpt lat="42.57233" lon="1.96016">
        <ele>2319.33</ele>
        <time>2017-08-13T11:14:00Z</time>
      </trkpt>
      <trkpt lat="42.57232" lon="1.95991">
        <ele>2320.8</ele>
        <time>2017-08-13T11:14:16Z</time>
      </trkpt>
      <trkpt lat="42.57241" lon="1.9597">
        <ele>2320.62</ele>
        <time>2017-08-13T11:14:37Z</time>
      </trkpt>
      <trkpt lat="42.5724" lon="1.95945">
        <ele>2322.81</ele>
        <time>2017-08-13T11:14:59Z</time>
      </trkpt>
      <trkpt lat="42.57242" lon="1.9592">
        <ele>2321.8</ele>
        <time>2017-08-13T11:15:26Z</time>
      </trkpt>
      <trkpt lat="42.57248" lon="1.95894">
        <ele>2323.89</ele>
        <time>2017-08-13T11:16:03Z</time>
      </trkpt>
      <trkpt lat="42.5725" lon="1.9587">
        <ele>2327.38</ele>
        <time>2017-08-13T11:16:39Z</time>
      </trkpt>
      <trkpt lat="42.5725" lon="1.95845">
        <ele>2330.56</ele>
        <time>2017-08-13T11:17:00Z</time>
      </trkpt>
      <trkpt lat="42.5725" lon="1.95821">
        <ele>2338.44</ele>
        <time>2017-08-13T11:17:37Z</time>
      </trkpt>
      <trkpt lat="42.57249" lon="1.95796">
        <ele>2340.9</ele>
        <time>2017-08-13T11:18:10Z</time>
      </trkpt>
      <trkpt lat="42.57232" lon="1.95786">
        <ele>2343.87</ele>
        <time>2017-08-13T11:18:40Z</time>
      </trkpt>
      <trkpt lat="42.57245" lon="1.95769">
        <ele>2347.5</ele>
        <time>2017-08-13T11:19:32Z</time>
      </trkpt>
      <trkpt lat="42.57256" lon="1.95748">
        <ele>2348.51</ele>
        <time>2017-08-13T11:19:51Z</time>
      </trkpt>
      <trkpt lat="42.57257" lon="1.95723">
        <ele>2349.29</ele>
        <time>2017-08-13T11:20:06Z</time>
      </trkpt>
      <trkpt lat="42.57269" lon="1.95704">
        <ele>2347.59</ele>
        <time>2017-08-13T11:20:28Z</time>
      </trkpt>
      <trkpt lat="42.57279" lon="1.95683">
        <ele>2344.59</ele>
        <time>2017-08-13T11:20:45Z</time>
      </trkpt>
      <trkpt lat="42.57287" lon="1.9566">
        <ele>2339.6</ele>
        <time>2017-08-13T11:21:01Z</time>
      </trkpt>
      <trkpt lat="42.57291" lon="1.95636">
        <ele>2340.59</ele>
        <time>2017-08-13T11:21:16Z</time>
      </trkpt>
      <trkpt lat="42.57298" lon="1.95612">
        <ele>2338.6</ele>
        <time>2017-08-13T11:21:33Z</time>
      </trkpt>
      <trkpt lat="42.57294" lon="1.95587">
        <ele>2333.9</ele>
        <time>2017-08-13T11:21:53Z</time>
      </trkpt>
      <trkpt lat="42.57293" lon="1.95562">
        <ele>2334.59</ele>
        <time>2017-08-13T11:22:10Z</time>
      </trkpt>
      <trkpt lat="42.57293" lon="1.95536">
        <ele>2334.3</ele>
        <time>2017-08-13T11:22:28Z</time>
      </trkpt>
      <trkpt lat="42.57298" lon="1.95512">
        <ele>2332.69</ele>
        <time>2017-08-13T11:22:46Z</time>
      </trkpt>
      <trkpt lat="42.57308" lon="1.95491">
        <ele>2337.59</ele>
        <time>2017-08-13T11:23:05Z</time>
      </trkpt>
      <trkpt lat="42.57312" lon="1.95467">
        <ele>2334.71</ele>
        <time>2017-08-13T11:23:24Z</time>
      </trkpt>
      <trkpt lat="42.57308" lon="1.95442">
        <ele>2327.9</ele>
        <time>2017-08-13T11:23:43Z</time>
      </trkpt>
      <trkpt lat="42.57306" lon="1.95417">
        <ele>2324.58</ele>
        <time>2017-08-13T11:23:59Z</time>
      </trkpt>
      <trkpt lat="42.57294" lon="1.95397">
        <ele>2324.68</ele>
        <time>2017-08-13T11:24:14Z</time>
      </trkpt>
      <trkpt lat="42.57282" lon="1.95377">
        <ele>2326.39</ele>
        <time>2017-08-13T11:24:33Z</time>
      </trkpt>
      <trkpt lat="42.57285" lon="1.95351">
        <ele>2326.52</ele>
        <time>2017-08-13T11:24:50Z</time>
      </trkpt>
      <trkpt lat="42.57292" lon="1.95327">
        <ele>2324.3</ele>
        <time>2017-08-13T11:25:06Z</time>
      </trkpt>
      <trkpt lat="42.573" lon="1.95303">
        <ele>2322.49</ele>
        <time>2017-08-13T11:25:56Z</time>
      </trkpt>
      <trkpt lat="42.57298" lon="1.95279">
        <ele>2325.53</ele>
        <time>2017-08-13T11:26:12Z</time>
      </trkpt>
      <trkpt lat="42.57307" lon="1.95257">
        <ele>2324.59</ele>
        <time>2017-08-13T11:26:31Z</time>
      </trkpt>
      <trkpt lat="42.57324" lon="1.95247">
        <ele>2326.6</ele>
        <time>2017-08-13T11:27:00Z</time>
      </trkpt>
      <trkpt lat="42.57342" lon="1.95246">
        <ele>2329.61</ele>
        <time>2017-08-13T11:27:14Z</time>
      </trkpt>
      <trkpt lat="42.57359" lon="1.95239">
        <ele>2328.99</ele>
        <time>2017-08-13T11:27:33Z</time>
      </trkpt>
      <trkpt lat="42.57377" lon="1.95232">
        <ele>2329.89</ele>
        <time>2017-08-13T11:27:46Z</time>
      </trkpt>
      <trkpt lat="42.57394" lon="1.95227">
        <ele>2330.59</ele>
        <time>2017-08-13T11:28:05Z</time>
      </trkpt>
      <trkpt lat="42.57412" lon="1.95217">
        <ele>2327.59</ele>
        <time>2017-08-13T11:28:20Z</time>
      </trkpt>
      <trkpt lat="42.5743" lon="1.95209">
        <ele>2329.59</ele>
        <time>2017-08-13T11:28:33Z</time>
      </trkpt>
      <trkpt lat="42.57448" lon="1.95205">
        <ele>2336.27</ele>
        <time>2017-08-13T11:28:58Z</time>
      </trkpt>
      <trkpt lat="42.57465" lon="1.95214">
        <ele>2331.69</ele>
        <time>2017-08-13T11:29:46Z</time>
      </trkpt>
      <trkpt lat="42.57469" lon="1.95239">
        <ele>2331.84</ele>
        <time>2017-08-13T11:30:02Z</time>
      </trkpt>
      <trkpt lat="42.5748" lon="1.9526">
        <ele>2329.59</ele>
        <time>2017-08-13T11:30:18Z</time>
      </trkpt>
      <trkpt lat="42.57492" lon="1.95278">
        <ele>2330.62</ele>
        <time>2017-08-13T11:30:33Z</time>
      </trkpt>
      <trkpt lat="42.57496" lon="1.95303">
        <ele>2329.6</ele>
        <time>2017-08-13T11:30:53Z</time>
      </trkpt>
      <trkpt lat="42.57486" lon="1.95323">
        <ele>2327.65</ele>
        <time>2017-08-13T11:31:14Z</time>
      </trkpt>
      <trkpt lat="42.57486" lon="1.95349">
        <ele>2328.59</ele>
        <time>2017-08-13T11:31:32Z</time>
      </trkpt>
      <trkpt lat="42.57493" lon="1.95372">
        <ele>2332.5</ele>
        <time>2017-08-13T11:31:47Z</time>
      </trkpt>
      <trkpt lat="42.57497" lon="1.95395">
        <ele>2338.5</ele>
        <time>2017-08-13T11:32:17Z</time>
      </trkpt>
      <trkpt lat="42.575" lon="1.9542">
        <ele>2337.61</ele>
        <time>2017-08-13T11:32:36Z</time>
      </trkpt>
      <trkpt lat="42.57513" lon="1.95404">
        <ele>2332.7</ele>
        <time>2017-08-13T11:33:31Z</time>
      </trkpt>
      <trkpt lat="42.57511" lon="1.95376">
        <ele>2335.32</ele>
        <time>2017-08-13T11:33:48Z</time>
      </trkpt>
      <trkpt lat="42.57512" lon="1.95351">
        <ele>2325.3</ele>
        <time>2017-08-13T11:34:14Z</time>
      </trkpt>
      <trkpt lat="42.57519" lon="1.95328">
        <ele>2325.59</ele>
        <time>2017-08-13T11:34:32Z</time>
      </trkpt>
      <trkpt lat="42.57531" lon="1.95309">
        <ele>2333.98</ele>
        <time>2017-08-13T11:34:59Z</time>
      </trkpt>
      <trkpt lat="42.57543" lon="1.95291">
        <ele>2331.46</ele>
        <time>2017-08-13T11:35:23Z</time>
      </trkpt>
      <trkpt lat="42.57547" lon="1.95266">
        <ele>2333.23</ele>
        <time>2017-08-13T11:35:43Z</time>
      </trkpt>
      <trkpt lat="42.57549" lon="1.9524">
        <ele>2337.6</ele>
        <time>2017-08-13T11:36:11Z</time>
      </trkpt>
      <trkpt lat="42.57545" lon="1.95216">
        <ele>2332.65</ele>
        <time>2017-08-13T11:36:40Z</time>
      </trkpt>
      <trkpt lat="42.57528" lon="1.95208">
        <ele>2330.6</ele>
        <time>2017-08-13T11:37:00Z</time>
      </trkpt>
      <trkpt lat="42.57509" lon="1.95208">
        <ele>2331.59</ele>
        <time>2017-08-13T11:37:19Z</time>
      </trkpt>
      <trkpt lat="42.5749" lon="1.95204">
        <ele>2325.6</ele>
        <time>2017-08-13T11:37:35Z</time>
      </trkpt>
      <trkpt lat="42.57473" lon="1.95198">
        <ele>2322.23</ele>
        <time>2017-08-13T11:37:50Z</time>
      </trkpt>
      <trkpt lat="42.57454" lon="1.95201">
        <ele>2323.36</ele>
        <time>2017-08-13T11:38:38Z</time>
      </trkpt>
      <trkpt lat="42.57436" lon="1.95206">
        <ele>2320.51</ele>
        <time>2017-08-13T11:38:59Z</time>
      </trkpt>
      <trkpt lat="42.57419" lon="1.95214">
        <ele>2319.6</ele>
        <time>2017-08-13T11:39:17Z</time>
      </trkpt>
      <trkpt lat="42.57402" lon="1.95225">
        <ele>2319.32</ele>
        <time>2017-08-13T11:39:35Z</time>
      </trkpt>
      <trkpt lat="42.57384" lon="1.95231">
        <ele>2318.58</ele>
        <time>2017-08-13T11:39:51Z</time>
      </trkpt>
      <trkpt lat="42.57367" lon="1.9524">
        <ele>2318.66</ele>
        <time>2017-08-13T11:40:05Z</time>
      </trkpt>
      <trkpt lat="42.57349" lon="1.95249">
        <ele>2320.66</ele>
        <time>2017-08-13T11:40:21Z</time>
      </trkpt>
      <trkpt lat="42.5733" lon="1.95249">
        <ele>2314.63</ele>
        <time>2017-08-13T11:40:40Z</time>
      </trkpt>
      <trkpt lat="42.57312" lon="1.95248">
        <ele>2317.9</ele>
        <time>2017-08-13T11:40:57Z</time>
      </trkpt>
      <trkpt lat="42.57302" lon="1.95247">
        <ele>2330.59</ele>
        <time>2017-08-13T13:15:08Z</time>
      </trkpt>
      <trkpt lat="42.57292" lon="1.95227">
        <ele>2332.81</ele>
        <time>2017-08-13T13:16:07Z</time>
      </trkpt>
      <trkpt lat="42.57277" lon="1.95212">
        <ele>2335.47</ele>
        <time>2017-08-13T13:17:04Z</time>
      </trkpt>
      <trkpt lat="42.57267" lon="1.95191">
        <ele>2339.83</ele>
        <time>2017-08-13T13:17:31Z</time>
      </trkpt>
      <trkpt lat="42.57258" lon="1.95168">
        <ele>2342.3</ele>
        <time>2017-08-13T13:17:51Z</time>
      </trkpt>
      <trkpt lat="42.57256" lon="1.95143">
        <ele>2342.6</ele>
        <time>2017-08-13T13:18:28Z</time>
      </trkpt>
      <trkpt lat="42.57246" lon="1.95123">
        <ele>2351.68</ele>
        <time>2017-08-13T13:18:56Z</time>
      </trkpt>
      <trkpt lat="42.57234" lon="1.95103">
        <ele>2357.24</ele>
        <time>2017-08-13T13:19:36Z</time>
      </trkpt>
      <trkpt lat="42.57219" lon="1.95088">
        <ele>2361.65</ele>
        <time>2017-08-13T13:20:10Z</time>
      </trkpt>
      <trkpt lat="42.57206" lon="1.95069">
        <ele>2365.89</ele>
        <time>2017-08-13T13:20:47Z</time>
      </trkpt>
      <trkpt lat="42.5719" lon="1.95057">
        <ele>2368.88</ele>
        <time>2017-08-13T13:21:14Z</time>
      </trkpt>
      <trkpt lat="42.57172" lon="1.95053">
        <ele>2370.6</ele>
        <time>2017-08-13T13:21:41Z</time>
      </trkpt>
      <trkpt lat="42.57176" lon="1.95029">
        <ele>2374.35</ele>
        <time>2017-08-13T13:23:04Z</time>
      </trkpt>
      <trkpt lat="42.57181" lon="1.95006">
        <ele>2377.77</ele>
        <time>2017-08-13T13:23:22Z</time>
      </trkpt>
      <trkpt lat="42.57179" lon="1.94979">
        <ele>2382.25</ele>
        <time>2017-08-13T13:23:52Z</time>
      </trkpt>
      <trkpt lat="42.57167" lon="1.9496">
        <ele>2386.5</ele>
        <time>2017-08-13T13:24:42Z</time>
      </trkpt>
      <trkpt lat="42.57166" lon="1.94935">
        <ele>2392.58</ele>
        <time>2017-08-13T13:25:01Z</time>
      </trkpt>
      <trkpt lat="42.57166" lon="1.94909">
        <ele>2399.56</ele>
        <time>2017-08-13T13:25:20Z</time>
      </trkpt>
      <trkpt lat="42.57152" lon="1.94894">
        <ele>2404.59</ele>
        <time>2017-08-13T13:26:30Z</time>
      </trkpt>
      <trkpt lat="42.57137" lon="1.94879">
        <ele>2407.77</ele>
        <time>2017-08-13T13:27:11Z</time>
      </trkpt>
      <trkpt lat="42.57126" lon="1.94857">
        <ele>2405.31</ele>
        <time>2017-08-13T13:27:36Z</time>
      </trkpt>
      <trkpt lat="42.57125" lon="1.94831">
        <ele>2405.27</ele>
        <time>2017-08-13T13:27:55Z</time>
      </trkpt>
      <trkpt lat="42.57128" lon="1.94806">
        <ele>2405.23</ele>
        <time>2017-08-13T13:28:16Z</time>
      </trkpt>
      <trkpt lat="42.57126" lon="1.94781">
        <ele>2413.58</ele>
        <time>2017-08-13T13:28:47Z</time>
      </trkpt>
      <trkpt lat="42.57119" lon="1.94757">
        <ele>2415.47</ele>
        <time>2017-08-13T13:29:14Z</time>
      </trkpt>
      <trkpt lat="42.57107" lon="1.94737">
        <ele>2419.76</ele>
        <time>2017-08-13T13:29:38Z</time>
      </trkpt>
      <trkpt lat="42.57097" lon="1.94716">
        <ele>2417.29</ele>
        <time>2017-08-13T13:30:00Z</time>
      </trkpt>
      <trkpt lat="42.57097" lon="1.94691">
        <ele>2421.29</ele>
        <time>2017-08-13T13:30:34Z</time>
      </trkpt>
      <trkpt lat="42.57101" lon="1.94666">
        <ele>2423.71</ele>
        <time>2017-08-13T13:30:55Z</time>
      </trkpt>
      <trkpt lat="42.57098" lon="1.94641">
        <ele>2430.36</ele>
        <time>2017-08-13T13:31:14Z</time>
      </trkpt>
      <trkpt lat="42.57094" lon="1.94616">
        <ele>2432.59</ele>
        <time>2017-08-13T13:31:43Z</time>
      </trkpt>
      <trkpt lat="42.57081" lon="1.94598">
        <ele>2434.51</ele>
        <time>2017-08-13T13:32:04Z</time>
      </trkpt>
      <trkpt lat="42.57077" lon="1.94573">
        <ele>2436.21</ele>
        <time>2017-08-13T13:32:27Z</time>
      </trkpt>
      <trkpt lat="42.57072" lon="1.94549">
        <ele>2437.2</ele>
        <time>2017-08-13T13:32:50Z</time>
      </trkpt>
      <trkpt lat="42.57057" lon="1.94535">
        <ele>2445.28</ele>
        <time>2017-08-13T13:33:36Z</time>
      </trkpt>
      <trkpt lat="42.57047" lon="1.94515">
        <ele>2451.23</ele>
        <time>2017-08-13T13:34:12Z</time>
      </trkpt>
      <trkpt lat="42.5704" lon="1.94492">
        <ele>2454.77</ele>
        <time>2017-08-13T13:34:46Z</time>
      </trkpt>
      <trkpt lat="42.57032" lon="1.9447">
        <ele>2462.59</ele>
        <time>2017-08-13T13:35:39Z</time>
      </trkpt>
      <trkpt lat="42.5702" lon="1.9445">
        <ele>2471.59</ele>
        <time>2017-08-13T13:37:00Z</time>
      </trkpt>
      <trkpt lat="42.57014" lon="1.94426">
        <ele>2480.26</ele>
        <time>2017-08-13T13:37:46Z</time>
      </trkpt>
      <trkpt lat="42.57005" lon="1.94404">
        <ele>2485.53</ele>
        <time>2017-08-13T13:38:25Z</time>
      </trkpt>
      <trkpt lat="42.57004" lon="1.94379">
        <ele>2489.61</ele>
        <time>2017-08-13T13:38:57Z</time>
      </trkpt>
      <trkpt lat="42.57006" lon="1.94355">
        <ele>2494.5</ele>
        <time>2017-08-13T13:39:35Z</time>
      </trkpt>
      <trkpt lat="42.57002" lon="1.9433">
        <ele>2502.5</ele>
        <time>2017-08-13T13:40:35Z</time>
      </trkpt>
      <trkpt lat="42.5701" lon="1.94307">
        <ele>2502.91</ele>
        <time>2017-08-13T13:41:16Z</time>
      </trkpt>
      <trkpt lat="42.57011" lon="1.94282">
        <ele>2504.5</ele>
        <time>2017-08-13T13:42:14Z</time>
      </trkpt>
      <trkpt lat="42.57021" lon="1.94261">
        <ele>2514.27</ele>
        <time>2017-08-13T13:43:33Z</time>
      </trkpt>
      <trkpt lat="42.57035" lon="1.94244">
        <ele>2528.57</ele>
        <time>2017-08-13T13:44:25Z</time>
      </trkpt>
      <trkpt lat="42.57038" lon="1.94219">
        <ele>2539.21</ele>
        <time>2017-08-13T13:46:17Z</time>
      </trkpt>
      <trkpt lat="42.57036" lon="1.94194">
        <ele>2548.5</ele>
        <time>2017-08-13T13:46:53Z</time>
      </trkpt>
      <trkpt lat="42.57043" lon="1.94171">
        <ele>2548.6</ele>
        <time>2017-08-13T13:47:23Z</time>
      </trkpt>
      <trkpt lat="42.57046" lon="1.94146">
        <ele>2556.5</ele>
        <time>2017-08-13T13:48:41Z</time>
      </trkpt>
      <trkpt lat="42.57048" lon="1.94121">
        <ele>2563.59</ele>
        <time>2017-08-13T13:49:38Z</time>
      </trkpt>
      <trkpt lat="42.57053" lon="1.94097">
        <ele>2568.89</ele>
        <time>2017-08-13T13:50:26Z</time>
      </trkpt>
      <trkpt lat="42.57052" lon="1.94072">
        <ele>2575.59</ele>
        <time>2017-08-13T13:51:25Z</time>
      </trkpt>
      <trkpt lat="42.5705" lon="1.94048">
        <ele>2581.69</ele>
        <time>2017-08-13T13:58:23Z</time>
      </trkpt>
      <trkpt lat="42.57044" lon="1.94024">
        <ele>2587.59</ele>
        <time>2017-08-13T13:59:17Z</time>
      </trkpt>
      <trkpt lat="42.57038" lon="1.94001">
        <ele>2592.56</ele>
        <time>2017-08-13T13:59:53Z</time>
      </trkpt>
      <trkpt lat="42.57023" lon="1.93987">
        <ele>2599.02</ele>
        <time>2017-08-13T14:00:58Z</time>
      </trkpt>
      <trkpt lat="42.57009" lon="1.93971">
        <ele>2608.6</ele>
        <time>2017-08-13T14:01:40Z</time>
      </trkpt>
      <trkpt lat="42.57006" lon="1.93947">
        <ele>2617.68</ele>
        <time>2017-08-13T14:02:30Z</time>
      </trkpt>
      <trkpt lat="42.57" lon="1.93924">
        <ele>2629.29</ele>
        <time>2017-08-13T14:03:50Z</time>
      </trkpt>
      <trkpt lat="42.56997" lon="1.939">
        <ele>2636.31</ele>
        <time>2017-08-13T14:04:48Z</time>
      </trkpt>
      <trkpt lat="42.5699" lon="1.93877">
        <ele>2647.99</ele>
        <time>2017-08-13T14:05:37Z</time>
      </trkpt>
      <trkpt lat="42.56994" lon="1.93853">
        <ele>2652.5</ele>
        <time>2017-08-13T14:06:31Z</time>
      </trkpt>
      <trkpt lat="42.56987" lon="1.9383">
        <ele>2661.17</ele>
        <time>2017-08-13T14:08:22Z</time>
      </trkpt>
      <trkpt lat="42.56982" lon="1.93805">
        <ele>2677.47</ele>
        <time>2017-08-13T14:09:17Z</time>
      </trkpt>
      <trkpt lat="42.56976" lon="1.93782">
        <ele>2677.38</ele>
        <time>2017-08-13T14:09:54Z</time>
      </trkpt>
      <trkpt lat="42.56971" lon="1.93757">
        <ele>2685.59</ele>
        <time>2017-08-13T14:10:42Z</time>
      </trkpt>
      <trkpt lat="42.56968" lon="1.93733">
        <ele>2688.29</ele>
        <time>2017-08-13T14:11:37Z</time>
      </trkpt>
      <trkpt lat="42.56962" lon="1.93709">
        <ele>2695.59</ele>
        <time>2017-08-13T14:12:48Z</time>
      </trkpt>
      <trkpt lat="42.56963" lon="1.93685">
        <ele>2704.5</ele>
        <time>2017-08-13T14:13:43Z</time>
      </trkpt>
      <trkpt lat="42.5696" lon="1.9366">
        <ele>2718.56</ele>
        <time>2017-08-13T14:14:56Z</time>
      </trkpt>
      <trkpt lat="42.56959" lon="1.93635">
        <ele>2725.59</ele>
        <time>2017-08-13T14:15:56Z</time>
      </trkpt>
      <trkpt lat="42.56969" lon="1.93614">
        <ele>2739.66</ele>
        <time>2017-08-13T14:19:09Z</time>
      </trkpt>
      <trkpt lat="42.56975" lon="1.9359">
        <ele>2742.87</ele>
        <time>2017-08-13T14:22:40Z</time>
      </trkpt>
      <trkpt lat="42.56985" lon="1.9357">
        <ele>2752.27</ele>
        <time>2017-08-13T14:23:33Z</time>
      </trkpt>
      <trkpt lat="42.5697" lon="1.93554">
        <ele>2762.29</ele>
        <time>2017-08-13T14:25:19Z</time>
      </trkpt>
      <trkpt lat="42.56971" lon="1.93529">
        <ele>2767.67</ele>
        <time>2017-08-13T14:25:53Z</time>
      </trkpt>
      <trkpt lat="42.56964" lon="1.93506">
        <ele>2774.29</ele>
        <time>2017-08-13T14:26:35Z</time>
      </trkpt>
      <trkpt lat="42.5696" lon="1.93482">
        <ele>2789.5</ele>
        <time>2017-08-13T14:28:08Z</time>
      </trkpt>
      <trkpt lat="42.56962" lon="1.93457">
        <ele>2792.62</ele>
        <time>2017-08-13T14:29:16Z</time>
      </trkpt>
      <trkpt lat="42.56969" lon="1.93434">
        <ele>2802.48</ele>
        <time>2017-08-13T14:30:30Z</time>
      </trkpt>
      <trkpt lat="42.56983" lon="1.93417">
        <ele>2803.6</ele>
        <time>2017-08-13T14:31:09Z</time>
      </trkpt>
      <trkpt lat="42.56996" lon="1.934">
        <ele>2803.86</ele>
        <time>2017-08-13T14:31:55Z</time>
      </trkpt>
      <trkpt lat="42.57013" lon="1.93394">
        <ele>2811.71</ele>
        <time>2017-08-13T14:32:24Z</time>
      </trkpt>
      <trkpt lat="42.57024" lon="1.93374">
        <ele>2818.99</ele>
        <time>2017-08-13T14:34:02Z</time>
      </trkpt>
      <trkpt lat="42.57035" lon="1.93355">
        <ele>2820.29</ele>
        <time>2017-08-13T14:35:37Z</time>
      </trkpt>
      <trkpt lat="42.57027" lon="1.93333">
        <ele>2841.23</ele>
        <time>2017-08-13T14:38:27Z</time>
      </trkpt>
      <trkpt lat="42.57025" lon="1.93308">
        <ele>2848.38</ele>
        <time>2017-08-13T14:40:33Z</time>
      </trkpt>
      <trkpt lat="42.57022" lon="1.93284">
        <ele>2865.29</ele>
        <time>2017-08-13T14:42:06Z</time>
      </trkpt>
      <trkpt lat="42.57029" lon="1.93261">
        <ele>2875.58</ele>
        <time>2017-08-13T14:43:34Z</time>
      </trkpt>
      <trkpt lat="42.57037" lon="1.93238">
        <ele>2881.92</ele>
        <time>2017-08-13T14:44:53Z</time>
      </trkpt>
      <trkpt lat="42.57039" lon="1.93214">
        <ele>2900.59</ele>
        <time>2017-08-13T14:46:59Z</time>
      </trkpt>
      <trkpt lat="42.57035" lon="1.9319">
        <ele>2907.9</ele>
        <time>2017-08-13T14:48:35Z</time>
      </trkpt>
      <trkpt lat="42.57017" lon="1.93192">
        <ele>2917.83</ele>
        <time>2017-08-13T14:52:32Z</time>
      </trkpt>
      <trkpt lat="42.57005" lon="1.9321">
        <ele>2923.65</ele>
        <time>2017-08-13T14:52:59Z</time>
      </trkpt>
      <trkpt lat="42.56986" lon="1.93214">
        <ele>2917.61</ele>
        <time>2017-08-13T14:53:34Z</time>
      </trkpt>
      <trkpt lat="42.57002" lon="1.93202">
        <ele>2909.51</ele>
        <time>2017-08-13T15:06:51Z</time>
      </trkpt>
      <trkpt lat="42.57018" lon="1.9319">
        <ele>2905.99</ele>
        <time>2017-08-13T15:07:45Z</time>
      </trkpt>
      <trkpt lat="42.57036" lon="1.93195">
        <ele>2903.89</ele>
        <time>2017-08-13T15:08:47Z</time>
      </trkpt>
      <trkpt lat="42.57053" lon="1.93187">
        <ele>2911.48</ele>
        <time>2017-08-13T15:09:55Z</time>
      </trkpt>
      <trkpt lat="42.57068" lon="1.93171">
        <ele>2915.6</ele>
        <time>2017-08-13T15:10:30Z</time>
      </trkpt>
      <trkpt lat="42.57086" lon="1.93165">
        <ele>2910.47</ele>
        <time>2017-08-13T15:11:13Z</time>
      </trkpt>
      <trkpt lat="42.5707" lon="1.93177">
        <ele>2913.71</ele>
        <time>2017-08-13T15:15:21Z</time>
      </trkpt>
      <trkpt lat="42.57071" lon="1.93203">
        <ele>2912.3</ele>
        <time>2017-08-13T15:15:59Z</time>
      </trkpt>
      <trkpt lat="42.57068" lon="1.93177">
        <ele>2909.27</ele>
        <time>2017-08-13T15:18:36Z</time>
      </trkpt>
      <trkpt lat="42.57053" lon="1.93189">
        <ele>2908.3</ele>
        <time>2017-08-13T15:19:20Z</time>
      </trkpt>
      <trkpt lat="42.57049" lon="1.93165">
        <ele>2893.92</ele>
        <time>2017-08-13T15:20:28Z</time>
      </trkpt>
      <trkpt lat="42.57055" lon="1.9314">
        <ele>2887.99</ele>
        <time>2017-08-13T15:20:44Z</time>
      </trkpt>
      <trkpt lat="42.57065" lon="1.93119">
        <ele>2880.96</ele>
        <time>2017-08-13T15:23:34Z</time>
      </trkpt>
      <trkpt lat="42.57051" lon="1.93103">
        <ele>2871.41</ele>
        <time>2017-08-13T15:24:10Z</time>
      </trkpt>
      <trkpt lat="42.57039" lon="1.93084">
        <ele>2861.66</ele>
        <time>2017-08-13T15:24:33Z</time>
      </trkpt>
      <trkpt lat="42.57054" lon="1.93069">
        <ele>2849.6</ele>
        <time>2017-08-13T15:25:02Z</time>
      </trkpt>
      <trkpt lat="42.57064" lon="1.93048">
        <ele>2843.69</ele>
        <time>2017-08-13T15:25:34Z</time>
      </trkpt>
      <trkpt lat="42.57071" lon="1.93024">
        <ele>2837.31</ele>
        <time>2017-08-13T15:26:15Z</time>
      </trkpt>
      <trkpt lat="42.57084" lon="1.93006">
        <ele>2819.62</ele>
        <time>2017-08-13T15:27:02Z</time>
      </trkpt>
      <trkpt lat="42.57094" lon="1.92985">
        <ele>2805.6</ele>
        <time>2017-08-13T15:29:22Z</time>
      </trkpt>
      <trkpt lat="42.57112" lon="1.92986">
        <ele>2794.6</ele>
        <time>2017-08-13T15:30:03Z</time>
      </trkpt>
      <trkpt lat="42.57124" lon="1.92967">
        <ele>2774.59</ele>
        <time>2017-08-13T15:31:09Z</time>
      </trkpt>
      <trkpt lat="42.57124" lon="1.92941">
        <ele>2766.6</ele>
        <time>2017-08-13T15:32:01Z</time>
      </trkpt>
      <trkpt lat="42.57138" lon="1.92926">
        <ele>2749.59</ele>
        <time>2017-08-13T15:33:20Z</time>
      </trkpt>
      <trkpt lat="42.57141" lon="1.92902">
        <ele>2738.89</ele>
        <time>2017-08-13T15:37:10Z</time>
      </trkpt>
      <trkpt lat="42.57148" lon="1.92879">
        <ele>2727.59</ele>
        <time>2017-08-13T15:37:58Z</time>
      </trkpt>
      <trkpt lat="42.5716" lon="1.9286">
        <ele>2706.92</ele>
        <time>2017-08-13T15:39:09Z</time>
      </trkpt>
      <trkpt lat="42.57171" lon="1.92841">
        <ele>2692.63</ele>
        <time>2017-08-13T15:39:59Z</time>
      </trkpt>
      <trkpt lat="42.57167" lon="1.92817">
        <ele>2678.98</ele>
        <time>2017-08-13T15:41:21Z</time>
      </trkpt>
      <trkpt lat="42.57164" lon="1.92793">
        <ele>2672.15</ele>
        <time>2017-08-13T15:41:43Z</time>
      </trkpt>
      <trkpt lat="42.57173" lon="1.92771">
        <ele>2647.81</ele>
        <time>2017-08-13T15:42:49Z</time>
      </trkpt>
      <trkpt lat="42.57171" lon="1.92747">
        <ele>2639.21</ele>
        <time>2017-08-13T15:43:37Z</time>
      </trkpt>
      <trkpt lat="42.57178" lon="1.92724">
        <ele>2629.5</ele>
        <time>2017-08-13T15:44:44Z</time>
      </trkpt>
      <trkpt lat="42.57176" lon="1.927">
        <ele>2613.91</ele>
        <time>2017-08-13T15:45:33Z</time>
      </trkpt>
      <trkpt lat="42.57186" lon="1.92679">
        <ele>2605.72</ele>
        <time>2017-08-13T15:46:31Z</time>
      </trkpt>
      <trkpt lat="42.57189" lon="1.92654">
        <ele>2591.93</ele>
        <time>2017-08-13T15:47:03Z</time>
      </trkpt>
      <trkpt lat="42.57183" lon="1.92631">
        <ele>2595.2</ele>
        <time>2017-08-13T15:47:26Z</time>
      </trkpt>
      <trkpt lat="42.57193" lon="1.9261">
        <ele>2575.87</ele>
        <time>2017-08-13T15:49:19Z</time>
      </trkpt>
      <trkpt lat="42.57187" lon="1.92587">
        <ele>2563</ele>
        <time>2017-08-13T15:50:42Z</time>
      </trkpt>
      <trkpt lat="42.5718" lon="1.92564">
        <ele>2553.03</ele>
        <time>2017-08-13T15:51:08Z</time>
      </trkpt>
      <trkpt lat="42.57176" lon="1.9254">
        <ele>2546.6</ele>
        <time>2017-08-13T15:51:58Z</time>
      </trkpt>
      <trkpt lat="42.57172" lon="1.92515">
        <ele>2537.86</ele>
        <time>2017-08-13T15:52:21Z</time>
      </trkpt>
      <trkpt lat="42.57169" lon="1.9249">
        <ele>2526.65</ele>
        <time>2017-08-13T15:52:59Z</time>
      </trkpt>
      <trkpt lat="42.57165" lon="1.92466">
        <ele>2528.52</ele>
        <time>2017-08-13T15:53:18Z</time>
      </trkpt>
      <trkpt lat="42.57166" lon="1.9244">
        <ele>2530.57</ele>
        <time>2017-08-13T15:53:37Z</time>
      </trkpt>
      <trkpt lat="42.57163" lon="1.92414">
        <ele>2530.36</ele>
        <time>2017-08-13T15:54:03Z</time>
      </trkpt>
      <trkpt lat="42.57163" lon="1.9239">
        <ele>2522.5</ele>
        <time>2017-08-13T15:54:41Z</time>
      </trkpt>
      <trkpt lat="42.57152" lon="1.92369">
        <ele>2523.24</ele>
        <time>2017-08-13T15:54:58Z</time>
      </trkpt>
      <trkpt lat="42.57153" lon="1.92344">
        <ele>2515.52</ele>
        <time>2017-08-13T15:56:24Z</time>
      </trkpt>
      <trkpt lat="42.57155" lon="1.92319">
        <ele>2513.82</ele>
        <time>2017-08-13T15:56:48Z</time>
      </trkpt>
      <trkpt lat="42.57168" lon="1.92302">
        <ele>2501.09</ele>
        <time>2017-08-13T15:57:12Z</time>
      </trkpt>
      <trkpt lat="42.57176" lon="1.9228">
        <ele>2508.29</ele>
        <time>2017-08-13T15:57:47Z</time>
      </trkpt>
      <trkpt lat="42.57165" lon="1.9226">
        <ele>2496.25</ele>
        <time>2017-08-13T15:59:24Z</time>
      </trkpt>
      <trkpt lat="42.57158" lon="1.92236">
        <ele>2498.33</ele>
        <time>2017-08-13T16:00:15Z</time>
      </trkpt>
      <trkpt lat="42.57167" lon="1.92213">
        <ele>2482.53</ele>
        <time>2017-08-13T16:00:39Z</time>
      </trkpt>
      <trkpt lat="42.57166" lon="1.92188">
        <ele>2482.66</ele>
        <time>2017-08-13T16:02:05Z</time>
      </trkpt>
      <trkpt lat="42.57175" lon="1.92164">
        <ele>2472.81</ele>
        <time>2017-08-13T16:02:27Z</time>
      </trkpt>
      <trkpt lat="42.57184" lon="1.92143">
        <ele>2468.59</ele>
        <time>2017-08-13T16:02:49Z</time>
      </trkpt>
      <trkpt lat="42.57188" lon="1.92118">
        <ele>2469.6</ele>
        <time>2017-08-13T16:03:04Z</time>
      </trkpt>
      <trkpt lat="42.57188" lon="1.92093">
        <ele>2469.3</ele>
        <time>2017-08-13T16:03:18Z</time>
      </trkpt>
      <trkpt lat="42.57197" lon="1.92071">
        <ele>2465.52</ele>
        <time>2017-08-13T16:04:41Z</time>
      </trkpt>
      <trkpt lat="42.57207" lon="1.9205">
        <ele>2463.04</ele>
        <time>2017-08-13T16:04:59Z</time>
      </trkpt>
      <trkpt lat="42.57222" lon="1.92036">
        <ele>2464.33</ele>
        <time>2017-08-13T16:05:17Z</time>
      </trkpt>
      <trkpt lat="42.57224" lon="1.92011">
        <ele>2466.12</ele>
        <time>2017-08-13T16:05:34Z</time>
      </trkpt>
      <trkpt lat="42.57226" lon="1.91986">
        <ele>2471.27</ele>
        <time>2017-08-13T16:05:49Z</time>
      </trkpt>
      <trkpt lat="42.57224" lon="1.91961">
        <ele>2471.96</ele>
        <time>2017-08-13T16:06:05Z</time>
      </trkpt>
      <trkpt lat="42.57239" lon="1.91948">
        <ele>2466.6</ele>
        <time>2017-08-13T16:06:23Z</time>
      </trkpt>
      <trkpt lat="42.57247" lon="1.91926">
        <ele>2464.39</ele>
        <time>2017-08-13T16:06:37Z</time>
      </trkpt>
      <trkpt lat="42.57256" lon="1.91903">
        <ele>2465.21</ele>
        <time>2017-08-13T16:06:51Z</time>
      </trkpt>
      <trkpt lat="42.57265" lon="1.9188">
        <ele>2465.81</ele>
        <time>2017-08-13T16:07:06Z</time>
      </trkpt>
      <trkpt lat="42.5728" lon="1.91866">
        <ele>2458.66</ele>
        <time>2017-08-13T16:07:28Z</time>
      </trkpt>
      <trkpt lat="42.57294" lon="1.91848">
        <ele>2458.58</ele>
        <time>2017-08-13T16:07:45Z</time>
      </trkpt>
      <trkpt lat="42.57301" lon="1.91826">
        <ele>2458.3</ele>
        <time>2017-08-13T16:08:00Z</time>
      </trkpt>
      <trkpt lat="42.5731" lon="1.91804">
        <ele>2459.89</ele>
        <time>2017-08-13T16:08:16Z</time>
      </trkpt>
      <trkpt lat="42.57314" lon="1.91778">
        <ele>2462.99</ele>
        <time>2017-08-13T16:08:29Z</time>
      </trkpt>
      <trkpt lat="42.57325" lon="1.91758">
        <ele>2467.32</ele>
        <time>2017-08-13T16:08:46Z</time>
      </trkpt>
      <trkpt lat="42.57338" lon="1.91739">
        <ele>2464.93</ele>
        <time>2017-08-13T16:09:02Z</time>
      </trkpt>
      <trkpt lat="42.57345" lon="1.91716">
        <ele>2458.4</ele>
        <time>2017-08-13T16:09:15Z</time>
      </trkpt>
      <trkpt lat="42.57361" lon="1.91703">
        <ele>2459.06</ele>
        <time>2017-08-13T16:10:03Z</time>
      </trkpt>
      <trkpt lat="42.57367" lon="1.91675">
        <ele>2451.3</ele>
        <time>2017-08-13T16:10:22Z</time>
      </trkpt>
      <trkpt lat="42.57378" lon="1.91654">
        <ele>2442.41</ele>
        <time>2017-08-13T16:10:44Z</time>
      </trkpt>
      <trkpt lat="42.57394" lon="1.91643">
        <ele>2438.33</ele>
        <time>2017-08-13T16:11:12Z</time>
      </trkpt>
      <trkpt lat="42.57406" lon="1.91625">
        <ele>2428.74</ele>
        <time>2017-08-13T16:11:34Z</time>
      </trkpt>
      <trkpt lat="42.5742" lon="1.91606">
        <ele>2418.03</ele>
        <time>2017-08-13T16:12:23Z</time>
      </trkpt>
      <trkpt lat="42.5742" lon="1.91581">
        <ele>2403.71</ele>
        <time>2017-08-13T16:13:07Z</time>
      </trkpt>
      <trkpt lat="42.57419" lon="1.91554">
        <ele>2391.78</ele>
        <time>2017-08-13T16:13:46Z</time>
      </trkpt>
      <trkpt lat="42.57426" lon="1.91531">
        <ele>2383.12</ele>
        <time>2017-08-13T16:14:08Z</time>
      </trkpt>
      <trkpt lat="42.57438" lon="1.91513">
        <ele>2387.48</ele>
        <time>2017-08-13T16:14:26Z</time>
      </trkpt>
      <trkpt lat="42.57447" lon="1.9149">
        <ele>2386.7</ele>
        <time>2017-08-13T16:14:40Z</time>
      </trkpt>
      <trkpt lat="42.57462" lon="1.91475">
        <ele>2384.53</ele>
        <time>2017-08-13T16:14:59Z</time>
      </trkpt>
      <trkpt lat="42.5748" lon="1.91469">
        <ele>2375.31</ele>
        <time>2017-08-13T16:15:15Z</time>
      </trkpt>
      <trkpt lat="42.57496" lon="1.91456">
        <ele>2376.11</ele>
        <time>2017-08-13T16:15:29Z</time>
      </trkpt>
      <trkpt lat="42.57515" lon="1.91447">
        <ele>2373.59</ele>
        <time>2017-08-13T16:15:44Z</time>
      </trkpt>
      <trkpt lat="42.57524" lon="1.91424">
        <ele>2376.29</ele>
        <time>2017-08-13T16:16:00Z</time>
      </trkpt>
      <trkpt lat="42.57531" lon="1.91402">
        <ele>2381.24</ele>
        <time>2017-08-13T16:16:17Z</time>
      </trkpt>
      <trkpt lat="42.57537" lon="1.91378">
        <ele>2379.92</ele>
        <time>2017-08-13T16:16:39Z</time>
      </trkpt>
      <trkpt lat="42.57541" lon="1.91354">
        <ele>2381.94</ele>
        <time>2017-08-13T16:16:54Z</time>
      </trkpt>
      <trkpt lat="42.57541" lon="1.91329">
        <ele>2376.7</ele>
        <time>2017-08-13T16:17:16Z</time>
      </trkpt>
      <trkpt lat="42.57553" lon="1.91309">
        <ele>2380.51</ele>
        <time>2017-08-13T16:17:52Z</time>
      </trkpt>
      <trkpt lat="42.57559" lon="1.91285">
        <ele>2378.88</ele>
        <time>2017-08-13T16:18:08Z</time>
      </trkpt>
      <trkpt lat="42.57574" lon="1.91271">
        <ele>2371.56</ele>
        <time>2017-08-13T16:18:32Z</time>
      </trkpt>
      <trkpt lat="42.57584" lon="1.91251">
        <ele>2363.81</ele>
        <time>2017-08-13T16:18:58Z</time>
      </trkpt>
      <trkpt lat="42.57588" lon="1.91226">
        <ele>2366.29</ele>
        <time>2017-08-13T16:19:17Z</time>
      </trkpt>
      <trkpt lat="42.57598" lon="1.91204">
        <ele>2356.59</ele>
        <time>2017-08-13T16:20:02Z</time>
      </trkpt>
      <trkpt lat="42.57594" lon="1.9118">
        <ele>2344.39</ele>
        <time>2017-08-13T16:20:31Z</time>
      </trkpt>
      <trkpt lat="42.57592" lon="1.91154">
        <ele>2345.29</ele>
        <time>2017-08-13T16:20:50Z</time>
      </trkpt>
      <trkpt lat="42.57597" lon="1.9113">
        <ele>2344.52</ele>
        <time>2017-08-13T16:21:19Z</time>
      </trkpt>
      <trkpt lat="42.57604" lon="1.91107">
        <ele>2343.59</ele>
        <time>2017-08-13T16:21:35Z</time>
      </trkpt>
      <trkpt lat="42.57615" lon="1.91086">
        <ele>2337.65</ele>
        <time>2017-08-13T16:22:09Z</time>
      </trkpt>
      <trkpt lat="42.57627" lon="1.91067">
        <ele>2336.01</ele>
        <time>2017-08-13T16:22:28Z</time>
      </trkpt>
      <trkpt lat="42.57627" lon="1.91042">
        <ele>2331.41</ele>
        <time>2017-08-13T16:22:49Z</time>
      </trkpt>
      <trkpt lat="42.5763" lon="1.91017">
        <ele>2329.67</ele>
        <time>2017-08-13T16:23:10Z</time>
      </trkpt>
      <trkpt lat="42.57629" lon="1.90993">
        <ele>2322.74</ele>
        <time>2017-08-13T16:23:36Z</time>
      </trkpt>
      <trkpt lat="42.5763" lon="1.90967">
        <ele>2316.27</ele>
        <time>2017-08-13T16:23:57Z</time>
      </trkpt>
      <trkpt lat="42.57643" lon="1.90949">
        <ele>2315.37</ele>
        <time>2017-08-13T16:24:20Z</time>
      </trkpt>
      <trkpt lat="42.57659" lon="1.90937">
        <ele>2310</ele>
        <time>2017-08-13T16:25:14Z</time>
      </trkpt>
      <trkpt lat="42.57671" lon="1.90919">
        <ele>2306.96</ele>
        <time>2017-08-13T16:25:39Z</time>
      </trkpt>
      <trkpt lat="42.5768" lon="1.90895">
        <ele>2307.92</ele>
        <time>2017-08-13T16:25:56Z</time>
      </trkpt>
      <trkpt lat="42.57694" lon="1.90878">
        <ele>2301.93</ele>
        <time>2017-08-13T16:26:13Z</time>
      </trkpt>
      <trkpt lat="42.57707" lon="1.9086">
        <ele>2298.69</ele>
        <time>2017-08-13T16:26:35Z</time>
      </trkpt>
      <trkpt lat="42.57718" lon="1.9084">
        <ele>2292.9</ele>
        <time>2017-08-13T16:26:59Z</time>
      </trkpt>
      <trkpt lat="42.57713" lon="1.90816">
        <ele>2291.62</ele>
        <time>2017-08-13T16:27:16Z</time>
      </trkpt>
      <trkpt lat="42.57721" lon="1.90794">
        <ele>2288.62</ele>
        <time>2017-08-13T16:27:33Z</time>
      </trkpt>
      <trkpt lat="42.57723" lon="1.90768">
        <ele>2290.9</ele>
        <time>2017-08-13T16:27:48Z</time>
      </trkpt>
      <trkpt lat="42.5773" lon="1.90745">
        <ele>2290.11</ele>
        <time>2017-08-13T16:28:03Z</time>
      </trkpt>
      <trkpt lat="42.57734" lon="1.9072">
        <ele>2285.59</ele>
        <time>2017-08-13T16:28:22Z</time>
      </trkpt>
      <trkpt lat="42.57735" lon="1.90696">
        <ele>2283.38</ele>
        <time>2017-08-13T16:28:39Z</time>
      </trkpt>
      <trkpt lat="42.57734" lon="1.90671">
        <ele>2279.58</ele>
        <time>2017-08-13T16:29:02Z</time>
      </trkpt>
      <trkpt lat="42.5774" lon="1.90647">
        <ele>2271.81</ele>
        <time>2017-08-13T16:31:21Z</time>
      </trkpt>
      <trkpt lat="42.57752" lon="1.90625">
        <ele>2261.35</ele>
        <time>2017-08-13T16:31:56Z</time>
      </trkpt>
      <trkpt lat="42.5776" lon="1.90603">
        <ele>2263.42</ele>
        <time>2017-08-13T16:32:43Z</time>
      </trkpt>
      <trkpt lat="42.57762" lon="1.90578">
        <ele>2265.28</ele>
        <time>2017-08-13T16:33:10Z</time>
      </trkpt>
      <trkpt lat="42.57768" lon="1.90555">
        <ele>2256.59</ele>
        <time>2017-08-13T16:33:55Z</time>
      </trkpt>
      <trkpt lat="42.57777" lon="1.90533">
        <ele>2248.56</ele>
        <time>2017-08-13T16:34:20Z</time>
      </trkpt>
      <trkpt lat="42.57781" lon="1.90509">
        <ele>2244.24</ele>
        <time>2017-08-13T16:35:17Z</time>
      </trkpt>
      <trkpt lat="42.5779" lon="1.90487">
        <ele>2236.51</ele>
        <time>2017-08-13T16:36:11Z</time>
      </trkpt>
      <trkpt lat="42.57794" lon="1.90511">
        <ele>2230.95</ele>
        <time>2017-08-13T16:36:51Z</time>
      </trkpt>
      <trkpt lat="42.57799" lon="1.90535">
        <ele>2239.45</ele>
        <time>2017-08-13T16:37:31Z</time>
      </trkpt>
      <trkpt lat="42.57817" lon="1.90526">
        <ele>2235.73</ele>
        <time>2017-08-13T16:39:16Z</time>
      </trkpt>
      <trkpt lat="42.57829" lon="1.90506">
        <ele>2236.6</ele>
        <time>2017-08-13T16:39:33Z</time>
      </trkpt>
      <trkpt lat="42.57827" lon="1.9048">
        <ele>2235.43</ele>
        <time>2017-08-13T16:40:02Z</time>
      </trkpt>
      <trkpt lat="42.57829" lon="1.90455">
        <ele>2234.99</ele>
        <time>2017-08-13T16:40:18Z</time>
      </trkpt>
      <trkpt lat="42.57839" lon="1.90435">
        <ele>2240.29</ele>
        <time>2017-08-13T16:41:17Z</time>
      </trkpt>
      <trkpt lat="42.57827" lon="1.90415">
        <ele>2226.59</ele>
        <time>2017-08-13T16:42:18Z</time>
      </trkpt>
      <trkpt lat="42.57823" lon="1.90391">
        <ele>2219.61</ele>
        <time>2017-08-13T16:43:11Z</time>
      </trkpt>
      <trkpt lat="42.57833" lon="1.9037">
        <ele>2211.6</ele>
        <time>2017-08-13T16:44:11Z</time>
      </trkpt>
      <trkpt lat="42.57832" lon="1.90346">
        <ele>2210.87</ele>
        <time>2017-08-13T16:44:38Z</time>
      </trkpt>
      <trkpt lat="42.57836" lon="1.90321">
        <ele>2212.89</ele>
        <time>2017-08-13T16:44:54Z</time>
      </trkpt>
      <trkpt lat="42.57841" lon="1.90297">
        <ele>2212.59</ele>
        <time>2017-08-13T16:45:13Z</time>
      </trkpt>
      <trkpt lat="42.57841" lon="1.90271">
        <ele>2216.2</ele>
        <time>2017-08-13T16:45:30Z</time>
      </trkpt>
      <trkpt lat="42.57848" lon="1.90249">
        <ele>2213.98</ele>
        <time>2017-08-13T16:45:47Z</time>
      </trkpt>
      <trkpt lat="42.57858" lon="1.90228">
        <ele>2209.71</ele>
        <time>2017-08-13T16:46:06Z</time>
      </trkpt>
      <trkpt lat="42.57866" lon="1.90205">
        <ele>2211.5</ele>
        <time>2017-08-13T16:46:21Z</time>
      </trkpt>
      <trkpt lat="42.57874" lon="1.90183">
        <ele>2214.99</ele>
        <time>2017-08-13T16:46:44Z</time>
      </trkpt>
      <trkpt lat="42.57888" lon="1.90166">
        <ele>2211.59</ele>
        <time>2017-08-13T16:48:17Z</time>
      </trkpt>
      <trkpt lat="42.57903" lon="1.90152">
        <ele>2208.8</ele>
        <time>2017-08-13T16:48:34Z</time>
      </trkpt>
      <trkpt lat="42.57916" lon="1.90135">
        <ele>2210.76</ele>
        <time>2017-08-13T16:48:55Z</time>
      </trkpt>
      <trkpt lat="42.57927" lon="1.90115">
        <ele>2212.63</ele>
        <time>2017-08-13T16:49:10Z</time>
      </trkpt>
      <trkpt lat="42.57933" lon="1.90092">
        <ele>2214.57</ele>
        <time>2017-08-13T16:49:28Z</time>
      </trkpt>
      <trkpt lat="42.57931" lon="1.90065">
        <ele>2214.19</ele>
        <time>2017-08-13T16:49:47Z</time>
      </trkpt>
      <trkpt lat="42.57949" lon="1.90062">
        <ele>2214.59</ele>
        <time>2017-08-13T16:51:07Z</time>
      </trkpt>
      <trkpt lat="42.57965" lon="1.90047">
        <ele>2217.38</ele>
        <time>2017-08-13T16:51:51Z</time>
      </trkpt>
      <trkpt lat="42.57979" lon="1.9003">
        <ele>2216.59</ele>
        <time>2017-08-13T16:52:12Z</time>
      </trkpt>
      <trkpt lat="42.57985" lon="1.90007">
        <ele>2217.56</ele>
        <time>2017-08-13T16:52:31Z</time>
      </trkpt>
      <trkpt lat="42.57995" lon="1.89985">
        <ele>2214.69</ele>
        <time>2017-08-13T16:52:56Z</time>
      </trkpt>
      <trkpt lat="42.58011" lon="1.89972">
        <ele>2215.17</ele>
        <time>2017-08-13T16:53:29Z</time>
      </trkpt>
      <trkpt lat="42.58024" lon="1.89955">
        <ele>2217.2</ele>
        <time>2017-08-13T16:54:19Z</time>
      </trkpt>
      <trkpt lat="42.58038" lon="1.89938">
        <ele>2216.64</ele>
        <time>2017-08-13T16:54:32Z</time>
      </trkpt>
      <trkpt lat="42.58045" lon="1.89914">
        <ele>2213.6</ele>
        <time>2017-08-13T16:54:56Z</time>
      </trkpt>
      <trkpt lat="42.58052" lon="1.89937">
        <ele>2221.32</ele>
        <time>2017-08-13T16:57:01Z</time>
      </trkpt>
      <trkpt lat="42.58059" lon="1.89961">
        <ele>2223.95</ele>
        <time>2017-08-13T16:57:37Z</time>
      </trkpt>
      <trkpt lat="42.58075" lon="1.89972">
        <ele>2225.5</ele>
        <time>2017-08-13T16:57:58Z</time>
      </trkpt>
      <trkpt lat="42.58091" lon="1.89984">
        <ele>2228.01</ele>
        <time>2017-08-13T16:58:43Z</time>
      </trkpt>
      <trkpt lat="42.58101" lon="1.90005">
        <ele>2230.78</ele>
        <time>2017-08-13T16:59:12Z</time>
      </trkpt>
      <trkpt lat="42.58106" lon="1.90029">
        <ele>2227.58</ele>
        <time>2017-08-13T16:59:37Z</time>
      </trkpt>
      <trkpt lat="42.58109" lon="1.90053">
        <ele>2229.59</ele>
        <time>2017-08-13T17:00:02Z</time>
      </trkpt>
      <trkpt lat="42.58112" lon="1.90078">
        <ele>2229.65</ele>
        <time>2017-08-13T17:00:28Z</time>
      </trkpt>
      <trkpt lat="42.58104" lon="1.90101">
        <ele>2233.79</ele>
        <time>2017-08-13T17:03:11Z</time>
      </trkpt>
      <trkpt lat="42.58109" lon="1.90126">
        <ele>2235.57</ele>
        <time>2017-08-13T17:05:00Z</time>
      </trkpt>
      <trkpt lat="42.58109" lon="1.9015">
        <ele>2235.29</ele>
        <time>2017-08-13T17:05:19Z</time>
      </trkpt>
      <trkpt lat="42.58115" lon="1.90174">
        <ele>2239.37</ele>
        <time>2017-08-13T17:05:41Z</time>
      </trkpt>
      <trkpt lat="42.58119" lon="1.90199">
        <ele>2240.27</ele>
        <time>2017-08-13T17:06:02Z</time>
      </trkpt>
      <trkpt lat="42.58124" lon="1.90222">
        <ele>2246.81</ele>
        <time>2017-08-13T17:06:22Z</time>
      </trkpt>
      <trkpt lat="42.58125" lon="1.90247">
        <ele>2246.6</ele>
        <time>2017-08-13T17:06:46Z</time>
      </trkpt>
      <trkpt lat="42.58129" lon="1.90272">
        <ele>2243.39</ele>
        <time>2017-08-13T17:07:08Z</time>
      </trkpt>
      <trkpt lat="42.58134" lon="1.90296">
        <ele>2244.3</ele>
        <time>2017-08-13T17:07:33Z</time>
      </trkpt>
      <trkpt lat="42.58137" lon="1.90322">
        <ele>2243.59</ele>
        <time>2017-08-13T17:08:37Z</time>
      </trkpt>
      <trkpt lat="42.58144" lon="1.90344">
        <ele>2244.38</ele>
        <time>2017-08-13T17:08:54Z</time>
      </trkpt>
      <trkpt lat="42.58148" lon="1.90368">
        <ele>2241.51</ele>
        <time>2017-08-13T17:09:18Z</time>
      </trkpt>
      <trkpt lat="42.58153" lon="1.90393">
        <ele>2238.69</ele>
        <time>2017-08-13T17:09:34Z</time>
      </trkpt>
      <trkpt lat="42.5816" lon="1.90415">
        <ele>2241.62</ele>
        <time>2017-08-13T17:09:54Z</time>
      </trkpt>
      <trkpt lat="42.58166" lon="1.90439">
        <ele>2246.59</ele>
        <time>2017-08-13T17:11:56Z</time>
      </trkpt>
      <trkpt lat="42.58174" lon="1.9046">
        <ele>2246.57</ele>
        <time>2017-08-13T17:12:33Z</time>
      </trkpt>
      <trkpt lat="42.58178" lon="1.90485">
        <ele>2248.71</ele>
        <time>2017-08-13T17:13:05Z</time>
      </trkpt>
      <trkpt lat="42.58195" lon="1.90494">
        <ele>2248.27</ele>
        <time>2017-08-13T17:13:47Z</time>
      </trkpt>
      <trkpt lat="42.58202" lon="1.90472">
        <ele>2252.57</ele>
        <time>2017-08-13T17:14:12Z</time>
      </trkpt>
      <trkpt lat="42.58217" lon="1.90458">
        <ele>2251.73</ele>
        <time>2017-08-13T17:14:28Z</time>
      </trkpt>
      <trkpt lat="42.58235" lon="1.90454">
        <ele>2249.59</ele>
        <time>2017-08-13T17:14:51Z</time>
      </trkpt>
      <trkpt lat="42.58249" lon="1.90471">
        <ele>2251.68</ele>
        <time>2017-08-13T17:15:26Z</time>
      </trkpt>
      <trkpt lat="42.58263" lon="1.90489">
        <ele>2257.29</ele>
        <time>2017-08-13T17:15:44Z</time>
      </trkpt>
      <trkpt lat="42.58281" lon="1.90496">
        <ele>2255.6</ele>
        <time>2017-08-13T17:16:07Z</time>
      </trkpt>
      <trkpt lat="42.58297" lon="1.90508">
        <ele>2257.91</ele>
        <time>2017-08-13T17:17:55Z</time>
      </trkpt>
      <trkpt lat="42.58307" lon="1.90528">
        <ele>2254.42</ele>
        <time>2017-08-13T17:18:18Z</time>
      </trkpt>
      <trkpt lat="42.58321" lon="1.90544">
        <ele>2257.3</ele>
        <time>2017-08-13T17:18:32Z</time>
      </trkpt>
      <trkpt lat="42.58335" lon="1.90559">
        <ele>2260.59</ele>
        <time>2017-08-13T17:18:49Z</time>
      </trkpt>
      <trkpt lat="42.58344" lon="1.90538">
        <ele>2254.71</ele>
        <time>2017-08-13T17:19:16Z</time>
      </trkpt>
      <trkpt lat="42.58352" lon="1.90516">
        <ele>2257.21</ele>
        <time>2017-08-13T17:19:35Z</time>
      </trkpt>
      <trkpt lat="42.5835" lon="1.90489">
        <ele>2261.02</ele>
        <time>2017-08-13T17:19:52Z</time>
      </trkpt>
      <trkpt lat="42.5835" lon="1.90464">
        <ele>2259.63</ele>
        <time>2017-08-13T17:20:09Z</time>
      </trkpt>
      <trkpt lat="42.58361" lon="1.90482">
        <ele>2265.91</ele>
        <time>2017-08-13T17:21:25Z</time>
      </trkpt>
      <trkpt lat="42.58377" lon="1.90496">
        <ele>2271.99</ele>
        <time>2017-08-13T17:22:01Z</time>
      </trkpt>
      <trkpt lat="42.58395" lon="1.90503">
        <ele>2270.42</ele>
        <time>2017-08-13T17:22:23Z</time>
      </trkpt>
      <trkpt lat="42.58411" lon="1.90515">
        <ele>2274.69</ele>
        <time>2017-08-13T17:22:51Z</time>
      </trkpt>
      <trkpt lat="42.58418" lon="1.90539">
        <ele>2275.5</ele>
        <time>2017-08-13T17:23:10Z</time>
      </trkpt>
      <trkpt lat="42.5843" lon="1.90558">
        <ele>2275.27</ele>
        <time>2017-08-13T17:23:30Z</time>
      </trkpt>
      <trkpt lat="42.58442" lon="1.90578">
        <ele>2276.57</ele>
        <time>2017-08-13T17:23:56Z</time>
      </trkpt>
      <trkpt lat="42.58446" lon="1.90602">
        <ele>2284.27</ele>
        <time>2017-08-13T17:24:31Z</time>
      </trkpt>
      <trkpt lat="42.58447" lon="1.90627">
        <ele>2288.59</ele>
        <time>2017-08-13T17:24:57Z</time>
      </trkpt>
      <trkpt lat="42.58454" lon="1.9065">
        <ele>2287.3</ele>
        <time>2017-08-13T17:25:34Z</time>
      </trkpt>
      <trkpt lat="42.58459" lon="1.90674">
        <ele>2287.59</ele>
        <time>2017-08-13T17:25:51Z</time>
      </trkpt>
      <trkpt lat="42.58465" lon="1.90697">
        <ele>2286.22</ele>
        <time>2017-08-13T17:26:06Z</time>
      </trkpt>
      <trkpt lat="42.58476" lon="1.90719">
        <ele>2292.29</ele>
        <time>2017-08-13T17:26:24Z</time>
      </trkpt>
      <trkpt lat="42.58489" lon="1.90736">
        <ele>2290.59</ele>
        <time>2017-08-13T17:26:48Z</time>
      </trkpt>
      <trkpt lat="42.58507" lon="1.90746">
        <ele>2282.9</ele>
        <time>2017-08-13T17:27:07Z</time>
      </trkpt>
      <trkpt lat="42.58522" lon="1.90759">
        <ele>2286.61</ele>
        <time>2017-08-13T17:27:19Z</time>
      </trkpt>
      <trkpt lat="42.58536" lon="1.90776">
        <ele>2289.48</ele>
        <time>2017-08-13T17:27:38Z</time>
      </trkpt>
      <trkpt lat="42.58547" lon="1.90797">
        <ele>2292.3</ele>
        <time>2017-08-13T17:27:53Z</time>
      </trkpt>
      <trkpt lat="42.58556" lon="1.90819">
        <ele>2290.69</ele>
        <time>2017-08-13T17:28:08Z</time>
      </trkpt>
      <trkpt lat="42.5857" lon="1.90835">
        <ele>2290.2</ele>
        <time>2017-08-13T17:28:24Z</time>
      </trkpt>
      <trkpt lat="42.58585" lon="1.90851">
        <ele>2287.99</ele>
        <time>2017-08-13T17:28:44Z</time>
      </trkpt>
      <trkpt lat="42.58594" lon="1.90872">
        <ele>2287.02</ele>
        <time>2017-08-13T17:29:03Z</time>
      </trkpt>
      <trkpt lat="42.5861" lon="1.90885">
        <ele>2290.41</ele>
        <time>2017-08-13T17:29:16Z</time>
      </trkpt>
      <trkpt lat="42.5862" lon="1.90906">
        <ele>2289.5</ele>
        <time>2017-08-13T17:29:36Z</time>
      </trkpt>
      <trkpt lat="42.58633" lon="1.90923">
        <ele>2295.58</ele>
        <time>2017-08-13T17:29:56Z</time>
      </trkpt>
      <trkpt lat="42.58649" lon="1.90936">
        <ele>2296.59</ele>
        <time>2017-08-13T17:30:22Z</time>
      </trkpt>
      <trkpt lat="42.58658" lon="1.90957">
        <ele>2296.53</ele>
        <time>2017-08-13T17:30:40Z</time>
      </trkpt>
      <trkpt lat="42.58661" lon="1.90982">
        <ele>2299.59</ele>
        <time>2017-08-13T17:30:58Z</time>
      </trkpt>
      <trkpt lat="42.58676" lon="1.90997">
        <ele>2301.3</ele>
        <time>2017-08-13T17:31:12Z</time>
      </trkpt>
      <trkpt lat="42.58684" lon="1.91021">
        <ele>2304.15</ele>
        <time>2017-08-13T17:31:30Z</time>
      </trkpt>
      <trkpt lat="42.58692" lon="1.91046">
        <ele>2301</ele>
        <time>2017-08-13T17:33:19Z</time>
      </trkpt>
      <trkpt lat="42.58698" lon="1.91071">
        <ele>2305.2</ele>
        <time>2017-08-13T17:33:33Z</time>
      </trkpt>
      <trkpt lat="42.58712" lon="1.91086">
        <ele>2303.63</ele>
        <time>2017-08-13T17:33:49Z</time>
      </trkpt>
      <trkpt lat="42.58725" lon="1.91104">
        <ele>2303.59</ele>
        <time>2017-08-13T17:34:08Z</time>
      </trkpt>
      <trkpt lat="42.58737" lon="1.91124">
        <ele>2302.6</ele>
        <time>2017-08-13T17:34:28Z</time>
      </trkpt>
      <trkpt lat="42.58751" lon="1.91143">
        <ele>2301.36</ele>
        <time>2017-08-13T17:34:43Z</time>
      </trkpt>
      <trkpt lat="42.58759" lon="1.91166">
        <ele>2297.65</ele>
        <time>2017-08-13T17:34:58Z</time>
      </trkpt>
      <trkpt lat="42.58773" lon="1.91182">
        <ele>2303.47</ele>
        <time>2017-08-13T17:35:12Z</time>
      </trkpt>
      <trkpt lat="42.58785" lon="1.91204">
        <ele>2303.48</ele>
        <time>2017-08-13T17:35:28Z</time>
      </trkpt>
      <trkpt lat="42.58792" lon="1.91226">
        <ele>2299.38</ele>
        <time>2017-08-13T17:35:55Z</time>
      </trkpt>
      <trkpt lat="42.588" lon="1.91248">
        <ele>2298.71</ele>
        <time>2017-08-13T17:36:15Z</time>
      </trkpt>
      <trkpt lat="42.58812" lon="1.91268">
        <ele>2302.28</ele>
        <time>2017-08-13T17:36:53Z</time>
      </trkpt>
      <trkpt lat="42.58822" lon="1.9129">
        <ele>2298.69</ele>
        <time>2017-08-13T17:37:11Z</time>
      </trkpt>
      <trkpt lat="42.5883" lon="1.91311">
        <ele>2299.18</ele>
        <time>2017-08-13T17:37:28Z</time>
      </trkpt>
      <trkpt lat="42.58838" lon="1.91334">
        <ele>2294.68</ele>
        <time>2017-08-13T17:37:47Z</time>
      </trkpt>
      <trkpt lat="42.58848" lon="1.91355">
        <ele>2298.5</ele>
        <time>2017-08-13T17:38:05Z</time>
      </trkpt>
      <trkpt lat="42.5886" lon="1.91373">
        <ele>2296.5</ele>
        <time>2017-08-13T17:38:21Z</time>
      </trkpt>
      <trkpt lat="42.58869" lon="1.91395">
        <ele>2296.3</ele>
        <time>2017-08-13T17:38:36Z</time>
      </trkpt>
      <trkpt lat="42.58881" lon="1.91416">
        <ele>2298.24</ele>
        <time>2017-08-13T17:38:53Z</time>
      </trkpt>
      <trkpt lat="42.58891" lon="1.91438">
        <ele>2291.9</ele>
        <time>2017-08-13T17:39:12Z</time>
      </trkpt>
      <trkpt lat="42.58903" lon="1.91459">
        <ele>2291.38</ele>
        <time>2017-08-13T17:39:27Z</time>
      </trkpt>
      <trkpt lat="42.58915" lon="1.91477">
        <ele>2288.24</ele>
        <time>2017-08-13T17:39:44Z</time>
      </trkpt>
      <trkpt lat="42.58929" lon="1.91495">
        <ele>2287.59</ele>
        <time>2017-08-13T17:39:59Z</time>
      </trkpt>
      <trkpt lat="42.58937" lon="1.91519">
        <ele>2284</ele>
        <time>2017-08-13T17:40:15Z</time>
      </trkpt>
      <trkpt lat="42.58949" lon="1.91539">
        <ele>2285.3</ele>
        <time>2017-08-13T17:40:31Z</time>
      </trkpt>
      <trkpt lat="42.58961" lon="1.91557">
        <ele>2287.66</ele>
        <time>2017-08-13T17:40:45Z</time>
      </trkpt>
      <trkpt lat="42.58973" lon="1.91576">
        <ele>2287.29</ele>
        <time>2017-08-13T17:41:01Z</time>
      </trkpt>
      <trkpt lat="42.58983" lon="1.91597">
        <ele>2287.54</ele>
        <time>2017-08-13T17:41:17Z</time>
      </trkpt>
      <trkpt lat="42.5899" lon="1.91621">
        <ele>2285.69</ele>
        <time>2017-08-13T17:42:03Z</time>
      </trkpt>
      <trkpt lat="42.58992" lon="1.91646">
        <ele>2285.92</ele>
        <time>2017-08-13T17:42:46Z</time>
      </trkpt>
      <trkpt lat="42.5898" lon="1.91664">
        <ele>2291.27</ele>
        <time>2017-08-13T17:43:56Z</time>
      </trkpt>
      <trkpt lat="42.58963" lon="1.91677">
        <ele>2299.17</ele>
        <time>2017-08-13T17:44:35Z</time>
      </trkpt>
      <trkpt lat="42.5895" lon="1.91694">
        <ele>2300</ele>
        <time>2017-08-13T17:45:11Z</time>
      </trkpt>
      <trkpt lat="42.58937" lon="1.91712">
        <ele>2305.59</ele>
        <time>2017-08-13T17:45:38Z</time>
      </trkpt>
      <trkpt lat="42.58931" lon="1.91736">
        <ele>2307.88</ele>
        <time>2017-08-13T17:46:09Z</time>
      </trkpt>
      <trkpt lat="42.58915" lon="1.91749">
        <ele>2316.62</ele>
        <time>2017-08-13T17:47:17Z</time>
      </trkpt>
      <trkpt lat="42.58897" lon="1.91757">
        <ele>2324.51</ele>
        <time>2017-08-13T17:47:56Z</time>
      </trkpt>
      <trkpt lat="42.58882" lon="1.91772">
        <ele>2328.56</ele>
        <time>2017-08-13T17:48:43Z</time>
      </trkpt>
      <trkpt lat="42.58866" lon="1.91786">
        <ele>2328.27</ele>
        <time>2017-08-13T17:49:44Z</time>
      </trkpt>
      <trkpt lat="42.58851" lon="1.918">
        <ele>2332.96</ele>
        <time>2017-08-13T17:50:17Z</time>
      </trkpt>
      <trkpt lat="42.58836" lon="1.91812">
        <ele>2340.19</ele>
        <time>2017-08-13T17:50:42Z</time>
      </trkpt>
      <trkpt lat="42.58818" lon="1.91804">
        <ele>2340.51</ele>
        <time>2017-08-13T17:51:20Z</time>
      </trkpt>
      <trkpt lat="42.5881" lon="1.9178">
        <ele>2339.57</ele>
        <time>2017-08-13T17:51:40Z</time>
      </trkpt>
      <trkpt lat="42.588" lon="1.91759">
        <ele>2343.14</ele>
        <time>2017-08-13T17:52:04Z</time>
      </trkpt>
      <trkpt lat="42.58785" lon="1.91743">
        <ele>2345.38</ele>
        <time>2017-08-13T17:53:46Z</time>
      </trkpt>
      <trkpt lat="42.58769" lon="1.91756">
        <ele>2349.59</ele>
        <time>2017-08-13T17:56:12Z</time>
      </trkpt>
      <trkpt lat="42.58781" lon="1.91741">
        <ele>2356.59</ele>
        <time>2017-08-14T08:03:09Z</time>
      </trkpt>
      <trkpt lat="42.58799" lon="1.91749">
        <ele>2346.4</ele>
        <time>2017-08-14T08:07:35Z</time>
      </trkpt>
      <trkpt lat="42.58817" lon="1.91757">
        <ele>2344.31</ele>
        <time>2017-08-14T08:07:48Z</time>
      </trkpt>
      <trkpt lat="42.58835" lon="1.9176">
        <ele>2342.89</ele>
        <time>2017-08-14T08:08:09Z</time>
      </trkpt>
      <trkpt lat="42.58853" lon="1.91768">
        <ele>2335.63</ele>
        <time>2017-08-14T08:08:40Z</time>
      </trkpt>
      <trkpt lat="42.58871" lon="1.91775">
        <ele>2335.89</ele>
        <time>2017-08-14T08:08:56Z</time>
      </trkpt>
      <trkpt lat="42.58889" lon="1.91777">
        <ele>2333.65</ele>
        <time>2017-08-14T08:09:13Z</time>
      </trkpt>
      <trkpt lat="42.58907" lon="1.91779">
        <ele>2329.69</ele>
        <time>2017-08-14T08:09:35Z</time>
      </trkpt>
      <trkpt lat="42.58927" lon="1.91782">
        <ele>2323.65</ele>
        <time>2017-08-14T08:09:52Z</time>
      </trkpt>
      <trkpt lat="42.58943" lon="1.91772">
        <ele>2314.39</ele>
        <time>2017-08-14T08:10:12Z</time>
      </trkpt>
      <trkpt lat="42.58954" lon="1.91751">
        <ele>2314.64</ele>
        <time>2017-08-14T08:10:33Z</time>
      </trkpt>
      <trkpt lat="42.58966" lon="1.91732">
        <ele>2311.51</ele>
        <time>2017-08-14T08:10:58Z</time>
      </trkpt>
      <trkpt lat="42.58982" lon="1.91719">
        <ele>2306.81</ele>
        <time>2017-08-14T08:11:34Z</time>
      </trkpt>
      <trkpt lat="42.58999" lon="1.91711">
        <ele>2299.91</ele>
        <time>2017-08-14T08:11:54Z</time>
      </trkpt>
      <trkpt lat="42.59017" lon="1.91706">
        <ele>2294.5</ele>
        <time>2017-08-14T08:12:20Z</time>
      </trkpt>
      <trkpt lat="42.59035" lon="1.917">
        <ele>2291.52</ele>
        <time>2017-08-14T08:12:41Z</time>
      </trkpt>
      <trkpt lat="42.59052" lon="1.91711">
        <ele>2285.92</ele>
        <time>2017-08-14T08:12:58Z</time>
      </trkpt>
      <trkpt lat="42.59066" lon="1.91728">
        <ele>2282.61</ele>
        <time>2017-08-14T08:13:16Z</time>
      </trkpt>
      <trkpt lat="42.59073" lon="1.91752">
        <ele>2276.62</ele>
        <time>2017-08-14T08:13:34Z</time>
      </trkpt>
      <trkpt lat="42.59084" lon="1.91771">
        <ele>2273.61</ele>
        <time>2017-08-14T08:13:52Z</time>
      </trkpt>
      <trkpt lat="42.59099" lon="1.91787">
        <ele>2275.86</ele>
        <time>2017-08-14T08:14:03Z</time>
      </trkpt>
      <trkpt lat="42.59107" lon="1.91811">
        <ele>2274.63</ele>
        <time>2017-08-14T08:14:23Z</time>
      </trkpt>
      <trkpt lat="42.5912" lon="1.91828">
        <ele>2275.37</ele>
        <time>2017-08-14T08:14:40Z</time>
      </trkpt>
      <trkpt lat="42.59138" lon="1.91837">
        <ele>2279.85</ele>
        <time>2017-08-14T08:14:57Z</time>
      </trkpt>
      <trkpt lat="42.59153" lon="1.91852">
        <ele>2274.68</ele>
        <time>2017-08-14T08:15:16Z</time>
      </trkpt>
      <trkpt lat="42.5917" lon="1.91862">
        <ele>2275.61</ele>
        <time>2017-08-14T08:15:32Z</time>
      </trkpt>
      <trkpt lat="42.59188" lon="1.91874">
        <ele>2274.6</ele>
        <time>2017-08-14T08:15:51Z</time>
      </trkpt>
      <trkpt lat="42.59205" lon="1.91886">
        <ele>2267.96</ele>
        <time>2017-08-14T08:16:09Z</time>
      </trkpt>
      <trkpt lat="42.59222" lon="1.919">
        <ele>2267.3</ele>
        <time>2017-08-14T08:16:23Z</time>
      </trkpt>
      <trkpt lat="42.59234" lon="1.9192">
        <ele>2265.66</ele>
        <time>2017-08-14T08:16:42Z</time>
      </trkpt>
      <trkpt lat="42.59248" lon="1.91936">
        <ele>2268.5</ele>
        <time>2017-08-14T08:17:01Z</time>
      </trkpt>
      <trkpt lat="42.59266" lon="1.91943">
        <ele>2266.9</ele>
        <time>2017-08-14T08:17:29Z</time>
      </trkpt>
      <trkpt lat="42.59281" lon="1.91928">
        <ele>2271.89</ele>
        <time>2017-08-14T08:17:50Z</time>
      </trkpt>
      <trkpt lat="42.59297" lon="1.91916">
        <ele>2274.68</ele>
        <time>2017-08-14T08:18:10Z</time>
      </trkpt>
      <trkpt lat="42.59315" lon="1.91924">
        <ele>2273.92</ele>
        <time>2017-08-14T08:18:31Z</time>
      </trkpt>
      <trkpt lat="42.59333" lon="1.91924">
        <ele>2272.02</ele>
        <time>2017-08-14T08:18:45Z</time>
      </trkpt>
      <trkpt lat="42.5935" lon="1.91931">
        <ele>2269.6</ele>
        <time>2017-08-14T08:19:03Z</time>
      </trkpt>
      <trkpt lat="42.59368" lon="1.91937">
        <ele>2266.81</ele>
        <time>2017-08-14T08:19:18Z</time>
      </trkpt>
      <trkpt lat="42.59386" lon="1.91943">
        <ele>2266.62</ele>
        <time>2017-08-14T08:19:33Z</time>
      </trkpt>
      <trkpt lat="42.59404" lon="1.91948">
        <ele>2264.6</ele>
        <time>2017-08-14T08:19:51Z</time>
      </trkpt>
      <trkpt lat="42.59422" lon="1.91955">
        <ele>2263.59</ele>
        <time>2017-08-14T08:20:10Z</time>
      </trkpt>
      <trkpt lat="42.59441" lon="1.91961">
        <ele>2263.57</ele>
        <time>2017-08-14T08:20:30Z</time>
      </trkpt>
      <trkpt lat="42.59455" lon="1.91977">
        <ele>2268.8</ele>
        <time>2017-08-14T08:20:47Z</time>
      </trkpt>
      <trkpt lat="42.59474" lon="1.91981">
        <ele>2266.5</ele>
        <time>2017-08-14T08:22:00Z</time>
      </trkpt>
      <trkpt lat="42.59493" lon="1.91982">
        <ele>2260.83</ele>
        <time>2017-08-14T08:22:13Z</time>
      </trkpt>
      <trkpt lat="42.59512" lon="1.91983">
        <ele>2265.48</ele>
        <time>2017-08-14T08:22:34Z</time>
      </trkpt>
      <trkpt lat="42.5953" lon="1.91987">
        <ele>2262.72</ele>
        <time>2017-08-14T08:22:48Z</time>
      </trkpt>
      <trkpt lat="42.59548" lon="1.91994">
        <ele>2263.01</ele>
        <time>2017-08-14T08:23:07Z</time>
      </trkpt>
      <trkpt lat="42.59566" lon="1.92004">
        <ele>2255.82</ele>
        <time>2017-08-14T08:23:24Z</time>
      </trkpt>
      <trkpt lat="42.59581" lon="1.9199">
        <ele>2259.4</ele>
        <time>2017-08-14T08:23:48Z</time>
      </trkpt>
      <trkpt lat="42.59597" lon="1.91978">
        <ele>2257.92</ele>
        <time>2017-08-14T08:24:12Z</time>
      </trkpt>
      <trkpt lat="42.59611" lon="1.91962">
        <ele>2256.48</ele>
        <time>2017-08-14T08:24:26Z</time>
      </trkpt>
      <trkpt lat="42.59629" lon="1.9196">
        <ele>2254.51</ele>
        <time>2017-08-14T08:24:48Z</time>
      </trkpt>
      <trkpt lat="42.59647" lon="1.91951">
        <ele>2256.61</ele>
        <time>2017-08-14T08:25:10Z</time>
      </trkpt>
      <trkpt lat="42.59666" lon="1.91959">
        <ele>2260.41</ele>
        <time>2017-08-14T08:25:27Z</time>
      </trkpt>
      <trkpt lat="42.59683" lon="1.91967">
        <ele>2255.59</ele>
        <time>2017-08-14T08:25:44Z</time>
      </trkpt>
      <trkpt lat="42.59701" lon="1.91976">
        <ele>2254.93</ele>
        <time>2017-08-14T08:26:00Z</time>
      </trkpt>
      <trkpt lat="42.59717" lon="1.91986">
        <ele>2258.31</ele>
        <time>2017-08-14T08:26:20Z</time>
      </trkpt>
      <trkpt lat="42.59736" lon="1.91982">
        <ele>2262.4</ele>
        <time>2017-08-14T08:26:38Z</time>
      </trkpt>
      <trkpt lat="42.59729" lon="1.91959">
        <ele>2263.71</ele>
        <time>2017-08-14T08:27:51Z</time>
      </trkpt>
      <trkpt lat="42.59741" lon="1.91979">
        <ele>2255.7</ele>
        <time>2017-08-14T08:29:31Z</time>
      </trkpt>
      <trkpt lat="42.59759" lon="1.91993">
        <ele>2250.11</ele>
        <time>2017-08-14T08:34:18Z</time>
      </trkpt>
      <trkpt lat="42.5977" lon="1.91973">
        <ele>2258.19</ele>
        <time>2017-08-14T08:34:37Z</time>
      </trkpt>
      <trkpt lat="42.59774" lon="1.91948">
        <ele>2262.6</ele>
        <time>2017-08-14T08:35:00Z</time>
      </trkpt>
      <trkpt lat="42.59782" lon="1.91926">
        <ele>2266.8</ele>
        <time>2017-08-14T08:35:20Z</time>
      </trkpt>
      <trkpt lat="42.59794" lon="1.91908">
        <ele>2272.87</ele>
        <time>2017-08-14T08:35:49Z</time>
      </trkpt>
      <trkpt lat="42.59796" lon="1.91882">
        <ele>2278.69</ele>
        <time>2017-08-14T08:36:20Z</time>
      </trkpt>
      <trkpt lat="42.59797" lon="1.91856">
        <ele>2282.76</ele>
        <time>2017-08-14T08:36:47Z</time>
      </trkpt>
      <trkpt lat="42.59799" lon="1.91832">
        <ele>2279.61</ele>
        <time>2017-08-14T08:37:03Z</time>
      </trkpt>
      <trkpt lat="42.59802" lon="1.91807">
        <ele>2277.59</ele>
        <time>2017-08-14T08:37:22Z</time>
      </trkpt>
      <trkpt lat="42.59804" lon="1.91782">
        <ele>2280.66</ele>
        <time>2017-08-14T08:37:40Z</time>
      </trkpt>
      <trkpt lat="42.59807" lon="1.91756">
        <ele>2278.68</ele>
        <time>2017-08-14T08:38:00Z</time>
      </trkpt>
      <trkpt lat="42.5982" lon="1.9174">
        <ele>2278.7</ele>
        <time>2017-08-14T08:38:15Z</time>
      </trkpt>
      <trkpt lat="42.59823" lon="1.91715">
        <ele>2281.48</ele>
        <time>2017-08-14T08:38:29Z</time>
      </trkpt>
      <trkpt lat="42.59829" lon="1.9169">
        <ele>2276.91</ele>
        <time>2017-08-14T08:38:46Z</time>
      </trkpt>
      <trkpt lat="42.59832" lon="1.91664">
        <ele>2279.59</ele>
        <time>2017-08-14T08:39:03Z</time>
      </trkpt>
      <trkpt lat="42.5983" lon="1.91638">
        <ele>2274.44</ele>
        <time>2017-08-14T08:39:21Z</time>
      </trkpt>
      <trkpt lat="42.59822" lon="1.91616">
        <ele>2267.32</ele>
        <time>2017-08-14T08:39:40Z</time>
      </trkpt>
      <trkpt lat="42.59837" lon="1.91601">
        <ele>2260.87</ele>
        <time>2017-08-14T08:40:50Z</time>
      </trkpt>
      <trkpt lat="42.59835" lon="1.91576">
        <ele>2256.96</ele>
        <time>2017-08-14T08:41:12Z</time>
      </trkpt>
      <trkpt lat="42.59844" lon="1.91554">
        <ele>2249.88</ele>
        <time>2017-08-14T08:41:34Z</time>
      </trkpt>
      <trkpt lat="42.5985" lon="1.9153">
        <ele>2249.57</ele>
        <time>2017-08-14T08:41:53Z</time>
      </trkpt>
      <trkpt lat="42.59865" lon="1.91515">
        <ele>2232.74</ele>
        <time>2017-08-14T08:43:37Z</time>
      </trkpt>
      <trkpt lat="42.59883" lon="1.91521">
        <ele>2225.26</ele>
        <time>2017-08-14T08:43:51Z</time>
      </trkpt>
      <trkpt lat="42.59902" lon="1.91527">
        <ele>2223.83</ele>
        <time>2017-08-14T08:44:07Z</time>
      </trkpt>
      <trkpt lat="42.59921" lon="1.91537">
        <ele>2225.77</ele>
        <time>2017-08-14T08:44:25Z</time>
      </trkpt>
      <trkpt lat="42.59936" lon="1.9155">
        <ele>2225.33</ele>
        <time>2017-08-14T08:44:47Z</time>
      </trkpt>
      <trkpt lat="42.59955" lon="1.91557">
        <ele>2226.48</ele>
        <time>2017-08-14T08:45:03Z</time>
      </trkpt>
      <trkpt lat="42.59972" lon="1.91567">
        <ele>2223.67</ele>
        <time>2017-08-14T08:45:18Z</time>
      </trkpt>
      <trkpt lat="42.59991" lon="1.91577">
        <ele>2224.89</ele>
        <time>2017-08-14T08:45:54Z</time>
      </trkpt>
      <trkpt lat="42.60002" lon="1.91597">
        <ele>2222.81</ele>
        <time>2017-08-14T08:46:06Z</time>
      </trkpt>
      <trkpt lat="42.60008" lon="1.91622">
        <ele>2222.19</ele>
        <time>2017-08-14T08:46:21Z</time>
      </trkpt>
      <trkpt lat="42.60022" lon="1.9164">
        <ele>2227.3</ele>
        <time>2017-08-14T08:46:53Z</time>
      </trkpt>
      <trkpt lat="42.60034" lon="1.9166">
        <ele>2224.58</ele>
        <time>2017-08-14T08:47:07Z</time>
      </trkpt>
      <trkpt lat="42.60045" lon="1.91682">
        <ele>2221.62</ele>
        <time>2017-08-14T08:47:22Z</time>
      </trkpt>
      <trkpt lat="42.60052" lon="1.91706">
        <ele>2229.92</ele>
        <time>2017-08-14T08:47:47Z</time>
      </trkpt>
      <trkpt lat="42.60063" lon="1.91727">
        <ele>2226.06</ele>
        <time>2017-08-14T08:48:04Z</time>
      </trkpt>
      <trkpt lat="42.60074" lon="1.91747">
        <ele>2215.94</ele>
        <time>2017-08-14T08:48:23Z</time>
      </trkpt>
      <trkpt lat="42.60083" lon="1.91772">
        <ele>2219.59</ele>
        <time>2017-08-14T08:48:54Z</time>
      </trkpt>
      <trkpt lat="42.60095" lon="1.91791">
        <ele>2215.92</ele>
        <time>2017-08-14T08:49:09Z</time>
      </trkpt>
      <trkpt lat="42.60097" lon="1.91815">
        <ele>2216.48</ele>
        <time>2017-08-14T08:49:29Z</time>
      </trkpt>
      <trkpt lat="42.60086" lon="1.91796">
        <ele>2225.68</ele>
        <time>2017-08-14T08:50:42Z</time>
      </trkpt>
      <trkpt lat="42.60079" lon="1.91772">
        <ele>2230.29</ele>
        <time>2017-08-14T08:51:37Z</time>
      </trkpt>
      <trkpt lat="42.6008" lon="1.91746">
        <ele>2228.02</ele>
        <time>2017-08-14T08:51:53Z</time>
      </trkpt>
      <trkpt lat="42.60089" lon="1.91725">
        <ele>2224.62</ele>
        <time>2017-08-14T08:52:16Z</time>
      </trkpt>
      <trkpt lat="42.60097" lon="1.91702">
        <ele>2224.8</ele>
        <time>2017-08-14T08:52:38Z</time>
      </trkpt>
      <trkpt lat="42.60111" lon="1.91685">
        <ele>2229.9</ele>
        <time>2017-08-14T08:53:00Z</time>
      </trkpt>
      <trkpt lat="42.6013" lon="1.91684">
        <ele>2230.67</ele>
        <time>2017-08-14T08:53:29Z</time>
      </trkpt>
      <trkpt lat="42.60147" lon="1.91674">
        <ele>2235.95</ele>
        <time>2017-08-14T08:54:28Z</time>
      </trkpt>
      <trkpt lat="42.60154" lon="1.91649">
        <ele>2236.52</ele>
        <time>2017-08-14T08:56:04Z</time>
      </trkpt>
      <trkpt lat="42.60167" lon="1.91632">
        <ele>2264.58</ele>
        <time>2017-08-14T08:58:19Z</time>
      </trkpt>
      <trkpt lat="42.60185" lon="1.91627">
        <ele>2269.59</ele>
        <time>2017-08-14T08:59:28Z</time>
      </trkpt>
      <trkpt lat="42.60204" lon="1.91621">
        <ele>2275.44</ele>
        <time>2017-08-14T09:00:02Z</time>
      </trkpt>
      <trkpt lat="42.60222" lon="1.9162">
        <ele>2276.77</ele>
        <time>2017-08-14T09:01:07Z</time>
      </trkpt>
      <trkpt lat="42.6024" lon="1.91616">
        <ele>2269.91</ele>
        <time>2017-08-14T09:01:27Z</time>
      </trkpt>
      <trkpt lat="42.60257" lon="1.91607">
        <ele>2267.92</ele>
        <time>2017-08-14T09:01:50Z</time>
      </trkpt>
      <trkpt lat="42.60274" lon="1.91599">
        <ele>2272.92</ele>
        <time>2017-08-14T09:02:19Z</time>
      </trkpt>
      <trkpt lat="42.60293" lon="1.91602">
        <ele>2282.59</ele>
        <time>2017-08-14T09:02:55Z</time>
      </trkpt>
      <trkpt lat="42.60306" lon="1.91619">
        <ele>2285.96</ele>
        <time>2017-08-14T09:03:34Z</time>
      </trkpt>
      <trkpt lat="42.60323" lon="1.9163">
        <ele>2281.91</ele>
        <time>2017-08-14T09:04:22Z</time>
      </trkpt>
      <trkpt lat="42.60333" lon="1.91652">
        <ele>2288.32</ele>
        <time>2017-08-14T09:04:54Z</time>
      </trkpt>
      <trkpt lat="42.60352" lon="1.91661">
        <ele>2308.6</ele>
        <time>2017-08-14T09:15:06Z</time>
      </trkpt>
      <trkpt lat="42.60369" lon="1.9167">
        <ele>2308.68</ele>
        <time>2017-08-14T09:15:31Z</time>
      </trkpt>
      <trkpt lat="42.60382" lon="1.91686">
        <ele>2312.59</ele>
        <time>2017-08-14T09:16:37Z</time>
      </trkpt>
      <trkpt lat="42.60392" lon="1.91707">
        <ele>2321.56</ele>
        <time>2017-08-14T09:17:34Z</time>
      </trkpt>
      <trkpt lat="42.60409" lon="1.91698">
        <ele>2325.56</ele>
        <time>2017-08-14T09:18:55Z</time>
      </trkpt>
      <trkpt lat="42.60425" lon="1.91686">
        <ele>2334.83</ele>
        <time>2017-08-14T09:19:50Z</time>
      </trkpt>
      <trkpt lat="42.60439" lon="1.9167">
        <ele>2345.8</ele>
        <time>2017-08-14T09:20:56Z</time>
      </trkpt>
      <trkpt lat="42.60454" lon="1.91685">
        <ele>2348.69</ele>
        <time>2017-08-14T09:22:33Z</time>
      </trkpt>
      <trkpt lat="42.60471" lon="1.91674">
        <ele>2354.17</ele>
        <time>2017-08-14T09:24:48Z</time>
      </trkpt>
      <trkpt lat="42.60489" lon="1.91681">
        <ele>2359.62</ele>
        <time>2017-08-14T09:25:55Z</time>
      </trkpt>
      <trkpt lat="42.60507" lon="1.91676">
        <ele>2366.67</ele>
        <time>2017-08-14T09:26:39Z</time>
      </trkpt>
      <trkpt lat="42.60525" lon="1.91673">
        <ele>2369.91</ele>
        <time>2017-08-14T09:27:22Z</time>
      </trkpt>
      <trkpt lat="42.60542" lon="1.91666">
        <ele>2369.92</ele>
        <time>2017-08-14T09:27:52Z</time>
      </trkpt>
      <trkpt lat="42.60559" lon="1.91654">
        <ele>2375.65</ele>
        <time>2017-08-14T09:28:24Z</time>
      </trkpt>
      <trkpt lat="42.60572" lon="1.91635">
        <ele>2373.89</ele>
        <time>2017-08-14T09:28:42Z</time>
      </trkpt>
      <trkpt lat="42.60585" lon="1.91617">
        <ele>2379.81</ele>
        <time>2017-08-14T09:29:25Z</time>
      </trkpt>
      <trkpt lat="42.606" lon="1.91602">
        <ele>2381.59</ele>
        <time>2017-08-14T09:30:34Z</time>
      </trkpt>
      <trkpt lat="42.60605" lon="1.91578">
        <ele>2380.59</ele>
        <time>2017-08-14T09:30:55Z</time>
      </trkpt>
      <trkpt lat="42.60604" lon="1.91553">
        <ele>2384.75</ele>
        <time>2017-08-14T09:31:18Z</time>
      </trkpt>
      <trkpt lat="42.60593" lon="1.91533">
        <ele>2389.29</ele>
        <time>2017-08-14T09:31:42Z</time>
      </trkpt>
      <trkpt lat="42.60605" lon="1.91515">
        <ele>2392.29</ele>
        <time>2017-08-14T09:32:15Z</time>
      </trkpt>
      <trkpt lat="42.60617" lon="1.91495">
        <ele>2389.5</ele>
        <time>2017-08-14T09:32:35Z</time>
      </trkpt>
      <trkpt lat="42.60633" lon="1.91482">
        <ele>2389.67</ele>
        <time>2017-08-14T09:32:55Z</time>
      </trkpt>
      <trkpt lat="42.60648" lon="1.91469">
        <ele>2395.53</ele>
        <time>2017-08-14T09:33:14Z</time>
      </trkpt>
      <trkpt lat="42.60662" lon="1.91453">
        <ele>2392.51</ele>
        <time>2017-08-14T09:33:41Z</time>
      </trkpt>
      <trkpt lat="42.60677" lon="1.91438">
        <ele>2395.57</ele>
        <time>2017-08-14T09:34:02Z</time>
      </trkpt>
      <trkpt lat="42.60691" lon="1.91422">
        <ele>2401.89</ele>
        <time>2017-08-14T09:34:31Z</time>
      </trkpt>
      <trkpt lat="42.60701" lon="1.91399">
        <ele>2403.2</ele>
        <time>2017-08-14T09:35:16Z</time>
      </trkpt>
      <trkpt lat="42.60697" lon="1.91374">
        <ele>2406.59</ele>
        <time>2017-08-14T09:35:43Z</time>
      </trkpt>
      <trkpt lat="42.60701" lon="1.9135">
        <ele>2408.59</ele>
        <time>2017-08-14T09:36:11Z</time>
      </trkpt>
      <trkpt lat="42.60708" lon="1.91327">
        <ele>2412.5</ele>
        <time>2017-08-14T09:36:27Z</time>
      </trkpt>
      <trkpt lat="42.60712" lon="1.91303">
        <ele>2409.71</ele>
        <time>2017-08-14T09:36:47Z</time>
      </trkpt>
      <trkpt lat="42.60717" lon="1.91278">
        <ele>2411.78</ele>
        <time>2017-08-14T09:37:05Z</time>
      </trkpt>
      <trkpt lat="42.60718" lon="1.91254">
        <ele>2413.36</ele>
        <time>2017-08-14T09:37:24Z</time>
      </trkpt>
      <trkpt lat="42.60731" lon="1.91235">
        <ele>2411.67</ele>
        <time>2017-08-14T09:38:02Z</time>
      </trkpt>
      <trkpt lat="42.60745" lon="1.91218">
        <ele>2410.62</ele>
        <time>2017-08-14T09:38:17Z</time>
      </trkpt>
      <trkpt lat="42.60761" lon="1.91205">
        <ele>2409.62</ele>
        <time>2017-08-14T09:38:33Z</time>
      </trkpt>
      <trkpt lat="42.60771" lon="1.91183">
        <ele>2408.8</ele>
        <time>2017-08-14T09:39:10Z</time>
      </trkpt>
      <trkpt lat="42.60789" lon="1.91184">
        <ele>2409.3</ele>
        <time>2017-08-14T09:39:32Z</time>
      </trkpt>
      <trkpt lat="42.60793" lon="1.91159">
        <ele>2413.66</ele>
        <time>2017-08-14T09:39:56Z</time>
      </trkpt>
      <trkpt lat="42.60806" lon="1.91141">
        <ele>2407.78</ele>
        <time>2017-08-14T09:41:17Z</time>
      </trkpt>
      <trkpt lat="42.6082" lon="1.91125">
        <ele>2405.59</ele>
        <time>2017-08-14T09:41:31Z</time>
      </trkpt>
      <trkpt lat="42.60838" lon="1.91118">
        <ele>2409.31</ele>
        <time>2017-08-14T09:41:49Z</time>
      </trkpt>
      <trkpt lat="42.60855" lon="1.91106">
        <ele>2406.91</ele>
        <time>2017-08-14T09:42:08Z</time>
      </trkpt>
      <trkpt lat="42.60873" lon="1.911">
        <ele>2402.69</ele>
        <time>2017-08-14T09:42:35Z</time>
      </trkpt>
      <trkpt lat="42.6089" lon="1.9109">
        <ele>2404.4</ele>
        <time>2017-08-14T09:43:03Z</time>
      </trkpt>
      <trkpt lat="42.60908" lon="1.91084">
        <ele>2403.58</ele>
        <time>2017-08-14T09:43:20Z</time>
      </trkpt>
      <trkpt lat="42.60921" lon="1.91066">
        <ele>2403.62</ele>
        <time>2017-08-14T09:43:36Z</time>
      </trkpt>
      <trkpt lat="42.60935" lon="1.91051">
        <ele>2402.59</ele>
        <time>2017-08-14T09:43:54Z</time>
      </trkpt>
      <trkpt lat="42.60952" lon="1.91044">
        <ele>2396.6</ele>
        <time>2017-08-14T09:44:17Z</time>
      </trkpt>
      <trkpt lat="42.60968" lon="1.91029">
        <ele>2395.66</ele>
        <time>2017-08-14T09:44:40Z</time>
      </trkpt>
      <trkpt lat="42.60984" lon="1.91017">
        <ele>2384.99</ele>
        <time>2017-08-14T09:45:33Z</time>
      </trkpt>
      <trkpt lat="42.60997" lon="1.90999">
        <ele>2382.08</ele>
        <time>2017-08-14T09:45:55Z</time>
      </trkpt>
      <trkpt lat="42.61012" lon="1.90985">
        <ele>2379.5</ele>
        <time>2017-08-14T09:46:39Z</time>
      </trkpt>
      <trkpt lat="42.61025" lon="1.90967">
        <ele>2369.69</ele>
        <time>2017-08-14T09:47:03Z</time>
      </trkpt>
      <trkpt lat="42.61038" lon="1.90949">
        <ele>2367.78</ele>
        <time>2017-08-14T09:47:24Z</time>
      </trkpt>
      <trkpt lat="42.61052" lon="1.90934">
        <ele>2367.39</ele>
        <time>2017-08-14T09:47:52Z</time>
      </trkpt>
      <trkpt lat="42.61057" lon="1.9091">
        <ele>2372.52</ele>
        <time>2017-08-14T09:48:31Z</time>
      </trkpt>
      <trkpt lat="42.61058" lon="1.90885">
        <ele>2369.67</ele>
        <time>2017-08-14T09:48:57Z</time>
      </trkpt>
      <trkpt lat="42.61072" lon="1.90869">
        <ele>2372.71</ele>
        <time>2017-08-14T09:49:46Z</time>
      </trkpt>
      <trkpt lat="42.61086" lon="1.90852">
        <ele>2375.6</ele>
        <time>2017-08-14T09:50:17Z</time>
      </trkpt>
      <trkpt lat="42.61094" lon="1.90831">
        <ele>2382.58</ele>
        <time>2017-08-14T09:51:00Z</time>
      </trkpt>
      <trkpt lat="42.61097" lon="1.90806">
        <ele>2392.6</ele>
        <time>2017-08-14T09:51:48Z</time>
      </trkpt>
      <trkpt lat="42.61113" lon="1.90792">
        <ele>2393.28</ele>
        <time>2017-08-14T09:52:27Z</time>
      </trkpt>
      <trkpt lat="42.61127" lon="1.90777">
        <ele>2398.75</ele>
        <time>2017-08-14T09:53:08Z</time>
      </trkpt>
      <trkpt lat="42.61144" lon="1.90784">
        <ele>2401.8</ele>
        <time>2017-08-14T09:53:41Z</time>
      </trkpt>
      <trkpt lat="42.61157" lon="1.90765">
        <ele>2396.97</ele>
        <time>2017-08-14T09:55:17Z</time>
      </trkpt>
      <trkpt lat="42.61175" lon="1.90772">
        <ele>2384.56</ele>
        <time>2017-08-14T09:56:11Z</time>
      </trkpt>
      <trkpt lat="42.61184" lon="1.90794">
        <ele>2387.59</ele>
        <time>2017-08-14T09:56:52Z</time>
      </trkpt>
      <trkpt lat="42.61188" lon="1.90818">
        <ele>2387.27</ele>
        <time>2017-08-14T09:58:16Z</time>
      </trkpt>
      <trkpt lat="42.61198" lon="1.9084">
        <ele>2378.57</ele>
        <time>2017-08-14T09:58:59Z</time>
      </trkpt>
      <trkpt lat="42.61196" lon="1.90864">
        <ele>2374.59</ele>
        <time>2017-08-14T09:59:30Z</time>
      </trkpt>
      <trkpt lat="42.61197" lon="1.90889">
        <ele>2358.67</ele>
        <time>2017-08-14T10:02:02Z</time>
      </trkpt>
      <trkpt lat="42.61195" lon="1.90915">
        <ele>2351.3</ele>
        <time>2017-08-14T10:02:55Z</time>
      </trkpt>
      <trkpt lat="42.61214" lon="1.9092">
        <ele>2348.3</ele>
        <time>2017-08-14T10:03:41Z</time>
      </trkpt>
      <trkpt lat="42.61223" lon="1.90941">
        <ele>2352.02</ele>
        <time>2017-08-14T10:04:07Z</time>
      </trkpt>
      <trkpt lat="42.61242" lon="1.90942">
        <ele>2335.34</ele>
        <time>2017-08-14T10:04:37Z</time>
      </trkpt>
      <trkpt lat="42.61258" lon="1.90954">
        <ele>2331.59</ele>
        <time>2017-08-14T10:05:08Z</time>
      </trkpt>
      <trkpt lat="42.6127" lon="1.90973">
        <ele>2326.57</ele>
        <time>2017-08-14T10:05:42Z</time>
      </trkpt>
      <trkpt lat="42.61282" lon="1.90992">
        <ele>2325.6</ele>
        <time>2017-08-14T10:06:00Z</time>
      </trkpt>
      <trkpt lat="42.61288" lon="1.91016">
        <ele>2321.63</ele>
        <time>2017-08-14T10:06:29Z</time>
      </trkpt>
      <trkpt lat="42.613" lon="1.91036">
        <ele>2322.29</ele>
        <time>2017-08-14T10:07:06Z</time>
      </trkpt>
      <trkpt lat="42.61318" lon="1.91032">
        <ele>2308.28</ele>
        <time>2017-08-14T10:08:35Z</time>
      </trkpt>
      <trkpt lat="42.61332" lon="1.91047">
        <ele>2312.77</ele>
        <time>2017-08-14T10:09:00Z</time>
      </trkpt>
      <trkpt lat="42.61342" lon="1.91069">
        <ele>2312.58</ele>
        <time>2017-08-14T10:09:24Z</time>
      </trkpt>
      <trkpt lat="42.61356" lon="1.91085">
        <ele>2312.31</ele>
        <time>2017-08-14T10:09:42Z</time>
      </trkpt>
      <trkpt lat="42.6137" lon="1.91101">
        <ele>2309.7</ele>
        <time>2017-08-14T10:10:34Z</time>
      </trkpt>
      <trkpt lat="42.61372" lon="1.91126">
        <ele>2308.29</ele>
        <time>2017-08-14T10:10:57Z</time>
      </trkpt>
      <trkpt lat="42.61364" lon="1.91148">
        <ele>2303.81</ele>
        <time>2017-08-14T10:12:18Z</time>
      </trkpt>
      <trkpt lat="42.61368" lon="1.91173">
        <ele>2294.32</ele>
        <time>2017-08-14T10:13:32Z</time>
      </trkpt>
      <trkpt lat="42.61356" lon="1.91193">
        <ele>2279</ele>
        <time>2017-08-14T10:14:20Z</time>
      </trkpt>
      <trkpt lat="42.61356" lon="1.91218">
        <ele>2271.6</ele>
        <time>2017-08-14T10:15:09Z</time>
      </trkpt>
      <trkpt lat="42.61365" lon="1.91241">
        <ele>2255</ele>
        <time>2017-08-14T10:16:24Z</time>
      </trkpt>
      <trkpt lat="42.61373" lon="1.91263">
        <ele>2249.55</ele>
        <time>2017-08-14T10:16:57Z</time>
      </trkpt>
      <trkpt lat="42.61375" lon="1.91288">
        <ele>2232.96</ele>
        <time>2017-08-14T10:17:36Z</time>
      </trkpt>
      <trkpt lat="42.61382" lon="1.91311">
        <ele>2230.3</ele>
        <time>2017-08-14T10:18:10Z</time>
      </trkpt>
      <trkpt lat="42.61384" lon="1.91337">
        <ele>2229.97</ele>
        <time>2017-08-14T10:18:45Z</time>
      </trkpt>
      <trkpt lat="42.6139" lon="1.9136">
        <ele>2225.69</ele>
        <time>2017-08-14T10:19:16Z</time>
      </trkpt>
      <trkpt lat="42.61401" lon="1.91382">
        <ele>2228.98</ele>
        <time>2017-08-14T10:20:10Z</time>
      </trkpt>
      <trkpt lat="42.6141" lon="1.91403">
        <ele>2225.39</ele>
        <time>2017-08-14T10:20:50Z</time>
      </trkpt>
      <trkpt lat="42.61404" lon="1.91427">
        <ele>2223.64</ele>
        <time>2017-08-14T10:21:07Z</time>
      </trkpt>
      <trkpt lat="42.6141" lon="1.91453">
        <ele>2213.66</ele>
        <time>2017-08-14T10:21:55Z</time>
      </trkpt>
      <trkpt lat="42.61425" lon="1.91467">
        <ele>2215.31</ele>
        <time>2017-08-14T10:22:27Z</time>
      </trkpt>
      <trkpt lat="42.61443" lon="1.91472">
        <ele>2212.9</ele>
        <time>2017-08-14T10:22:50Z</time>
      </trkpt>
      <trkpt lat="42.6145" lon="1.91494">
        <ele>2215.19</ele>
        <time>2017-08-14T10:23:37Z</time>
      </trkpt>
      <trkpt lat="42.61451" lon="1.91519">
        <ele>2208.66</ele>
        <time>2017-08-14T10:24:15Z</time>
      </trkpt>
      <trkpt lat="42.61459" lon="1.91541">
        <ele>2205.92</ele>
        <time>2017-08-14T10:24:38Z</time>
      </trkpt>
      <trkpt lat="42.61473" lon="1.91559">
        <ele>2206.19</ele>
        <time>2017-08-14T10:25:06Z</time>
      </trkpt>
      <trkpt lat="42.61486" lon="1.91576">
        <ele>2203.51</ele>
        <time>2017-08-14T10:25:25Z</time>
      </trkpt>
      <trkpt lat="42.6149" lon="1.91601">
        <ele>2203.91</ele>
        <time>2017-08-14T10:25:55Z</time>
      </trkpt>
      <trkpt lat="42.615" lon="1.91623">
        <ele>2206.37</ele>
        <time>2017-08-14T10:26:11Z</time>
      </trkpt>
      <trkpt lat="42.6151" lon="1.91644">
        <ele>2209.51</ele>
        <time>2017-08-14T10:26:31Z</time>
      </trkpt>
      <trkpt lat="42.61519" lon="1.91666">
        <ele>2207.59</ele>
        <time>2017-08-14T10:27:08Z</time>
      </trkpt>
      <trkpt lat="42.6153" lon="1.91686">
        <ele>2202.99</ele>
        <time>2017-08-14T10:27:37Z</time>
      </trkpt>
      <trkpt lat="42.61534" lon="1.91711">
        <ele>2201.61</ele>
        <time>2017-08-14T10:28:01Z</time>
      </trkpt>
      <trkpt lat="42.61544" lon="1.91731">
        <ele>2207.22</ele>
        <time>2017-08-14T10:28:50Z</time>
      </trkpt>
      <trkpt lat="42.61544" lon="1.91757">
        <ele>2209.36</ele>
        <time>2017-08-14T10:29:25Z</time>
      </trkpt>
      <trkpt lat="42.61549" lon="1.91782">
        <ele>2203.6</ele>
        <time>2017-08-14T10:43:55Z</time>
      </trkpt>
      <trkpt lat="42.61549" lon="1.91806">
        <ele>2193.01</ele>
        <time>2017-08-14T10:44:31Z</time>
      </trkpt>
      <trkpt lat="42.61552" lon="1.91831">
        <ele>2189.61</ele>
        <time>2017-08-14T10:45:14Z</time>
      </trkpt>
      <trkpt lat="42.61547" lon="1.91855">
        <ele>2182.94</ele>
        <time>2017-08-14T10:45:43Z</time>
      </trkpt>
      <trkpt lat="42.61545" lon="1.9188">
        <ele>2178.44</ele>
        <time>2017-08-14T10:46:30Z</time>
      </trkpt>
      <trkpt lat="42.61545" lon="1.91905">
        <ele>2176.6</ele>
        <time>2017-08-14T10:46:51Z</time>
      </trkpt>
      <trkpt lat="42.6155" lon="1.91929">
        <ele>2177.99</ele>
        <time>2017-08-14T10:47:13Z</time>
      </trkpt>
      <trkpt lat="42.61558" lon="1.91952">
        <ele>2176.11</ele>
        <time>2017-08-14T10:47:35Z</time>
      </trkpt>
      <trkpt lat="42.6157" lon="1.91972">
        <ele>2177.78</ele>
        <time>2017-08-14T10:47:55Z</time>
      </trkpt>
      <trkpt lat="42.6157" lon="1.91997">
        <ele>2174.84</ele>
        <time>2017-08-14T10:48:19Z</time>
      </trkpt>
      <trkpt lat="42.61577" lon="1.92021">
        <ele>2175.5</ele>
        <time>2017-08-14T10:48:59Z</time>
      </trkpt>
      <trkpt lat="42.6159" lon="1.92039">
        <ele>2173.59</ele>
        <time>2017-08-14T10:49:17Z</time>
      </trkpt>
      <trkpt lat="42.61591" lon="1.92066">
        <ele>2169.61</ele>
        <time>2017-08-14T10:49:38Z</time>
      </trkpt>
      <trkpt lat="42.61596" lon="1.9209">
        <ele>2173.86</ele>
        <time>2017-08-14T10:50:02Z</time>
      </trkpt>
      <trkpt lat="42.61602" lon="1.92113">
        <ele>2175.71</ele>
        <time>2017-08-14T10:50:24Z</time>
      </trkpt>
      <trkpt lat="42.6161" lon="1.92135">
        <ele>2173.69</ele>
        <time>2017-08-14T10:50:54Z</time>
      </trkpt>
      <trkpt lat="42.61622" lon="1.92155">
        <ele>2169.89</ele>
        <time>2017-08-14T10:51:26Z</time>
      </trkpt>
      <trkpt lat="42.61634" lon="1.92176">
        <ele>2170.9</ele>
        <time>2017-08-14T10:51:54Z</time>
      </trkpt>
      <trkpt lat="42.61635" lon="1.92202">
        <ele>2168.96</ele>
        <time>2017-08-14T10:52:17Z</time>
      </trkpt>
      <trkpt lat="42.6164" lon="1.92225">
        <ele>2166.09</ele>
        <time>2017-08-14T10:52:33Z</time>
      </trkpt>
      <trkpt lat="42.61651" lon="1.92246">
        <ele>2156.58</ele>
        <time>2017-08-14T10:54:21Z</time>
      </trkpt>
      <trkpt lat="42.61642" lon="1.92268">
        <ele>2150.86</ele>
        <time>2017-08-14T10:54:47Z</time>
      </trkpt>
      <trkpt lat="42.61661" lon="1.92281">
        <ele>2142.4</ele>
        <time>2017-08-14T10:55:28Z</time>
      </trkpt>
      <trkpt lat="42.61642" lon="1.92289">
        <ele>2135.84</ele>
        <time>2017-08-14T10:55:52Z</time>
      </trkpt>
      <trkpt lat="42.6163" lon="1.92309">
        <ele>2126.81</ele>
        <time>2017-08-14T10:56:29Z</time>
      </trkpt>
      <trkpt lat="42.61643" lon="1.92326">
        <ele>2124.6</ele>
        <time>2017-08-14T10:57:07Z</time>
      </trkpt>
      <trkpt lat="42.61656" lon="1.92345">
        <ele>2122.9</ele>
        <time>2017-08-14T10:58:22Z</time>
      </trkpt>
      <trkpt lat="42.61664" lon="1.92367">
        <ele>2121.6</ele>
        <time>2017-08-14T10:58:56Z</time>
      </trkpt>
      <trkpt lat="42.61676" lon="1.92387">
        <ele>2116.32</ele>
        <time>2017-08-14T10:59:32Z</time>
      </trkpt>
      <trkpt lat="42.61685" lon="1.92408">
        <ele>2113.51</ele>
        <time>2017-08-14T10:59:59Z</time>
      </trkpt>
      <trkpt lat="42.61701" lon="1.92418">
        <ele>2107.52</ele>
        <time>2017-08-14T11:00:35Z</time>
      </trkpt>
      <trkpt lat="42.61719" lon="1.92422">
        <ele>2103.6</ele>
        <time>2017-08-14T11:01:21Z</time>
      </trkpt>
      <trkpt lat="42.61735" lon="1.92434">
        <ele>2102.3</ele>
        <time>2017-08-14T11:02:03Z</time>
      </trkpt>
      <trkpt lat="42.61742" lon="1.92457">
        <ele>2097.4</ele>
        <time>2017-08-14T11:02:32Z</time>
      </trkpt>
      <trkpt lat="42.61754" lon="1.92477">
        <ele>2092.58</ele>
        <time>2017-08-14T11:02:59Z</time>
      </trkpt>
      <trkpt lat="42.61754" lon="1.92502">
        <ele>2083.41</ele>
        <time>2017-08-14T11:03:38Z</time>
      </trkpt>
      <trkpt lat="42.61766" lon="1.92522">
        <ele>2080.8</ele>
        <time>2017-08-14T11:04:02Z</time>
      </trkpt>
      <trkpt lat="42.61774" lon="1.92544">
        <ele>2084.6</ele>
        <time>2017-08-14T11:04:28Z</time>
      </trkpt>
      <trkpt lat="42.61784" lon="1.92564">
        <ele>2079.61</ele>
        <time>2017-08-14T11:04:54Z</time>
      </trkpt>
      <trkpt lat="42.61796" lon="1.92584">
        <ele>2077.9</ele>
        <time>2017-08-14T11:06:12Z</time>
      </trkpt>
      <trkpt lat="42.61812" lon="1.92598">
        <ele>2068.19</ele>
        <time>2017-08-14T11:06:34Z</time>
      </trkpt>
      <trkpt lat="42.61829" lon="1.92609">
        <ele>2066.69</ele>
        <time>2017-08-14T11:06:57Z</time>
      </trkpt>
      <trkpt lat="42.61846" lon="1.92622">
        <ele>2076.29</ele>
        <time>2017-08-14T11:07:26Z</time>
      </trkpt>
      <trkpt lat="42.61862" lon="1.92634">
        <ele>2072.54</ele>
        <time>2017-08-14T11:08:03Z</time>
      </trkpt>
      <trkpt lat="42.61866" lon="1.92658">
        <ele>2078.85</ele>
        <time>2017-08-14T11:08:34Z</time>
      </trkpt>
      <trkpt lat="42.61878" lon="1.92677">
        <ele>2083.53</ele>
        <time>2017-08-14T11:08:59Z</time>
      </trkpt>
      <trkpt lat="42.61884" lon="1.92701">
        <ele>2092.59</ele>
        <time>2017-08-14T11:09:43Z</time>
      </trkpt>
      <trkpt lat="42.61888" lon="1.92725">
        <ele>2102.38</ele>
        <time>2017-08-14T11:10:22Z</time>
      </trkpt>
      <trkpt lat="42.61896" lon="1.92747">
        <ele>2101.99</ele>
        <time>2017-08-14T11:10:56Z</time>
      </trkpt>
      <trkpt lat="42.61901" lon="1.92772">
        <ele>2107.92</ele>
        <time>2017-08-14T11:11:29Z</time>
      </trkpt>
      <trkpt lat="42.61904" lon="1.92797">
        <ele>2108.5</ele>
        <time>2017-08-14T11:11:59Z</time>
      </trkpt>
      <trkpt lat="42.61913" lon="1.9282">
        <ele>2104.53</ele>
        <time>2017-08-14T11:12:23Z</time>
      </trkpt>
      <trkpt lat="42.6192" lon="1.92843">
        <ele>2101.51</ele>
        <time>2017-08-14T11:13:18Z</time>
      </trkpt>
      <trkpt lat="42.61928" lon="1.92865">
        <ele>2094.99</ele>
        <time>2017-08-14T11:13:51Z</time>
      </trkpt>
      <trkpt lat="42.61932" lon="1.9289">
        <ele>2090.36</ele>
        <time>2017-08-14T11:14:27Z</time>
      </trkpt>
      <trkpt lat="42.61941" lon="1.92911">
        <ele>2080.69</ele>
        <time>2017-08-14T11:14:49Z</time>
      </trkpt>
      <trkpt lat="42.61949" lon="1.92934">
        <ele>2081.9</ele>
        <time>2017-08-14T11:15:10Z</time>
      </trkpt>
      <trkpt lat="42.61955" lon="1.92957">
        <ele>2075.98</ele>
        <time>2017-08-14T11:15:35Z</time>
      </trkpt>
      <trkpt lat="42.61962" lon="1.9298">
        <ele>2078.94</ele>
        <time>2017-08-14T11:15:51Z</time>
      </trkpt>
      <trkpt lat="42.61967" lon="1.93004">
        <ele>2082.36</ele>
        <time>2017-08-14T11:16:12Z</time>
      </trkpt>
      <trkpt lat="42.61975" lon="1.93027">
        <ele>2082.18</ele>
        <time>2017-08-14T11:16:36Z</time>
      </trkpt>
      <trkpt lat="42.61984" lon="1.93049">
        <ele>2081.19</ele>
        <time>2017-08-14T11:17:04Z</time>
      </trkpt>
      <trkpt lat="42.61988" lon="1.93073">
        <ele>2077.42</ele>
        <time>2017-08-14T11:17:27Z</time>
      </trkpt>
      <trkpt lat="42.6199" lon="1.93098">
        <ele>2073.66</ele>
        <time>2017-08-14T11:18:06Z</time>
      </trkpt>
      <trkpt lat="42.61993" lon="1.93122">
        <ele>2071.28</ele>
        <time>2017-08-14T11:18:40Z</time>
      </trkpt>
      <trkpt lat="42.61994" lon="1.93148">
        <ele>2066.6</ele>
        <time>2017-08-14T11:19:01Z</time>
      </trkpt>
      <trkpt lat="42.61992" lon="1.93173">
        <ele>2067.69</ele>
        <time>2017-08-14T11:19:27Z</time>
      </trkpt>
      <trkpt lat="42.62005" lon="1.93192">
        <ele>2061.29</ele>
        <time>2017-08-14T11:20:25Z</time>
      </trkpt>
      <trkpt lat="42.62004" lon="1.93216">
        <ele>2052.6</ele>
        <time>2017-08-14T11:20:44Z</time>
      </trkpt>
      <trkpt lat="42.62007" lon="1.93241">
        <ele>2050.27</ele>
        <time>2017-08-14T11:21:11Z</time>
      </trkpt>
      <trkpt lat="42.62018" lon="1.93263">
        <ele>2051.31</ele>
        <time>2017-08-14T11:21:29Z</time>
      </trkpt>
      <trkpt lat="42.62027" lon="1.93287">
        <ele>2043.61</ele>
        <time>2017-08-14T11:21:49Z</time>
      </trkpt>
      <trkpt lat="42.62035" lon="1.9331">
        <ele>2046.73</ele>
        <time>2017-08-14T11:22:22Z</time>
      </trkpt>
      <trkpt lat="42.62039" lon="1.93334">
        <ele>2043.87</ele>
        <time>2017-08-14T11:22:40Z</time>
      </trkpt>
      <trkpt lat="42.62044" lon="1.93358">
        <ele>2041.53</ele>
        <time>2017-08-14T11:22:57Z</time>
      </trkpt>
      <trkpt lat="42.62055" lon="1.93377">
        <ele>2034.53</ele>
        <time>2017-08-14T11:23:17Z</time>
      </trkpt>
      <trkpt lat="42.62063" lon="1.934">
        <ele>2033.47</ele>
        <time>2017-08-14T11:23:32Z</time>
      </trkpt>
      <trkpt lat="42.62073" lon="1.93422">
        <ele>2028.38</ele>
        <time>2017-08-14T11:23:50Z</time>
      </trkpt>
      <trkpt lat="42.6209" lon="1.93412">
        <ele>2025.59</ele>
        <time>2017-08-14T11:24:05Z</time>
      </trkpt>
      <trkpt lat="42.62097" lon="1.93389">
        <ele>2017.99</ele>
        <time>2017-08-14T11:24:26Z</time>
      </trkpt>
      <trkpt lat="42.62112" lon="1.93374">
        <ele>2000.99</ele>
        <time>2017-08-14T11:26:11Z</time>
      </trkpt>
      <trkpt lat="42.6213" lon="1.93367">
        <ele>1983.02</ele>
        <time>2017-08-14T11:27:18Z</time>
      </trkpt>
      <trkpt lat="42.62139" lon="1.93347">
        <ele>1973.88</ele>
        <time>2017-08-14T11:27:58Z</time>
      </trkpt>
      <trkpt lat="42.62158" lon="1.93345">
        <ele>1974.69</ele>
        <time>2017-08-14T11:28:43Z</time>
      </trkpt>
      <trkpt lat="42.62177" lon="1.93346">
        <ele>1971.29</ele>
        <time>2017-08-14T11:29:01Z</time>
      </trkpt>
      <trkpt lat="42.62195" lon="1.93338">
        <ele>1970.69</ele>
        <time>2017-08-14T11:29:23Z</time>
      </trkpt>
      <trkpt lat="42.62211" lon="1.93325">
        <ele>1966.66</ele>
        <time>2017-08-14T11:29:40Z</time>
      </trkpt>
      <trkpt lat="42.62223" lon="1.93343">
        <ele>1964.67</ele>
        <time>2017-08-14T11:32:06Z</time>
      </trkpt>
      <trkpt lat="42.62228" lon="1.93368">
        <ele>1954.21</ele>
        <time>2017-08-14T11:32:22Z</time>
      </trkpt>
      <trkpt lat="42.62233" lon="1.93392">
        <ele>1952.89</ele>
        <time>2017-08-14T11:32:42Z</time>
      </trkpt>
      <trkpt lat="42.62238" lon="1.93416">
        <ele>1958.7</ele>
        <time>2017-08-14T11:33:02Z</time>
      </trkpt>
      <trkpt lat="42.62252" lon="1.93434">
        <ele>1968.6</ele>
        <time>2017-08-14T11:33:28Z</time>
      </trkpt>
      <trkpt lat="42.6227" lon="1.9344">
        <ele>1973.49</ele>
        <time>2017-08-14T11:33:47Z</time>
      </trkpt>
      <trkpt lat="42.62281" lon="1.93459">
        <ele>1970.61</ele>
        <time>2017-08-14T11:34:02Z</time>
      </trkpt>
      <trkpt lat="42.62292" lon="1.9348">
        <ele>1963.9</ele>
        <time>2017-08-14T11:34:30Z</time>
      </trkpt>
      <trkpt lat="42.62296" lon="1.93505">
        <ele>1957.32</ele>
        <time>2017-08-14T11:34:48Z</time>
      </trkpt>
      <trkpt lat="42.62304" lon="1.93526">
        <ele>1954.72</ele>
        <time>2017-08-14T11:35:04Z</time>
      </trkpt>
      <trkpt lat="42.62316" lon="1.93546">
        <ele>1956.57</ele>
        <time>2017-08-14T11:35:21Z</time>
      </trkpt>
      <trkpt lat="42.62329" lon="1.93563">
        <ele>1954.8</ele>
        <time>2017-08-14T11:35:36Z</time>
      </trkpt>
      <trkpt lat="42.62337" lon="1.93588">
        <ele>1949.9</ele>
        <time>2017-08-14T11:35:55Z</time>
      </trkpt>
      <trkpt lat="42.62346" lon="1.93611">
        <ele>1949.58</ele>
        <time>2017-08-14T11:36:11Z</time>
      </trkpt>
      <trkpt lat="42.62353" lon="1.93634">
        <ele>1948.26</ele>
        <time>2017-08-14T11:36:28Z</time>
      </trkpt>
      <trkpt lat="42.6236" lon="1.93658">
        <ele>1942.39</ele>
        <time>2017-08-14T11:36:46Z</time>
      </trkpt>
      <trkpt lat="42.62375" lon="1.93674">
        <ele>1943.29</ele>
        <time>2017-08-14T11:36:59Z</time>
      </trkpt>
      <trkpt lat="42.62391" lon="1.93688">
        <ele>1944.7</ele>
        <time>2017-08-14T11:37:16Z</time>
      </trkpt>
      <trkpt lat="42.62403" lon="1.93709">
        <ele>1942.2</ele>
        <time>2017-08-14T11:37:33Z</time>
      </trkpt>
      <trkpt lat="42.62416" lon="1.93727">
        <ele>1946.47</ele>
        <time>2017-08-14T11:37:49Z</time>
      </trkpt>
      <trkpt lat="42.62429" lon="1.93746">
        <ele>1943.71</ele>
        <time>2017-08-14T11:38:10Z</time>
      </trkpt>
      <trkpt lat="42.6244" lon="1.93766">
        <ele>1945.59</ele>
        <time>2017-08-14T11:38:27Z</time>
      </trkpt>
      <trkpt lat="42.62446" lon="1.9379">
        <ele>1946.51</ele>
        <time>2017-08-14T11:38:43Z</time>
      </trkpt>
      <trkpt lat="42.62455" lon="1.93811">
        <ele>1939.63</ele>
        <time>2017-08-14T11:39:03Z</time>
      </trkpt>
      <trkpt lat="42.62468" lon="1.9383">
        <ele>1943.79</ele>
        <time>2017-08-14T11:39:25Z</time>
      </trkpt>
      <trkpt lat="42.62481" lon="1.93847">
        <ele>1947.48</ele>
        <time>2017-08-14T11:39:48Z</time>
      </trkpt>
      <trkpt lat="42.6249" lon="1.93869">
        <ele>1948.54</ele>
        <time>2017-08-14T11:40:10Z</time>
      </trkpt>
      <trkpt lat="42.62494" lon="1.93894">
        <ele>1947</ele>
        <time>2017-08-14T11:40:30Z</time>
      </trkpt>
      <trkpt lat="42.62502" lon="1.93916">
        <ele>1947.68</ele>
        <time>2017-08-14T11:40:59Z</time>
      </trkpt>
      <trkpt lat="42.62514" lon="1.93935">
        <ele>1949.5</ele>
        <time>2017-08-14T11:41:34Z</time>
      </trkpt>
      <trkpt lat="42.62523" lon="1.93958">
        <ele>1957.56</ele>
        <time>2017-08-14T11:41:57Z</time>
      </trkpt>
      <trkpt lat="42.62532" lon="1.9398">
        <ele>1954.71</ele>
        <time>2017-08-14T11:42:17Z</time>
      </trkpt>
      <trkpt lat="42.62539" lon="1.94003">
        <ele>1959.59</ele>
        <time>2017-08-14T11:42:35Z</time>
      </trkpt>
      <trkpt lat="42.62543" lon="1.94027">
        <ele>1960.6</ele>
        <time>2017-08-14T11:42:52Z</time>
      </trkpt>
      <trkpt lat="42.62547" lon="1.94051">
        <ele>1956.86</ele>
        <time>2017-08-14T11:43:10Z</time>
      </trkpt>
      <trkpt lat="42.62556" lon="1.94074">
        <ele>1952.33</ele>
        <time>2017-08-14T11:43:38Z</time>
      </trkpt>
      <trkpt lat="42.6256" lon="1.94098">
        <ele>1939.2</ele>
        <time>2017-08-14T11:44:04Z</time>
      </trkpt>
      <trkpt lat="42.62564" lon="1.94122">
        <ele>1937.63</ele>
        <time>2017-08-14T11:44:28Z</time>
      </trkpt>
      <trkpt lat="42.62561" lon="1.94147">
        <ele>1935.61</ele>
        <time>2017-08-14T11:44:49Z</time>
      </trkpt>
      <trkpt lat="42.62563" lon="1.94172">
        <ele>1934.89</ele>
        <time>2017-08-14T11:45:06Z</time>
      </trkpt>
      <trkpt lat="42.6256" lon="1.94196">
        <ele>1935.96</ele>
        <time>2017-08-14T11:45:26Z</time>
      </trkpt>
      <trkpt lat="42.62564" lon="1.9422">
        <ele>1943.86</ele>
        <time>2017-08-14T11:45:53Z</time>
      </trkpt>
      <trkpt lat="42.62569" lon="1.94244">
        <ele>1945.1</ele>
        <time>2017-08-14T11:46:21Z</time>
      </trkpt>
      <trkpt lat="42.62575" lon="1.94268">
        <ele>1950.58</ele>
        <time>2017-08-14T11:47:13Z</time>
      </trkpt>
      <trkpt lat="42.62584" lon="1.94289">
        <ele>1947.59</ele>
        <time>2017-08-14T11:47:35Z</time>
      </trkpt>
      <trkpt lat="42.62595" lon="1.9431">
        <ele>1945.64</ele>
        <time>2017-08-14T11:47:53Z</time>
      </trkpt>
      <trkpt lat="42.62606" lon="1.9433">
        <ele>1954.57</ele>
        <time>2017-08-14T11:48:10Z</time>
      </trkpt>
      <trkpt lat="42.62617" lon="1.94351">
        <ele>1960.6</ele>
        <time>2017-08-14T11:48:31Z</time>
      </trkpt>
      <trkpt lat="42.62625" lon="1.94373">
        <ele>1964.26</ele>
        <time>2017-08-14T11:48:50Z</time>
      </trkpt>
      <trkpt lat="42.62638" lon="1.9439">
        <ele>1968.2</ele>
        <time>2017-08-14T11:49:10Z</time>
      </trkpt>
      <trkpt lat="42.62656" lon="1.94401">
        <ele>1970.27</ele>
        <time>2017-08-14T11:49:30Z</time>
      </trkpt>
      <trkpt lat="42.62665" lon="1.94403">
        <ele>1943.59</ele>
        <time>2017-08-14T12:29:33Z</time>
      </trkpt>
      <trkpt lat="42.6267" lon="1.94428">
        <ele>1962.41</ele>
        <time>2017-08-14T12:33:48Z</time>
      </trkpt>
      <trkpt lat="42.62675" lon="1.94452">
        <ele>1960.53</ele>
        <time>2017-08-14T12:34:05Z</time>
      </trkpt>
      <trkpt lat="42.62664" lon="1.94471">
        <ele>1959.39</ele>
        <time>2017-08-14T12:34:26Z</time>
      </trkpt>
      <trkpt lat="42.62669" lon="1.94496">
        <ele>1962.65</ele>
        <time>2017-08-14T12:34:48Z</time>
      </trkpt>
      <trkpt lat="42.62677" lon="1.94518">
        <ele>1964.35</ele>
        <time>2017-08-14T12:35:08Z</time>
      </trkpt>
      <trkpt lat="42.62694" lon="1.94527">
        <ele>1962.96</ele>
        <time>2017-08-14T12:35:34Z</time>
      </trkpt>
      <trkpt lat="42.62691" lon="1.94552">
        <ele>1966.56</ele>
        <time>2017-08-14T12:35:55Z</time>
      </trkpt>
      <trkpt lat="42.62683" lon="1.94575">
        <ele>1964.9</ele>
        <time>2017-08-14T12:36:28Z</time>
      </trkpt>
      <trkpt lat="42.62682" lon="1.94601">
        <ele>1956.79</ele>
        <time>2017-08-14T12:36:49Z</time>
      </trkpt>
      <trkpt lat="42.6268" lon="1.94626">
        <ele>1956.6</ele>
        <time>2017-08-14T12:37:08Z</time>
      </trkpt>
      <trkpt lat="42.62692" lon="1.94646">
        <ele>1952.92</ele>
        <time>2017-08-14T12:37:30Z</time>
      </trkpt>
      <trkpt lat="42.62701" lon="1.94668">
        <ele>1954.08</ele>
        <time>2017-08-14T12:37:48Z</time>
      </trkpt>
      <trkpt lat="42.6271" lon="1.94689">
        <ele>1951.6</ele>
        <time>2017-08-14T12:38:10Z</time>
      </trkpt>
      <trkpt lat="42.62713" lon="1.94714">
        <ele>1950.59</ele>
        <time>2017-08-14T12:38:31Z</time>
      </trkpt>
      <trkpt lat="42.62723" lon="1.94735">
        <ele>1953.3</ele>
        <time>2017-08-14T12:38:50Z</time>
      </trkpt>
      <trkpt lat="42.62729" lon="1.94759">
        <ele>1957.6</ele>
        <time>2017-08-14T12:39:20Z</time>
      </trkpt>
      <trkpt lat="42.62745" lon="1.94769">
        <ele>1968.27</ele>
        <time>2017-08-14T12:39:53Z</time>
      </trkpt>
      <trkpt lat="42.62759" lon="1.94787">
        <ele>1970.61</ele>
        <time>2017-08-14T12:40:19Z</time>
      </trkpt>
      <trkpt lat="42.62758" lon="1.94812">
        <ele>1969.39</ele>
        <time>2017-08-14T12:40:42Z</time>
      </trkpt>
      <trkpt lat="42.62764" lon="1.94835">
        <ele>1970.32</ele>
        <time>2017-08-14T12:41:10Z</time>
      </trkpt>
      <trkpt lat="42.62774" lon="1.94855">
        <ele>1966.81</ele>
        <time>2017-08-14T12:41:30Z</time>
      </trkpt>
      <trkpt lat="42.62777" lon="1.9488">
        <ele>1966.61</ele>
        <time>2017-08-14T12:42:09Z</time>
      </trkpt>
      <trkpt lat="42.62784" lon="1.94904">
        <ele>1968.8</ele>
        <time>2017-08-14T12:42:32Z</time>
      </trkpt>
      <trkpt lat="42.62791" lon="1.94926">
        <ele>1968.68</ele>
        <time>2017-08-14T12:43:00Z</time>
      </trkpt>
      <trkpt lat="42.62799" lon="1.94949">
        <ele>1968.38</ele>
        <time>2017-08-14T12:43:19Z</time>
      </trkpt>
      <trkpt lat="42.62804" lon="1.94973">
        <ele>1970.84</ele>
        <time>2017-08-14T12:43:39Z</time>
      </trkpt>
      <trkpt lat="42.62805" lon="1.94997">
        <ele>1967.57</ele>
        <time>2017-08-14T12:44:01Z</time>
      </trkpt>
      <trkpt lat="42.62815" lon="1.95018">
        <ele>1965.31</ele>
        <time>2017-08-14T12:44:47Z</time>
      </trkpt>
      <trkpt lat="42.62833" lon="1.9502">
        <ele>1954.51</ele>
        <time>2017-08-14T12:45:55Z</time>
      </trkpt>
      <trkpt lat="42.62849" lon="1.95034">
        <ele>1951.69</ele>
        <time>2017-08-14T12:46:27Z</time>
      </trkpt>
      <trkpt lat="42.62863" lon="1.9505">
        <ele>1953.67</ele>
        <time>2017-08-14T12:46:55Z</time>
      </trkpt>
      <trkpt lat="42.62878" lon="1.95062">
        <ele>1947.18</ele>
        <time>2017-08-14T12:47:25Z</time>
      </trkpt>
      <trkpt lat="42.62897" lon="1.95066">
        <ele>1943.59</ele>
        <time>2017-08-14T12:47:46Z</time>
      </trkpt>
      <trkpt lat="42.62915" lon="1.95065">
        <ele>1939.94</ele>
        <time>2017-08-14T12:48:08Z</time>
      </trkpt>
      <trkpt lat="42.62934" lon="1.95066">
        <ele>1937.62</ele>
        <time>2017-08-14T12:48:33Z</time>
      </trkpt>
      <trkpt lat="42.62953" lon="1.95069">
        <ele>1937.58</ele>
        <time>2017-08-14T12:48:57Z</time>
      </trkpt>
      <trkpt lat="42.6297" lon="1.95078">
        <ele>1939</ele>
        <time>2017-08-14T12:49:27Z</time>
      </trkpt>
      <trkpt lat="42.62987" lon="1.95068">
        <ele>1936.69</ele>
        <time>2017-08-14T12:50:06Z</time>
      </trkpt>
      <trkpt lat="42.63005" lon="1.95072">
        <ele>1924.68</ele>
        <time>2017-08-14T12:50:42Z</time>
      </trkpt>
      <trkpt lat="42.63017" lon="1.9509">
        <ele>1921.59</ele>
        <time>2017-08-14T12:51:04Z</time>
      </trkpt>
      <trkpt lat="42.63029" lon="1.95108">
        <ele>1915.6</ele>
        <time>2017-08-14T12:51:32Z</time>
      </trkpt>
      <trkpt lat="42.63047" lon="1.95114">
        <ele>1909.61</ele>
        <time>2017-08-14T12:52:00Z</time>
      </trkpt>
      <trkpt lat="42.63064" lon="1.95121">
        <ele>1905.59</ele>
        <time>2017-08-14T12:52:24Z</time>
      </trkpt>
      <trkpt lat="42.63082" lon="1.95128">
        <ele>1899.6</ele>
        <time>2017-08-14T12:52:46Z</time>
      </trkpt>
      <trkpt lat="42.63099" lon="1.95137">
        <ele>1898.67</ele>
        <time>2017-08-14T12:53:10Z</time>
      </trkpt>
      <trkpt lat="42.63116" lon="1.95146">
        <ele>1890.19</ele>
        <time>2017-08-14T12:53:54Z</time>
      </trkpt>
      <trkpt lat="42.63135" lon="1.95149">
        <ele>1888.56</ele>
        <time>2017-08-14T12:54:27Z</time>
      </trkpt>
      <trkpt lat="42.63153" lon="1.95152">
        <ele>1881.66</ele>
        <time>2017-08-14T12:54:56Z</time>
      </trkpt>
      <trkpt lat="42.6317" lon="1.95161">
        <ele>1879.62</ele>
        <time>2017-08-14T12:55:44Z</time>
      </trkpt>
      <trkpt lat="42.63189" lon="1.95169">
        <ele>1864.9</ele>
        <time>2017-08-14T12:56:37Z</time>
      </trkpt>
      <trkpt lat="42.63208" lon="1.95173">
        <ele>1858.78</ele>
        <time>2017-08-14T12:57:07Z</time>
      </trkpt>
      <trkpt lat="42.63225" lon="1.9518">
        <ele>1853.39</ele>
        <time>2017-08-14T12:57:40Z</time>
      </trkpt>
      <trkpt lat="42.63242" lon="1.95189">
        <ele>1852.47</ele>
        <time>2017-08-14T12:58:15Z</time>
      </trkpt>
      <trkpt lat="42.6326" lon="1.9519">
        <ele>1846.11</ele>
        <time>2017-08-14T12:58:49Z</time>
      </trkpt>
      <trkpt lat="42.63279" lon="1.95185">
        <ele>1840.71</ele>
        <time>2017-08-14T12:59:16Z</time>
      </trkpt>
      <trkpt lat="42.63297" lon="1.95188">
        <ele>1837.89</ele>
        <time>2017-08-14T12:59:44Z</time>
      </trkpt>
      <trkpt lat="42.63315" lon="1.95192">
        <ele>1835.69</ele>
        <time>2017-08-14T13:00:11Z</time>
      </trkpt>
      <trkpt lat="42.63333" lon="1.95194">
        <ele>1827.61</ele>
        <time>2017-08-14T13:00:47Z</time>
      </trkpt>
      <trkpt lat="42.63328" lon="1.9517">
        <ele>1822.77</ele>
        <time>2017-08-14T13:01:19Z</time>
      </trkpt>
      <trkpt lat="42.63318" lon="1.95148">
        <ele>1813.71</ele>
        <time>2017-08-14T13:01:55Z</time>
      </trkpt>
      <trkpt lat="42.63333" lon="1.95136">
        <ele>1807.9</ele>
        <time>2017-08-14T13:03:45Z</time>
      </trkpt>
      <trkpt lat="42.63329" lon="1.95111">
        <ele>1798.91</ele>
        <time>2017-08-14T13:04:12Z</time>
      </trkpt>
      <trkpt lat="42.63347" lon="1.95116">
        <ele>1788.63</ele>
        <time>2017-08-14T13:04:55Z</time>
      </trkpt>
      <trkpt lat="42.63341" lon="1.95093">
        <ele>1787.23</ele>
        <time>2017-08-14T13:05:21Z</time>
      </trkpt>
      <trkpt lat="42.6335" lon="1.95071">
        <ele>1776.59</ele>
        <time>2017-08-14T13:06:51Z</time>
      </trkpt>
      <trkpt lat="42.63369" lon="1.95069">
        <ele>1764.59</ele>
        <time>2017-08-14T13:07:38Z</time>
      </trkpt>
      <trkpt lat="42.63387" lon="1.95068">
        <ele>1758.51</ele>
        <time>2017-08-14T13:08:06Z</time>
      </trkpt>
      <trkpt lat="42.63405" lon="1.95072">
        <ele>1754.27</ele>
        <time>2017-08-14T13:08:43Z</time>
      </trkpt>
      <trkpt lat="42.63422" lon="1.95065">
        <ele>1745.39</ele>
        <time>2017-08-14T13:09:09Z</time>
      </trkpt>
      <trkpt lat="42.63441" lon="1.95066">
        <ele>1740.68</ele>
        <time>2017-08-14T13:09:30Z</time>
      </trkpt>
      <trkpt lat="42.63459" lon="1.95062">
        <ele>1734.57</ele>
        <time>2017-08-14T13:09:55Z</time>
      </trkpt>
      <trkpt lat="42.63477" lon="1.95066">
        <ele>1728.84</ele>
        <time>2017-08-14T13:10:09Z</time>
      </trkpt>
      <trkpt lat="42.63495" lon="1.95075">
        <ele>1724.89</ele>
        <time>2017-08-14T13:10:35Z</time>
      </trkpt>
      <trkpt lat="42.63508" lon="1.95092">
        <ele>1722.45</ele>
        <time>2017-08-14T13:10:50Z</time>
      </trkpt>
      <trkpt lat="42.63527" lon="1.95089">
        <ele>1716.52</ele>
        <time>2017-08-14T13:11:25Z</time>
      </trkpt>
      <trkpt lat="42.63544" lon="1.95078">
        <ele>1710.32</ele>
        <time>2017-08-14T13:11:45Z</time>
      </trkpt>
      <trkpt lat="42.63561" lon="1.95068">
        <ele>1709.3</ele>
        <time>2017-08-14T13:12:05Z</time>
      </trkpt>
      <trkpt lat="42.63577" lon="1.95081">
        <ele>1703.36</ele>
        <time>2017-08-14T13:12:21Z</time>
      </trkpt>
      <trkpt lat="42.63592" lon="1.95096">
        <ele>1705.51</ele>
        <time>2017-08-14T13:12:43Z</time>
      </trkpt>
      <trkpt lat="42.63609" lon="1.95103">
        <ele>1706.06</ele>
        <time>2017-08-14T13:13:01Z</time>
      </trkpt>
      <trkpt lat="42.63626" lon="1.95114">
        <ele>1698.6</ele>
        <time>2017-08-14T13:13:28Z</time>
      </trkpt>
      <trkpt lat="42.63641" lon="1.95128">
        <ele>1699.91</ele>
        <time>2017-08-14T13:13:54Z</time>
      </trkpt>
      <trkpt lat="42.63659" lon="1.95128">
        <ele>1690.96</ele>
        <time>2017-08-14T13:14:42Z</time>
      </trkpt>
      <trkpt lat="42.63678" lon="1.95126">
        <ele>1683.91</ele>
        <time>2017-08-14T13:15:32Z</time>
      </trkpt>
      <trkpt lat="42.63695" lon="1.95133">
        <ele>1680.01</ele>
        <time>2017-08-14T13:16:08Z</time>
      </trkpt>
      <trkpt lat="42.63714" lon="1.95137">
        <ele>1669.68</ele>
        <time>2017-08-14T13:16:39Z</time>
      </trkpt>
      <trkpt lat="42.63731" lon="1.95145">
        <ele>1662.61</ele>
        <time>2017-08-14T13:16:59Z</time>
      </trkpt>
      <trkpt lat="42.63733" lon="1.9512">
        <ele>1659.28</ele>
        <time>2017-08-14T13:17:37Z</time>
      </trkpt>
      <trkpt lat="42.63751" lon="1.95113">
        <ele>1646.27</ele>
        <time>2017-08-14T13:18:18Z</time>
      </trkpt>
      <trkpt lat="42.63768" lon="1.95122">
        <ele>1637.61</ele>
        <time>2017-08-14T13:18:45Z</time>
      </trkpt>
      <trkpt lat="42.63784" lon="1.95132">
        <ele>1630.69</ele>
        <time>2017-08-14T13:19:05Z</time>
      </trkpt>
      <trkpt lat="42.63803" lon="1.95133">
        <ele>1625.74</ele>
        <time>2017-08-14T13:19:28Z</time>
      </trkpt>
      <trkpt lat="42.63821" lon="1.95128">
        <ele>1621.69</ele>
        <time>2017-08-14T13:19:50Z</time>
      </trkpt>
      <trkpt lat="42.63839" lon="1.95123">
        <ele>1614.62</ele>
        <time>2017-08-14T13:20:03Z</time>
      </trkpt>
      <trkpt lat="42.63858" lon="1.95127">
        <ele>1606.97</ele>
        <time>2017-08-14T13:20:18Z</time>
      </trkpt>
      <trkpt lat="42.63872" lon="1.95142">
        <ele>1607.84</ele>
        <time>2017-08-14T13:20:33Z</time>
      </trkpt>
      <trkpt lat="42.63884" lon="1.95161">
        <ele>1610.59</ele>
        <time>2017-08-14T13:20:48Z</time>
      </trkpt>
      <trkpt lat="42.63901" lon="1.95169">
        <ele>1607.9</ele>
        <time>2017-08-14T13:21:02Z</time>
      </trkpt>
      <trkpt lat="42.63913" lon="1.95187">
        <ele>1607.58</ele>
        <time>2017-08-14T13:21:22Z</time>
      </trkpt>
      <trkpt lat="42.6393" lon="1.95196">
        <ele>1611.59</ele>
        <time>2017-08-14T13:21:44Z</time>
      </trkpt>
      <trkpt lat="42.63941" lon="1.95217">
        <ele>1606.6</ele>
        <time>2017-08-14T13:22:05Z</time>
      </trkpt>
      <trkpt lat="42.63953" lon="1.95237">
        <ele>1595.42</ele>
        <time>2017-08-14T13:22:27Z</time>
      </trkpt>
      <trkpt lat="42.6396" lon="1.95259">
        <ele>1587.69</ele>
        <time>2017-08-14T13:22:52Z</time>
      </trkpt>
      <trkpt lat="42.63968" lon="1.95282">
        <ele>1582.59</ele>
        <time>2017-08-14T13:23:16Z</time>
      </trkpt>
      <trkpt lat="42.63986" lon="1.95282">
        <ele>1577.62</ele>
        <time>2017-08-14T13:23:55Z</time>
      </trkpt>
      <trkpt lat="42.63985" lon="1.95257">
        <ele>1568.88</ele>
        <time>2017-08-14T13:24:10Z</time>
      </trkpt>
      <trkpt lat="42.63978" lon="1.95234">
        <ele>1564.53</ele>
        <time>2017-08-14T13:24:26Z</time>
      </trkpt>
      <trkpt lat="42.63999" lon="1.95234">
        <ele>1558.81</ele>
        <time>2017-08-14T13:24:35Z</time>
      </trkpt>
      <trkpt lat="42.64017" lon="1.95238">
        <ele>1563.54</ele>
        <time>2017-08-14T13:24:53Z</time>
      </trkpt>
      <trkpt lat="42.64025" lon="1.95261">
        <ele>1565.3</ele>
        <time>2017-08-14T13:25:14Z</time>
      </trkpt>
      <trkpt lat="42.64023" lon="1.95286">
        <ele>1558.6</ele>
        <time>2017-08-14T13:25:35Z</time>
      </trkpt>
      <trkpt lat="42.64033" lon="1.95308">
        <ele>1556.39</ele>
        <time>2017-08-14T13:26:02Z</time>
      </trkpt>
      <trkpt lat="42.64047" lon="1.95326">
        <ele>1564.1</ele>
        <time>2017-08-14T13:26:18Z</time>
      </trkpt>
      <trkpt lat="42.64061" lon="1.95343">
        <ele>1566.97</ele>
        <time>2017-08-14T13:26:37Z</time>
      </trkpt>
      <trkpt lat="42.64068" lon="1.95368">
        <ele>1563.89</ele>
        <time>2017-08-14T13:27:00Z</time>
      </trkpt>
      <trkpt lat="42.6406" lon="1.95391">
        <ele>1553.27</ele>
        <time>2017-08-14T13:27:37Z</time>
      </trkpt>
      <trkpt lat="42.64056" lon="1.95416">
        <ele>1549.39</ele>
        <time>2017-08-14T13:27:55Z</time>
      </trkpt>
      <trkpt lat="42.64053" lon="1.9544">
        <ele>1542.9</ele>
        <time>2017-08-14T13:28:17Z</time>
      </trkpt>
      <trkpt lat="42.6406" lon="1.95463">
        <ele>1549.83</ele>
        <time>2017-08-14T13:28:46Z</time>
      </trkpt>
      <trkpt lat="42.64072" lon="1.95481">
        <ele>1549.61</ele>
        <time>2017-08-14T13:29:20Z</time>
      </trkpt>
      <trkpt lat="42.64073" lon="1.95507">
        <ele>1546.46</ele>
        <time>2017-08-14T13:29:44Z</time>
      </trkpt>
      <trkpt lat="42.64082" lon="1.9553">
        <ele>1543.4</ele>
        <time>2017-08-14T13:30:02Z</time>
      </trkpt>
      <trkpt lat="42.64076" lon="1.95554">
        <ele>1528.27</ele>
        <time>2017-08-14T13:30:33Z</time>
      </trkpt>
      <trkpt lat="42.64086" lon="1.95575">
        <ele>1528.6</ele>
        <time>2017-08-14T13:31:02Z</time>
      </trkpt>
      <trkpt lat="42.64095" lon="1.95597">
        <ele>1526.97</ele>
        <time>2017-08-14T13:31:27Z</time>
      </trkpt>
      <trkpt lat="42.64098" lon="1.95621">
        <ele>1526.53</ele>
        <time>2017-08-14T13:31:44Z</time>
      </trkpt>
      <trkpt lat="42.64117" lon="1.95622">
        <ele>1513.64</ele>
        <time>2017-08-14T13:33:09Z</time>
      </trkpt>
      <trkpt lat="42.64132" lon="1.95608">
        <ele>1503.02</ele>
        <time>2017-08-14T13:33:19Z</time>
      </trkpt>
      <trkpt lat="42.64151" lon="1.95607">
        <ele>1500.01</ele>
        <time>2017-08-14T13:33:27Z</time>
      </trkpt>
      <trkpt lat="42.64164" lon="1.95624">
        <ele>1499.28</ele>
        <time>2017-08-14T13:33:48Z</time>
      </trkpt>
      <trkpt lat="42.64178" lon="1.95642">
        <ele>1494.86</ele>
        <time>2017-08-14T13:34:14Z</time>
      </trkpt>
      <trkpt lat="42.64193" lon="1.95659">
        <ele>1493.09</ele>
        <time>2017-08-14T13:34:29Z</time>
      </trkpt>
      <trkpt lat="42.64207" lon="1.95676">
        <ele>1493.62</ele>
        <time>2017-08-14T13:34:45Z</time>
      </trkpt>
      <trkpt lat="42.6421" lon="1.95701">
        <ele>1491.21</ele>
        <time>2017-08-14T13:35:05Z</time>
      </trkpt>
      <trkpt lat="42.64213" lon="1.95726">
        <ele>1483.28</ele>
        <time>2017-08-14T13:35:21Z</time>
      </trkpt>
      <trkpt lat="42.64219" lon="1.9575">
        <ele>1476.51</ele>
        <time>2017-08-14T13:35:38Z</time>
      </trkpt>
      <trkpt lat="42.64225" lon="1.95775">
        <ele>1474.21</ele>
        <time>2017-08-14T13:35:58Z</time>
      </trkpt>
      <trkpt lat="42.64233" lon="1.95799">
        <ele>1466.77</ele>
        <time>2017-08-14T13:36:19Z</time>
      </trkpt>
      <trkpt lat="42.64237" lon="1.95823">
        <ele>1469.91</ele>
        <time>2017-08-14T13:36:31Z</time>
      </trkpt>
      <trkpt lat="42.64248" lon="1.95844">
        <ele>1467.3</ele>
        <time>2017-08-14T13:36:44Z</time>
      </trkpt>
      <trkpt lat="42.64259" lon="1.95864">
        <ele>1461.51</ele>
        <time>2017-08-14T13:37:01Z</time>
      </trkpt>
      <trkpt lat="42.64274" lon="1.95879">
        <ele>1465.58</ele>
        <time>2017-08-14T13:37:21Z</time>
      </trkpt>
      <trkpt lat="42.64283" lon="1.95901">
        <ele>1467.45</ele>
        <time>2017-08-14T13:37:37Z</time>
      </trkpt>
      <trkpt lat="42.64298" lon="1.95917">
        <ele>1462.95</ele>
        <time>2017-08-14T13:38:03Z</time>
      </trkpt>
      <trkpt lat="42.64322" lon="1.95918">
        <ele>1466.22</ele>
        <time>2017-08-14T13:38:11Z</time>
      </trkpt>
      <trkpt lat="42.6434" lon="1.9593">
        <ele>1473.09</ele>
        <time>2017-08-14T13:38:27Z</time>
      </trkpt>
      <trkpt lat="42.64358" lon="1.95939">
        <ele>1475.37</ele>
        <time>2017-08-14T13:38:53Z</time>
      </trkpt>
      <trkpt lat="42.64378" lon="1.9594">
        <ele>1474.27</ele>
        <time>2017-08-14T13:39:02Z</time>
      </trkpt>
      <trkpt lat="42.64383" lon="1.95964">
        <ele>1469.71</ele>
        <time>2017-08-14T13:39:23Z</time>
      </trkpt>
      <trkpt lat="42.644" lon="1.95973">
        <ele>1470.09</ele>
        <time>2017-08-14T13:39:38Z</time>
      </trkpt>
      <trkpt lat="42.64419" lon="1.9597">
        <ele>1475.2</ele>
        <time>2017-08-14T13:39:47Z</time>
      </trkpt>
      <trkpt lat="42.64419" lon="1.95945">
        <ele>1470.74</ele>
        <time>2017-08-14T13:40:37Z</time>
      </trkpt>
      <trkpt lat="42.64436" lon="1.95935">
        <ele>1474.3</ele>
        <time>2017-08-14T13:40:48Z</time>
      </trkpt>
      <trkpt lat="42.64453" lon="1.95943">
        <ele>1474.83</ele>
        <time>2017-08-14T13:41:02Z</time>
      </trkpt>
      <trkpt lat="42.64468" lon="1.95958">
        <ele>1469.99</ele>
        <time>2017-08-14T13:41:17Z</time>
      </trkpt>
      <trkpt lat="42.64485" lon="1.95969">
        <ele>1465.89</ele>
        <time>2017-08-14T13:41:34Z</time>
      </trkpt>
      <trkpt lat="42.64504" lon="1.95975">
        <ele>1469.44</ele>
        <time>2017-08-14T13:41:48Z</time>
      </trkpt>
      <trkpt lat="42.64519" lon="1.95989">
        <ele>1461.69</ele>
        <time>2017-08-14T13:42:09Z</time>
      </trkpt>
      <trkpt lat="42.64534" lon="1.96006">
        <ele>1464.99</ele>
        <time>2017-08-14T13:42:24Z</time>
      </trkpt>
      <trkpt lat="42.6455" lon="1.96019">
        <ele>1462.48</ele>
        <time>2017-08-14T13:42:40Z</time>
      </trkpt>
      <trkpt lat="42.64567" lon="1.96026">
        <ele>1464.22</ele>
        <time>2017-08-14T13:42:51Z</time>
      </trkpt>
      <trkpt lat="42.64584" lon="1.96034">
        <ele>1467.07</ele>
        <time>2017-08-14T13:43:04Z</time>
      </trkpt>
      <trkpt lat="42.64599" lon="1.96048">
        <ele>1464.52</ele>
        <time>2017-08-14T13:43:19Z</time>
      </trkpt>
      <trkpt lat="42.64616" lon="1.96062">
        <ele>1455.44</ele>
        <time>2017-08-14T13:43:40Z</time>
      </trkpt>
      <trkpt lat="42.64632" lon="1.96073">
        <ele>1449.35</ele>
        <time>2017-08-14T13:43:59Z</time>
      </trkpt>
      <trkpt lat="42.6465" lon="1.96084">
        <ele>1446.4</ele>
        <time>2017-08-14T13:44:13Z</time>
      </trkpt>
      <trkpt lat="42.64665" lon="1.96098">
        <ele>1441.77</ele>
        <time>2017-08-14T13:44:29Z</time>
      </trkpt>
      <trkpt lat="42.64681" lon="1.9611">
        <ele>1436.65</ele>
        <time>2017-08-14T13:44:45Z</time>
      </trkpt>
      <trkpt lat="42.64697" lon="1.96122">
        <ele>1429.6</ele>
        <time>2017-08-14T13:45:01Z</time>
      </trkpt>
      <trkpt lat="42.64715" lon="1.96124">
        <ele>1424.52</ele>
        <time>2017-08-14T13:45:14Z</time>
      </trkpt>
      <trkpt lat="42.64734" lon="1.96122">
        <ele>1424.66</ele>
        <time>2017-08-14T13:45:32Z</time>
      </trkpt>
      <trkpt lat="42.64753" lon="1.96114">
        <ele>1419.95</ele>
        <time>2017-08-14T13:45:46Z</time>
      </trkpt>
      <trkpt lat="42.64771" lon="1.96112">
        <ele>1421.31</ele>
        <time>2017-08-14T13:46:02Z</time>
      </trkpt>
      <trkpt lat="42.64789" lon="1.96103">
        <ele>1418.62</ele>
        <time>2017-08-14T13:46:23Z</time>
      </trkpt>
      <trkpt lat="42.64807" lon="1.96111">
        <ele>1424.91</ele>
        <time>2017-08-14T13:46:29Z</time>
      </trkpt>
      <trkpt lat="42.64824" lon="1.96122">
        <ele>1429.63</ele>
        <time>2017-08-14T13:46:41Z</time>
      </trkpt>
      <trkpt lat="42.64843" lon="1.96126">
        <ele>1432.29</ele>
        <time>2017-08-14T13:46:52Z</time>
      </trkpt>
      <trkpt lat="42.64861" lon="1.96137">
        <ele>1433.94</ele>
        <time>2017-08-14T13:47:07Z</time>
      </trkpt>
      <trkpt lat="42.64878" lon="1.96147">
        <ele>1435.29</ele>
        <time>2017-08-14T13:47:21Z</time>
      </trkpt>
      <trkpt lat="42.64894" lon="1.96161">
        <ele>1429.6</ele>
        <time>2017-08-14T13:47:37Z</time>
      </trkpt>
      <trkpt lat="42.64911" lon="1.96173">
        <ele>1426.29</ele>
        <time>2017-08-14T13:47:54Z</time>
      </trkpt>
      <trkpt lat="42.64929" lon="1.9618">
        <ele>1427.6</ele>
        <time>2017-08-14T13:48:07Z</time>
      </trkpt>
      <trkpt lat="42.64946" lon="1.9619">
        <ele>1428.32</ele>
        <time>2017-08-14T13:48:24Z</time>
      </trkpt>
      <trkpt lat="42.64963" lon="1.96199">
        <ele>1427.1</ele>
        <time>2017-08-14T13:48:38Z</time>
      </trkpt>
      <trkpt lat="42.64981" lon="1.96204">
        <ele>1425.89</ele>
        <time>2017-08-14T13:48:52Z</time>
      </trkpt>
      <trkpt lat="42.65" lon="1.96212">
        <ele>1424.9</ele>
        <time>2017-08-14T13:49:07Z</time>
      </trkpt>
      <trkpt lat="42.65017" lon="1.96219">
        <ele>1425.82</ele>
        <time>2017-08-14T13:49:23Z</time>
      </trkpt>
      <trkpt lat="42.65035" lon="1.9622">
        <ele>1427.58</ele>
        <time>2017-08-14T13:49:36Z</time>
      </trkpt>
      <trkpt lat="42.65054" lon="1.9622">
        <ele>1430.29</ele>
        <time>2017-08-14T13:49:55Z</time>
      </trkpt>
      <trkpt lat="42.65073" lon="1.96217">
        <ele>1434.56</ele>
        <time>2017-08-14T13:50:10Z</time>
      </trkpt>
      <trkpt lat="42.65092" lon="1.96217">
        <ele>1428.62</ele>
        <time>2017-08-14T13:50:26Z</time>
      </trkpt>
      <trkpt lat="42.6511" lon="1.9621">
        <ele>1428.29</ele>
        <time>2017-08-14T13:50:39Z</time>
      </trkpt>
      <trkpt lat="42.6513" lon="1.96208">
        <ele>1424.89</ele>
        <time>2017-08-14T13:50:51Z</time>
      </trkpt>
      <trkpt lat="42.65148" lon="1.96207">
        <ele>1425.32</ele>
        <time>2017-08-14T13:51:05Z</time>
      </trkpt>
      <trkpt lat="42.65167" lon="1.9621">
        <ele>1427.59</ele>
        <time>2017-08-14T13:51:19Z</time>
      </trkpt>
      <trkpt lat="42.65184" lon="1.96219">
        <ele>1427.65</ele>
        <time>2017-08-14T13:51:34Z</time>
      </trkpt>
      <trkpt lat="42.65201" lon="1.96227">
        <ele>1421.72</ele>
        <time>2017-08-14T13:51:47Z</time>
      </trkpt>
      <trkpt lat="42.6522" lon="1.96228">
        <ele>1421.29</ele>
        <time>2017-08-14T13:52:01Z</time>
      </trkpt>
      <trkpt lat="42.65238" lon="1.96233">
        <ele>1419.6</ele>
        <time>2017-08-14T13:52:16Z</time>
      </trkpt>
      <trkpt lat="42.65253" lon="1.96249">
        <ele>1416.39</ele>
        <time>2017-08-14T13:52:30Z</time>
      </trkpt>
      <trkpt lat="42.65268" lon="1.96263">
        <ele>1411.7</ele>
        <time>2017-08-14T13:52:44Z</time>
      </trkpt>
      <trkpt lat="42.65284" lon="1.96278">
        <ele>1407.91</ele>
        <time>2017-08-14T13:52:58Z</time>
      </trkpt>
      <trkpt lat="42.65301" lon="1.96285">
        <ele>1408.59</ele>
        <time>2017-08-14T13:53:11Z</time>
      </trkpt>
      <trkpt lat="42.6532" lon="1.96292">
        <ele>1404.62</ele>
        <time>2017-08-14T13:53:26Z</time>
      </trkpt>
      <trkpt lat="42.65339" lon="1.96295">
        <ele>1403.6</ele>
        <time>2017-08-14T13:53:40Z</time>
      </trkpt>
      <trkpt lat="42.65356" lon="1.96304">
        <ele>1402.59</ele>
        <time>2017-08-14T13:53:53Z</time>
      </trkpt>
      <trkpt lat="42.65374" lon="1.96313">
        <ele>1403.81</ele>
        <time>2017-08-14T13:54:06Z</time>
      </trkpt>
      <trkpt lat="42.6539" lon="1.96325">
        <ele>1402.6</ele>
        <time>2017-08-14T13:54:19Z</time>
      </trkpt>
      <trkpt lat="42.65406" lon="1.96336">
        <ele>1400.6</ele>
        <time>2017-08-14T13:54:33Z</time>
      </trkpt>
      <trkpt lat="42.65422" lon="1.96348">
        <ele>1399.57</ele>
        <time>2017-08-14T13:54:46Z</time>
      </trkpt>
      <trkpt lat="42.6544" lon="1.96355">
        <ele>1397.96</ele>
        <time>2017-08-14T13:54:58Z</time>
      </trkpt>
      <trkpt lat="42.65456" lon="1.96368">
        <ele>1398.57</ele>
        <time>2017-08-14T13:55:12Z</time>
      </trkpt>
      <trkpt lat="42.65471" lon="1.96381">
        <ele>1396.39</ele>
        <time>2017-08-14T13:55:25Z</time>
      </trkpt>
      <trkpt lat="42.65487" lon="1.96393">
        <ele>1395.36</ele>
        <time>2017-08-14T13:55:40Z</time>
      </trkpt>
      <trkpt lat="42.65505" lon="1.96401">
        <ele>1394.32</ele>
        <time>2017-08-14T13:55:59Z</time>
      </trkpt>
      <trkpt lat="42.65523" lon="1.96407">
        <ele>1391.9</ele>
        <time>2017-08-14T13:56:14Z</time>
      </trkpt>
      <trkpt lat="42.65543" lon="1.96412">
        <ele>1392.58</ele>
        <time>2017-08-14T13:56:28Z</time>
      </trkpt>
      <trkpt lat="42.65561" lon="1.96418">
        <ele>1390.62</ele>
        <time>2017-08-14T13:56:40Z</time>
      </trkpt>
      <trkpt lat="42.65579" lon="1.96426">
        <ele>1390.89</ele>
        <time>2017-08-14T13:56:55Z</time>
      </trkpt>
      <trkpt lat="42.65596" lon="1.96431">
        <ele>1387.82</ele>
        <time>2017-08-14T13:57:09Z</time>
      </trkpt>
      <trkpt lat="42.65613" lon="1.96444">
        <ele>1389.57</ele>
        <time>2017-08-14T13:57:23Z</time>
      </trkpt>
      <trkpt lat="42.65629" lon="1.96457">
        <ele>1389.51</ele>
        <time>2017-08-14T13:57:38Z</time>
      </trkpt>
      <trkpt lat="42.65648" lon="1.96463">
        <ele>1389.21</ele>
        <time>2017-08-14T13:57:52Z</time>
      </trkpt>
      <trkpt lat="42.65665" lon="1.96476">
        <ele>1392.53</ele>
        <time>2017-08-14T13:58:07Z</time>
      </trkpt>
      <trkpt lat="42.65682" lon="1.96486">
        <ele>1389.9</ele>
        <time>2017-08-14T13:58:22Z</time>
      </trkpt>
      <trkpt lat="42.65699" lon="1.96496">
        <ele>1391.6</ele>
        <time>2017-08-14T13:58:37Z</time>
      </trkpt>
      <trkpt lat="42.65718" lon="1.965">
        <ele>1389.38</ele>
        <time>2017-08-14T13:59:13Z</time>
      </trkpt>
      <trkpt lat="42.65737" lon="1.96495">
        <ele>1389.6</ele>
        <time>2017-08-14T13:59:27Z</time>
      </trkpt>
      <trkpt lat="42.65754" lon="1.96485">
        <ele>1393.5</ele>
        <time>2017-08-14T13:59:41Z</time>
      </trkpt>
      <trkpt lat="42.65772" lon="1.96489">
        <ele>1393.59</ele>
        <time>2017-08-14T13:59:55Z</time>
      </trkpt>
      <trkpt lat="42.65791" lon="1.96489">
        <ele>1389.2</ele>
        <time>2017-08-14T14:00:07Z</time>
      </trkpt>
      <trkpt lat="42.65809" lon="1.96482">
        <ele>1385.87</ele>
        <time>2017-08-14T14:00:20Z</time>
      </trkpt>
      <trkpt lat="42.65826" lon="1.96472">
        <ele>1382.65</ele>
        <time>2017-08-14T14:00:35Z</time>
      </trkpt>
      <trkpt lat="42.65845" lon="1.96469">
        <ele>1376.72</ele>
        <time>2017-08-14T14:00:48Z</time>
      </trkpt>
      <trkpt lat="42.65862" lon="1.96463">
        <ele>1375.18</ele>
        <time>2017-08-14T14:01:01Z</time>
      </trkpt>
      <trkpt lat="42.65878" lon="1.96449">
        <ele>1375.81</ele>
        <time>2017-08-14T14:01:15Z</time>
      </trkpt>
      <trkpt lat="42.65894" lon="1.96437">
        <ele>1374.6</ele>
        <time>2017-08-14T14:01:28Z</time>
      </trkpt>
      <trkpt lat="42.65912" lon="1.96431">
        <ele>1374.5</ele>
        <time>2017-08-14T14:01:40Z</time>
      </trkpt>
      <trkpt lat="42.65932" lon="1.96432">
        <ele>1374.62</ele>
        <time>2017-08-14T14:01:56Z</time>
      </trkpt>
      <trkpt lat="42.65943" lon="1.96454">
        <ele>1374.6</ele>
        <time>2017-08-14T14:02:09Z</time>
      </trkpt>
      <trkpt lat="42.65955" lon="1.96476">
        <ele>1376.65</ele>
        <time>2017-08-14T14:02:23Z</time>
      </trkpt>
      <trkpt lat="42.65971" lon="1.96489">
        <ele>1375.61</ele>
        <time>2017-08-14T14:02:37Z</time>
      </trkpt>
      <trkpt lat="42.6599" lon="1.965">
        <ele>1370.93</ele>
        <time>2017-08-14T14:02:52Z</time>
      </trkpt>
      <trkpt lat="42.66003" lon="1.96518">
        <ele>1363.21</ele>
        <time>2017-08-14T14:03:11Z</time>
      </trkpt>
      <trkpt lat="42.65985" lon="1.96522">
        <ele>1364.66</ele>
        <time>2017-08-14T14:03:24Z</time>
      </trkpt>
      <trkpt lat="42.65967" lon="1.96519">
        <ele>1363.5</ele>
        <time>2017-08-14T14:03:38Z</time>
      </trkpt>
      <trkpt lat="42.65954" lon="1.96537">
        <ele>1362.49</ele>
        <time>2017-08-14T14:03:54Z</time>
      </trkpt>
      <trkpt lat="42.65972" lon="1.96543">
        <ele>1357.41</ele>
        <time>2017-08-14T14:04:08Z</time>
      </trkpt>
      <trkpt lat="42.65991" lon="1.9655">
        <ele>1353.83</ele>
        <time>2017-08-14T14:04:23Z</time>
      </trkpt>
      <trkpt lat="42.66009" lon="1.96556">
        <ele>1352.21</ele>
        <time>2017-08-14T14:04:38Z</time>
      </trkpt>
      <trkpt lat="42.66028" lon="1.96561">
        <ele>1350.2</ele>
        <time>2017-08-14T14:04:54Z</time>
      </trkpt>
      <trkpt lat="42.66048" lon="1.96563">
        <ele>1347.21</ele>
        <time>2017-08-14T14:05:07Z</time>
      </trkpt>
      <trkpt lat="42.66063" lon="1.96576">
        <ele>1345.2</ele>
        <time>2017-08-14T14:05:19Z</time>
      </trkpt>
      <trkpt lat="42.66081" lon="1.96587">
        <ele>1337.69</ele>
        <time>2017-08-14T14:05:32Z</time>
      </trkpt>
      <trkpt lat="42.66098" lon="1.96593">
        <ele>1340.17</ele>
        <time>2017-08-14T14:05:47Z</time>
      </trkpt>
      <trkpt lat="42.66117" lon="1.96596">
        <ele>1342.61</ele>
        <time>2017-08-14T14:05:59Z</time>
      </trkpt>
      <trkpt lat="42.66132" lon="1.96611">
        <ele>1338.39</ele>
        <time>2017-08-14T14:06:15Z</time>
      </trkpt>
      <trkpt lat="42.6615" lon="1.96618">
        <ele>1340.6</ele>
        <time>2017-08-14T14:06:31Z</time>
      </trkpt>
      <trkpt lat="42.6617" lon="1.96617">
        <ele>1340.49</ele>
        <time>2017-08-14T14:06:45Z</time>
      </trkpt>
      <trkpt lat="42.66187" lon="1.96609">
        <ele>1341.51</ele>
        <time>2017-08-14T14:06:56Z</time>
      </trkpt>
      <trkpt lat="42.66204" lon="1.96604">
        <ele>1346.26</ele>
        <time>2017-08-14T14:07:09Z</time>
      </trkpt>
      <trkpt lat="42.66223" lon="1.966">
        <ele>1348.28</ele>
        <time>2017-08-14T14:07:24Z</time>
      </trkpt>
      <trkpt lat="42.66241" lon="1.96604">
        <ele>1343.92</ele>
        <time>2017-08-14T14:07:55Z</time>
      </trkpt>
      <trkpt lat="42.66259" lon="1.9661">
        <ele>1342.95</ele>
        <time>2017-08-14T14:08:01Z</time>
      </trkpt>
      <trkpt lat="42.66273" lon="1.96626">
        <ele>1346.15</ele>
        <time>2017-08-14T14:08:10Z</time>
      </trkpt>
      <trkpt lat="42.66291" lon="1.96631">
        <ele>1343.63</ele>
        <time>2017-08-14T14:08:20Z</time>
      </trkpt>
      <trkpt lat="42.6631" lon="1.9663">
        <ele>1337.77</ele>
        <time>2017-08-14T14:08:31Z</time>
      </trkpt>
      <trkpt lat="42.66329" lon="1.96618">
        <ele>1321.77</ele>
        <time>2017-08-14T14:09:04Z</time>
      </trkpt>
      <trkpt lat="42.66352" lon="1.96612">
        <ele>1320.56</ele>
        <time>2017-08-14T14:09:07Z</time>
      </trkpt>
      <trkpt lat="42.66368" lon="1.96631">
        <ele>1325.31</ele>
        <time>2017-08-14T14:09:25Z</time>
      </trkpt>
      <trkpt lat="42.6636" lon="1.96653">
        <ele>1300.28</ele>
        <time>2017-08-14T14:21:31Z</time>
      </trkpt>
      <trkpt lat="42.66346" lon="1.9667">
        <ele>1303</ele>
        <time>2017-08-14T14:21:44Z</time>
      </trkpt>
      <trkpt lat="42.66328" lon="1.96673">
        <ele>1303.6</ele>
        <time>2017-08-14T14:21:55Z</time>
      </trkpt>
      <trkpt lat="42.66347" lon="1.96669">
        <ele>1291.33</ele>
        <time>2017-08-14T14:22:33Z</time>
      </trkpt>
      <trkpt lat="42.66364" lon="1.96661">
        <ele>1293.89</ele>
        <time>2017-08-14T14:22:57Z</time>
      </trkpt>
      <trkpt lat="42.66382" lon="1.96649">
        <ele>1297.69</ele>
        <time>2017-08-14T14:23:07Z</time>
      </trkpt>
      <trkpt lat="42.66398" lon="1.96639">
        <ele>1303.86</ele>
        <time>2017-08-14T14:23:20Z</time>
      </trkpt>
      <trkpt lat="42.66414" lon="1.96628">
        <ele>1303.72</ele>
        <time>2017-08-14T14:23:33Z</time>
      </trkpt>
      <trkpt lat="42.66433" lon="1.96625">
        <ele>1305.8</ele>
        <time>2017-08-14T14:23:46Z</time>
      </trkpt>
      <trkpt lat="42.66452" lon="1.9663">
        <ele>1294.93</ele>
        <time>2017-08-14T14:24:02Z</time>
      </trkpt>
      <trkpt lat="42.6647" lon="1.96622">
        <ele>1292.51</ele>
        <time>2017-08-14T14:24:17Z</time>
      </trkpt>
      <trkpt lat="42.66488" lon="1.96625">
        <ele>1292.56</ele>
        <time>2017-08-14T14:24:38Z</time>
      </trkpt>
      <trkpt lat="42.66507" lon="1.96628">
        <ele>1290.95</ele>
        <time>2017-08-14T14:24:53Z</time>
      </trkpt>
      <trkpt lat="42.66525" lon="1.96631">
        <ele>1291.34</ele>
        <time>2017-08-14T14:25:12Z</time>
      </trkpt>
      <trkpt lat="42.66543" lon="1.96637">
        <ele>1291.3</ele>
        <time>2017-08-14T14:25:31Z</time>
      </trkpt>
      <trkpt lat="42.66562" lon="1.96641">
        <ele>1295.88</ele>
        <time>2017-08-14T14:25:45Z</time>
      </trkpt>
      <trkpt lat="42.66579" lon="1.96636">
        <ele>1297.57</ele>
        <time>2017-08-14T14:26:01Z</time>
      </trkpt>
      <trkpt lat="42.66598" lon="1.96638">
        <ele>1300.89</ele>
        <time>2017-08-14T14:26:15Z</time>
      </trkpt>
      <trkpt lat="42.66617" lon="1.96634">
        <ele>1293.55</ele>
        <time>2017-08-14T14:26:34Z</time>
      </trkpt>
      <trkpt lat="42.66634" lon="1.96624">
        <ele>1289.62</ele>
        <time>2017-08-14T14:26:49Z</time>
      </trkpt>
      <trkpt lat="42.66646" lon="1.96605">
        <ele>1287.36</ele>
        <time>2017-08-14T14:27:05Z</time>
      </trkpt>
      <trkpt lat="42.66649" lon="1.9658">
        <ele>1286.02</ele>
        <time>2017-08-14T14:27:24Z</time>
      </trkpt>
      <trkpt lat="42.66639" lon="1.96559">
        <ele>1285.09</ele>
        <time>2017-08-14T14:27:39Z</time>
      </trkpt>
      <trkpt lat="42.66627" lon="1.96538">
        <ele>1286.26</ele>
        <time>2017-08-14T14:27:55Z</time>
      </trkpt>
      <trkpt lat="42.66638" lon="1.96517">
        <ele>1280.79</ele>
        <time>2017-08-14T14:28:07Z</time>
      </trkpt>
      <trkpt lat="42.66647" lon="1.96496">
        <ele>1282.3</ele>
        <time>2017-08-14T14:28:20Z</time>
      </trkpt>
      <trkpt lat="42.66663" lon="1.9648">
        <ele>1283.01</ele>
        <time>2017-08-14T14:28:32Z</time>
      </trkpt>
      <trkpt lat="42.66676" lon="1.96462">
        <ele>1280.29</ele>
        <time>2017-08-14T14:28:47Z</time>
      </trkpt>
      <trkpt lat="42.66684" lon="1.96439">
        <ele>1276.29</ele>
        <time>2017-08-14T14:29:08Z</time>
      </trkpt>
      <trkpt lat="42.66696" lon="1.96421">
        <ele>1278.79</ele>
        <time>2017-08-14T14:29:21Z</time>
      </trkpt>
      <trkpt lat="42.66708" lon="1.96401">
        <ele>1268.78</ele>
        <time>2017-08-14T14:29:38Z</time>
      </trkpt>
      <trkpt lat="42.66718" lon="1.96377">
        <ele>1269.3</ele>
        <time>2017-08-14T14:29:56Z</time>
      </trkpt>
      <trkpt lat="42.66722" lon="1.96353">
        <ele>1274.58</ele>
        <time>2017-08-14T14:30:10Z</time>
      </trkpt>
      <trkpt lat="42.66732" lon="1.96332">
        <ele>1275.92</ele>
        <time>2017-08-14T14:30:29Z</time>
      </trkpt>
      <trkpt lat="42.66747" lon="1.96316">
        <ele>1274.09</ele>
        <time>2017-08-14T14:30:43Z</time>
      </trkpt>
      <trkpt lat="42.66763" lon="1.96305">
        <ele>1270.27</ele>
        <time>2017-08-14T14:30:56Z</time>
      </trkpt>
      <trkpt lat="42.6678" lon="1.96295">
        <ele>1266.52</ele>
        <time>2017-08-14T14:31:10Z</time>
      </trkpt>
      <trkpt lat="42.66791" lon="1.96275">
        <ele>1265.39</ele>
        <time>2017-08-14T14:31:26Z</time>
      </trkpt>
      <trkpt lat="42.66803" lon="1.96256">
        <ele>1268.14</ele>
        <time>2017-08-14T14:31:42Z</time>
      </trkpt>
      <trkpt lat="42.66811" lon="1.96234">
        <ele>1265.3</ele>
        <time>2017-08-14T14:32:01Z</time>
      </trkpt>
      <trkpt lat="42.66828" lon="1.96223">
        <ele>1261.9</ele>
        <time>2017-08-14T14:32:13Z</time>
      </trkpt>
      <trkpt lat="42.66848" lon="1.96218">
        <ele>1266.47</ele>
        <time>2017-08-14T14:32:27Z</time>
      </trkpt>
      <trkpt lat="42.6686" lon="1.96198">
        <ele>1266.71</ele>
        <time>2017-08-14T14:32:44Z</time>
      </trkpt>
      <trkpt lat="42.66875" lon="1.96183">
        <ele>1269.01</ele>
        <time>2017-08-14T14:32:59Z</time>
      </trkpt>
      <trkpt lat="42.6689" lon="1.96169">
        <ele>1271.86</ele>
        <time>2017-08-14T14:33:15Z</time>
      </trkpt>
      <trkpt lat="42.66901" lon="1.96148">
        <ele>1269.1</ele>
        <time>2017-08-14T14:33:33Z</time>
      </trkpt>
      <trkpt lat="42.66918" lon="1.96136">
        <ele>1259.45</ele>
        <time>2017-08-14T14:33:47Z</time>
      </trkpt>
      <trkpt lat="42.66936" lon="1.96131">
        <ele>1257.19</ele>
        <time>2017-08-14T14:34:00Z</time>
      </trkpt>
      <trkpt lat="42.66941" lon="1.96105">
        <ele>1255.53</ele>
        <time>2017-08-14T14:34:14Z</time>
      </trkpt>
      <trkpt lat="42.66955" lon="1.96088">
        <ele>1253.03</ele>
        <time>2017-08-14T14:34:26Z</time>
      </trkpt>
      <trkpt lat="42.66971" lon="1.96077">
        <ele>1253.56</ele>
        <time>2017-08-14T14:34:38Z</time>
      </trkpt>
      <trkpt lat="42.66984" lon="1.96058">
        <ele>1250.91</ele>
        <time>2017-08-14T14:34:54Z</time>
      </trkpt>
      <trkpt lat="42.66999" lon="1.96044">
        <ele>1247.51</ele>
        <time>2017-08-14T14:35:10Z</time>
      </trkpt>
      <trkpt lat="42.6701" lon="1.96023">
        <ele>1244.44</ele>
        <time>2017-08-14T14:35:25Z</time>
      </trkpt>
      <trkpt lat="42.67019" lon="1.96001">
        <ele>1247.68</ele>
        <time>2017-08-14T14:35:41Z</time>
      </trkpt>
      <trkpt lat="42.67032" lon="1.95983">
        <ele>1244.89</ele>
        <time>2017-08-14T14:35:55Z</time>
      </trkpt>
      <trkpt lat="42.67035" lon="1.95957">
        <ele>1244.59</ele>
        <time>2017-08-14T14:36:12Z</time>
      </trkpt>
      <trkpt lat="42.67037" lon="1.95931">
        <ele>1241.63</ele>
        <time>2017-08-14T14:36:27Z</time>
      </trkpt>
      <trkpt lat="42.67043" lon="1.95907">
        <ele>1245.37</ele>
        <time>2017-08-14T14:36:43Z</time>
      </trkpt>
      <trkpt lat="42.6705" lon="1.95884">
        <ele>1241.7</ele>
        <time>2017-08-14T14:37:01Z</time>
      </trkpt>
      <trkpt lat="42.67051" lon="1.95859">
        <ele>1231.79</ele>
        <time>2017-08-14T14:37:15Z</time>
      </trkpt>
      <trkpt lat="42.67048" lon="1.95833">
        <ele>1233.43</ele>
        <time>2017-08-14T14:37:29Z</time>
      </trkpt>
      <trkpt lat="42.67056" lon="1.9581">
        <ele>1234.27</ele>
        <time>2017-08-14T14:37:46Z</time>
      </trkpt>
      <trkpt lat="42.67057" lon="1.95786">
        <ele>1237.78</ele>
        <time>2017-08-14T14:38:02Z</time>
      </trkpt>
      <trkpt lat="42.6707" lon="1.95768">
        <ele>1240.39</ele>
        <time>2017-08-14T14:38:18Z</time>
      </trkpt>
      <trkpt lat="42.6708" lon="1.95748">
        <ele>1240.6</ele>
        <time>2017-08-14T14:38:42Z</time>
      </trkpt>
      <trkpt lat="42.67099" lon="1.95744">
        <ele>1242.39</ele>
        <time>2017-08-14T14:39:12Z</time>
      </trkpt>
      <trkpt lat="42.67118" lon="1.95737">
        <ele>1238.9</ele>
        <time>2017-08-14T14:39:24Z</time>
      </trkpt>
      <trkpt lat="42.67133" lon="1.95723">
        <ele>1226.58</ele>
        <time>2017-08-14T14:39:35Z</time>
      </trkpt>
      <trkpt lat="42.67152" lon="1.95718">
        <ele>1224.58</ele>
        <time>2017-08-14T14:39:52Z</time>
      </trkpt>
      <trkpt lat="42.67172" lon="1.95713">
        <ele>1219.46</ele>
        <time>2017-08-14T14:40:03Z</time>
      </trkpt>
      <trkpt lat="42.67188" lon="1.95699">
        <ele>1214.67</ele>
        <time>2017-08-14T14:40:17Z</time>
      </trkpt>
      <trkpt lat="42.67199" lon="1.95679">
        <ele>1208.13</ele>
        <time>2017-08-14T14:40:31Z</time>
      </trkpt>
      <trkpt lat="42.67217" lon="1.95671">
        <ele>1201.84</ele>
        <time>2017-08-14T14:40:42Z</time>
      </trkpt>
      <trkpt lat="42.67228" lon="1.95651">
        <ele>1202.59</ele>
        <time>2017-08-14T14:40:59Z</time>
      </trkpt>
      <trkpt lat="42.67246" lon="1.9564">
        <ele>1202.49</ele>
        <time>2017-08-14T14:41:13Z</time>
      </trkpt>
      <trkpt lat="42.67261" lon="1.95623">
        <ele>1202.07</ele>
        <time>2017-08-14T14:41:30Z</time>
      </trkpt>
      <trkpt lat="42.67279" lon="1.9562">
        <ele>1201.58</ele>
        <time>2017-08-14T14:41:42Z</time>
      </trkpt>
      <trkpt lat="42.67295" lon="1.95605">
        <ele>1193.85</ele>
        <time>2017-08-14T14:41:58Z</time>
      </trkpt>
      <trkpt lat="42.67308" lon="1.95588">
        <ele>1190.92</ele>
        <time>2017-08-14T14:42:14Z</time>
      </trkpt>
      <trkpt lat="42.6731" lon="1.95563">
        <ele>1192.59</ele>
        <time>2017-08-14T14:42:27Z</time>
      </trkpt>
      <trkpt lat="42.67305" lon="1.95538">
        <ele>1192.67</ele>
        <time>2017-08-14T14:42:38Z</time>
      </trkpt>
      <trkpt lat="42.67316" lon="1.95518">
        <ele>1203.5</ele>
        <time>2017-08-14T14:42:58Z</time>
      </trkpt>
      <trkpt lat="42.67327" lon="1.95537">
        <ele>1200.31</ele>
        <time>2017-08-14T14:43:16Z</time>
      </trkpt>
      <trkpt lat="42.67337" lon="1.95558">
        <ele>1190.52</ele>
        <time>2017-08-14T14:43:36Z</time>
      </trkpt>
      <trkpt lat="42.6735" lon="1.9554">
        <ele>1191.59</ele>
        <time>2017-08-14T14:43:54Z</time>
      </trkpt>
      <trkpt lat="42.67365" lon="1.95525">
        <ele>1191.51</ele>
        <time>2017-08-14T14:44:09Z</time>
      </trkpt>
      <trkpt lat="42.67381" lon="1.95513">
        <ele>1185.9</ele>
        <time>2017-08-14T14:44:25Z</time>
      </trkpt>
      <trkpt lat="42.67394" lon="1.95493">
        <ele>1179.11</ele>
        <time>2017-08-14T14:44:43Z</time>
      </trkpt>
      <trkpt lat="42.67411" lon="1.95484">
        <ele>1180.97</ele>
        <time>2017-08-14T14:44:55Z</time>
      </trkpt>
      <trkpt lat="42.67425" lon="1.95466">
        <ele>1176.99</ele>
        <time>2017-08-14T14:45:10Z</time>
      </trkpt>
      <trkpt lat="42.67442" lon="1.95455">
        <ele>1169.42</ele>
        <time>2017-08-14T14:45:28Z</time>
      </trkpt>
      <trkpt lat="42.67458" lon="1.95441">
        <ele>1165.9</ele>
        <time>2017-08-14T14:45:44Z</time>
      </trkpt>
      <trkpt lat="42.67472" lon="1.95424">
        <ele>1162.48</ele>
        <time>2017-08-14T14:46:14Z</time>
      </trkpt>
      <trkpt lat="42.67477" lon="1.954">
        <ele>1163.59</ele>
        <time>2017-08-14T14:46:31Z</time>
      </trkpt>
      <trkpt lat="42.67492" lon="1.95382">
        <ele>1171.29</ele>
        <time>2017-08-14T14:46:50Z</time>
      </trkpt>
      <trkpt lat="42.67509" lon="1.95373">
        <ele>1171.67</ele>
        <time>2017-08-14T14:47:05Z</time>
      </trkpt>
      <trkpt lat="42.67527" lon="1.95367">
        <ele>1174.31</ele>
        <time>2017-08-14T14:47:18Z</time>
      </trkpt>
      <trkpt lat="42.6754" lon="1.95349">
        <ele>1172.21</ele>
        <time>2017-08-14T14:47:37Z</time>
      </trkpt>
      <trkpt lat="42.67558" lon="1.95345">
        <ele>1171.3</ele>
        <time>2017-08-14T14:47:57Z</time>
      </trkpt>
      <trkpt lat="42.67578" lon="1.95339">
        <ele>1160.63</ele>
        <time>2017-08-14T14:48:10Z</time>
      </trkpt>
      <trkpt lat="42.67589" lon="1.95319">
        <ele>1155.69</ele>
        <time>2017-08-14T14:48:23Z</time>
      </trkpt>
      <trkpt lat="42.6759" lon="1.95294">
        <ele>1152.23</ele>
        <time>2017-08-14T14:48:39Z</time>
      </trkpt>
      <trkpt lat="42.67589" lon="1.95269">
        <ele>1147.01</ele>
        <time>2017-08-14T14:48:54Z</time>
      </trkpt>
      <trkpt lat="42.67604" lon="1.95251">
        <ele>1154.21</ele>
        <time>2017-08-14T14:49:09Z</time>
      </trkpt>
      <trkpt lat="42.67614" lon="1.95229">
        <ele>1156.97</ele>
        <time>2017-08-14T14:49:25Z</time>
      </trkpt>
      <trkpt lat="42.67626" lon="1.9521">
        <ele>1162.28</ele>
        <time>2017-08-14T14:49:39Z</time>
      </trkpt>
      <trkpt lat="42.67641" lon="1.95196">
        <ele>1158.78</ele>
        <time>2017-08-14T14:49:56Z</time>
      </trkpt>
      <trkpt lat="42.67658" lon="1.95188">
        <ele>1159.47</ele>
        <time>2017-08-14T14:50:11Z</time>
      </trkpt>
      <trkpt lat="42.67676" lon="1.95183">
        <ele>1154.71</ele>
        <time>2017-08-14T14:50:27Z</time>
      </trkpt>
      <trkpt lat="42.67693" lon="1.95168">
        <ele>1152.71</ele>
        <time>2017-08-14T14:50:47Z</time>
      </trkpt>
      <trkpt lat="42.67707" lon="1.95151">
        <ele>1154.14</ele>
        <time>2017-08-14T14:51:01Z</time>
      </trkpt>
      <trkpt lat="42.67724" lon="1.95143">
        <ele>1151.53</ele>
        <time>2017-08-14T14:51:16Z</time>
      </trkpt>
      <trkpt lat="42.6774" lon="1.9513">
        <ele>1147.65</ele>
        <time>2017-08-14T14:51:32Z</time>
      </trkpt>
      <trkpt lat="42.67752" lon="1.95111">
        <ele>1144.42</ele>
        <time>2017-08-14T14:51:48Z</time>
      </trkpt>
      <trkpt lat="42.6777" lon="1.95099">
        <ele>1140.57</ele>
        <time>2017-08-14T14:52:02Z</time>
      </trkpt>
      <trkpt lat="42.67776" lon="1.95075">
        <ele>1142.78</ele>
        <time>2017-08-14T14:52:17Z</time>
      </trkpt>
      <trkpt lat="42.67786" lon="1.95054">
        <ele>1140.49</ele>
        <time>2017-08-14T14:52:29Z</time>
      </trkpt>
      <trkpt lat="42.67796" lon="1.95033">
        <ele>1133.99</ele>
        <time>2017-08-14T14:52:45Z</time>
      </trkpt>
      <trkpt lat="42.67808" lon="1.95014">
        <ele>1128.92</ele>
        <time>2017-08-14T14:53:01Z</time>
      </trkpt>
      <trkpt lat="42.67827" lon="1.9501">
        <ele>1129.51</ele>
        <time>2017-08-14T14:53:15Z</time>
      </trkpt>
      <trkpt lat="42.67843" lon="1.94999">
        <ele>1124.69</ele>
        <time>2017-08-14T14:53:32Z</time>
      </trkpt>
      <trkpt lat="42.67858" lon="1.94982">
        <ele>1126.19</ele>
        <time>2017-08-14T14:53:49Z</time>
      </trkpt>
    </trkseg>
  </trk>
</gpx>